<?xml version="1.0" encoding="UTF-8" standalone="no" ?>
<gpx xmlns="http://www.topografix.com/GPX/1/1" xmlns:xsi="http://www.w3.org/2001/XMLSchema-instance" xsi:schemaLocation="http://www.topografix.com/GPX/1/1 http://www.topografix.com/GPX/1/1/gpx.xsd" version="1.1" creator="VisuGPX - https://www.visugpx.com">
  <metadata>
    <name>Le Rouret - La Colle/Loup - Villeneuve-Loubet - Biot - Sophia Antipolis - Le Rouret</name>
    <desc><![CDATA[Le Rouret - La Colle/Loup - Villeneuve-Loubet - Biot - Sophia Antipolis - Le Rouret]]></desc>
  </metadata>
  <trk>
    <name><![CDATA[Le Rouret trajet aller-retour_1]]></name>
    <extensions>
      <line xmlns="http://www.topografix.com/GPX/gpx_style/0/2">
        <color>0000FF</color>
        <width>4</width>
      </line>
    </extensions>
    <trkseg>
      <trkpt lat="43.67785" lon="7.01474">
        <ele>281.19</ele>
        <time>2024-12-01T10:00:34.749Z</time>
      </trkpt>
      <trkpt lat="43.67793" lon="7.01477">
        <ele>281.13</ele>
        <time>2024-12-01T10:00:36.755Z</time>
      </trkpt>
      <trkpt lat="43.67801" lon="7.01484">
        <ele>280.74</ele>
        <time>2024-12-01T10:00:38.757Z</time>
      </trkpt>
      <trkpt lat="43.67809" lon="7.01493">
        <ele>279.38</ele>
        <time>2024-12-01T10:00:40.763Z</time>
      </trkpt>
      <trkpt lat="43.67816" lon="7.01503">
        <ele>277.16998</ele>
        <time>2024-12-01T10:00:42.763Z</time>
      </trkpt>
      <trkpt lat="43.67822" lon="7.0151">
        <ele>277.55</ele>
        <time>2024-12-01T10:00:44.767Z</time>
      </trkpt>
      <trkpt lat="43.67827" lon="7.01516">
        <ele>278.24</ele>
        <time>2024-12-01T10:00:46.770Z</time>
      </trkpt>
      <trkpt lat="43.6783" lon="7.01524">
        <ele>276.9</ele>
        <time>2024-12-01T10:00:48.778Z</time>
      </trkpt>
      <trkpt lat="43.6783" lon="7.01535">
        <ele>276.95</ele>
        <time>2024-12-01T10:00:50.779Z</time>
      </trkpt>
      <trkpt lat="43.67831" lon="7.01547">
        <ele>277.15</ele>
        <time>2024-12-01T10:00:52.783Z</time>
      </trkpt>
      <trkpt lat="43.67831" lon="7.01557">
        <ele>277.19</ele>
        <time>2024-12-01T10:00:54.785Z</time>
      </trkpt>
      <trkpt lat="43.6783" lon="7.01564">
        <ele>277.34</ele>
        <time>2024-12-01T10:00:56.789Z</time>
      </trkpt>
      <trkpt lat="43.67831" lon="7.01571">
        <ele>277.39</ele>
        <time>2024-12-01T10:01:05.017Z</time>
      </trkpt>
      <trkpt lat="43.67833" lon="7.01579">
        <ele>277.64</ele>
        <time>2024-12-01T10:01:06.774Z</time>
      </trkpt>
      <trkpt lat="43.67834" lon="7.01589">
        <ele>277.66998</ele>
        <time>2024-12-01T10:01:09.041Z</time>
      </trkpt>
      <trkpt lat="43.67834" lon="7.01598">
        <ele>277.62</ele>
        <time>2024-12-01T10:01:10.157Z</time>
      </trkpt>
      <trkpt lat="43.67835" lon="7.01608">
        <ele>277.38</ele>
        <time>2024-12-01T10:01:13.078Z</time>
      </trkpt>
      <trkpt lat="43.67834" lon="7.01619">
        <ele>277.56</ele>
        <time>2024-12-01T10:01:15.073Z</time>
      </trkpt>
      <trkpt lat="43.67833" lon="7.01629">
        <ele>277.5</ele>
        <time>2024-12-01T10:01:16.174Z</time>
      </trkpt>
      <trkpt lat="43.67832" lon="7.01638">
        <ele>277.72998</ele>
        <time>2024-12-01T10:01:18.150Z</time>
      </trkpt>
      <trkpt lat="43.6783" lon="7.01648">
        <ele>277.7</ele>
        <time>2024-12-01T10:01:21.060Z</time>
      </trkpt>
      <trkpt lat="43.67826" lon="7.01658">
        <ele>277.7</ele>
        <time>2024-12-01T10:01:22.166Z</time>
      </trkpt>
      <trkpt lat="43.67825" lon="7.0167">
        <ele>277.71002</ele>
        <time>2024-12-01T10:01:24.166Z</time>
      </trkpt>
      <trkpt lat="43.67823" lon="7.01685">
        <ele>277.63</ele>
        <time>2024-12-01T10:01:26.183Z</time>
      </trkpt>
      <trkpt lat="43.67823" lon="7.017">
        <ele>277.8</ele>
        <time>2024-12-01T10:01:28.142Z</time>
      </trkpt>
      <trkpt lat="43.67825" lon="7.01716">
        <ele>277.9</ele>
        <time>2024-12-01T10:01:30.173Z</time>
      </trkpt>
      <trkpt lat="43.67827" lon="7.01731">
        <ele>277.86</ele>
        <time>2024-12-01T10:01:32.172Z</time>
      </trkpt>
      <trkpt lat="43.67829" lon="7.01744">
        <ele>277.84</ele>
        <time>2024-12-01T10:01:34.140Z</time>
      </trkpt>
      <trkpt lat="43.67831" lon="7.01759">
        <ele>277.91</ele>
        <time>2024-12-01T10:01:36.166Z</time>
      </trkpt>
      <trkpt lat="43.67833" lon="7.01773">
        <ele>277.82</ele>
        <time>2024-12-01T10:01:39.091Z</time>
      </trkpt>
      <trkpt lat="43.67835" lon="7.01788">
        <ele>277.82</ele>
        <time>2024-12-01T10:01:40.133Z</time>
      </trkpt>
      <trkpt lat="43.67838" lon="7.01803">
        <ele>277.72998</ele>
        <time>2024-12-01T10:01:42.159Z</time>
      </trkpt>
      <trkpt lat="43.6784" lon="7.01814">
        <ele>277.62</ele>
        <time>2024-12-01T10:01:45.004Z</time>
      </trkpt>
      <trkpt lat="43.67841" lon="7.01818">
        <ele>277.59</ele>
        <time>2024-12-01T10:01:46.159Z</time>
      </trkpt>
      <trkpt lat="43.67842" lon="7.01826">
        <ele>277.64</ele>
        <time>2024-12-01T10:01:49.107Z</time>
      </trkpt>
      <trkpt lat="43.67849" lon="7.01854">
        <ele>262.37</ele>
        <time>2024-12-01T10:04:42.012Z</time>
      </trkpt>
      <trkpt lat="43.67851" lon="7.0186">
        <ele>262.41</ele>
        <time>2024-12-01T10:04:44.018Z</time>
      </trkpt>
      <trkpt lat="43.67863" lon="7.01882">
        <ele>262.45</ele>
        <time>2024-12-01T10:04:48.001Z</time>
      </trkpt>
      <trkpt lat="43.67867" lon="7.01891">
        <ele>262.72</ele>
        <time>2024-12-01T10:04:50.445Z</time>
      </trkpt>
      <trkpt lat="43.67869" lon="7.01896">
        <ele>262.75</ele>
        <time>2024-12-01T10:04:52.441Z</time>
      </trkpt>
      <trkpt lat="43.67876" lon="7.01909">
        <ele>262.64</ele>
        <time>2024-12-01T10:04:54.447Z</time>
      </trkpt>
      <trkpt lat="43.67879" lon="7.01922">
        <ele>262.83002</ele>
        <time>2024-12-01T10:04:56.448Z</time>
      </trkpt>
      <trkpt lat="43.67884" lon="7.01934">
        <ele>263.05</ele>
        <time>2024-12-01T10:04:58.451Z</time>
      </trkpt>
      <trkpt lat="43.67885" lon="7.01938">
        <ele>263.14</ele>
        <time>2024-12-01T10:05:00.458Z</time>
      </trkpt>
      <trkpt lat="43.67896" lon="7.01959">
        <ele>263.24</ele>
        <time>2024-12-01T10:05:02.459Z</time>
      </trkpt>
      <trkpt lat="43.67904" lon="7.01976">
        <ele>263.35</ele>
        <time>2024-12-01T10:05:04.463Z</time>
      </trkpt>
      <trkpt lat="43.67912" lon="7.01994">
        <ele>263.5</ele>
        <time>2024-12-01T10:05:06.465Z</time>
      </trkpt>
      <trkpt lat="43.67919" lon="7.02009">
        <ele>263.64</ele>
        <time>2024-12-01T10:05:08.469Z</time>
      </trkpt>
      <trkpt lat="43.67925" lon="7.02022">
        <ele>263.9</ele>
        <time>2024-12-01T10:05:10.552Z</time>
      </trkpt>
      <trkpt lat="43.6793" lon="7.02033">
        <ele>263.97</ele>
        <time>2024-12-01T10:05:12.555Z</time>
      </trkpt>
      <trkpt lat="43.67934" lon="7.02042">
        <ele>264.3</ele>
        <time>2024-12-01T10:05:14.559Z</time>
      </trkpt>
      <trkpt lat="43.6794" lon="7.02055">
        <ele>264.07</ele>
        <time>2024-12-01T10:05:16.562Z</time>
      </trkpt>
      <trkpt lat="43.67947" lon="7.02068">
        <ele>263.59</ele>
        <time>2024-12-01T10:05:18.567Z</time>
      </trkpt>
      <trkpt lat="43.67956" lon="7.02081">
        <ele>263.78998</ele>
        <time>2024-12-01T10:05:20.568Z</time>
      </trkpt>
      <trkpt lat="43.67962" lon="7.0209">
        <ele>263.49</ele>
        <time>2024-12-01T10:05:22.571Z</time>
      </trkpt>
      <trkpt lat="43.67963" lon="7.02093">
        <ele>263.5</ele>
        <time>2024-12-01T10:05:24.576Z</time>
      </trkpt>
      <trkpt lat="43.67972" lon="7.02108">
        <ele>263.45</ele>
        <time>2024-12-01T10:05:26.577Z</time>
      </trkpt>
      <trkpt lat="43.67977" lon="7.02119">
        <ele>263.45</ele>
        <time>2024-12-01T10:05:28.581Z</time>
      </trkpt>
      <trkpt lat="43.67984" lon="7.02133">
        <ele>263.47998</ele>
        <time>2024-12-01T10:05:30.585Z</time>
      </trkpt>
      <trkpt lat="43.6799" lon="7.02145">
        <ele>263.4</ele>
        <time>2024-12-01T10:05:32.590Z</time>
      </trkpt>
      <trkpt lat="43.67999" lon="7.02158">
        <ele>263.44</ele>
        <time>2024-12-01T10:05:34.594Z</time>
      </trkpt>
      <trkpt lat="43.68007" lon="7.02172">
        <ele>263.46002</ele>
        <time>2024-12-01T10:05:36.597Z</time>
      </trkpt>
      <trkpt lat="43.68015" lon="7.02185">
        <ele>263.46002</ele>
        <time>2024-12-01T10:05:38.601Z</time>
      </trkpt>
      <trkpt lat="43.68024" lon="7.02194">
        <ele>263.41</ele>
        <time>2024-12-01T10:05:40.602Z</time>
      </trkpt>
      <trkpt lat="43.68033" lon="7.02201">
        <ele>263.44</ele>
        <time>2024-12-01T10:05:42.605Z</time>
      </trkpt>
      <trkpt lat="43.68045" lon="7.02209">
        <ele>263.45</ele>
        <time>2024-12-01T10:05:44.609Z</time>
      </trkpt>
      <trkpt lat="43.68055" lon="7.02217">
        <ele>263.16</ele>
        <time>2024-12-01T10:05:46.612Z</time>
      </trkpt>
      <trkpt lat="43.68064" lon="7.02227">
        <ele>262.45</ele>
        <time>2024-12-01T10:05:48.615Z</time>
      </trkpt>
      <trkpt lat="43.68074" lon="7.02234">
        <ele>262.5</ele>
        <time>2024-12-01T10:05:50.620Z</time>
      </trkpt>
      <trkpt lat="43.68082" lon="7.02239">
        <ele>262.71002</ele>
        <time>2024-12-01T10:05:52.619Z</time>
      </trkpt>
      <trkpt lat="43.68091" lon="7.02243">
        <ele>262.61</ele>
        <time>2024-12-01T10:05:54.150Z</time>
      </trkpt>
      <trkpt lat="43.68102" lon="7.0225">
        <ele>262.72</ele>
        <time>2024-12-01T10:05:56.628Z</time>
      </trkpt>
      <trkpt lat="43.68114" lon="7.02258">
        <ele>262.78</ele>
        <time>2024-12-01T10:05:58.156Z</time>
      </trkpt>
      <trkpt lat="43.68126" lon="7.02267">
        <ele>262.62</ele>
        <time>2024-12-01T10:06:00.634Z</time>
      </trkpt>
      <trkpt lat="43.68134" lon="7.02275">
        <ele>262.7</ele>
        <time>2024-12-01T10:06:02.118Z</time>
      </trkpt>
      <trkpt lat="43.68138" lon="7.02281">
        <ele>262.43</ele>
        <time>2024-12-01T10:06:04.641Z</time>
      </trkpt>
      <trkpt lat="43.68142" lon="7.02285">
        <ele>262.6</ele>
        <time>2024-12-01T10:06:06.642Z</time>
      </trkpt>
      <trkpt lat="43.68148" lon="7.0229">
        <ele>262.93</ele>
        <time>2024-12-01T10:06:08.646Z</time>
      </trkpt>
      <trkpt lat="43.68153" lon="7.02295">
        <ele>262.87</ele>
        <time>2024-12-01T10:06:10.650Z</time>
      </trkpt>
      <trkpt lat="43.68158" lon="7.02301">
        <ele>262.91998</ele>
        <time>2024-12-01T10:06:12.651Z</time>
      </trkpt>
      <trkpt lat="43.68164" lon="7.02307">
        <ele>262.91998</ele>
        <time>2024-12-01T10:06:14.655Z</time>
      </trkpt>
      <trkpt lat="43.68169" lon="7.02312">
        <ele>263.4</ele>
        <time>2024-12-01T10:06:16.658Z</time>
      </trkpt>
      <trkpt lat="43.6817" lon="7.02317">
        <ele>262.56</ele>
        <time>2024-12-01T10:06:18.661Z</time>
      </trkpt>
      <trkpt lat="43.68171" lon="7.02326">
        <ele>262.7</ele>
        <time>2024-12-01T10:06:20.664Z</time>
      </trkpt>
      <trkpt lat="43.68175" lon="7.02336">
        <ele>262.66</ele>
        <time>2024-12-01T10:06:22.672Z</time>
      </trkpt>
      <trkpt lat="43.6818" lon="7.02346">
        <ele>262.53</ele>
        <time>2024-12-01T10:06:24.672Z</time>
      </trkpt>
      <trkpt lat="43.68187" lon="7.02358">
        <ele>262.34</ele>
        <time>2024-12-01T10:06:26.674Z</time>
      </trkpt>
      <trkpt lat="43.68196" lon="7.02368">
        <ele>262.24</ele>
        <time>2024-12-01T10:06:28.679Z</time>
      </trkpt>
      <trkpt lat="43.68204" lon="7.02378">
        <ele>262.12</ele>
        <time>2024-12-01T10:06:30.682Z</time>
      </trkpt>
      <trkpt lat="43.68213" lon="7.02386">
        <ele>262.13</ele>
        <time>2024-12-01T10:06:32.687Z</time>
      </trkpt>
      <trkpt lat="43.68221" lon="7.02393">
        <ele>262.12</ele>
        <time>2024-12-01T10:06:34.691Z</time>
      </trkpt>
      <trkpt lat="43.68228" lon="7.024">
        <ele>262.03</ele>
        <time>2024-12-01T10:06:36.692Z</time>
      </trkpt>
      <trkpt lat="43.68235" lon="7.02401">
        <ele>262.12</ele>
        <time>2024-12-01T10:06:38.693Z</time>
      </trkpt>
      <trkpt lat="43.68241" lon="7.02399">
        <ele>261.91998</ele>
        <time>2024-12-01T10:06:40.696Z</time>
      </trkpt>
      <trkpt lat="43.68246" lon="7.02395">
        <ele>261.81</ele>
        <time>2024-12-01T10:06:42.702Z</time>
      </trkpt>
      <trkpt lat="43.68252" lon="7.02396">
        <ele>261.62</ele>
        <time>2024-12-01T10:06:44.705Z</time>
      </trkpt>
      <trkpt lat="43.68257" lon="7.02403">
        <ele>261.62</ele>
        <time>2024-12-01T10:06:46.707Z</time>
      </trkpt>
      <trkpt lat="43.68267" lon="7.02413">
        <ele>257.94</ele>
        <time>2024-12-01T10:06:48.711Z</time>
      </trkpt>
      <trkpt lat="43.68274" lon="7.02422">
        <ele>257.53998</ele>
        <time>2024-12-01T10:06:50.715Z</time>
      </trkpt>
      <trkpt lat="43.68279" lon="7.02429">
        <ele>257.16998</ele>
        <time>2024-12-01T10:06:52.717Z</time>
      </trkpt>
      <trkpt lat="43.68286" lon="7.02438">
        <ele>257.07</ele>
        <time>2024-12-01T10:06:54.723Z</time>
      </trkpt>
      <trkpt lat="43.68294" lon="7.02448">
        <ele>257.1</ele>
        <time>2024-12-01T10:06:56.723Z</time>
      </trkpt>
      <trkpt lat="43.68303" lon="7.02458">
        <ele>257.72998</ele>
        <time>2024-12-01T10:06:58.517Z</time>
      </trkpt>
      <trkpt lat="43.68309" lon="7.02467">
        <ele>257.46002</ele>
        <time>2024-12-01T10:07:00.734Z</time>
      </trkpt>
      <trkpt lat="43.68312" lon="7.02476">
        <ele>256.87</ele>
        <time>2024-12-01T10:07:02.733Z</time>
      </trkpt>
      <trkpt lat="43.6831" lon="7.02483">
        <ele>256.97998</ele>
        <time>2024-12-01T10:07:04.735Z</time>
      </trkpt>
      <trkpt lat="43.68307" lon="7.0249">
        <ele>255.96</ele>
        <time>2024-12-01T10:07:06.739Z</time>
      </trkpt>
      <trkpt lat="43.68303" lon="7.02501">
        <ele>255.95</ele>
        <time>2024-12-01T10:07:08.744Z</time>
      </trkpt>
      <trkpt lat="43.68299" lon="7.02516">
        <ele>255.95</ele>
        <time>2024-12-01T10:07:10.747Z</time>
      </trkpt>
      <trkpt lat="43.68293" lon="7.02533">
        <ele>255.85</ele>
        <time>2024-12-01T10:07:12.752Z</time>
      </trkpt>
      <trkpt lat="43.68285" lon="7.02548">
        <ele>256.22998</ele>
        <time>2024-12-01T10:07:14.754Z</time>
      </trkpt>
      <trkpt lat="43.68277" lon="7.02561">
        <ele>255.92</ele>
        <time>2024-12-01T10:07:16.758Z</time>
      </trkpt>
      <trkpt lat="43.68267" lon="7.02573">
        <ele>255.74</ele>
        <time>2024-12-01T10:07:18.761Z</time>
      </trkpt>
      <trkpt lat="43.68259" lon="7.02584">
        <ele>255.79</ele>
        <time>2024-12-01T10:07:20.763Z</time>
      </trkpt>
      <trkpt lat="43.68252" lon="7.02593">
        <ele>255.63</ele>
        <time>2024-12-01T10:07:22.768Z</time>
      </trkpt>
      <trkpt lat="43.68245" lon="7.02603">
        <ele>255.61</ele>
        <time>2024-12-01T10:07:24.768Z</time>
      </trkpt>
      <trkpt lat="43.6824" lon="7.02614">
        <ele>254.2</ele>
        <time>2024-12-01T10:07:26.774Z</time>
      </trkpt>
      <trkpt lat="43.68233" lon="7.02626">
        <ele>254.14</ele>
        <time>2024-12-01T10:07:28.779Z</time>
      </trkpt>
      <trkpt lat="43.68226" lon="7.02641">
        <ele>253.13</ele>
        <time>2024-12-01T10:07:30.779Z</time>
      </trkpt>
      <trkpt lat="43.6822" lon="7.02657">
        <ele>253.17</ele>
        <time>2024-12-01T10:07:32.781Z</time>
      </trkpt>
      <trkpt lat="43.68214" lon="7.02672">
        <ele>253.01</ele>
        <time>2024-12-01T10:07:34.789Z</time>
      </trkpt>
      <trkpt lat="43.68208" lon="7.02689">
        <ele>252.47</ele>
        <time>2024-12-01T10:07:36.787Z</time>
      </trkpt>
      <trkpt lat="43.68202" lon="7.02705">
        <ele>252.14</ele>
        <time>2024-12-01T10:07:38.791Z</time>
      </trkpt>
      <trkpt lat="43.68197" lon="7.0272">
        <ele>250.86</ele>
        <time>2024-12-01T10:07:40.797Z</time>
      </trkpt>
      <trkpt lat="43.68193" lon="7.02732">
        <ele>250.68</ele>
        <time>2024-12-01T10:07:42.799Z</time>
      </trkpt>
      <trkpt lat="43.68188" lon="7.02746">
        <ele>250.47</ele>
        <time>2024-12-01T10:07:44.800Z</time>
      </trkpt>
      <trkpt lat="43.68181" lon="7.02763">
        <ele>250.31</ele>
        <time>2024-12-01T10:07:46.806Z</time>
      </trkpt>
      <trkpt lat="43.68173" lon="7.02781">
        <ele>249.81</ele>
        <time>2024-12-01T10:07:48.808Z</time>
      </trkpt>
      <trkpt lat="43.68165" lon="7.028">
        <ele>249.26</ele>
        <time>2024-12-01T10:07:50.810Z</time>
      </trkpt>
      <trkpt lat="43.68157" lon="7.02818">
        <ele>249.96</ele>
        <time>2024-12-01T10:07:52.893Z</time>
      </trkpt>
      <trkpt lat="43.68149" lon="7.02837">
        <ele>249.4</ele>
        <time>2024-12-01T10:07:54.816Z</time>
      </trkpt>
      <trkpt lat="43.68141" lon="7.02855">
        <ele>249.48</ele>
        <time>2024-12-01T10:07:56.903Z</time>
      </trkpt>
      <trkpt lat="43.68132" lon="7.02873">
        <ele>248.88</ele>
        <time>2024-12-01T10:07:58.903Z</time>
      </trkpt>
      <trkpt lat="43.68126" lon="7.02887">
        <ele>248.32</ele>
        <time>2024-12-01T10:08:00.907Z</time>
      </trkpt>
      <trkpt lat="43.68116" lon="7.02907">
        <ele>247.71</ele>
        <time>2024-12-01T10:08:02.911Z</time>
      </trkpt>
      <trkpt lat="43.681" lon="7.02939">
        <ele>248.3</ele>
        <time>2024-12-01T10:08:04.913Z</time>
      </trkpt>
      <trkpt lat="43.68087" lon="7.0296">
        <ele>248.44</ele>
        <time>2024-12-01T10:08:06.919Z</time>
      </trkpt>
      <trkpt lat="43.68075" lon="7.02979">
        <ele>248.37</ele>
        <time>2024-12-01T10:08:08.920Z</time>
      </trkpt>
      <trkpt lat="43.68064" lon="7.02996">
        <ele>247.83</ele>
        <time>2024-12-01T10:08:10.923Z</time>
      </trkpt>
      <trkpt lat="43.68054" lon="7.03011">
        <ele>247.68</ele>
        <time>2024-12-01T10:08:12.924Z</time>
      </trkpt>
      <trkpt lat="43.68046" lon="7.03024">
        <ele>247.92</ele>
        <time>2024-12-01T10:08:14.929Z</time>
      </trkpt>
      <trkpt lat="43.68042" lon="7.03036">
        <ele>248.02</ele>
        <time>2024-12-01T10:08:16.931Z</time>
      </trkpt>
      <trkpt lat="43.68042" lon="7.0305">
        <ele>247.49</ele>
        <time>2024-12-01T10:08:18.937Z</time>
      </trkpt>
      <trkpt lat="43.68044" lon="7.03063">
        <ele>247.31</ele>
        <time>2024-12-01T10:08:20.940Z</time>
      </trkpt>
      <trkpt lat="43.68048" lon="7.03075">
        <ele>247.19</ele>
        <time>2024-12-01T10:08:22.943Z</time>
      </trkpt>
      <trkpt lat="43.68053" lon="7.03089">
        <ele>247.32</ele>
        <time>2024-12-01T10:08:24.947Z</time>
      </trkpt>
      <trkpt lat="43.68059" lon="7.03103">
        <ele>247.51</ele>
        <time>2024-12-01T10:08:26.948Z</time>
      </trkpt>
      <trkpt lat="43.68064" lon="7.03119">
        <ele>247.35</ele>
        <time>2024-12-01T10:08:28.950Z</time>
      </trkpt>
      <trkpt lat="43.68069" lon="7.03136">
        <ele>246.83</ele>
        <time>2024-12-01T10:08:30.956Z</time>
      </trkpt>
      <trkpt lat="43.68073" lon="7.03152">
        <ele>246.05</ele>
        <time>2024-12-01T10:08:32.957Z</time>
      </trkpt>
      <trkpt lat="43.68075" lon="7.03163">
        <ele>246.57</ele>
        <time>2024-12-01T10:08:34.960Z</time>
      </trkpt>
      <trkpt lat="43.68075" lon="7.03177">
        <ele>246.65</ele>
        <time>2024-12-01T10:08:36.965Z</time>
      </trkpt>
      <trkpt lat="43.68073" lon="7.0318">
        <ele>246.46</ele>
        <time>2024-12-01T10:08:41.135Z</time>
      </trkpt>
      <trkpt lat="43.6807" lon="7.03178">
        <ele>245.7</ele>
        <time>2024-12-01T10:08:45.498Z</time>
      </trkpt>
      <trkpt lat="43.68063" lon="7.03178">
        <ele>244.53</ele>
        <time>2024-12-01T10:08:47.499Z</time>
      </trkpt>
      <trkpt lat="43.68057" lon="7.0318">
        <ele>244.78</ele>
        <time>2024-12-01T10:08:49.503Z</time>
      </trkpt>
      <trkpt lat="43.68057" lon="7.03186">
        <ele>244.46</ele>
        <time>2024-12-01T10:08:51.512Z</time>
      </trkpt>
      <trkpt lat="43.6806" lon="7.03199">
        <ele>244.52</ele>
        <time>2024-12-01T10:08:53.509Z</time>
      </trkpt>
      <trkpt lat="43.68061" lon="7.03206">
        <ele>244.88</ele>
        <time>2024-12-01T10:09:07.833Z</time>
      </trkpt>
      <trkpt lat="43.68066" lon="7.03218">
        <ele>243.75</ele>
        <time>2024-12-01T10:09:11.984Z</time>
      </trkpt>
      <trkpt lat="43.68055" lon="7.03188">
        <ele>243.14</ele>
        <time>2024-12-01T10:09:16.608Z</time>
      </trkpt>
      <trkpt lat="43.68058" lon="7.03192">
        <ele>242.22</ele>
        <time>2024-12-01T10:09:20.736Z</time>
      </trkpt>
      <trkpt lat="43.68061" lon="7.0319">
        <ele>241.55</ele>
        <time>2024-12-01T10:09:27.543Z</time>
      </trkpt>
      <trkpt lat="43.68063" lon="7.03195">
        <ele>241.01</ele>
        <time>2024-12-01T10:09:38.345Z</time>
      </trkpt>
      <trkpt lat="43.68065" lon="7.03203">
        <ele>240.35</ele>
        <time>2024-12-01T10:09:40.347Z</time>
      </trkpt>
      <trkpt lat="43.68066" lon="7.03213">
        <ele>240.65</ele>
        <time>2024-12-01T10:09:42.351Z</time>
      </trkpt>
      <trkpt lat="43.68069" lon="7.03222">
        <ele>240.53</ele>
        <time>2024-12-01T10:09:44.357Z</time>
      </trkpt>
      <trkpt lat="43.68073" lon="7.0323">
        <ele>240.28</ele>
        <time>2024-12-01T10:09:46.358Z</time>
      </trkpt>
      <trkpt lat="43.68076" lon="7.03237">
        <ele>240.32</ele>
        <time>2024-12-01T10:09:48.361Z</time>
      </trkpt>
      <trkpt lat="43.68078" lon="7.03245">
        <ele>240.17</ele>
        <time>2024-12-01T10:09:50.367Z</time>
      </trkpt>
      <trkpt lat="43.68079" lon="7.03254">
        <ele>240</ele>
        <time>2024-12-01T10:09:52.368Z</time>
      </trkpt>
      <trkpt lat="43.68079" lon="7.03263">
        <ele>239.92</ele>
        <time>2024-12-01T10:09:54.370Z</time>
      </trkpt>
      <trkpt lat="43.68079" lon="7.03271">
        <ele>239.04</ele>
        <time>2024-12-01T10:09:56.377Z</time>
      </trkpt>
      <trkpt lat="43.68079" lon="7.0328">
        <ele>238.81</ele>
        <time>2024-12-01T10:09:58.378Z</time>
      </trkpt>
      <trkpt lat="43.68079" lon="7.0329">
        <ele>238.92</ele>
        <time>2024-12-01T10:10:00.383Z</time>
      </trkpt>
      <trkpt lat="43.68079" lon="7.03301">
        <ele>238.61</ele>
        <time>2024-12-01T10:10:02.384Z</time>
      </trkpt>
      <trkpt lat="43.68079" lon="7.03311">
        <ele>238.58</ele>
        <time>2024-12-01T10:10:04.021Z</time>
      </trkpt>
      <trkpt lat="43.6808" lon="7.0332">
        <ele>238.33</ele>
        <time>2024-12-01T10:10:06.390Z</time>
      </trkpt>
      <trkpt lat="43.6808" lon="7.03329">
        <ele>238.21</ele>
        <time>2024-12-01T10:10:07.998Z</time>
      </trkpt>
      <trkpt lat="43.68081" lon="7.03338">
        <ele>238.38</ele>
        <time>2024-12-01T10:10:10.398Z</time>
      </trkpt>
      <trkpt lat="43.6808" lon="7.03348">
        <ele>238.47</ele>
        <time>2024-12-01T10:10:12.055Z</time>
      </trkpt>
      <trkpt lat="43.68079" lon="7.0336">
        <ele>238.53</ele>
        <time>2024-12-01T10:10:14.405Z</time>
      </trkpt>
      <trkpt lat="43.68078" lon="7.0337">
        <ele>238.57</ele>
        <time>2024-12-01T10:10:16.407Z</time>
      </trkpt>
      <trkpt lat="43.68077" lon="7.03382">
        <ele>238.53</ele>
        <time>2024-12-01T10:10:18.409Z</time>
      </trkpt>
      <trkpt lat="43.68076" lon="7.03393">
        <ele>238.63</ele>
        <time>2024-12-01T10:10:20.413Z</time>
      </trkpt>
      <trkpt lat="43.68074" lon="7.03404">
        <ele>238.07</ele>
        <time>2024-12-01T10:10:22.420Z</time>
      </trkpt>
      <trkpt lat="43.68071" lon="7.03414">
        <ele>238.43</ele>
        <time>2024-12-01T10:10:24.419Z</time>
      </trkpt>
      <trkpt lat="43.68067" lon="7.03426">
        <ele>238.43</ele>
        <time>2024-12-01T10:10:26.423Z</time>
      </trkpt>
      <trkpt lat="43.6806" lon="7.03438">
        <ele>238.37</ele>
        <time>2024-12-01T10:10:28.426Z</time>
      </trkpt>
      <trkpt lat="43.68055" lon="7.03449">
        <ele>238.38</ele>
        <time>2024-12-01T10:10:30.429Z</time>
      </trkpt>
      <trkpt lat="43.68051" lon="7.03458">
        <ele>238.3</ele>
        <time>2024-12-01T10:10:32.434Z</time>
      </trkpt>
      <trkpt lat="43.68044" lon="7.03466">
        <ele>237.81</ele>
        <time>2024-12-01T10:10:34.435Z</time>
      </trkpt>
      <trkpt lat="43.68039" lon="7.03472">
        <ele>237.47</ele>
        <time>2024-12-01T10:10:36.441Z</time>
      </trkpt>
      <trkpt lat="43.68034" lon="7.03476">
        <ele>237.33</ele>
        <time>2024-12-01T10:10:38.443Z</time>
      </trkpt>
      <trkpt lat="43.68029" lon="7.03474">
        <ele>237.13</ele>
        <time>2024-12-01T10:11:03.904Z</time>
      </trkpt>
      <trkpt lat="43.67997" lon="7.03494">
        <ele>236.84</ele>
        <time>2024-12-01T10:11:14.489Z</time>
      </trkpt>
      <trkpt lat="43.67995" lon="7.03503">
        <ele>236.55</ele>
        <time>2024-12-01T10:11:16.489Z</time>
      </trkpt>
      <trkpt lat="43.67992" lon="7.03518">
        <ele>236.61</ele>
        <time>2024-12-01T10:11:18.498Z</time>
      </trkpt>
      <trkpt lat="43.67988" lon="7.03535">
        <ele>236.51</ele>
        <time>2024-12-01T10:11:20.471Z</time>
      </trkpt>
      <trkpt lat="43.67983" lon="7.03549">
        <ele>235.81</ele>
        <time>2024-12-01T10:11:22.506Z</time>
      </trkpt>
      <trkpt lat="43.67978" lon="7.03564">
        <ele>235.5</ele>
        <time>2024-12-01T10:11:24.507Z</time>
      </trkpt>
      <trkpt lat="43.67973" lon="7.03578">
        <ele>235.14</ele>
        <time>2024-12-01T10:11:26.509Z</time>
      </trkpt>
      <trkpt lat="43.6797" lon="7.03591">
        <ele>235.02</ele>
        <time>2024-12-01T10:11:28.528Z</time>
      </trkpt>
      <trkpt lat="43.67966" lon="7.03605">
        <ele>234.71</ele>
        <time>2024-12-01T10:11:30.519Z</time>
      </trkpt>
      <trkpt lat="43.67961" lon="7.03621">
        <ele>233.95</ele>
        <time>2024-12-01T10:11:32.520Z</time>
      </trkpt>
      <trkpt lat="43.67955" lon="7.03637">
        <ele>233.89</ele>
        <time>2024-12-01T10:11:34.522Z</time>
      </trkpt>
      <trkpt lat="43.67949" lon="7.03653">
        <ele>233.6</ele>
        <time>2024-12-01T10:11:36.525Z</time>
      </trkpt>
      <trkpt lat="43.67944" lon="7.03668">
        <ele>233.32</ele>
        <time>2024-12-01T10:11:38.528Z</time>
      </trkpt>
      <trkpt lat="43.67939" lon="7.03681">
        <ele>233.07</ele>
        <time>2024-12-01T10:11:40.535Z</time>
      </trkpt>
      <trkpt lat="43.67934" lon="7.03693">
        <ele>232.6</ele>
        <time>2024-12-01T10:11:42.535Z</time>
      </trkpt>
      <trkpt lat="43.67929" lon="7.03707">
        <ele>232.71</ele>
        <time>2024-12-01T10:11:44.541Z</time>
      </trkpt>
      <trkpt lat="43.67924" lon="7.03721">
        <ele>232.54</ele>
        <time>2024-12-01T10:11:46.542Z</time>
      </trkpt>
      <trkpt lat="43.6792" lon="7.03737">
        <ele>232.41</ele>
        <time>2024-12-01T10:11:48.547Z</time>
      </trkpt>
      <trkpt lat="43.67915" lon="7.03753">
        <ele>232.17</ele>
        <time>2024-12-01T10:11:50.550Z</time>
      </trkpt>
      <trkpt lat="43.67912" lon="7.03768">
        <ele>232.05</ele>
        <time>2024-12-01T10:11:52.554Z</time>
      </trkpt>
      <trkpt lat="43.67907" lon="7.03786">
        <ele>231.82</ele>
        <time>2024-12-01T10:11:54.558Z</time>
      </trkpt>
      <trkpt lat="43.67903" lon="7.03803">
        <ele>231.62</ele>
        <time>2024-12-01T10:11:56.562Z</time>
      </trkpt>
      <trkpt lat="43.67898" lon="7.03821">
        <ele>231.52</ele>
        <time>2024-12-01T10:11:58.562Z</time>
      </trkpt>
      <trkpt lat="43.67893" lon="7.03837">
        <ele>231.13</ele>
        <time>2024-12-01T10:12:00.568Z</time>
      </trkpt>
      <trkpt lat="43.67888" lon="7.03854">
        <ele>230.53</ele>
        <time>2024-12-01T10:12:02.569Z</time>
      </trkpt>
      <trkpt lat="43.67883" lon="7.0387">
        <ele>230.27</ele>
        <time>2024-12-01T10:12:04.574Z</time>
      </trkpt>
      <trkpt lat="43.67878" lon="7.03886">
        <ele>230.12</ele>
        <time>2024-12-01T10:12:06.576Z</time>
      </trkpt>
      <trkpt lat="43.67872" lon="7.03902">
        <ele>229.97</ele>
        <time>2024-12-01T10:12:08.580Z</time>
      </trkpt>
      <trkpt lat="43.67867" lon="7.03917">
        <ele>229.63</ele>
        <time>2024-12-01T10:12:10.583Z</time>
      </trkpt>
      <trkpt lat="43.67862" lon="7.03931">
        <ele>229.14</ele>
        <time>2024-12-01T10:12:12.588Z</time>
      </trkpt>
      <trkpt lat="43.67857" lon="7.03944">
        <ele>229.02</ele>
        <time>2024-12-01T10:12:14.593Z</time>
      </trkpt>
      <trkpt lat="43.67852" lon="7.03958">
        <ele>228.41</ele>
        <time>2024-12-01T10:12:16.594Z</time>
      </trkpt>
      <trkpt lat="43.67847" lon="7.03971">
        <ele>227.74</ele>
        <time>2024-12-01T10:12:18.597Z</time>
      </trkpt>
      <trkpt lat="43.67842" lon="7.03985">
        <ele>227.81</ele>
        <time>2024-12-01T10:12:20.605Z</time>
      </trkpt>
      <trkpt lat="43.67836" lon="7.03999">
        <ele>227.3</ele>
        <time>2024-12-01T10:12:22.605Z</time>
      </trkpt>
      <trkpt lat="43.67832" lon="7.04013">
        <ele>227.31</ele>
        <time>2024-12-01T10:12:24.606Z</time>
      </trkpt>
      <trkpt lat="43.67827" lon="7.04027">
        <ele>227.26</ele>
        <time>2024-12-01T10:12:26.614Z</time>
      </trkpt>
      <trkpt lat="43.67822" lon="7.04039">
        <ele>226.74</ele>
        <time>2024-12-01T10:12:28.614Z</time>
      </trkpt>
      <trkpt lat="43.67818" lon="7.04051">
        <ele>226.4</ele>
        <time>2024-12-01T10:12:30.156Z</time>
      </trkpt>
      <trkpt lat="43.67815" lon="7.04063">
        <ele>225.99</ele>
        <time>2024-12-01T10:12:32.622Z</time>
      </trkpt>
      <trkpt lat="43.67812" lon="7.04076">
        <ele>225.56</ele>
        <time>2024-12-01T10:12:34.625Z</time>
      </trkpt>
      <trkpt lat="43.6781" lon="7.0409">
        <ele>225.62</ele>
        <time>2024-12-01T10:12:36.626Z</time>
      </trkpt>
      <trkpt lat="43.67809" lon="7.04104">
        <ele>225.56</ele>
        <time>2024-12-01T10:12:38.632Z</time>
      </trkpt>
      <trkpt lat="43.67807" lon="7.04121">
        <ele>225.62</ele>
        <time>2024-12-01T10:12:40.635Z</time>
      </trkpt>
      <trkpt lat="43.67806" lon="7.04135">
        <ele>225.53</ele>
        <time>2024-12-01T10:12:42.636Z</time>
      </trkpt>
      <trkpt lat="43.67804" lon="7.04151">
        <ele>225.32</ele>
        <time>2024-12-01T10:12:44.639Z</time>
      </trkpt>
      <trkpt lat="43.67803" lon="7.04167">
        <ele>224.93</ele>
        <time>2024-12-01T10:12:46.647Z</time>
      </trkpt>
      <trkpt lat="43.67802" lon="7.04186">
        <ele>224.65</ele>
        <time>2024-12-01T10:12:48.647Z</time>
      </trkpt>
      <trkpt lat="43.67803" lon="7.04198">
        <ele>224.54</ele>
        <time>2024-12-01T10:12:50.650Z</time>
      </trkpt>
      <trkpt lat="43.67806" lon="7.04208">
        <ele>225.18</ele>
        <time>2024-12-01T10:12:52.654Z</time>
      </trkpt>
      <trkpt lat="43.67812" lon="7.04222">
        <ele>224.88</ele>
        <time>2024-12-01T10:12:55.700Z</time>
      </trkpt>
      <trkpt lat="43.67816" lon="7.04227">
        <ele>224.37</ele>
        <time>2024-12-01T10:12:57.702Z</time>
      </trkpt>
      <trkpt lat="43.67822" lon="7.04234">
        <ele>224.12</ele>
        <time>2024-12-01T10:12:59.705Z</time>
      </trkpt>
      <trkpt lat="43.67827" lon="7.04239">
        <ele>224.04</ele>
        <time>2024-12-01T10:13:01.709Z</time>
      </trkpt>
      <trkpt lat="43.67833" lon="7.04244">
        <ele>223.85</ele>
        <time>2024-12-01T10:13:03.712Z</time>
      </trkpt>
      <trkpt lat="43.67841" lon="7.0425">
        <ele>223.43</ele>
        <time>2024-12-01T10:13:05.714Z</time>
      </trkpt>
      <trkpt lat="43.67852" lon="7.04258">
        <ele>223.22</ele>
        <time>2024-12-01T10:13:07.718Z</time>
      </trkpt>
      <trkpt lat="43.67861" lon="7.04267">
        <ele>223.55</ele>
        <time>2024-12-01T10:13:09.724Z</time>
      </trkpt>
      <trkpt lat="43.67871" lon="7.04282">
        <ele>223.28</ele>
        <time>2024-12-01T10:13:11.725Z</time>
      </trkpt>
      <trkpt lat="43.67882" lon="7.04301">
        <ele>223.07</ele>
        <time>2024-12-01T10:13:13.730Z</time>
      </trkpt>
      <trkpt lat="43.67891" lon="7.04323">
        <ele>222.75</ele>
        <time>2024-12-01T10:13:15.730Z</time>
      </trkpt>
      <trkpt lat="43.67892" lon="7.04342">
        <ele>222.53</ele>
        <time>2024-12-01T10:13:17.740Z</time>
      </trkpt>
      <trkpt lat="43.67886" lon="7.0436">
        <ele>222.27</ele>
        <time>2024-12-01T10:13:19.739Z</time>
      </trkpt>
      <trkpt lat="43.67878" lon="7.04377">
        <ele>222.01</ele>
        <time>2024-12-01T10:13:21.290Z</time>
      </trkpt>
      <trkpt lat="43.67864" lon="7.04402">
        <ele>221.99</ele>
        <time>2024-12-01T10:13:24.708Z</time>
      </trkpt>
      <trkpt lat="43.67859" lon="7.04412">
        <ele>221.94</ele>
        <time>2024-12-01T10:13:26.320Z</time>
      </trkpt>
      <trkpt lat="43.67854" lon="7.04424">
        <ele>221.51</ele>
        <time>2024-12-01T10:13:28.714Z</time>
      </trkpt>
      <trkpt lat="43.67849" lon="7.04437">
        <ele>221.27</ele>
        <time>2024-12-01T10:13:30.322Z</time>
      </trkpt>
      <trkpt lat="43.67844" lon="7.04453">
        <ele>220.6</ele>
        <time>2024-12-01T10:13:32.305Z</time>
      </trkpt>
      <trkpt lat="43.67839" lon="7.04469">
        <ele>220.36</ele>
        <time>2024-12-01T10:13:34.282Z</time>
      </trkpt>
      <trkpt lat="43.67835" lon="7.04489">
        <ele>220.16</ele>
        <time>2024-12-01T10:13:36.293Z</time>
      </trkpt>
      <trkpt lat="43.67832" lon="7.0451">
        <ele>219.94</ele>
        <time>2024-12-01T10:13:38.291Z</time>
      </trkpt>
      <trkpt lat="43.67831" lon="7.04531">
        <ele>219.65</ele>
        <time>2024-12-01T10:13:40.322Z</time>
      </trkpt>
      <trkpt lat="43.67831" lon="7.0455">
        <ele>219.53</ele>
        <time>2024-12-01T10:13:42.737Z</time>
      </trkpt>
      <trkpt lat="43.67833" lon="7.04572">
        <ele>219.2</ele>
        <time>2024-12-01T10:13:44.313Z</time>
      </trkpt>
      <trkpt lat="43.67836" lon="7.0459">
        <ele>219</ele>
        <time>2024-12-01T10:13:46.742Z</time>
      </trkpt>
      <trkpt lat="43.67842" lon="7.04608">
        <ele>219.38</ele>
        <time>2024-12-01T10:13:48.327Z</time>
      </trkpt>
      <trkpt lat="43.67849" lon="7.04627">
        <ele>218.88</ele>
        <time>2024-12-01T10:13:50.315Z</time>
      </trkpt>
      <trkpt lat="43.67854" lon="7.04649">
        <ele>218.51</ele>
        <time>2024-12-01T10:13:52.806Z</time>
      </trkpt>
      <trkpt lat="43.67857" lon="7.04666">
        <ele>217.64</ele>
        <time>2024-12-01T10:13:54.757Z</time>
      </trkpt>
      <trkpt lat="43.67857" lon="7.0468">
        <ele>216.93</ele>
        <time>2024-12-01T10:13:56.807Z</time>
      </trkpt>
      <trkpt lat="43.67858" lon="7.04693">
        <ele>216.51</ele>
        <time>2024-12-01T10:13:58.762Z</time>
      </trkpt>
      <trkpt lat="43.67858" lon="7.04707">
        <ele>216.16</ele>
        <time>2024-12-01T10:14:00.766Z</time>
      </trkpt>
      <trkpt lat="43.6786" lon="7.04721">
        <ele>215.62</ele>
        <time>2024-12-01T10:14:02.770Z</time>
      </trkpt>
      <trkpt lat="43.67868" lon="7.04744">
        <ele>215.75</ele>
        <time>2024-12-01T10:14:05.322Z</time>
      </trkpt>
      <trkpt lat="43.67873" lon="7.04756">
        <ele>215.35</ele>
        <time>2024-12-01T10:14:07.817Z</time>
      </trkpt>
      <trkpt lat="43.67879" lon="7.04767">
        <ele>214.9</ele>
        <time>2024-12-01T10:14:09.822Z</time>
      </trkpt>
      <trkpt lat="43.67884" lon="7.0478">
        <ele>214.68</ele>
        <time>2024-12-01T10:14:11.826Z</time>
      </trkpt>
      <trkpt lat="43.67891" lon="7.04793">
        <ele>214.05</ele>
        <time>2024-12-01T10:14:13.831Z</time>
      </trkpt>
      <trkpt lat="43.67898" lon="7.04804">
        <ele>213.86</ele>
        <time>2024-12-01T10:14:15.831Z</time>
      </trkpt>
      <trkpt lat="43.67905" lon="7.04816">
        <ele>213.22</ele>
        <time>2024-12-01T10:14:17.839Z</time>
      </trkpt>
      <trkpt lat="43.67912" lon="7.04826">
        <ele>212.9</ele>
        <time>2024-12-01T10:14:19.838Z</time>
      </trkpt>
      <trkpt lat="43.6792" lon="7.04835">
        <ele>212.63</ele>
        <time>2024-12-01T10:14:21.842Z</time>
      </trkpt>
      <trkpt lat="43.67927" lon="7.04842">
        <ele>212.29</ele>
        <time>2024-12-01T10:14:23.846Z</time>
      </trkpt>
      <trkpt lat="43.67936" lon="7.04849">
        <ele>212.48</ele>
        <time>2024-12-01T10:14:25.849Z</time>
      </trkpt>
      <trkpt lat="43.67944" lon="7.0486">
        <ele>212.12</ele>
        <time>2024-12-01T10:14:27.851Z</time>
      </trkpt>
      <trkpt lat="43.67952" lon="7.04873">
        <ele>211.81</ele>
        <time>2024-12-01T10:14:29.857Z</time>
      </trkpt>
      <trkpt lat="43.6796" lon="7.04885">
        <ele>211.2</ele>
        <time>2024-12-01T10:14:31.858Z</time>
      </trkpt>
      <trkpt lat="43.67966" lon="7.04896">
        <ele>210.82</ele>
        <time>2024-12-01T10:14:33.862Z</time>
      </trkpt>
      <trkpt lat="43.67971" lon="7.04906">
        <ele>210.45</ele>
        <time>2024-12-01T10:14:35.865Z</time>
      </trkpt>
      <trkpt lat="43.67979" lon="7.04919">
        <ele>209.94</ele>
        <time>2024-12-01T10:14:37.869Z</time>
      </trkpt>
      <trkpt lat="43.67986" lon="7.04934">
        <ele>209.64</ele>
        <time>2024-12-01T10:14:39.870Z</time>
      </trkpt>
      <trkpt lat="43.67992" lon="7.04952">
        <ele>209.31</ele>
        <time>2024-12-01T10:14:41.875Z</time>
      </trkpt>
      <trkpt lat="43.67995" lon="7.04968">
        <ele>209.3</ele>
        <time>2024-12-01T10:14:43.882Z</time>
      </trkpt>
      <trkpt lat="43.68" lon="7.04987">
        <ele>208.93</ele>
        <time>2024-12-01T10:14:45.881Z</time>
      </trkpt>
      <trkpt lat="43.68002" lon="7.05">
        <ele>208.68</ele>
        <time>2024-12-01T10:14:47.885Z</time>
      </trkpt>
      <trkpt lat="43.68007" lon="7.05029">
        <ele>208.33</ele>
        <time>2024-12-01T10:14:49.890Z</time>
      </trkpt>
      <trkpt lat="43.68011" lon="7.05055">
        <ele>208.08</ele>
        <time>2024-12-01T10:14:51.892Z</time>
      </trkpt>
      <trkpt lat="43.68016" lon="7.05076">
        <ele>207.78</ele>
        <time>2024-12-01T10:14:53.896Z</time>
      </trkpt>
      <trkpt lat="43.68021" lon="7.05097">
        <ele>207.57</ele>
        <time>2024-12-01T10:14:55.899Z</time>
      </trkpt>
      <trkpt lat="43.68027" lon="7.05115">
        <ele>206.92</ele>
        <time>2024-12-01T10:14:57.902Z</time>
      </trkpt>
      <trkpt lat="43.68033" lon="7.0513">
        <ele>204.51001</ele>
        <time>2024-12-01T10:14:59.831Z</time>
      </trkpt>
      <trkpt lat="43.68039" lon="7.05141">
        <ele>205.6</ele>
        <time>2024-12-01T10:15:01.915Z</time>
      </trkpt>
      <trkpt lat="43.68046" lon="7.0515">
        <ele>206.45999</ele>
        <time>2024-12-01T10:15:03.911Z</time>
      </trkpt>
      <trkpt lat="43.68054" lon="7.05157">
        <ele>206.45999</ele>
        <time>2024-12-01T10:15:05.914Z</time>
      </trkpt>
      <trkpt lat="43.68062" lon="7.05163">
        <ele>204.92</ele>
        <time>2024-12-01T10:15:07.917Z</time>
      </trkpt>
      <trkpt lat="43.68071" lon="7.05168">
        <ele>202.37</ele>
        <time>2024-12-01T10:15:09.532Z</time>
      </trkpt>
      <trkpt lat="43.68081" lon="7.05173">
        <ele>202.95999</ele>
        <time>2024-12-01T10:15:11.467Z</time>
      </trkpt>
      <trkpt lat="43.68092" lon="7.0518">
        <ele>204.11</ele>
        <time>2024-12-01T10:15:13.933Z</time>
      </trkpt>
      <trkpt lat="43.68102" lon="7.05187">
        <ele>204.9</ele>
        <time>2024-12-01T10:15:15.933Z</time>
      </trkpt>
      <trkpt lat="43.68111" lon="7.05194">
        <ele>205.20999</ele>
        <time>2024-12-01T10:15:17.935Z</time>
      </trkpt>
      <trkpt lat="43.68121" lon="7.05203">
        <ele>204.79001</ele>
        <time>2024-12-01T10:15:19.939Z</time>
      </trkpt>
      <trkpt lat="43.6813" lon="7.05213">
        <ele>203.07</ele>
        <time>2024-12-01T10:15:21.943Z</time>
      </trkpt>
      <trkpt lat="43.68139" lon="7.05222">
        <ele>202.51999</ele>
        <time>2024-12-01T10:15:23.945Z</time>
      </trkpt>
      <trkpt lat="43.68146" lon="7.05232">
        <ele>202.43</ele>
        <time>2024-12-01T10:15:25.950Z</time>
      </trkpt>
      <trkpt lat="43.68152" lon="7.05241">
        <ele>202.54001</ele>
        <time>2024-12-01T10:15:27.956Z</time>
      </trkpt>
      <trkpt lat="43.68159" lon="7.05249">
        <ele>202.36</ele>
        <time>2024-12-01T10:15:29.957Z</time>
      </trkpt>
      <trkpt lat="43.68165" lon="7.05257">
        <ele>202.19</ele>
        <time>2024-12-01T10:15:31.960Z</time>
      </trkpt>
      <trkpt lat="43.68171" lon="7.05265">
        <ele>201.98999</ele>
        <time>2024-12-01T10:15:33.963Z</time>
      </trkpt>
      <trkpt lat="43.68177" lon="7.05273">
        <ele>202.05</ele>
        <time>2024-12-01T10:15:35.965Z</time>
      </trkpt>
      <trkpt lat="43.68186" lon="7.05284">
        <ele>202.01001</ele>
        <time>2024-12-01T10:15:37.971Z</time>
      </trkpt>
      <trkpt lat="43.68196" lon="7.05296">
        <ele>201.8</ele>
        <time>2024-12-01T10:15:39.973Z</time>
      </trkpt>
      <trkpt lat="43.68206" lon="7.05309">
        <ele>201.79001</ele>
        <time>2024-12-01T10:15:41.977Z</time>
      </trkpt>
      <trkpt lat="43.68216" lon="7.05322">
        <ele>201.55</ele>
        <time>2024-12-01T10:15:43.980Z</time>
      </trkpt>
      <trkpt lat="43.68225" lon="7.05339">
        <ele>201.01001</ele>
        <time>2024-12-01T10:15:45.072Z</time>
      </trkpt>
      <trkpt lat="43.68235" lon="7.05357">
        <ele>200.94</ele>
        <time>2024-12-01T10:15:47.986Z</time>
      </trkpt>
      <trkpt lat="43.68244" lon="7.05378">
        <ele>200.73999</ele>
        <time>2024-12-01T10:15:49.990Z</time>
      </trkpt>
      <trkpt lat="43.68248" lon="7.05396">
        <ele>200.47</ele>
        <time>2024-12-01T10:15:51.995Z</time>
      </trkpt>
      <trkpt lat="43.68249" lon="7.05413">
        <ele>200.18</ele>
        <time>2024-12-01T10:15:53.997Z</time>
      </trkpt>
      <trkpt lat="43.68249" lon="7.05429">
        <ele>200.12</ele>
        <time>2024-12-01T10:15:56.002Z</time>
      </trkpt>
      <trkpt lat="43.68251" lon="7.05446">
        <ele>199.70999</ele>
        <time>2024-12-01T10:15:58.007Z</time>
      </trkpt>
      <trkpt lat="43.68257" lon="7.05467">
        <ele>199.59</ele>
        <time>2024-12-01T10:16:00.007Z</time>
      </trkpt>
      <trkpt lat="43.68261" lon="7.05485">
        <ele>199.45999</ele>
        <time>2024-12-01T10:16:02.013Z</time>
      </trkpt>
      <trkpt lat="43.68266" lon="7.05507">
        <ele>198.92</ele>
        <time>2024-12-01T10:16:04.017Z</time>
      </trkpt>
      <trkpt lat="43.68272" lon="7.05528">
        <ele>198.7</ele>
        <time>2024-12-01T10:16:06.099Z</time>
      </trkpt>
      <trkpt lat="43.68277" lon="7.05553">
        <ele>198.29001</ele>
        <time>2024-12-01T10:16:08.022Z</time>
      </trkpt>
      <trkpt lat="43.68282" lon="7.05576">
        <ele>198</ele>
        <time>2024-12-01T10:16:10.032Z</time>
      </trkpt>
      <trkpt lat="43.6829" lon="7.056">
        <ele>197.86</ele>
        <time>2024-12-01T10:16:12.108Z</time>
      </trkpt>
      <trkpt lat="43.68298" lon="7.0562">
        <ele>197.42</ele>
        <time>2024-12-01T10:16:14.032Z</time>
      </trkpt>
      <trkpt lat="43.68307" lon="7.05635">
        <ele>196.98001</ele>
        <time>2024-12-01T10:16:16.037Z</time>
      </trkpt>
      <trkpt lat="43.68315" lon="7.05648">
        <ele>196.73001</ele>
        <time>2024-12-01T10:16:18.038Z</time>
      </trkpt>
      <trkpt lat="43.68324" lon="7.05661">
        <ele>196.20999</ele>
        <time>2024-12-01T10:16:20.042Z</time>
      </trkpt>
      <trkpt lat="43.68337" lon="7.05676">
        <ele>196.42</ele>
        <time>2024-12-01T10:16:22.047Z</time>
      </trkpt>
      <trkpt lat="43.68348" lon="7.05694">
        <ele>196.01001</ele>
        <time>2024-12-01T10:16:24.048Z</time>
      </trkpt>
      <trkpt lat="43.6835" lon="7.05713">
        <ele>195.28</ele>
        <time>2024-12-01T10:16:26.053Z</time>
      </trkpt>
      <trkpt lat="43.68348" lon="7.05731">
        <ele>194.87</ele>
        <time>2024-12-01T10:16:28.059Z</time>
      </trkpt>
      <trkpt lat="43.68345" lon="7.05751">
        <ele>194.56</ele>
        <time>2024-12-01T10:16:30.060Z</time>
      </trkpt>
      <trkpt lat="43.68341" lon="7.05768">
        <ele>193.98999</ele>
        <time>2024-12-01T10:16:32.062Z</time>
      </trkpt>
      <trkpt lat="43.68334" lon="7.05785">
        <ele>193.45999</ele>
        <time>2024-12-01T10:16:34.066Z</time>
      </trkpt>
      <trkpt lat="43.68327" lon="7.058">
        <ele>192.84</ele>
        <time>2024-12-01T10:16:36.069Z</time>
      </trkpt>
      <trkpt lat="43.68322" lon="7.05813">
        <ele>192.47</ele>
        <time>2024-12-01T10:16:37.190Z</time>
      </trkpt>
      <trkpt lat="43.68321" lon="7.05828">
        <ele>192.12</ele>
        <time>2024-12-01T10:16:39.175Z</time>
      </trkpt>
      <trkpt lat="43.68323" lon="7.05845">
        <ele>191.93</ele>
        <time>2024-12-01T10:16:41.164Z</time>
      </trkpt>
      <trkpt lat="43.68329" lon="7.05866">
        <ele>191.31</ele>
        <time>2024-12-01T10:16:43.182Z</time>
      </trkpt>
      <trkpt lat="43.68338" lon="7.05887">
        <ele>190.97</ele>
        <time>2024-12-01T10:16:45.172Z</time>
      </trkpt>
      <trkpt lat="43.68347" lon="7.05909">
        <ele>190.34</ele>
        <time>2024-12-01T10:16:47.190Z</time>
      </trkpt>
      <trkpt lat="43.68356" lon="7.05927">
        <ele>189.42</ele>
        <time>2024-12-01T10:16:49.189Z</time>
      </trkpt>
      <trkpt lat="43.68365" lon="7.05945">
        <ele>188.85</ele>
        <time>2024-12-01T10:16:51.201Z</time>
      </trkpt>
      <trkpt lat="43.68374" lon="7.05961">
        <ele>188.3</ele>
        <time>2024-12-01T10:16:53.193Z</time>
      </trkpt>
      <trkpt lat="43.68383" lon="7.05979">
        <ele>187.51999</ele>
        <time>2024-12-01T10:16:55.142Z</time>
      </trkpt>
      <trkpt lat="43.68393" lon="7.05995">
        <ele>186.56</ele>
        <time>2024-12-01T10:16:57.185Z</time>
      </trkpt>
      <trkpt lat="43.68404" lon="7.06012">
        <ele>185.66</ele>
        <time>2024-12-01T10:16:59.188Z</time>
      </trkpt>
      <trkpt lat="43.68416" lon="7.0603">
        <ele>184.47</ele>
        <time>2024-12-01T10:17:01.151Z</time>
      </trkpt>
      <trkpt lat="43.68425" lon="7.06052">
        <ele>183.25</ele>
        <time>2024-12-01T10:17:03.190Z</time>
      </trkpt>
      <trkpt lat="43.68432" lon="7.06074">
        <ele>182.76999</ele>
        <time>2024-12-01T10:17:05.160Z</time>
      </trkpt>
      <trkpt lat="43.68437" lon="7.06096">
        <ele>182.06</ele>
        <time>2024-12-01T10:17:07.164Z</time>
      </trkpt>
      <trkpt lat="43.6844" lon="7.06116">
        <ele>181.18</ele>
        <time>2024-12-01T10:17:09.167Z</time>
      </trkpt>
      <trkpt lat="43.68443" lon="7.06136">
        <ele>180.29001</ele>
        <time>2024-12-01T10:17:11.171Z</time>
      </trkpt>
      <trkpt lat="43.68446" lon="7.06155">
        <ele>178.83</ele>
        <time>2024-12-01T10:17:13.171Z</time>
      </trkpt>
      <trkpt lat="43.68449" lon="7.06174">
        <ele>177.76001</ele>
        <time>2024-12-01T10:17:14.785Z</time>
      </trkpt>
      <trkpt lat="43.68453" lon="7.06195">
        <ele>176.44</ele>
        <time>2024-12-01T10:17:16.763Z</time>
      </trkpt>
      <trkpt lat="43.68457" lon="7.06218">
        <ele>175.48001</ele>
        <time>2024-12-01T10:17:18.746Z</time>
      </trkpt>
      <trkpt lat="43.68462" lon="7.06239">
        <ele>174.1</ele>
        <time>2024-12-01T10:17:21.186Z</time>
      </trkpt>
      <trkpt lat="43.68468" lon="7.06261">
        <ele>172.37</ele>
        <time>2024-12-01T10:17:22.748Z</time>
      </trkpt>
      <trkpt lat="43.68475" lon="7.06282">
        <ele>171.17</ele>
        <time>2024-12-01T10:17:25.190Z</time>
      </trkpt>
      <trkpt lat="43.68481" lon="7.06302">
        <ele>169.88</ele>
        <time>2024-12-01T10:17:27.196Z</time>
      </trkpt>
      <trkpt lat="43.6849" lon="7.06324">
        <ele>168.92</ele>
        <time>2024-12-01T10:17:28.765Z</time>
      </trkpt>
      <trkpt lat="43.68501" lon="7.06348">
        <ele>167.84</ele>
        <time>2024-12-01T10:17:31.201Z</time>
      </trkpt>
      <trkpt lat="43.68518" lon="7.06382">
        <ele>166.48999</ele>
        <time>2024-12-01T10:17:33.207Z</time>
      </trkpt>
      <trkpt lat="43.68535" lon="7.06413">
        <ele>164.78</ele>
        <time>2024-12-01T10:17:35.207Z</time>
      </trkpt>
      <trkpt lat="43.68547" lon="7.06434">
        <ele>163.63</ele>
        <time>2024-12-01T10:17:37.211Z</time>
      </trkpt>
      <trkpt lat="43.68559" lon="7.06453">
        <ele>162.36</ele>
        <time>2024-12-01T10:17:39.214Z</time>
      </trkpt>
      <trkpt lat="43.6857" lon="7.0647">
        <ele>160.91</ele>
        <time>2024-12-01T10:17:40.777Z</time>
      </trkpt>
      <trkpt lat="43.68581" lon="7.06484">
        <ele>159.38</ele>
        <time>2024-12-01T10:17:43.219Z</time>
      </trkpt>
      <trkpt lat="43.68594" lon="7.06494">
        <ele>157.98999</ele>
        <time>2024-12-01T10:17:44.776Z</time>
      </trkpt>
      <trkpt lat="43.68608" lon="7.06503">
        <ele>156.84</ele>
        <time>2024-12-01T10:17:47.239Z</time>
      </trkpt>
      <trkpt lat="43.68623" lon="7.06514">
        <ele>156.48999</ele>
        <time>2024-12-01T10:17:48.792Z</time>
      </trkpt>
      <trkpt lat="43.68638" lon="7.0653">
        <ele>154.86</ele>
        <time>2024-12-01T10:17:51.250Z</time>
      </trkpt>
      <trkpt lat="43.68649" lon="7.06546">
        <ele>151.97</ele>
        <time>2024-12-01T10:17:53.236Z</time>
      </trkpt>
      <trkpt lat="43.68657" lon="7.06559">
        <ele>150.48999</ele>
        <time>2024-12-01T10:17:55.241Z</time>
      </trkpt>
      <trkpt lat="43.68665" lon="7.06569">
        <ele>149.47</ele>
        <time>2024-12-01T10:17:56.796Z</time>
      </trkpt>
      <trkpt lat="43.68678" lon="7.0658">
        <ele>148.45</ele>
        <time>2024-12-01T10:17:59.247Z</time>
      </trkpt>
      <trkpt lat="43.68692" lon="7.06594">
        <ele>146.69</ele>
        <time>2024-12-01T10:18:01.253Z</time>
      </trkpt>
      <trkpt lat="43.68702" lon="7.06611">
        <ele>144.86</ele>
        <time>2024-12-01T10:18:03.251Z</time>
      </trkpt>
      <trkpt lat="43.68708" lon="7.06628">
        <ele>143.32</ele>
        <time>2024-12-01T10:18:05.256Z</time>
      </trkpt>
      <trkpt lat="43.68714" lon="7.06647">
        <ele>141.19</ele>
        <time>2024-12-01T10:18:07.261Z</time>
      </trkpt>
      <trkpt lat="43.68721" lon="7.06666">
        <ele>140.14</ele>
        <time>2024-12-01T10:18:09.262Z</time>
      </trkpt>
      <trkpt lat="43.68731" lon="7.06684">
        <ele>138.98</ele>
        <time>2024-12-01T10:18:11.267Z</time>
      </trkpt>
      <trkpt lat="43.68741" lon="7.06701">
        <ele>138.4</ele>
        <time>2024-12-01T10:18:13.270Z</time>
      </trkpt>
      <trkpt lat="43.68752" lon="7.06718">
        <ele>137.49</ele>
        <time>2024-12-01T10:18:15.274Z</time>
      </trkpt>
      <trkpt lat="43.68761" lon="7.06735">
        <ele>135.94</ele>
        <time>2024-12-01T10:18:17.277Z</time>
      </trkpt>
      <trkpt lat="43.68768" lon="7.06753">
        <ele>135.12</ele>
        <time>2024-12-01T10:18:19.280Z</time>
      </trkpt>
      <trkpt lat="43.68773" lon="7.0677">
        <ele>134.07</ele>
        <time>2024-12-01T10:18:21.284Z</time>
      </trkpt>
      <trkpt lat="43.68779" lon="7.06783">
        <ele>132.98</ele>
        <time>2024-12-01T10:18:23.286Z</time>
      </trkpt>
      <trkpt lat="43.68787" lon="7.06786">
        <ele>131.48</ele>
        <time>2024-12-01T10:18:25.289Z</time>
      </trkpt>
      <trkpt lat="43.68797" lon="7.0678">
        <ele>129.32</ele>
        <time>2024-12-01T10:18:27.293Z</time>
      </trkpt>
      <trkpt lat="43.68809" lon="7.06778">
        <ele>127.990005</ele>
        <time>2024-12-01T10:18:29.296Z</time>
      </trkpt>
      <trkpt lat="43.68821" lon="7.06784">
        <ele>126.979996</ele>
        <time>2024-12-01T10:18:31.301Z</time>
      </trkpt>
      <trkpt lat="43.68826" lon="7.06793">
        <ele>125.35</ele>
        <time>2024-12-01T10:18:33.301Z</time>
      </trkpt>
      <trkpt lat="43.68827" lon="7.06805">
        <ele>124.67</ele>
        <time>2024-12-01T10:18:34.422Z</time>
      </trkpt>
      <trkpt lat="43.68825" lon="7.06825">
        <ele>123.380005</ele>
        <time>2024-12-01T10:18:37.311Z</time>
      </trkpt>
      <trkpt lat="43.68822" lon="7.06846">
        <ele>122.4</ele>
        <time>2024-12-01T10:18:38.418Z</time>
      </trkpt>
      <trkpt lat="43.6882" lon="7.06869">
        <ele>121.06</ele>
        <time>2024-12-01T10:18:41.317Z</time>
      </trkpt>
      <trkpt lat="43.68819" lon="7.06888">
        <ele>120.130005</ele>
        <time>2024-12-01T10:18:42.434Z</time>
      </trkpt>
      <trkpt lat="43.68816" lon="7.06905">
        <ele>118.65</ele>
        <time>2024-12-01T10:18:44.410Z</time>
      </trkpt>
      <trkpt lat="43.68811" lon="7.06921">
        <ele>117.31</ele>
        <time>2024-12-01T10:18:46.425Z</time>
      </trkpt>
      <trkpt lat="43.68806" lon="7.06938">
        <ele>116.1</ele>
        <time>2024-12-01T10:18:48.422Z</time>
      </trkpt>
      <trkpt lat="43.688" lon="7.06956">
        <ele>114.770004</ele>
        <time>2024-12-01T10:18:50.446Z</time>
      </trkpt>
      <trkpt lat="43.68797" lon="7.06975">
        <ele>113.84</ele>
        <time>2024-12-01T10:18:52.426Z</time>
      </trkpt>
      <trkpt lat="43.68795" lon="7.06993">
        <ele>113.35</ele>
        <time>2024-12-01T10:18:55.413Z</time>
      </trkpt>
      <trkpt lat="43.68788" lon="7.07013">
        <ele>112.42</ele>
        <time>2024-12-01T10:18:56.440Z</time>
      </trkpt>
      <trkpt lat="43.68777" lon="7.07027">
        <ele>111.33</ele>
        <time>2024-12-01T10:18:58.972Z</time>
      </trkpt>
      <trkpt lat="43.68766" lon="7.07036">
        <ele>108.62</ele>
        <time>2024-12-01T10:19:00.460Z</time>
      </trkpt>
      <trkpt lat="43.68755" lon="7.07042">
        <ele>107.58</ele>
        <time>2024-12-01T10:19:02.446Z</time>
      </trkpt>
      <trkpt lat="43.68744" lon="7.07047">
        <ele>106.57</ele>
        <time>2024-12-01T10:19:05.445Z</time>
      </trkpt>
      <trkpt lat="43.68733" lon="7.07052">
        <ele>105.3</ele>
        <time>2024-12-01T10:19:07.410Z</time>
      </trkpt>
      <trkpt lat="43.68721" lon="7.07055">
        <ele>104.05</ele>
        <time>2024-12-01T10:19:09.437Z</time>
      </trkpt>
      <trkpt lat="43.68708" lon="7.07059">
        <ele>103.37</ele>
        <time>2024-12-01T10:19:10.456Z</time>
      </trkpt>
      <trkpt lat="43.68697" lon="7.07063">
        <ele>102.270004</ele>
        <time>2024-12-01T10:19:13.449Z</time>
      </trkpt>
      <trkpt lat="43.68686" lon="7.07066">
        <ele>101.37</ele>
        <time>2024-12-01T10:19:14.463Z</time>
      </trkpt>
      <trkpt lat="43.68674" lon="7.07071">
        <ele>101.1</ele>
        <time>2024-12-01T10:19:16.972Z</time>
      </trkpt>
      <trkpt lat="43.68659" lon="7.07078">
        <ele>100.67</ele>
        <time>2024-12-01T10:19:18.470Z</time>
      </trkpt>
      <trkpt lat="43.68645" lon="7.07084">
        <ele>99.83</ele>
        <time>2024-12-01T10:19:20.466Z</time>
      </trkpt>
      <trkpt lat="43.6863" lon="7.0709">
        <ele>98.51</ele>
        <time>2024-12-01T10:19:22.493Z</time>
      </trkpt>
      <trkpt lat="43.68614" lon="7.07097">
        <ele>97.45</ele>
        <time>2024-12-01T10:19:24.486Z</time>
      </trkpt>
      <trkpt lat="43.68596" lon="7.07102">
        <ele>96.03</ele>
        <time>2024-12-01T10:19:27.480Z</time>
      </trkpt>
      <trkpt lat="43.68579" lon="7.07106">
        <ele>94.4</ele>
        <time>2024-12-01T10:19:29.473Z</time>
      </trkpt>
      <trkpt lat="43.68562" lon="7.07108">
        <ele>93.729996</ele>
        <time>2024-12-01T10:19:31.483Z</time>
      </trkpt>
      <trkpt lat="43.68544" lon="7.07114">
        <ele>92.15</ele>
        <time>2024-12-01T10:19:33.489Z</time>
      </trkpt>
      <trkpt lat="43.68527" lon="7.07124">
        <ele>91.01</ele>
        <time>2024-12-01T10:19:35.065Z</time>
      </trkpt>
      <trkpt lat="43.6851" lon="7.07134">
        <ele>89.32</ele>
        <time>2024-12-01T10:19:37.485Z</time>
      </trkpt>
      <trkpt lat="43.68494" lon="7.07149">
        <ele>88.2</ele>
        <time>2024-12-01T10:19:39.497Z</time>
      </trkpt>
      <trkpt lat="43.68486" lon="7.07158">
        <ele>87.35</ele>
        <time>2024-12-01T10:19:41.138Z</time>
      </trkpt>
      <trkpt lat="43.68469" lon="7.07178">
        <ele>86.27</ele>
        <time>2024-12-01T10:19:43.494Z</time>
      </trkpt>
      <trkpt lat="43.68457" lon="7.07196">
        <ele>84.48</ele>
        <time>2024-12-01T10:19:45.506Z</time>
      </trkpt>
      <trkpt lat="43.68428" lon="7.07243">
        <ele>83.05</ele>
        <time>2024-12-01T10:19:47.483Z</time>
      </trkpt>
      <trkpt lat="43.68414" lon="7.0727">
        <ele>81.78</ele>
        <time>2024-12-01T10:19:49.510Z</time>
      </trkpt>
      <trkpt lat="43.68404" lon="7.0729">
        <ele>80.17</ele>
        <time>2024-12-01T10:19:51.522Z</time>
      </trkpt>
      <trkpt lat="43.68394" lon="7.07307">
        <ele>78.7</ele>
        <time>2024-12-01T10:19:53.510Z</time>
      </trkpt>
      <trkpt lat="43.68384" lon="7.0732">
        <ele>76.88</ele>
        <time>2024-12-01T10:19:55.106Z</time>
      </trkpt>
      <trkpt lat="43.68372" lon="7.07329">
        <ele>75.25</ele>
        <time>2024-12-01T10:19:57.520Z</time>
      </trkpt>
      <trkpt lat="43.68359" lon="7.07339">
        <ele>74.34</ele>
        <time>2024-12-01T10:19:59.077Z</time>
      </trkpt>
      <trkpt lat="43.68347" lon="7.07354">
        <ele>73.25</ele>
        <time>2024-12-01T10:20:01.073Z</time>
      </trkpt>
      <trkpt lat="43.68337" lon="7.07372">
        <ele>72.28</ele>
        <time>2024-12-01T10:20:03.529Z</time>
      </trkpt>
      <trkpt lat="43.68331" lon="7.0739">
        <ele>70.56</ele>
        <time>2024-12-01T10:20:05.220Z</time>
      </trkpt>
      <trkpt lat="43.68324" lon="7.07405">
        <ele>69.18</ele>
        <time>2024-12-01T10:20:07.537Z</time>
      </trkpt>
      <trkpt lat="43.68319" lon="7.07421">
        <ele>67.97</ele>
        <time>2024-12-01T10:20:09.536Z</time>
      </trkpt>
      <trkpt lat="43.68314" lon="7.07437">
        <ele>67.03</ele>
        <time>2024-12-01T10:20:11.543Z</time>
      </trkpt>
      <trkpt lat="43.68306" lon="7.07452">
        <ele>65.87</ele>
        <time>2024-12-01T10:20:13.544Z</time>
      </trkpt>
      <trkpt lat="43.68296" lon="7.07467">
        <ele>64.25</ele>
        <time>2024-12-01T10:20:15.546Z</time>
      </trkpt>
      <trkpt lat="43.68285" lon="7.0748">
        <ele>63.1</ele>
        <time>2024-12-01T10:20:17.549Z</time>
      </trkpt>
      <trkpt lat="43.68276" lon="7.07492">
        <ele>62.629997</ele>
        <time>2024-12-01T10:20:19.555Z</time>
      </trkpt>
      <trkpt lat="43.68269" lon="7.07505">
        <ele>61.53</ele>
        <time>2024-12-01T10:20:21.557Z</time>
      </trkpt>
      <trkpt lat="43.68264" lon="7.07517">
        <ele>59.059998</ele>
        <time>2024-12-01T10:20:23.559Z</time>
      </trkpt>
      <trkpt lat="43.68259" lon="7.07527">
        <ele>58.97</ele>
        <time>2024-12-01T10:20:25.563Z</time>
      </trkpt>
      <trkpt lat="43.68254" lon="7.07538">
        <ele>58.53</ele>
        <time>2024-12-01T10:20:27.564Z</time>
      </trkpt>
      <trkpt lat="43.68248" lon="7.07549">
        <ele>58.86</ele>
        <time>2024-12-01T10:20:29.568Z</time>
      </trkpt>
      <trkpt lat="43.68243" lon="7.07562">
        <ele>57.25</ele>
        <time>2024-12-01T10:20:31.573Z</time>
      </trkpt>
      <trkpt lat="43.68237" lon="7.07575">
        <ele>55.35</ele>
        <time>2024-12-01T10:20:33.575Z</time>
      </trkpt>
      <trkpt lat="43.6823" lon="7.07589">
        <ele>53.9</ele>
        <time>2024-12-01T10:20:35.578Z</time>
      </trkpt>
      <trkpt lat="43.68223" lon="7.07602">
        <ele>52.47</ele>
        <time>2024-12-01T10:20:37.586Z</time>
      </trkpt>
      <trkpt lat="43.68215" lon="7.07615">
        <ele>50.65</ele>
        <time>2024-12-01T10:20:39.585Z</time>
      </trkpt>
      <trkpt lat="43.68206" lon="7.07628">
        <ele>48.27</ele>
        <time>2024-12-01T10:20:41.587Z</time>
      </trkpt>
      <trkpt lat="43.68193" lon="7.07644">
        <ele>45.17</ele>
        <time>2024-12-01T10:20:43.591Z</time>
      </trkpt>
      <trkpt lat="43.6818" lon="7.0766">
        <ele>42.25</ele>
        <time>2024-12-01T10:20:45.592Z</time>
      </trkpt>
      <trkpt lat="43.68169" lon="7.07671">
        <ele>38.47</ele>
        <time>2024-12-01T10:20:47.597Z</time>
      </trkpt>
      <trkpt lat="43.68159" lon="7.07679">
        <ele>39.04</ele>
        <time>2024-12-01T10:20:49.601Z</time>
      </trkpt>
      <trkpt lat="43.6815" lon="7.07686">
        <ele>41.79</ele>
        <time>2024-12-01T10:20:51.604Z</time>
      </trkpt>
      <trkpt lat="43.6814" lon="7.07695">
        <ele>44.14</ele>
        <time>2024-12-01T10:20:53.607Z</time>
      </trkpt>
      <trkpt lat="43.68129" lon="7.07704">
        <ele>46.06</ele>
        <time>2024-12-01T10:20:55.612Z</time>
      </trkpt>
      <trkpt lat="43.68117" lon="7.07714">
        <ele>46.89</ele>
        <time>2024-12-01T10:20:57.614Z</time>
      </trkpt>
      <trkpt lat="43.68106" lon="7.07725">
        <ele>47.26</ele>
        <time>2024-12-01T10:20:59.614Z</time>
      </trkpt>
      <trkpt lat="43.68095" lon="7.07739">
        <ele>47.52</ele>
        <time>2024-12-01T10:21:01.619Z</time>
      </trkpt>
      <trkpt lat="43.68086" lon="7.07758">
        <ele>47.7</ele>
        <time>2024-12-01T10:21:03.622Z</time>
      </trkpt>
      <trkpt lat="43.68076" lon="7.07779">
        <ele>47.35</ele>
        <time>2024-12-01T10:21:05.628Z</time>
      </trkpt>
      <trkpt lat="43.68068" lon="7.07798">
        <ele>47.35</ele>
        <time>2024-12-01T10:21:07.627Z</time>
      </trkpt>
      <trkpt lat="43.6806" lon="7.07819">
        <ele>47.38</ele>
        <time>2024-12-01T10:21:09.632Z</time>
      </trkpt>
      <trkpt lat="43.68053" lon="7.07835">
        <ele>47.42</ele>
        <time>2024-12-01T10:21:11.635Z</time>
      </trkpt>
      <trkpt lat="43.68047" lon="7.07849">
        <ele>47.35</ele>
        <time>2024-12-01T10:21:13.638Z</time>
      </trkpt>
      <trkpt lat="43.6804" lon="7.07864">
        <ele>47.31</ele>
        <time>2024-12-01T10:21:15.542Z</time>
      </trkpt>
      <trkpt lat="43.68032" lon="7.0788">
        <ele>47.33</ele>
        <time>2024-12-01T10:21:17.650Z</time>
      </trkpt>
      <trkpt lat="43.68025" lon="7.07896">
        <ele>47.14</ele>
        <time>2024-12-01T10:21:19.551Z</time>
      </trkpt>
      <trkpt lat="43.68018" lon="7.07912">
        <ele>47.16</ele>
        <time>2024-12-01T10:21:21.651Z</time>
      </trkpt>
      <trkpt lat="43.68011" lon="7.07928">
        <ele>45.88</ele>
        <time>2024-12-01T10:21:23.657Z</time>
      </trkpt>
      <trkpt lat="43.68007" lon="7.07945">
        <ele>45.57</ele>
        <time>2024-12-01T10:21:25.656Z</time>
      </trkpt>
      <trkpt lat="43.68006" lon="7.07963">
        <ele>45.5</ele>
        <time>2024-12-01T10:21:27.659Z</time>
      </trkpt>
      <trkpt lat="43.68007" lon="7.0798">
        <ele>44.23</ele>
        <time>2024-12-01T10:21:29.662Z</time>
      </trkpt>
      <trkpt lat="43.68008" lon="7.07999">
        <ele>44.67</ele>
        <time>2024-12-01T10:21:31.642Z</time>
      </trkpt>
      <trkpt lat="43.6801" lon="7.08016">
        <ele>45.57</ele>
        <time>2024-12-01T10:21:33.670Z</time>
      </trkpt>
      <trkpt lat="43.68013" lon="7.08033">
        <ele>45.46</ele>
        <time>2024-12-01T10:21:35.685Z</time>
      </trkpt>
      <trkpt lat="43.68015" lon="7.08051">
        <ele>44.35</ele>
        <time>2024-12-01T10:21:37.675Z</time>
      </trkpt>
      <trkpt lat="43.68015" lon="7.08068">
        <ele>44.36</ele>
        <time>2024-12-01T10:21:39.682Z</time>
      </trkpt>
      <trkpt lat="43.68016" lon="7.08084">
        <ele>43.74</ele>
        <time>2024-12-01T10:21:41.682Z</time>
      </trkpt>
      <trkpt lat="43.68016" lon="7.08099">
        <ele>44.12</ele>
        <time>2024-12-01T10:21:43.684Z</time>
      </trkpt>
      <trkpt lat="43.68015" lon="7.08115">
        <ele>44.86</ele>
        <time>2024-12-01T10:21:45.687Z</time>
      </trkpt>
      <trkpt lat="43.68013" lon="7.08131">
        <ele>45.41</ele>
        <time>2024-12-01T10:21:47.691Z</time>
      </trkpt>
      <trkpt lat="43.68012" lon="7.08147">
        <ele>46.04</ele>
        <time>2024-12-01T10:21:49.546Z</time>
      </trkpt>
      <trkpt lat="43.68011" lon="7.08163">
        <ele>46.65</ele>
        <time>2024-12-01T10:21:51.697Z</time>
      </trkpt>
      <trkpt lat="43.68012" lon="7.08178">
        <ele>46.94</ele>
        <time>2024-12-01T10:21:53.704Z</time>
      </trkpt>
      <trkpt lat="43.68015" lon="7.08192">
        <ele>46.99</ele>
        <time>2024-12-01T10:21:55.706Z</time>
      </trkpt>
      <trkpt lat="43.68017" lon="7.08208">
        <ele>46.85</ele>
        <time>2024-12-01T10:21:57.709Z</time>
      </trkpt>
      <trkpt lat="43.68019" lon="7.08225">
        <ele>47.12</ele>
        <time>2024-12-01T10:21:59.710Z</time>
      </trkpt>
      <trkpt lat="43.68023" lon="7.0824">
        <ele>46.38</ele>
        <time>2024-12-01T10:22:01.714Z</time>
      </trkpt>
      <trkpt lat="43.68028" lon="7.08254">
        <ele>47.05</ele>
        <time>2024-12-01T10:22:03.720Z</time>
      </trkpt>
      <trkpt lat="43.68032" lon="7.08267">
        <ele>46.97</ele>
        <time>2024-12-01T10:22:05.720Z</time>
      </trkpt>
      <trkpt lat="43.68039" lon="7.08279">
        <ele>46.84</ele>
        <time>2024-12-01T10:22:07.722Z</time>
      </trkpt>
      <trkpt lat="43.68047" lon="7.08289">
        <ele>46.8</ele>
        <time>2024-12-01T10:22:09.727Z</time>
      </trkpt>
      <trkpt lat="43.68055" lon="7.08296">
        <ele>46.77</ele>
        <time>2024-12-01T10:22:11.727Z</time>
      </trkpt>
      <trkpt lat="43.68063" lon="7.08303">
        <ele>46.81</ele>
        <time>2024-12-01T10:22:13.733Z</time>
      </trkpt>
      <trkpt lat="43.68072" lon="7.08308">
        <ele>46.74</ele>
        <time>2024-12-01T10:22:15.738Z</time>
      </trkpt>
      <trkpt lat="43.68083" lon="7.08314">
        <ele>46.57</ele>
        <time>2024-12-01T10:22:17.742Z</time>
      </trkpt>
      <trkpt lat="43.68096" lon="7.08319">
        <ele>46.62</ele>
        <time>2024-12-01T10:22:19.743Z</time>
      </trkpt>
      <trkpt lat="43.68111" lon="7.08324">
        <ele>46.59</ele>
        <time>2024-12-01T10:22:21.745Z</time>
      </trkpt>
      <trkpt lat="43.68122" lon="7.08328">
        <ele>46.48</ele>
        <time>2024-12-01T10:22:23.751Z</time>
      </trkpt>
      <trkpt lat="43.68134" lon="7.08333">
        <ele>46.41</ele>
        <time>2024-12-01T10:22:25.753Z</time>
      </trkpt>
      <trkpt lat="43.68145" lon="7.08339">
        <ele>46.21</ele>
        <time>2024-12-01T10:22:27.757Z</time>
      </trkpt>
      <trkpt lat="43.68158" lon="7.08347">
        <ele>44.57</ele>
        <time>2024-12-01T10:22:29.759Z</time>
      </trkpt>
      <trkpt lat="43.68169" lon="7.08357">
        <ele>44.41</ele>
        <time>2024-12-01T10:22:31.761Z</time>
      </trkpt>
      <trkpt lat="43.6818" lon="7.0837">
        <ele>44.85</ele>
        <time>2024-12-01T10:22:33.793Z</time>
      </trkpt>
      <trkpt lat="43.6819" lon="7.08382">
        <ele>44.54</ele>
        <time>2024-12-01T10:22:35.769Z</time>
      </trkpt>
      <trkpt lat="43.68203" lon="7.08401">
        <ele>44.47</ele>
        <time>2024-12-01T10:22:37.772Z</time>
      </trkpt>
      <trkpt lat="43.68218" lon="7.08427">
        <ele>43.43</ele>
        <time>2024-12-01T10:22:39.773Z</time>
      </trkpt>
      <trkpt lat="43.68224" lon="7.08442">
        <ele>42.98</ele>
        <time>2024-12-01T10:22:41.784Z</time>
      </trkpt>
      <trkpt lat="43.68234" lon="7.08469">
        <ele>43.77</ele>
        <time>2024-12-01T10:22:43.783Z</time>
      </trkpt>
      <trkpt lat="43.68238" lon="7.08491">
        <ele>43.53</ele>
        <time>2024-12-01T10:22:45.785Z</time>
      </trkpt>
      <trkpt lat="43.68239" lon="7.08511">
        <ele>41.56</ele>
        <time>2024-12-01T10:22:47.690Z</time>
      </trkpt>
      <trkpt lat="43.68237" lon="7.0853">
        <ele>42.01</ele>
        <time>2024-12-01T10:22:49.792Z</time>
      </trkpt>
      <trkpt lat="43.68235" lon="7.08546">
        <ele>42.81</ele>
        <time>2024-12-01T10:22:51.794Z</time>
      </trkpt>
      <trkpt lat="43.68233" lon="7.08562">
        <ele>43.39</ele>
        <time>2024-12-01T10:22:53.799Z</time>
      </trkpt>
      <trkpt lat="43.68232" lon="7.08578">
        <ele>43.91</ele>
        <time>2024-12-01T10:22:55.801Z</time>
      </trkpt>
      <trkpt lat="43.68232" lon="7.08593">
        <ele>44.3</ele>
        <time>2024-12-01T10:22:57.804Z</time>
      </trkpt>
      <trkpt lat="43.68236" lon="7.08608">
        <ele>44.49</ele>
        <time>2024-12-01T10:22:59.807Z</time>
      </trkpt>
      <trkpt lat="43.68243" lon="7.08621">
        <ele>45.67</ele>
        <time>2024-12-01T10:23:01.811Z</time>
      </trkpt>
      <trkpt lat="43.68251" lon="7.08632">
        <ele>45.73</ele>
        <time>2024-12-01T10:23:03.857Z</time>
      </trkpt>
      <trkpt lat="43.68262" lon="7.08645">
        <ele>45.75</ele>
        <time>2024-12-01T10:23:05.817Z</time>
      </trkpt>
      <trkpt lat="43.68274" lon="7.0866">
        <ele>45.47</ele>
        <time>2024-12-01T10:23:07.862Z</time>
      </trkpt>
      <trkpt lat="43.68285" lon="7.08675">
        <ele>45.36</ele>
        <time>2024-12-01T10:23:09.368Z</time>
      </trkpt>
      <trkpt lat="43.68295" lon="7.08689">
        <ele>45.22</ele>
        <time>2024-12-01T10:23:11.874Z</time>
      </trkpt>
      <trkpt lat="43.68304" lon="7.08702">
        <ele>45.11</ele>
        <time>2024-12-01T10:23:13.390Z</time>
      </trkpt>
      <trkpt lat="43.68311" lon="7.08717">
        <ele>44.95</ele>
        <time>2024-12-01T10:23:15.482Z</time>
      </trkpt>
      <trkpt lat="43.68317" lon="7.08734">
        <ele>44.86</ele>
        <time>2024-12-01T10:23:17.389Z</time>
      </trkpt>
      <trkpt lat="43.68323" lon="7.08752">
        <ele>44.75</ele>
        <time>2024-12-01T10:23:19.518Z</time>
      </trkpt>
      <trkpt lat="43.68327" lon="7.08769">
        <ele>44.61</ele>
        <time>2024-12-01T10:23:21.418Z</time>
      </trkpt>
      <trkpt lat="43.68329" lon="7.08784">
        <ele>44.52</ele>
        <time>2024-12-01T10:23:23.511Z</time>
      </trkpt>
      <trkpt lat="43.68331" lon="7.08797">
        <ele>44.4</ele>
        <time>2024-12-01T10:23:25.865Z</time>
      </trkpt>
      <trkpt lat="43.6833" lon="7.08809">
        <ele>44.41</ele>
        <time>2024-12-01T10:23:27.507Z</time>
      </trkpt>
      <trkpt lat="43.68328" lon="7.08825">
        <ele>43.97</ele>
        <time>2024-12-01T10:23:29.513Z</time>
      </trkpt>
      <trkpt lat="43.68326" lon="7.08842">
        <ele>43.11</ele>
        <time>2024-12-01T10:23:31.856Z</time>
      </trkpt>
      <trkpt lat="43.68322" lon="7.08859">
        <ele>42.14</ele>
        <time>2024-12-01T10:23:33.863Z</time>
      </trkpt>
      <trkpt lat="43.68317" lon="7.08877">
        <ele>40.2</ele>
        <time>2024-12-01T10:23:35.876Z</time>
      </trkpt>
      <trkpt lat="43.68311" lon="7.08894">
        <ele>37.59</ele>
        <time>2024-12-01T10:23:37.868Z</time>
      </trkpt>
      <trkpt lat="43.68304" lon="7.0891">
        <ele>34.42</ele>
        <time>2024-12-01T10:23:39.871Z</time>
      </trkpt>
      <trkpt lat="43.68298" lon="7.08921">
        <ele>32.78</ele>
        <time>2024-12-01T10:23:41.874Z</time>
      </trkpt>
      <trkpt lat="43.68291" lon="7.08933">
        <ele>30.439999</ele>
        <time>2024-12-01T10:23:43.876Z</time>
      </trkpt>
      <trkpt lat="43.68283" lon="7.08947">
        <ele>28.439999</ele>
        <time>2024-12-01T10:23:45.877Z</time>
      </trkpt>
      <trkpt lat="43.68277" lon="7.08957">
        <ele>28.279999</ele>
        <time>2024-12-01T10:23:47.884Z</time>
      </trkpt>
      <trkpt lat="43.68267" lon="7.08977">
        <ele>29.68</ele>
        <time>2024-12-01T10:23:49.885Z</time>
      </trkpt>
      <trkpt lat="43.68264" lon="7.0899">
        <ele>31.630001</ele>
        <time>2024-12-01T10:23:51.887Z</time>
      </trkpt>
      <trkpt lat="43.68261" lon="7.09006">
        <ele>33.1</ele>
        <time>2024-12-01T10:23:53.893Z</time>
      </trkpt>
      <trkpt lat="43.6826" lon="7.09021">
        <ele>34.17</ele>
        <time>2024-12-01T10:23:55.896Z</time>
      </trkpt>
      <trkpt lat="43.6826" lon="7.09036">
        <ele>34.87</ele>
        <time>2024-12-01T10:23:57.897Z</time>
      </trkpt>
      <trkpt lat="43.68262" lon="7.09053">
        <ele>35.23</ele>
        <time>2024-12-01T10:23:59.980Z</time>
      </trkpt>
      <trkpt lat="43.68267" lon="7.09065">
        <ele>35.6</ele>
        <time>2024-12-01T10:24:01.902Z</time>
      </trkpt>
      <trkpt lat="43.68271" lon="7.09079">
        <ele>35.7</ele>
        <time>2024-12-01T10:24:03.825Z</time>
      </trkpt>
      <trkpt lat="43.68277" lon="7.09093">
        <ele>35.24</ele>
        <time>2024-12-01T10:24:05.524Z</time>
      </trkpt>
      <trkpt lat="43.68283" lon="7.09106">
        <ele>34.41</ele>
        <time>2024-12-01T10:24:07.913Z</time>
      </trkpt>
      <trkpt lat="43.68289" lon="7.09119">
        <ele>33.21</ele>
        <time>2024-12-01T10:24:09.917Z</time>
      </trkpt>
      <trkpt lat="43.68298" lon="7.09132">
        <ele>32.51</ele>
        <time>2024-12-01T10:24:11.575Z</time>
      </trkpt>
      <trkpt lat="43.68303" lon="7.09144">
        <ele>32.99</ele>
        <time>2024-12-01T10:24:14.003Z</time>
      </trkpt>
      <trkpt lat="43.68308" lon="7.09154">
        <ele>33.07</ele>
        <time>2024-12-01T10:24:16.003Z</time>
      </trkpt>
      <trkpt lat="43.68313" lon="7.09164">
        <ele>33.76</ele>
        <time>2024-12-01T10:24:18.009Z</time>
      </trkpt>
      <trkpt lat="43.68318" lon="7.09174">
        <ele>34.04</ele>
        <time>2024-12-01T10:24:20.010Z</time>
      </trkpt>
      <trkpt lat="43.68322" lon="7.09182">
        <ele>34.96</ele>
        <time>2024-12-01T10:24:22.013Z</time>
      </trkpt>
      <trkpt lat="43.68326" lon="7.09192">
        <ele>36.33</ele>
        <time>2024-12-01T10:24:24.015Z</time>
      </trkpt>
      <trkpt lat="43.6833" lon="7.092">
        <ele>37.63</ele>
        <time>2024-12-01T10:24:26.020Z</time>
      </trkpt>
      <trkpt lat="43.68335" lon="7.09209">
        <ele>37.67</ele>
        <time>2024-12-01T10:24:28.021Z</time>
      </trkpt>
      <trkpt lat="43.68338" lon="7.09218">
        <ele>36.95</ele>
        <time>2024-12-01T10:24:30.024Z</time>
      </trkpt>
      <trkpt lat="43.68342" lon="7.09228">
        <ele>36.16</ele>
        <time>2024-12-01T10:24:32.029Z</time>
      </trkpt>
      <trkpt lat="43.68346" lon="7.09239">
        <ele>35.83</ele>
        <time>2024-12-01T10:24:34.030Z</time>
      </trkpt>
      <trkpt lat="43.6835" lon="7.09251">
        <ele>36.31</ele>
        <time>2024-12-01T10:24:36.034Z</time>
      </trkpt>
      <trkpt lat="43.68355" lon="7.09261">
        <ele>37.84</ele>
        <time>2024-12-01T10:24:38.038Z</time>
      </trkpt>
      <trkpt lat="43.68359" lon="7.09271">
        <ele>39.03</ele>
        <time>2024-12-01T10:24:40.041Z</time>
      </trkpt>
      <trkpt lat="43.68365" lon="7.09283">
        <ele>38.39</ele>
        <time>2024-12-01T10:24:42.044Z</time>
      </trkpt>
      <trkpt lat="43.68371" lon="7.09293">
        <ele>37.7</ele>
        <time>2024-12-01T10:24:44.046Z</time>
      </trkpt>
      <trkpt lat="43.68375" lon="7.09304">
        <ele>38.74</ele>
        <time>2024-12-01T10:24:46.050Z</time>
      </trkpt>
      <trkpt lat="43.68379" lon="7.09314">
        <ele>40.22</ele>
        <time>2024-12-01T10:24:47.939Z</time>
      </trkpt>
      <trkpt lat="43.68383" lon="7.09324">
        <ele>39.36</ele>
        <time>2024-12-01T10:24:50.056Z</time>
      </trkpt>
      <trkpt lat="43.68387" lon="7.09334">
        <ele>38.59</ele>
        <time>2024-12-01T10:24:52.059Z</time>
      </trkpt>
      <trkpt lat="43.68393" lon="7.09343">
        <ele>37.89</ele>
        <time>2024-12-01T10:24:54.061Z</time>
      </trkpt>
      <trkpt lat="43.68398" lon="7.09351">
        <ele>37.45</ele>
        <time>2024-12-01T10:24:56.064Z</time>
      </trkpt>
      <trkpt lat="43.68401" lon="7.09361">
        <ele>36.81</ele>
        <time>2024-12-01T10:24:58.069Z</time>
      </trkpt>
      <trkpt lat="43.68405" lon="7.09368">
        <ele>37.07</ele>
        <time>2024-12-01T10:24:59.107Z</time>
      </trkpt>
      <trkpt lat="43.68409" lon="7.09374">
        <ele>37.97</ele>
        <time>2024-12-01T10:25:02.076Z</time>
      </trkpt>
      <trkpt lat="43.68413" lon="7.0938">
        <ele>37.88</ele>
        <time>2024-12-01T10:25:04.076Z</time>
      </trkpt>
      <trkpt lat="43.68417" lon="7.09387">
        <ele>37.47</ele>
        <time>2024-12-01T10:25:06.080Z</time>
      </trkpt>
      <trkpt lat="43.68422" lon="7.09396">
        <ele>36.76</ele>
        <time>2024-12-01T10:25:08.082Z</time>
      </trkpt>
      <trkpt lat="43.68426" lon="7.09405">
        <ele>37.04</ele>
        <time>2024-12-01T10:25:10.086Z</time>
      </trkpt>
      <trkpt lat="43.6843" lon="7.09413">
        <ele>38.05</ele>
        <time>2024-12-01T10:25:12.095Z</time>
      </trkpt>
      <trkpt lat="43.68433" lon="7.09421">
        <ele>38.68</ele>
        <time>2024-12-01T10:25:14.092Z</time>
      </trkpt>
      <trkpt lat="43.68433" lon="7.09429">
        <ele>38.17</ele>
        <time>2024-12-01T10:25:16.095Z</time>
      </trkpt>
      <trkpt lat="43.68434" lon="7.09439">
        <ele>37.85</ele>
        <time>2024-12-01T10:25:18.100Z</time>
      </trkpt>
      <trkpt lat="43.68433" lon="7.0945">
        <ele>37.71</ele>
        <time>2024-12-01T10:25:20.101Z</time>
      </trkpt>
      <trkpt lat="43.68431" lon="7.09459">
        <ele>37.9</ele>
        <time>2024-12-01T10:25:22.106Z</time>
      </trkpt>
      <trkpt lat="43.6843" lon="7.09469">
        <ele>38.56</ele>
        <time>2024-12-01T10:25:24.107Z</time>
      </trkpt>
      <trkpt lat="43.68429" lon="7.09479">
        <ele>39.16</ele>
        <time>2024-12-01T10:25:26.116Z</time>
      </trkpt>
      <trkpt lat="43.68428" lon="7.09488">
        <ele>39.6</ele>
        <time>2024-12-01T10:25:28.114Z</time>
      </trkpt>
      <trkpt lat="43.68429" lon="7.09497">
        <ele>39.65</ele>
        <time>2024-12-01T10:25:29.153Z</time>
      </trkpt>
      <trkpt lat="43.68431" lon="7.09506">
        <ele>39.84</ele>
        <time>2024-12-01T10:25:32.123Z</time>
      </trkpt>
      <trkpt lat="43.68433" lon="7.09514">
        <ele>40.41</ele>
        <time>2024-12-01T10:25:34.123Z</time>
      </trkpt>
      <trkpt lat="43.68436" lon="7.09524">
        <ele>41.77</ele>
        <time>2024-12-01T10:25:35.159Z</time>
      </trkpt>
      <trkpt lat="43.68441" lon="7.09533">
        <ele>43.8</ele>
        <time>2024-12-01T10:25:37.996Z</time>
      </trkpt>
      <trkpt lat="43.68446" lon="7.09543">
        <ele>45.45</ele>
        <time>2024-12-01T10:25:39.164Z</time>
      </trkpt>
      <trkpt lat="43.68452" lon="7.09551">
        <ele>46.99</ele>
        <time>2024-12-01T10:25:42.135Z</time>
      </trkpt>
      <trkpt lat="43.68457" lon="7.09559">
        <ele>48.32</ele>
        <time>2024-12-01T10:25:43.167Z</time>
      </trkpt>
      <trkpt lat="43.68462" lon="7.09565">
        <ele>48.98</ele>
        <time>2024-12-01T10:25:45.179Z</time>
      </trkpt>
      <trkpt lat="43.68467" lon="7.0957">
        <ele>49.55</ele>
        <time>2024-12-01T10:25:47.177Z</time>
      </trkpt>
      <trkpt lat="43.68472" lon="7.09579">
        <ele>49.21</ele>
        <time>2024-12-01T10:25:50.150Z</time>
      </trkpt>
      <trkpt lat="43.68477" lon="7.09586">
        <ele>49</ele>
        <time>2024-12-01T10:25:52.154Z</time>
      </trkpt>
      <trkpt lat="43.68481" lon="7.09594">
        <ele>49.440002</ele>
        <time>2024-12-01T10:25:54.156Z</time>
      </trkpt>
      <trkpt lat="43.68485" lon="7.09602">
        <ele>51.379997</ele>
        <time>2024-12-01T10:25:55.975Z</time>
      </trkpt>
      <trkpt lat="43.68488" lon="7.09607">
        <ele>51.379997</ele>
        <time>2024-12-01T10:25:58.163Z</time>
      </trkpt>
      <trkpt lat="43.68489" lon="7.09611">
        <ele>54.440002</ele>
        <time>2024-12-01T10:25:59.125Z</time>
      </trkpt>
      <trkpt lat="43.68491" lon="7.09615">
        <ele>54.42</ele>
        <time>2024-12-01T10:26:02.166Z</time>
      </trkpt>
      <trkpt lat="43.68493" lon="7.09618">
        <ele>54.17</ele>
        <time>2024-12-01T10:26:03.202Z</time>
      </trkpt>
      <trkpt lat="43.68497" lon="7.09622">
        <ele>53.18</ele>
        <time>2024-12-01T10:26:06.164Z</time>
      </trkpt>
      <trkpt lat="43.68502" lon="7.09629">
        <ele>52.989998</ele>
        <time>2024-12-01T10:26:08.175Z</time>
      </trkpt>
      <trkpt lat="43.68507" lon="7.09637">
        <ele>55.760002</ele>
        <time>2024-12-01T10:26:09.136Z</time>
      </trkpt>
      <trkpt lat="43.68512" lon="7.09645">
        <ele>58.260002</ele>
        <time>2024-12-01T10:26:12.182Z</time>
      </trkpt>
      <trkpt lat="43.68517" lon="7.09655">
        <ele>58.260002</ele>
        <time>2024-12-01T10:26:13.145Z</time>
      </trkpt>
      <trkpt lat="43.68521" lon="7.09665">
        <ele>58.260002</ele>
        <time>2024-12-01T10:26:15.222Z</time>
      </trkpt>
      <trkpt lat="43.68525" lon="7.09675">
        <ele>63.22</ele>
        <time>2024-12-01T10:26:17.149Z</time>
      </trkpt>
      <trkpt lat="43.68529" lon="7.09685">
        <ele>66.28</ele>
        <time>2024-12-01T10:26:18.926Z</time>
      </trkpt>
      <trkpt lat="43.68533" lon="7.09695">
        <ele>67.31</ele>
        <time>2024-12-01T10:26:21.157Z</time>
      </trkpt>
      <trkpt lat="43.68536" lon="7.09706">
        <ele>66.95</ele>
        <time>2024-12-01T10:26:23.160Z</time>
      </trkpt>
      <trkpt lat="43.68538" lon="7.09717">
        <ele>66.95</ele>
        <time>2024-12-01T10:26:25.162Z</time>
      </trkpt>
      <trkpt lat="43.6854" lon="7.09727">
        <ele>67.87</ele>
        <time>2024-12-01T10:26:27.164Z</time>
      </trkpt>
      <trkpt lat="43.68541" lon="7.09737">
        <ele>70.3</ele>
        <time>2024-12-01T10:26:28.861Z</time>
      </trkpt>
      <trkpt lat="43.68541" lon="7.09752">
        <ele>70.270004</ele>
        <time>2024-12-01T10:26:31.169Z</time>
      </trkpt>
      <trkpt lat="43.6854" lon="7.09766">
        <ele>72.85</ele>
        <time>2024-12-01T10:26:33.176Z</time>
      </trkpt>
      <trkpt lat="43.6854" lon="7.09779">
        <ele>70.14</ele>
        <time>2024-12-01T10:26:35.181Z</time>
      </trkpt>
      <trkpt lat="43.6854" lon="7.09791">
        <ele>73.17</ele>
        <time>2024-12-01T10:26:37.182Z</time>
      </trkpt>
      <trkpt lat="43.68542" lon="7.09802">
        <ele>71.18</ele>
        <time>2024-12-01T10:26:38.802Z</time>
      </trkpt>
      <trkpt lat="43.68543" lon="7.09812">
        <ele>73.37</ele>
        <time>2024-12-01T10:26:40.773Z</time>
      </trkpt>
      <trkpt lat="43.68544" lon="7.09823">
        <ele>72.92</ele>
        <time>2024-12-01T10:26:43.187Z</time>
      </trkpt>
      <trkpt lat="43.68546" lon="7.09833">
        <ele>75.04</ele>
        <time>2024-12-01T10:26:44.802Z</time>
      </trkpt>
      <trkpt lat="43.68547" lon="7.09843">
        <ele>73.53</ele>
        <time>2024-12-01T10:26:46.798Z</time>
      </trkpt>
      <trkpt lat="43.68549" lon="7.09853">
        <ele>73.83</ele>
        <time>2024-12-01T10:26:49.199Z</time>
      </trkpt>
      <trkpt lat="43.6855" lon="7.09863">
        <ele>75.75</ele>
        <time>2024-12-01T10:26:51.201Z</time>
      </trkpt>
      <trkpt lat="43.68551" lon="7.09873">
        <ele>78.43</ele>
        <time>2024-12-01T10:26:52.827Z</time>
      </trkpt>
      <trkpt lat="43.6855" lon="7.09882">
        <ele>79.85</ele>
        <time>2024-12-01T10:26:55.209Z</time>
      </trkpt>
      <trkpt lat="43.68549" lon="7.09888">
        <ele>79.85</ele>
        <time>2024-12-01T10:26:57.210Z</time>
      </trkpt>
      <trkpt lat="43.68546" lon="7.09894">
        <ele>79.72</ele>
        <time>2024-12-01T10:26:59.212Z</time>
      </trkpt>
      <trkpt lat="43.68542" lon="7.099">
        <ele>79.78</ele>
        <time>2024-12-01T10:27:01.215Z</time>
      </trkpt>
      <trkpt lat="43.68538" lon="7.09905">
        <ele>78.18</ele>
        <time>2024-12-01T10:27:03.227Z</time>
      </trkpt>
      <trkpt lat="43.68533" lon="7.09911">
        <ele>79.5</ele>
        <time>2024-12-01T10:27:05.222Z</time>
      </trkpt>
      <trkpt lat="43.68526" lon="7.09914">
        <ele>78.85</ele>
        <time>2024-12-01T10:27:07.224Z</time>
      </trkpt>
      <trkpt lat="43.68519" lon="7.09914">
        <ele>77.61</ele>
        <time>2024-12-01T10:27:09.009Z</time>
      </trkpt>
      <trkpt lat="43.68513" lon="7.09914">
        <ele>77.2</ele>
        <time>2024-12-01T10:27:11.265Z</time>
      </trkpt>
      <trkpt lat="43.68508" lon="7.09913">
        <ele>77.86</ele>
        <time>2024-12-01T10:27:13.233Z</time>
      </trkpt>
      <trkpt lat="43.68503" lon="7.09913">
        <ele>78.6</ele>
        <time>2024-12-01T10:27:14.855Z</time>
      </trkpt>
      <trkpt lat="43.68496" lon="7.09916">
        <ele>78.45</ele>
        <time>2024-12-01T10:27:17.320Z</time>
      </trkpt>
      <trkpt lat="43.68491" lon="7.09919">
        <ele>78.58</ele>
        <time>2024-12-01T10:27:19.241Z</time>
      </trkpt>
      <trkpt lat="43.68486" lon="7.09923">
        <ele>78.17</ele>
        <time>2024-12-01T10:27:21.246Z</time>
      </trkpt>
      <trkpt lat="43.68483" lon="7.09926">
        <ele>78.86</ele>
        <time>2024-12-01T10:27:22.943Z</time>
      </trkpt>
      <trkpt lat="43.68479" lon="7.09931">
        <ele>80.12</ele>
        <time>2024-12-01T10:27:25.333Z</time>
      </trkpt>
      <trkpt lat="43.68477" lon="7.09936">
        <ele>81.54</ele>
        <time>2024-12-01T10:27:27.336Z</time>
      </trkpt>
      <trkpt lat="43.68474" lon="7.09945">
        <ele>81.54</ele>
        <time>2024-12-01T10:27:29.339Z</time>
      </trkpt>
      <trkpt lat="43.68472" lon="7.09955">
        <ele>85.49</ele>
        <time>2024-12-01T10:27:31.341Z</time>
      </trkpt>
      <trkpt lat="43.6847" lon="7.09966">
        <ele>85.96</ele>
        <time>2024-12-01T10:27:32.374Z</time>
      </trkpt>
      <trkpt lat="43.68468" lon="7.09978">
        <ele>83.5</ele>
        <time>2024-12-01T10:27:34.366Z</time>
      </trkpt>
      <trkpt lat="43.68467" lon="7.0999">
        <ele>84.88</ele>
        <time>2024-12-01T10:27:37.351Z</time>
      </trkpt>
      <trkpt lat="43.68467" lon="7.09999">
        <ele>85.08</ele>
        <time>2024-12-01T10:27:39.355Z</time>
      </trkpt>
      <trkpt lat="43.68469" lon="7.1001">
        <ele>84.36</ele>
        <time>2024-12-01T10:27:41.356Z</time>
      </trkpt>
      <trkpt lat="43.68472" lon="7.10021">
        <ele>84.17</ele>
        <time>2024-12-01T10:27:43.359Z</time>
      </trkpt>
      <trkpt lat="43.68476" lon="7.10032">
        <ele>84.39</ele>
        <time>2024-12-01T10:27:45.364Z</time>
      </trkpt>
      <trkpt lat="43.68481" lon="7.10044">
        <ele>84.27</ele>
        <time>2024-12-01T10:27:47.367Z</time>
      </trkpt>
      <trkpt lat="43.68486" lon="7.10057">
        <ele>84.26</ele>
        <time>2024-12-01T10:27:48.384Z</time>
      </trkpt>
      <trkpt lat="43.68491" lon="7.10069">
        <ele>84.81</ele>
        <time>2024-12-01T10:27:51.377Z</time>
      </trkpt>
      <trkpt lat="43.68496" lon="7.10082">
        <ele>84.51</ele>
        <time>2024-12-01T10:27:52.405Z</time>
      </trkpt>
      <trkpt lat="43.68498" lon="7.10096">
        <ele>84.55</ele>
        <time>2024-12-01T10:27:54.414Z</time>
      </trkpt>
      <trkpt lat="43.68497" lon="7.10109">
        <ele>84.44</ele>
        <time>2024-12-01T10:27:56.397Z</time>
      </trkpt>
      <trkpt lat="43.68496" lon="7.10123">
        <ele>84.27</ele>
        <time>2024-12-01T10:27:58.414Z</time>
      </trkpt>
      <trkpt lat="43.6849" lon="7.10141">
        <ele>84.21</ele>
        <time>2024-12-01T10:28:01.391Z</time>
      </trkpt>
      <trkpt lat="43.68484" lon="7.10159">
        <ele>84.11</ele>
        <time>2024-12-01T10:28:03.393Z</time>
      </trkpt>
      <trkpt lat="43.68476" lon="7.10178">
        <ele>84.07</ele>
        <time>2024-12-01T10:28:05.397Z</time>
      </trkpt>
      <trkpt lat="43.68466" lon="7.10199">
        <ele>84.01</ele>
        <time>2024-12-01T10:28:06.435Z</time>
      </trkpt>
      <trkpt lat="43.68456" lon="7.1022">
        <ele>83.96</ele>
        <time>2024-12-01T10:28:09.403Z</time>
      </trkpt>
      <trkpt lat="43.68446" lon="7.10241">
        <ele>83.86</ele>
        <time>2024-12-01T10:28:10.443Z</time>
      </trkpt>
      <trkpt lat="43.68436" lon="7.10261">
        <ele>83.78</ele>
        <time>2024-12-01T10:28:13.409Z</time>
      </trkpt>
      <trkpt lat="43.6843" lon="7.10274">
        <ele>83.74</ele>
        <time>2024-12-01T10:28:15.412Z</time>
      </trkpt>
      <trkpt lat="43.68416" lon="7.10302">
        <ele>83.62</ele>
        <time>2024-12-01T10:28:17.416Z</time>
      </trkpt>
      <trkpt lat="43.684" lon="7.10333">
        <ele>83.42</ele>
        <time>2024-12-01T10:28:19.421Z</time>
      </trkpt>
      <trkpt lat="43.6839" lon="7.10354">
        <ele>83.19</ele>
        <time>2024-12-01T10:28:20.991Z</time>
      </trkpt>
      <trkpt lat="43.68382" lon="7.1037">
        <ele>82.86</ele>
        <time>2024-12-01T10:28:23.424Z</time>
      </trkpt>
      <trkpt lat="43.68375" lon="7.10386">
        <ele>82.52</ele>
        <time>2024-12-01T10:28:25.431Z</time>
      </trkpt>
      <trkpt lat="43.68367" lon="7.10401">
        <ele>81.55</ele>
        <time>2024-12-01T10:28:27.433Z</time>
      </trkpt>
      <trkpt lat="43.68359" lon="7.10413">
        <ele>81.02</ele>
        <time>2024-12-01T10:28:29.005Z</time>
      </trkpt>
      <trkpt lat="43.68349" lon="7.10423">
        <ele>80.56</ele>
        <time>2024-12-01T10:28:31.441Z</time>
      </trkpt>
      <trkpt lat="43.68338" lon="7.10435">
        <ele>79.97</ele>
        <time>2024-12-01T10:28:33.442Z</time>
      </trkpt>
      <trkpt lat="43.68328" lon="7.10447">
        <ele>79.06</ele>
        <time>2024-12-01T10:28:35.446Z</time>
      </trkpt>
      <trkpt lat="43.68318" lon="7.10456">
        <ele>79.09</ele>
        <time>2024-12-01T10:28:37.456Z</time>
      </trkpt>
      <trkpt lat="43.68306" lon="7.10471">
        <ele>78.33</ele>
        <time>2024-12-01T10:28:39.052Z</time>
      </trkpt>
      <trkpt lat="43.68294" lon="7.10483">
        <ele>77.37</ele>
        <time>2024-12-01T10:28:41.455Z</time>
      </trkpt>
      <trkpt lat="43.68281" lon="7.10495">
        <ele>76.32</ele>
        <time>2024-12-01T10:28:43.072Z</time>
      </trkpt>
      <trkpt lat="43.68267" lon="7.10508">
        <ele>75.31</ele>
        <time>2024-12-01T10:28:45.049Z</time>
      </trkpt>
      <trkpt lat="43.68252" lon="7.1052">
        <ele>74.05</ele>
        <time>2024-12-01T10:28:47.068Z</time>
      </trkpt>
      <trkpt lat="43.68237" lon="7.10533">
        <ele>73.3</ele>
        <time>2024-12-01T10:28:49.044Z</time>
      </trkpt>
      <trkpt lat="43.68224" lon="7.10545">
        <ele>72.01</ele>
        <time>2024-12-01T10:28:51.108Z</time>
      </trkpt>
      <trkpt lat="43.68213" lon="7.10558">
        <ele>70.96</ele>
        <time>2024-12-01T10:28:53.086Z</time>
      </trkpt>
      <trkpt lat="43.68205" lon="7.1057">
        <ele>69.61</ele>
        <time>2024-12-01T10:28:55.511Z</time>
      </trkpt>
      <trkpt lat="43.68198" lon="7.10584">
        <ele>68.4</ele>
        <time>2024-12-01T10:28:57.081Z</time>
      </trkpt>
      <trkpt lat="43.68191" lon="7.10598">
        <ele>66.729996</ele>
        <time>2024-12-01T10:28:59.284Z</time>
      </trkpt>
      <trkpt lat="43.68184" lon="7.10614">
        <ele>65.32</ele>
        <time>2024-12-01T10:29:01.105Z</time>
      </trkpt>
      <trkpt lat="43.6817" lon="7.10631">
        <ele>64.17</ele>
        <time>2024-12-01T10:29:03.078Z</time>
      </trkpt>
      <trkpt lat="43.68153" lon="7.10646">
        <ele>62.9</ele>
        <time>2024-12-01T10:29:05.134Z</time>
      </trkpt>
      <trkpt lat="43.68137" lon="7.10654">
        <ele>61.489998</ele>
        <time>2024-12-01T10:29:07.121Z</time>
      </trkpt>
      <trkpt lat="43.68122" lon="7.1066">
        <ele>60.52</ele>
        <time>2024-12-01T10:29:09.556Z</time>
      </trkpt>
      <trkpt lat="43.68107" lon="7.10664">
        <ele>59.510002</ele>
        <time>2024-12-01T10:29:11.098Z</time>
      </trkpt>
      <trkpt lat="43.68093" lon="7.10665">
        <ele>58.96</ele>
        <time>2024-12-01T10:29:13.150Z</time>
      </trkpt>
      <trkpt lat="43.68079" lon="7.10669">
        <ele>58.09</ele>
        <time>2024-12-01T10:29:15.119Z</time>
      </trkpt>
      <trkpt lat="43.68066" lon="7.10672">
        <ele>56.54</ele>
        <time>2024-12-01T10:29:17.569Z</time>
      </trkpt>
      <trkpt lat="43.68052" lon="7.10675">
        <ele>55.760002</ele>
        <time>2024-12-01T10:29:19.082Z</time>
      </trkpt>
      <trkpt lat="43.68039" lon="7.10678">
        <ele>55.059998</ele>
        <time>2024-12-01T10:29:21.578Z</time>
      </trkpt>
      <trkpt lat="43.68026" lon="7.10683">
        <ele>55.02</ele>
        <time>2024-12-01T10:29:23.113Z</time>
      </trkpt>
      <trkpt lat="43.68013" lon="7.10687">
        <ele>54.39</ele>
        <time>2024-12-01T10:29:25.524Z</time>
      </trkpt>
      <trkpt lat="43.68002" lon="7.10691">
        <ele>53.42</ele>
        <time>2024-12-01T10:29:27.119Z</time>
      </trkpt>
      <trkpt lat="43.6799" lon="7.10696">
        <ele>52.809998</ele>
        <time>2024-12-01T10:29:29.528Z</time>
      </trkpt>
      <trkpt lat="43.67979" lon="7.10701">
        <ele>51.97</ele>
        <time>2024-12-01T10:29:31.612Z</time>
      </trkpt>
      <trkpt lat="43.6797" lon="7.10704">
        <ele>51.190002</ele>
        <time>2024-12-01T10:29:33.534Z</time>
      </trkpt>
      <trkpt lat="43.67962" lon="7.10708">
        <ele>50.870003</ele>
        <time>2024-12-01T10:29:35.618Z</time>
      </trkpt>
      <trkpt lat="43.67952" lon="7.10711">
        <ele>48.27</ele>
        <time>2024-12-01T10:29:37.625Z</time>
      </trkpt>
      <trkpt lat="43.67943" lon="7.10715">
        <ele>45.04</ele>
        <time>2024-12-01T10:29:39.546Z</time>
      </trkpt>
      <trkpt lat="43.67934" lon="7.10718">
        <ele>44.52</ele>
        <time>2024-12-01T10:29:41.627Z</time>
      </trkpt>
      <trkpt lat="43.67925" lon="7.10721">
        <ele>42.51</ele>
        <time>2024-12-01T10:29:43.630Z</time>
      </trkpt>
      <trkpt lat="43.67915" lon="7.10725">
        <ele>42.51</ele>
        <time>2024-12-01T10:29:45.634Z</time>
      </trkpt>
      <trkpt lat="43.67903" lon="7.10729">
        <ele>37.91</ele>
        <time>2024-12-01T10:29:47.637Z</time>
      </trkpt>
      <trkpt lat="43.67891" lon="7.10732">
        <ele>36.03</ele>
        <time>2024-12-01T10:29:49.640Z</time>
      </trkpt>
      <trkpt lat="43.67881" lon="7.10734">
        <ele>33.15</ele>
        <time>2024-12-01T10:29:51.646Z</time>
      </trkpt>
      <trkpt lat="43.67872" lon="7.10737">
        <ele>33.29</ele>
        <time>2024-12-01T10:29:53.204Z</time>
      </trkpt>
      <trkpt lat="43.67861" lon="7.1074">
        <ele>33.49</ele>
        <time>2024-12-01T10:29:55.167Z</time>
      </trkpt>
      <trkpt lat="43.67851" lon="7.10745">
        <ele>32.73</ele>
        <time>2024-12-01T10:29:57.221Z</time>
      </trkpt>
      <trkpt lat="43.67841" lon="7.1075">
        <ele>31.689999</ele>
        <time>2024-12-01T10:29:59.177Z</time>
      </trkpt>
      <trkpt lat="43.67831" lon="7.10756">
        <ele>31.580002</ele>
        <time>2024-12-01T10:30:01.665Z</time>
      </trkpt>
      <trkpt lat="43.67822" lon="7.10763">
        <ele>32.08</ele>
        <time>2024-12-01T10:30:03.174Z</time>
      </trkpt>
      <trkpt lat="43.67812" lon="7.10771">
        <ele>31.07</ele>
        <time>2024-12-01T10:30:05.677Z</time>
      </trkpt>
      <trkpt lat="43.67801" lon="7.10779">
        <ele>31.330002</ele>
        <time>2024-12-01T10:30:07.669Z</time>
      </trkpt>
      <trkpt lat="43.67791" lon="7.10787">
        <ele>31.55</ele>
        <time>2024-12-01T10:30:09.670Z</time>
      </trkpt>
      <trkpt lat="43.6778" lon="7.10795">
        <ele>31.880001</ele>
        <time>2024-12-01T10:30:11.682Z</time>
      </trkpt>
      <trkpt lat="43.6777" lon="7.10803">
        <ele>31.84</ele>
        <time>2024-12-01T10:30:13.680Z</time>
      </trkpt>
      <trkpt lat="43.6776" lon="7.10811">
        <ele>32.17</ele>
        <time>2024-12-01T10:30:15.682Z</time>
      </trkpt>
      <trkpt lat="43.67751" lon="7.1082">
        <ele>32.23</ele>
        <time>2024-12-01T10:30:17.685Z</time>
      </trkpt>
      <trkpt lat="43.6774" lon="7.10829">
        <ele>32.2</ele>
        <time>2024-12-01T10:30:19.691Z</time>
      </trkpt>
      <trkpt lat="43.67731" lon="7.10837">
        <ele>32.7</ele>
        <time>2024-12-01T10:30:21.692Z</time>
      </trkpt>
      <trkpt lat="43.67722" lon="7.10844">
        <ele>33.07</ele>
        <time>2024-12-01T10:30:23.697Z</time>
      </trkpt>
      <trkpt lat="43.67713" lon="7.10852">
        <ele>33.14</ele>
        <time>2024-12-01T10:30:25.700Z</time>
      </trkpt>
      <trkpt lat="43.67704" lon="7.10861">
        <ele>33</ele>
        <time>2024-12-01T10:30:27.700Z</time>
      </trkpt>
      <trkpt lat="43.67696" lon="7.10869">
        <ele>33.08</ele>
        <time>2024-12-01T10:30:29.705Z</time>
      </trkpt>
      <trkpt lat="43.67687" lon="7.10876">
        <ele>32.72</ele>
        <time>2024-12-01T10:30:31.709Z</time>
      </trkpt>
      <trkpt lat="43.67678" lon="7.10883">
        <ele>32.91</ele>
        <time>2024-12-01T10:30:33.709Z</time>
      </trkpt>
      <trkpt lat="43.6767" lon="7.1089">
        <ele>32.92</ele>
        <time>2024-12-01T10:30:35.714Z</time>
      </trkpt>
      <trkpt lat="43.67659" lon="7.10897">
        <ele>32.79</ele>
        <time>2024-12-01T10:30:37.717Z</time>
      </trkpt>
      <trkpt lat="43.67649" lon="7.10904">
        <ele>32.7</ele>
        <time>2024-12-01T10:30:39.722Z</time>
      </trkpt>
      <trkpt lat="43.67639" lon="7.10908">
        <ele>32.44</ele>
        <time>2024-12-01T10:30:41.725Z</time>
      </trkpt>
      <trkpt lat="43.67627" lon="7.10913">
        <ele>32.26</ele>
        <time>2024-12-01T10:30:43.729Z</time>
      </trkpt>
      <trkpt lat="43.67615" lon="7.10917">
        <ele>32.21</ele>
        <time>2024-12-01T10:30:45.729Z</time>
      </trkpt>
      <trkpt lat="43.67604" lon="7.10921">
        <ele>31.84</ele>
        <time>2024-12-01T10:30:47.733Z</time>
      </trkpt>
      <trkpt lat="43.67592" lon="7.10925">
        <ele>31.73</ele>
        <time>2024-12-01T10:30:49.737Z</time>
      </trkpt>
      <trkpt lat="43.6758" lon="7.10928">
        <ele>31.61</ele>
        <time>2024-12-01T10:30:51.739Z</time>
      </trkpt>
      <trkpt lat="43.6757" lon="7.10931">
        <ele>31.529999</ele>
        <time>2024-12-01T10:30:53.742Z</time>
      </trkpt>
      <trkpt lat="43.67558" lon="7.10933">
        <ele>31.650002</ele>
        <time>2024-12-01T10:30:55.747Z</time>
      </trkpt>
      <trkpt lat="43.67547" lon="7.10934">
        <ele>31.310001</ele>
        <time>2024-12-01T10:30:57.750Z</time>
      </trkpt>
      <trkpt lat="43.67538" lon="7.10934">
        <ele>31.2</ele>
        <time>2024-12-01T10:30:59.754Z</time>
      </trkpt>
      <trkpt lat="43.67529" lon="7.10932">
        <ele>31</ele>
        <time>2024-12-01T10:31:01.757Z</time>
      </trkpt>
      <trkpt lat="43.67521" lon="7.10931">
        <ele>30.96</ele>
        <time>2024-12-01T10:31:03.762Z</time>
      </trkpt>
      <trkpt lat="43.67511" lon="7.10929">
        <ele>30.29</ele>
        <time>2024-12-01T10:31:05.764Z</time>
      </trkpt>
      <trkpt lat="43.67502" lon="7.10928">
        <ele>30.130001</ele>
        <time>2024-12-01T10:31:07.767Z</time>
      </trkpt>
      <trkpt lat="43.67488" lon="7.10926">
        <ele>30.310001</ele>
        <time>2024-12-01T10:31:10.734Z</time>
      </trkpt>
      <trkpt lat="43.67484" lon="7.10927">
        <ele>30.57</ele>
        <time>2024-12-01T10:31:12.735Z</time>
      </trkpt>
      <trkpt lat="43.67422" lon="7.10926">
        <ele>30.599998</ele>
        <time>2024-12-01T10:31:46.687Z</time>
      </trkpt>
      <trkpt lat="43.67415" lon="7.10927">
        <ele>28.919998</ele>
        <time>2024-12-01T10:31:47.710Z</time>
      </trkpt>
      <trkpt lat="43.67406" lon="7.10926">
        <ele>29.150002</ele>
        <time>2024-12-01T10:31:50.696Z</time>
      </trkpt>
      <trkpt lat="43.67395" lon="7.10925">
        <ele>29.099998</ele>
        <time>2024-12-01T10:31:52.698Z</time>
      </trkpt>
      <trkpt lat="43.67385" lon="7.10923">
        <ele>28.880001</ele>
        <time>2024-12-01T10:31:54.701Z</time>
      </trkpt>
      <trkpt lat="43.67376" lon="7.10921">
        <ele>28.79</ele>
        <time>2024-12-01T10:31:56.709Z</time>
      </trkpt>
      <trkpt lat="43.67366" lon="7.10915">
        <ele>29.27</ele>
        <time>2024-12-01T10:31:58.709Z</time>
      </trkpt>
      <trkpt lat="43.67353" lon="7.1091">
        <ele>29.61</ele>
        <time>2024-12-01T10:31:59.748Z</time>
      </trkpt>
      <trkpt lat="43.67344" lon="7.10907">
        <ele>29.7</ele>
        <time>2024-12-01T10:32:02.714Z</time>
      </trkpt>
      <trkpt lat="43.67337" lon="7.10906">
        <ele>29.650002</ele>
        <time>2024-12-01T10:32:04.718Z</time>
      </trkpt>
      <trkpt lat="43.67331" lon="7.10904">
        <ele>29.630001</ele>
        <time>2024-12-01T10:32:06.722Z</time>
      </trkpt>
      <trkpt lat="43.67326" lon="7.10904">
        <ele>29.490002</ele>
        <time>2024-12-01T10:32:08.644Z</time>
      </trkpt>
      <trkpt lat="43.67324" lon="7.10903">
        <ele>29.66</ele>
        <time>2024-12-01T10:32:10.648Z</time>
      </trkpt>
      <trkpt lat="43.67321" lon="7.10904">
        <ele>29.66</ele>
        <time>2024-12-01T10:32:11.764Z</time>
      </trkpt>
      <trkpt lat="43.67316" lon="7.10903">
        <ele>28.189999</ele>
        <time>2024-12-01T10:32:14.653Z</time>
      </trkpt>
      <trkpt lat="43.67309" lon="7.109">
        <ele>28.7</ele>
        <time>2024-12-01T10:32:16.737Z</time>
      </trkpt>
      <trkpt lat="43.67302" lon="7.10897">
        <ele>27.740002</ele>
        <time>2024-12-01T10:32:18.741Z</time>
      </trkpt>
      <trkpt lat="43.67294" lon="7.10895">
        <ele>27.490002</ele>
        <time>2024-12-01T10:32:20.745Z</time>
      </trkpt>
      <trkpt lat="43.67286" lon="7.10893">
        <ele>27.66</ele>
        <time>2024-12-01T10:32:22.668Z</time>
      </trkpt>
      <trkpt lat="43.67277" lon="7.10891">
        <ele>27.970001</ele>
        <time>2024-12-01T10:32:24.592Z</time>
      </trkpt>
      <trkpt lat="43.67268" lon="7.10889">
        <ele>28.3</ele>
        <time>2024-12-01T10:32:26.675Z</time>
      </trkpt>
      <trkpt lat="43.67258" lon="7.10886">
        <ele>28.439999</ele>
        <time>2024-12-01T10:32:28.677Z</time>
      </trkpt>
      <trkpt lat="43.67247" lon="7.10883">
        <ele>28.330002</ele>
        <time>2024-12-01T10:32:30.762Z</time>
      </trkpt>
      <trkpt lat="43.67237" lon="7.1088">
        <ele>28.400002</ele>
        <time>2024-12-01T10:32:32.764Z</time>
      </trkpt>
      <trkpt lat="43.67226" lon="7.10874">
        <ele>28.080002</ele>
        <time>2024-12-01T10:32:34.769Z</time>
      </trkpt>
      <trkpt lat="43.67216" lon="7.10868">
        <ele>27.009998</ele>
        <time>2024-12-01T10:32:36.769Z</time>
      </trkpt>
      <trkpt lat="43.67206" lon="7.10862">
        <ele>27.259998</ele>
        <time>2024-12-01T10:32:38.694Z</time>
      </trkpt>
      <trkpt lat="43.67195" lon="7.10855">
        <ele>26.96</ele>
        <time>2024-12-01T10:32:40.696Z</time>
      </trkpt>
      <trkpt lat="43.67186" lon="7.10849">
        <ele>26.7</ele>
        <time>2024-12-01T10:32:42.781Z</time>
      </trkpt>
      <trkpt lat="43.67178" lon="7.10845">
        <ele>27.240002</ele>
        <time>2024-12-01T10:32:44.612Z</time>
      </trkpt>
      <trkpt lat="43.67168" lon="7.1084">
        <ele>27.259998</ele>
        <time>2024-12-01T10:32:46.790Z</time>
      </trkpt>
      <trkpt lat="43.67157" lon="7.10834">
        <ele>25.939999</ele>
        <time>2024-12-01T10:32:48.792Z</time>
      </trkpt>
      <trkpt lat="43.67147" lon="7.1083">
        <ele>25.259998</ele>
        <time>2024-12-01T10:32:50.712Z</time>
      </trkpt>
      <trkpt lat="43.67137" lon="7.10828">
        <ele>26.099998</ele>
        <time>2024-12-01T10:32:52.799Z</time>
      </trkpt>
      <trkpt lat="43.67126" lon="7.10828">
        <ele>26.43</ele>
        <time>2024-12-01T10:32:54.802Z</time>
      </trkpt>
      <trkpt lat="43.67116" lon="7.1083">
        <ele>24.82</ele>
        <time>2024-12-01T10:32:56.805Z</time>
      </trkpt>
      <trkpt lat="43.67104" lon="7.10835">
        <ele>25.220001</ele>
        <time>2024-12-01T10:32:58.809Z</time>
      </trkpt>
      <trkpt lat="43.67094" lon="7.1084">
        <ele>25.650002</ele>
        <time>2024-12-01T10:33:00.810Z</time>
      </trkpt>
      <trkpt lat="43.67083" lon="7.10846">
        <ele>25.68</ele>
        <time>2024-12-01T10:33:02.815Z</time>
      </trkpt>
      <trkpt lat="43.67073" lon="7.1085">
        <ele>25.82</ele>
        <time>2024-12-01T10:33:04.819Z</time>
      </trkpt>
      <trkpt lat="43.67061" lon="7.10854">
        <ele>24.509998</ele>
        <time>2024-12-01T10:33:06.821Z</time>
      </trkpt>
      <trkpt lat="43.67051" lon="7.10861">
        <ele>25.14</ele>
        <time>2024-12-01T10:33:08.825Z</time>
      </trkpt>
      <trkpt lat="43.67041" lon="7.10868">
        <ele>25.54</ele>
        <time>2024-12-01T10:33:10.827Z</time>
      </trkpt>
      <trkpt lat="43.67031" lon="7.10875">
        <ele>24.919998</ele>
        <time>2024-12-01T10:33:12.830Z</time>
      </trkpt>
      <trkpt lat="43.67021" lon="7.10883">
        <ele>24.669998</ele>
        <time>2024-12-01T10:33:14.833Z</time>
      </trkpt>
      <trkpt lat="43.67014" lon="7.10894">
        <ele>24.919998</ele>
        <time>2024-12-01T10:33:16.837Z</time>
      </trkpt>
      <trkpt lat="43.67008" lon="7.10905">
        <ele>23.869999</ele>
        <time>2024-12-01T10:33:18.841Z</time>
      </trkpt>
      <trkpt lat="43.67004" lon="7.10915">
        <ele>23.79</ele>
        <time>2024-12-01T10:33:20.845Z</time>
      </trkpt>
      <trkpt lat="43.66999" lon="7.10925">
        <ele>23.029999</ele>
        <time>2024-12-01T10:33:22.848Z</time>
      </trkpt>
      <trkpt lat="43.66994" lon="7.10936">
        <ele>23.529999</ele>
        <time>2024-12-01T10:33:24.853Z</time>
      </trkpt>
      <trkpt lat="43.66988" lon="7.10951">
        <ele>24.099998</ele>
        <time>2024-12-01T10:33:26.773Z</time>
      </trkpt>
      <trkpt lat="43.66982" lon="7.10968">
        <ele>23.490002</ele>
        <time>2024-12-01T10:33:28.859Z</time>
      </trkpt>
      <trkpt lat="43.66978" lon="7.10982">
        <ele>23.57</ele>
        <time>2024-12-01T10:33:30.863Z</time>
      </trkpt>
      <trkpt lat="43.66974" lon="7.10994">
        <ele>23.810001</ele>
        <time>2024-12-01T10:33:32.864Z</time>
      </trkpt>
      <trkpt lat="43.6697" lon="7.11006">
        <ele>24.060001</ele>
        <time>2024-12-01T10:33:34.869Z</time>
      </trkpt>
      <trkpt lat="43.66963" lon="7.11022">
        <ele>24.66</ele>
        <time>2024-12-01T10:33:36.873Z</time>
      </trkpt>
      <trkpt lat="43.66953" lon="7.11037">
        <ele>24.57</ele>
        <time>2024-12-01T10:33:38.877Z</time>
      </trkpt>
      <trkpt lat="43.66945" lon="7.11049">
        <ele>24.2</ele>
        <time>2024-12-01T10:33:40.883Z</time>
      </trkpt>
      <trkpt lat="43.66936" lon="7.11058">
        <ele>24.3</ele>
        <time>2024-12-01T10:33:42.884Z</time>
      </trkpt>
      <trkpt lat="43.66927" lon="7.11067">
        <ele>24.080002</ele>
        <time>2024-12-01T10:33:44.887Z</time>
      </trkpt>
      <trkpt lat="43.66918" lon="7.11076">
        <ele>24.05</ele>
        <time>2024-12-01T10:33:46.891Z</time>
      </trkpt>
      <trkpt lat="43.66911" lon="7.11086">
        <ele>24.240002</ele>
        <time>2024-12-01T10:33:48.894Z</time>
      </trkpt>
      <trkpt lat="43.66905" lon="7.11099">
        <ele>24.43</ele>
        <time>2024-12-01T10:33:50.898Z</time>
      </trkpt>
      <trkpt lat="43.66904" lon="7.11114">
        <ele>24.89</ele>
        <time>2024-12-01T10:33:52.902Z</time>
      </trkpt>
      <trkpt lat="43.66907" lon="7.1113">
        <ele>25.09</ele>
        <time>2024-12-01T10:33:54.902Z</time>
      </trkpt>
      <trkpt lat="43.66911" lon="7.11146">
        <ele>24.46</ele>
        <time>2024-12-01T10:33:56.908Z</time>
      </trkpt>
      <trkpt lat="43.66915" lon="7.11159">
        <ele>24.54</ele>
        <time>2024-12-01T10:33:58.914Z</time>
      </trkpt>
      <trkpt lat="43.66919" lon="7.11171">
        <ele>24.419998</ele>
        <time>2024-12-01T10:34:00.915Z</time>
      </trkpt>
      <trkpt lat="43.66924" lon="7.11185">
        <ele>24.68</ele>
        <time>2024-12-01T10:34:02.917Z</time>
      </trkpt>
      <trkpt lat="43.66929" lon="7.11199">
        <ele>23.689999</ele>
        <time>2024-12-01T10:34:04.922Z</time>
      </trkpt>
      <trkpt lat="43.66938" lon="7.11216">
        <ele>23.55</ele>
        <time>2024-12-01T10:34:07.885Z</time>
      </trkpt>
      <trkpt lat="43.66944" lon="7.11224">
        <ele>23.34</ele>
        <time>2024-12-01T10:34:09.888Z</time>
      </trkpt>
      <trkpt lat="43.66951" lon="7.11234">
        <ele>23.25</ele>
        <time>2024-12-01T10:34:11.894Z</time>
      </trkpt>
      <trkpt lat="43.66959" lon="7.11246">
        <ele>23.07</ele>
        <time>2024-12-01T10:34:13.524Z</time>
      </trkpt>
      <trkpt lat="43.66967" lon="7.11259">
        <ele>23.169998</ele>
        <time>2024-12-01T10:34:15.899Z</time>
      </trkpt>
      <trkpt lat="43.66975" lon="7.11268">
        <ele>23.18</ele>
        <time>2024-12-01T10:34:17.903Z</time>
      </trkpt>
      <trkpt lat="43.66982" lon="7.11278">
        <ele>21.490002</ele>
        <time>2024-12-01T10:34:19.907Z</time>
      </trkpt>
      <trkpt lat="43.66986" lon="7.11286">
        <ele>21.849998</ele>
        <time>2024-12-01T10:34:21.534Z</time>
      </trkpt>
      <trkpt lat="43.66988" lon="7.11296">
        <ele>22.59</ele>
        <time>2024-12-01T10:34:23.914Z</time>
      </trkpt>
      <trkpt lat="43.66985" lon="7.11307">
        <ele>23.23</ele>
        <time>2024-12-01T10:34:25.533Z</time>
      </trkpt>
      <trkpt lat="43.66979" lon="7.11318">
        <ele>23.900002</ele>
        <time>2024-12-01T10:34:27.920Z</time>
      </trkpt>
      <trkpt lat="43.66971" lon="7.11327">
        <ele>23.71</ele>
        <time>2024-12-01T10:34:29.998Z</time>
      </trkpt>
      <trkpt lat="43.66962" lon="7.11338">
        <ele>23.34</ele>
        <time>2024-12-01T10:34:31.927Z</time>
      </trkpt>
      <trkpt lat="43.66954" lon="7.11348">
        <ele>23.130001</ele>
        <time>2024-12-01T10:34:33.536Z</time>
      </trkpt>
      <trkpt lat="43.66945" lon="7.11359">
        <ele>21.59</ele>
        <time>2024-12-01T10:34:36.013Z</time>
      </trkpt>
      <trkpt lat="43.66936" lon="7.11371">
        <ele>21.869999</ele>
        <time>2024-12-01T10:34:37.984Z</time>
      </trkpt>
      <trkpt lat="43.66927" lon="7.1138">
        <ele>21.919998</ele>
        <time>2024-12-01T10:34:40.022Z</time>
      </trkpt>
      <trkpt lat="43.66916" lon="7.11387">
        <ele>22.080002</ele>
        <time>2024-12-01T10:34:41.991Z</time>
      </trkpt>
      <trkpt lat="43.66908" lon="7.11392">
        <ele>22.11</ele>
        <time>2024-12-01T10:34:43.967Z</time>
      </trkpt>
      <trkpt lat="43.669" lon="7.11396">
        <ele>22.919998</ele>
        <time>2024-12-01T10:34:46.009Z</time>
      </trkpt>
      <trkpt lat="43.66892" lon="7.11401">
        <ele>23.86</ele>
        <time>2024-12-01T10:34:47.984Z</time>
      </trkpt>
      <trkpt lat="43.66884" lon="7.11409">
        <ele>24.759998</ele>
        <time>2024-12-01T10:34:50.038Z</time>
      </trkpt>
      <trkpt lat="43.66877" lon="7.11416">
        <ele>25.86</ele>
        <time>2024-12-01T10:34:52.043Z</time>
      </trkpt>
      <trkpt lat="43.66869" lon="7.11424">
        <ele>27.630001</ele>
        <time>2024-12-01T10:34:54.046Z</time>
      </trkpt>
      <trkpt lat="43.66862" lon="7.11433">
        <ele>29.990002</ele>
        <time>2024-12-01T10:34:56.049Z</time>
      </trkpt>
      <trkpt lat="43.66855" lon="7.1144">
        <ele>31.96</ele>
        <time>2024-12-01T10:34:58.052Z</time>
      </trkpt>
      <trkpt lat="43.66848" lon="7.11448">
        <ele>32.98</ele>
        <time>2024-12-01T10:35:00.055Z</time>
      </trkpt>
      <trkpt lat="43.6684" lon="7.11454">
        <ele>32.54</ele>
        <time>2024-12-01T10:35:02.058Z</time>
      </trkpt>
      <trkpt lat="43.66832" lon="7.1146">
        <ele>31.55</ele>
        <time>2024-12-01T10:35:03.599Z</time>
      </trkpt>
      <trkpt lat="43.66824" lon="7.11465">
        <ele>30.23</ele>
        <time>2024-12-01T10:35:06.066Z</time>
      </trkpt>
      <trkpt lat="43.66816" lon="7.11469">
        <ele>28.970001</ele>
        <time>2024-12-01T10:35:07.657Z</time>
      </trkpt>
      <trkpt lat="43.66807" lon="7.11473">
        <ele>28.54</ele>
        <time>2024-12-01T10:35:10.074Z</time>
      </trkpt>
      <trkpt lat="43.66796" lon="7.11474">
        <ele>29.2</ele>
        <time>2024-12-01T10:35:12.076Z</time>
      </trkpt>
      <trkpt lat="43.66785" lon="7.11475">
        <ele>29.900002</ele>
        <time>2024-12-01T10:35:14.078Z</time>
      </trkpt>
      <trkpt lat="43.66771" lon="7.11474">
        <ele>31.380001</ele>
        <time>2024-12-01T10:35:16.086Z</time>
      </trkpt>
      <trkpt lat="43.66761" lon="7.11474">
        <ele>32.94</ele>
        <time>2024-12-01T10:35:18.086Z</time>
      </trkpt>
      <trkpt lat="43.66751" lon="7.11475">
        <ele>33.49</ele>
        <time>2024-12-01T10:35:20.089Z</time>
      </trkpt>
      <trkpt lat="43.66742" lon="7.1148">
        <ele>33.4</ele>
        <time>2024-12-01T10:35:21.626Z</time>
      </trkpt>
      <trkpt lat="43.66732" lon="7.11489">
        <ele>33.4</ele>
        <time>2024-12-01T10:35:24.096Z</time>
      </trkpt>
      <trkpt lat="43.66722" lon="7.115">
        <ele>33.39</ele>
        <time>2024-12-01T10:35:25.626Z</time>
      </trkpt>
      <trkpt lat="43.66712" lon="7.11511">
        <ele>33.43</ele>
        <time>2024-12-01T10:35:28.105Z</time>
      </trkpt>
      <trkpt lat="43.66702" lon="7.11523">
        <ele>33.25</ele>
        <time>2024-12-01T10:35:29.620Z</time>
      </trkpt>
      <trkpt lat="43.66693" lon="7.11533">
        <ele>33.1</ele>
        <time>2024-12-01T10:35:32.109Z</time>
      </trkpt>
      <trkpt lat="43.66684" lon="7.11544">
        <ele>32.91</ele>
        <time>2024-12-01T10:35:33.638Z</time>
      </trkpt>
      <trkpt lat="43.66675" lon="7.11555">
        <ele>32.52</ele>
        <time>2024-12-01T10:35:35.683Z</time>
      </trkpt>
      <trkpt lat="43.66666" lon="7.11567">
        <ele>32.36</ele>
        <time>2024-12-01T10:35:38.118Z</time>
      </trkpt>
      <trkpt lat="43.66658" lon="7.1158">
        <ele>32.33</ele>
        <time>2024-12-01T10:35:40.123Z</time>
      </trkpt>
      <trkpt lat="43.6665" lon="7.1159">
        <ele>32.3</ele>
        <time>2024-12-01T10:35:41.083Z</time>
      </trkpt>
      <trkpt lat="43.66643" lon="7.11597">
        <ele>32.16</ele>
        <time>2024-12-01T10:35:44.128Z</time>
      </trkpt>
      <trkpt lat="43.66637" lon="7.11602">
        <ele>32.01</ele>
        <time>2024-12-01T10:35:45.177Z</time>
      </trkpt>
      <trkpt lat="43.66634" lon="7.11606">
        <ele>31.82</ele>
        <time>2024-12-01T10:35:48.135Z</time>
      </trkpt>
      <trkpt lat="43.66617" lon="7.11627">
        <ele>31.7</ele>
        <time>2024-12-01T10:36:46.513Z</time>
      </trkpt>
      <trkpt lat="43.66613" lon="7.1163">
        <ele>31.8</ele>
        <time>2024-12-01T10:36:49.489Z</time>
      </trkpt>
      <trkpt lat="43.66608" lon="7.11639">
        <ele>32.22</ele>
        <time>2024-12-01T10:36:50.499Z</time>
      </trkpt>
      <trkpt lat="43.666" lon="7.11649">
        <ele>31.91</ele>
        <time>2024-12-01T10:36:53.473Z</time>
      </trkpt>
      <trkpt lat="43.66596" lon="7.11656">
        <ele>31.73</ele>
        <time>2024-12-01T10:36:55.240Z</time>
      </trkpt>
      <trkpt lat="43.66591" lon="7.11664">
        <ele>30.939999</ele>
        <time>2024-12-01T10:36:56.525Z</time>
      </trkpt>
      <trkpt lat="43.66586" lon="7.1167">
        <ele>30.689999</ele>
        <time>2024-12-01T10:36:59.496Z</time>
      </trkpt>
      <trkpt lat="43.66579" lon="7.11678">
        <ele>30.64</ele>
        <time>2024-12-01T10:37:01.505Z</time>
      </trkpt>
      <trkpt lat="43.66571" lon="7.11686">
        <ele>30.43</ele>
        <time>2024-12-01T10:37:03.509Z</time>
      </trkpt>
      <trkpt lat="43.66563" lon="7.11693">
        <ele>30.25</ele>
        <time>2024-12-01T10:37:05.516Z</time>
      </trkpt>
      <trkpt lat="43.66556" lon="7.117">
        <ele>30.119999</ele>
        <time>2024-12-01T10:37:07.517Z</time>
      </trkpt>
      <trkpt lat="43.66548" lon="7.11706">
        <ele>30.11</ele>
        <time>2024-12-01T10:37:09.520Z</time>
      </trkpt>
      <trkpt lat="43.6654" lon="7.11713">
        <ele>29.970001</ele>
        <time>2024-12-01T10:37:11.525Z</time>
      </trkpt>
      <trkpt lat="43.66531" lon="7.1172">
        <ele>29.470001</ele>
        <time>2024-12-01T10:37:13.526Z</time>
      </trkpt>
      <trkpt lat="43.6652" lon="7.11727">
        <ele>27.5</ele>
        <time>2024-12-01T10:37:15.529Z</time>
      </trkpt>
      <trkpt lat="43.66512" lon="7.11733">
        <ele>27.71</ele>
        <time>2024-12-01T10:37:17.276Z</time>
      </trkpt>
      <trkpt lat="43.66504" lon="7.11738">
        <ele>28.130001</ele>
        <time>2024-12-01T10:37:19.536Z</time>
      </trkpt>
      <trkpt lat="43.66496" lon="7.11743">
        <ele>27.73</ele>
        <time>2024-12-01T10:37:21.137Z</time>
      </trkpt>
      <trkpt lat="43.66489" lon="7.11749">
        <ele>27</ele>
        <time>2024-12-01T10:37:23.218Z</time>
      </trkpt>
      <trkpt lat="43.66482" lon="7.11756">
        <ele>27.41</ele>
        <time>2024-12-01T10:37:25.142Z</time>
      </trkpt>
      <trkpt lat="43.66476" lon="7.11761">
        <ele>28.09</ele>
        <time>2024-12-01T10:37:27.549Z</time>
      </trkpt>
      <trkpt lat="43.66471" lon="7.11766">
        <ele>27.14</ele>
        <time>2024-12-01T10:37:29.545Z</time>
      </trkpt>
      <trkpt lat="43.66465" lon="7.11773">
        <ele>25.470001</ele>
        <time>2024-12-01T10:37:31.526Z</time>
      </trkpt>
      <trkpt lat="43.66459" lon="7.11781">
        <ele>24.470001</ele>
        <time>2024-12-01T10:37:33.542Z</time>
      </trkpt>
      <trkpt lat="43.66451" lon="7.11789">
        <ele>22.86</ele>
        <time>2024-12-01T10:37:35.457Z</time>
      </trkpt>
      <trkpt lat="43.66443" lon="7.11798">
        <ele>23.2</ele>
        <time>2024-12-01T10:37:37.567Z</time>
      </trkpt>
      <trkpt lat="43.66435" lon="7.11806">
        <ele>23.41</ele>
        <time>2024-12-01T10:37:39.570Z</time>
      </trkpt>
      <trkpt lat="43.66427" lon="7.11814">
        <ele>23.3</ele>
        <time>2024-12-01T10:37:41.573Z</time>
      </trkpt>
      <trkpt lat="43.6642" lon="7.11824">
        <ele>23.11</ele>
        <time>2024-12-01T10:37:43.495Z</time>
      </trkpt>
      <trkpt lat="43.66412" lon="7.11834">
        <ele>22.650002</ele>
        <time>2024-12-01T10:37:45.579Z</time>
      </trkpt>
      <trkpt lat="43.66404" lon="7.11843">
        <ele>22.29</ele>
        <time>2024-12-01T10:37:47.552Z</time>
      </trkpt>
      <trkpt lat="43.66397" lon="7.11854">
        <ele>21.86</ele>
        <time>2024-12-01T10:37:49.506Z</time>
      </trkpt>
      <trkpt lat="43.6639" lon="7.11863">
        <ele>21.43</ele>
        <time>2024-12-01T10:37:51.484Z</time>
      </trkpt>
      <trkpt lat="43.66382" lon="7.11872">
        <ele>20.66</ele>
        <time>2024-12-01T10:37:53.427Z</time>
      </trkpt>
      <trkpt lat="43.66375" lon="7.11881">
        <ele>20.11</ele>
        <time>2024-12-01T10:37:55.517Z</time>
      </trkpt>
      <trkpt lat="43.66368" lon="7.11889">
        <ele>19.369999</ele>
        <time>2024-12-01T10:37:57.517Z</time>
      </trkpt>
      <trkpt lat="43.66361" lon="7.11897">
        <ele>16.39</ele>
        <time>2024-12-01T10:37:59.523Z</time>
      </trkpt>
      <trkpt lat="43.66354" lon="7.11906">
        <ele>15.139999</ele>
        <time>2024-12-01T10:38:01.525Z</time>
      </trkpt>
      <trkpt lat="43.66346" lon="7.11915">
        <ele>12</ele>
        <time>2024-12-01T10:38:03.549Z</time>
      </trkpt>
      <trkpt lat="43.66338" lon="7.11924">
        <ele>10.370003</ele>
        <time>2024-12-01T10:38:05.534Z</time>
      </trkpt>
      <trkpt lat="43.66329" lon="7.11933">
        <ele>8.860001</ele>
        <time>2024-12-01T10:38:07.538Z</time>
      </trkpt>
      <trkpt lat="43.66319" lon="7.11942">
        <ele>10.919998</ele>
        <time>2024-12-01T10:38:09.540Z</time>
      </trkpt>
      <trkpt lat="43.66309" lon="7.1195">
        <ele>12.529999</ele>
        <time>2024-12-01T10:38:11.542Z</time>
      </trkpt>
      <trkpt lat="43.66298" lon="7.11955">
        <ele>13.720001</ele>
        <time>2024-12-01T10:38:13.534Z</time>
      </trkpt>
      <trkpt lat="43.66286" lon="7.11959">
        <ele>13.169998</ele>
        <time>2024-12-01T10:38:15.550Z</time>
      </trkpt>
      <trkpt lat="43.66275" lon="7.11963">
        <ele>11.260002</ele>
        <time>2024-12-01T10:38:17.552Z</time>
      </trkpt>
      <trkpt lat="43.66264" lon="7.11967">
        <ele>9.309998</ele>
        <time>2024-12-01T10:38:19.555Z</time>
      </trkpt>
      <trkpt lat="43.66252" lon="7.1197">
        <ele>7.279999</ele>
        <time>2024-12-01T10:38:21.533Z</time>
      </trkpt>
      <trkpt lat="43.6624" lon="7.11973">
        <ele>7.1100006</ele>
        <time>2024-12-01T10:38:23.615Z</time>
      </trkpt>
      <trkpt lat="43.66229" lon="7.11977">
        <ele>6.050003</ele>
        <time>2024-12-01T10:38:25.644Z</time>
      </trkpt>
      <trkpt lat="43.66218" lon="7.11982">
        <ele>5.720001</ele>
        <time>2024-12-01T10:38:27.166Z</time>
      </trkpt>
      <trkpt lat="43.66208" lon="7.11988">
        <ele>4.970001</ele>
        <time>2024-12-01T10:38:29.657Z</time>
      </trkpt>
      <trkpt lat="43.66199" lon="7.11994">
        <ele>3.3300018</ele>
        <time>2024-12-01T10:38:31.186Z</time>
      </trkpt>
      <trkpt lat="43.66191" lon="7.11998">
        <ele>4.3099976</ele>
        <time>2024-12-01T10:38:33.660Z</time>
      </trkpt>
      <trkpt lat="43.66181" lon="7.12004">
        <ele>4.4100037</ele>
        <time>2024-12-01T10:38:35.244Z</time>
      </trkpt>
      <trkpt lat="43.6617" lon="7.1201">
        <ele>4.080002</ele>
        <time>2024-12-01T10:38:37.654Z</time>
      </trkpt>
      <trkpt lat="43.66162" lon="7.12016">
        <ele>5.540001</ele>
        <time>2024-12-01T10:38:39.234Z</time>
      </trkpt>
      <trkpt lat="43.66155" lon="7.12018">
        <ele>6.9300003</ele>
        <time>2024-12-01T10:38:41.254Z</time>
      </trkpt>
      <trkpt lat="43.66145" lon="7.12018">
        <ele>6.4100037</ele>
        <time>2024-12-01T10:38:43.674Z</time>
      </trkpt>
      <trkpt lat="43.66133" lon="7.12014">
        <ele>5.709999</ele>
        <time>2024-12-01T10:38:45.677Z</time>
      </trkpt>
      <trkpt lat="43.66123" lon="7.1201">
        <ele>6.5199966</ele>
        <time>2024-12-01T10:38:47.683Z</time>
      </trkpt>
      <trkpt lat="43.66114" lon="7.12005">
        <ele>7.169998</ele>
        <time>2024-12-01T10:38:49.685Z</time>
      </trkpt>
      <trkpt lat="43.66111" lon="7.12002">
        <ele>7.3499985</ele>
        <time>2024-12-01T10:38:51.686Z</time>
      </trkpt>
      <trkpt lat="43.66108" lon="7.12">
        <ele>7.959999</ele>
        <time>2024-12-01T10:38:53.689Z</time>
      </trkpt>
      <trkpt lat="43.66105" lon="7.11997">
        <ele>7.720001</ele>
        <time>2024-12-01T10:38:55.693Z</time>
      </trkpt>
      <trkpt lat="43.66098" lon="7.11994">
        <ele>7.510002</ele>
        <time>2024-12-01T10:38:57.697Z</time>
      </trkpt>
      <trkpt lat="43.66093" lon="7.11992">
        <ele>8.32</ele>
        <time>2024-12-01T10:38:59.699Z</time>
      </trkpt>
      <trkpt lat="43.66087" lon="7.1199">
        <ele>8.099998</ele>
        <time>2024-12-01T10:39:01.703Z</time>
      </trkpt>
      <trkpt lat="43.66081" lon="7.11987">
        <ele>8.699997</ele>
        <time>2024-12-01T10:39:03.705Z</time>
      </trkpt>
      <trkpt lat="43.66075" lon="7.11987">
        <ele>9.5</ele>
        <time>2024-12-01T10:39:05.710Z</time>
      </trkpt>
      <trkpt lat="43.66069" lon="7.11986">
        <ele>9.949997</ele>
        <time>2024-12-01T10:39:07.713Z</time>
      </trkpt>
      <trkpt lat="43.66063" lon="7.11987">
        <ele>9.639999</ele>
        <time>2024-12-01T10:39:09.718Z</time>
      </trkpt>
      <trkpt lat="43.66056" lon="7.11988">
        <ele>10</ele>
        <time>2024-12-01T10:39:11.719Z</time>
      </trkpt>
      <trkpt lat="43.66048" lon="7.1199">
        <ele>9.970001</ele>
        <time>2024-12-01T10:39:13.723Z</time>
      </trkpt>
      <trkpt lat="43.66042" lon="7.11991">
        <ele>9.43</ele>
        <time>2024-12-01T10:39:15.726Z</time>
      </trkpt>
      <trkpt lat="43.66035" lon="7.11991">
        <ele>10.730003</ele>
        <time>2024-12-01T10:39:17.381Z</time>
      </trkpt>
      <trkpt lat="43.6603" lon="7.11991">
        <ele>10.779999</ele>
        <time>2024-12-01T10:39:19.717Z</time>
      </trkpt>
      <trkpt lat="43.66024" lon="7.11991">
        <ele>11.139999</ele>
        <time>2024-12-01T10:39:21.737Z</time>
      </trkpt>
      <trkpt lat="43.66018" lon="7.11991">
        <ele>12.709999</ele>
        <time>2024-12-01T10:39:23.740Z</time>
      </trkpt>
      <trkpt lat="43.66011" lon="7.11991">
        <ele>11.550003</ele>
        <time>2024-12-01T10:39:25.743Z</time>
      </trkpt>
      <trkpt lat="43.66004" lon="7.1199">
        <ele>11.239998</ele>
        <time>2024-12-01T10:39:27.748Z</time>
      </trkpt>
      <trkpt lat="43.65996" lon="7.11992">
        <ele>11.139999</ele>
        <time>2024-12-01T10:39:29.749Z</time>
      </trkpt>
      <trkpt lat="43.65987" lon="7.11993">
        <ele>11.190002</ele>
        <time>2024-12-01T10:39:31.752Z</time>
      </trkpt>
      <trkpt lat="43.6598" lon="7.11994">
        <ele>12.199997</ele>
        <time>2024-12-01T10:39:33.759Z</time>
      </trkpt>
      <trkpt lat="43.65973" lon="7.11995">
        <ele>12.919998</ele>
        <time>2024-12-01T10:39:35.760Z</time>
      </trkpt>
      <trkpt lat="43.65963" lon="7.11997">
        <ele>12.199997</ele>
        <time>2024-12-01T10:39:37.762Z</time>
      </trkpt>
      <trkpt lat="43.65955" lon="7.12002">
        <ele>12.129997</ele>
        <time>2024-12-01T10:39:39.769Z</time>
      </trkpt>
      <trkpt lat="43.65948" lon="7.12007">
        <ele>12.910004</ele>
        <time>2024-12-01T10:39:41.770Z</time>
      </trkpt>
      <trkpt lat="43.65943" lon="7.12013">
        <ele>13.660004</ele>
        <time>2024-12-01T10:39:43.773Z</time>
      </trkpt>
      <trkpt lat="43.6594" lon="7.12018">
        <ele>14.150002</ele>
        <time>2024-12-01T10:39:45.778Z</time>
      </trkpt>
      <trkpt lat="43.65936" lon="7.12024">
        <ele>13.550003</ele>
        <time>2024-12-01T10:39:47.781Z</time>
      </trkpt>
      <trkpt lat="43.65931" lon="7.12031">
        <ele>14.440002</ele>
        <time>2024-12-01T10:39:49.782Z</time>
      </trkpt>
      <trkpt lat="43.65927" lon="7.12038">
        <ele>16.5</ele>
        <time>2024-12-01T10:39:51.789Z</time>
      </trkpt>
      <trkpt lat="43.65923" lon="7.12046">
        <ele>17.470001</ele>
        <time>2024-12-01T10:39:53.425Z</time>
      </trkpt>
      <trkpt lat="43.6592" lon="7.12051">
        <ele>17.48</ele>
        <time>2024-12-01T10:39:55.793Z</time>
      </trkpt>
      <trkpt lat="43.65919" lon="7.12054">
        <ele>18.119999</ele>
        <time>2024-12-01T10:39:57.798Z</time>
      </trkpt>
      <trkpt lat="43.65918" lon="7.12054">
        <ele>18.39</ele>
        <time>2024-12-01T10:39:59.801Z</time>
      </trkpt>
      <trkpt lat="43.65911" lon="7.12059">
        <ele>18.650002</ele>
        <time>2024-12-01T10:40:09.228Z</time>
      </trkpt>
      <trkpt lat="43.65909" lon="7.12062">
        <ele>17.2</ele>
        <time>2024-12-01T10:40:11.232Z</time>
      </trkpt>
      <trkpt lat="43.65906" lon="7.12062">
        <ele>17.64</ele>
        <time>2024-12-01T10:40:13.234Z</time>
      </trkpt>
      <trkpt lat="43.65902" lon="7.12062">
        <ele>17.77</ele>
        <time>2024-12-01T10:40:15.238Z</time>
      </trkpt>
      <trkpt lat="43.65897" lon="7.1206">
        <ele>17.830002</ele>
        <time>2024-12-01T10:40:17.240Z</time>
      </trkpt>
      <trkpt lat="43.65891" lon="7.1206">
        <ele>18.240002</ele>
        <time>2024-12-01T10:40:19.244Z</time>
      </trkpt>
      <trkpt lat="43.65885" lon="7.12061">
        <ele>18.39</ele>
        <time>2024-12-01T10:40:21.247Z</time>
      </trkpt>
      <trkpt lat="43.65882" lon="7.12062">
        <ele>18.560001</ele>
        <time>2024-12-01T10:40:23.250Z</time>
      </trkpt>
      <trkpt lat="43.65878" lon="7.12064">
        <ele>18.59</ele>
        <time>2024-12-01T10:40:25.255Z</time>
      </trkpt>
      <trkpt lat="43.65874" lon="7.12065">
        <ele>18.880001</ele>
        <time>2024-12-01T10:40:27.258Z</time>
      </trkpt>
      <trkpt lat="43.65873" lon="7.12065">
        <ele>20.150002</ele>
        <time>2024-12-01T10:40:29.261Z</time>
      </trkpt>
      <trkpt lat="43.6587" lon="7.12065">
        <ele>20.21</ele>
        <time>2024-12-01T10:40:31.264Z</time>
      </trkpt>
      <trkpt lat="43.65868" lon="7.12063">
        <ele>19.400002</ele>
        <time>2024-12-01T10:40:33.267Z</time>
      </trkpt>
      <trkpt lat="43.65865" lon="7.12062">
        <ele>19.560001</ele>
        <time>2024-12-01T10:40:35.288Z</time>
      </trkpt>
      <trkpt lat="43.65863" lon="7.1206">
        <ele>19.630001</ele>
        <time>2024-12-01T10:40:37.276Z</time>
      </trkpt>
      <trkpt lat="43.6586" lon="7.12056">
        <ele>19.509998</ele>
        <time>2024-12-01T10:40:39.115Z</time>
      </trkpt>
      <trkpt lat="43.65858" lon="7.12053">
        <ele>19.630001</ele>
        <time>2024-12-01T10:40:41.282Z</time>
      </trkpt>
      <trkpt lat="43.65859" lon="7.12048">
        <ele>19.779999</ele>
        <time>2024-12-01T10:40:43.210Z</time>
      </trkpt>
      <trkpt lat="43.65849" lon="7.12022">
        <ele>19.2</ele>
        <time>2024-12-01T10:40:45.288Z</time>
      </trkpt>
      <trkpt lat="43.65841" lon="7.1202">
        <ele>19.29</ele>
        <time>2024-12-01T10:40:47.291Z</time>
      </trkpt>
      <trkpt lat="43.65832" lon="7.12021">
        <ele>19.71</ele>
        <time>2024-12-01T10:40:49.295Z</time>
      </trkpt>
      <trkpt lat="43.65823" lon="7.12023">
        <ele>20.150002</ele>
        <time>2024-12-01T10:40:51.299Z</time>
      </trkpt>
      <trkpt lat="43.65814" lon="7.12025">
        <ele>19.990002</ele>
        <time>2024-12-01T10:40:53.300Z</time>
      </trkpt>
      <trkpt lat="43.65806" lon="7.12026">
        <ele>20.09</ele>
        <time>2024-12-01T10:40:55.303Z</time>
      </trkpt>
      <trkpt lat="43.65798" lon="7.1203">
        <ele>20.18</ele>
        <time>2024-12-01T10:40:57.309Z</time>
      </trkpt>
      <trkpt lat="43.65791" lon="7.12033">
        <ele>20</ele>
        <time>2024-12-01T10:40:59.311Z</time>
      </trkpt>
      <trkpt lat="43.65784" lon="7.12037">
        <ele>19.95</ele>
        <time>2024-12-01T10:41:01.315Z</time>
      </trkpt>
      <trkpt lat="43.65781" lon="7.1204">
        <ele>19.990002</ele>
        <time>2024-12-01T10:41:03.319Z</time>
      </trkpt>
      <trkpt lat="43.65776" lon="7.12044">
        <ele>19.669998</ele>
        <time>2024-12-01T10:41:05.321Z</time>
      </trkpt>
      <trkpt lat="43.65773" lon="7.12046">
        <ele>19.560001</ele>
        <time>2024-12-01T10:41:07.323Z</time>
      </trkpt>
      <trkpt lat="43.6577" lon="7.12045">
        <ele>19.490002</ele>
        <time>2024-12-01T10:41:09.172Z</time>
      </trkpt>
      <trkpt lat="43.65766" lon="7.12045">
        <ele>19.32</ele>
        <time>2024-12-01T10:41:11.331Z</time>
      </trkpt>
      <trkpt lat="43.65762" lon="7.12045">
        <ele>18.810001</ele>
        <time>2024-12-01T10:41:13.336Z</time>
      </trkpt>
      <trkpt lat="43.65757" lon="7.12047">
        <ele>18.91</ele>
        <time>2024-12-01T10:41:15.339Z</time>
      </trkpt>
      <trkpt lat="43.65752" lon="7.12048">
        <ele>18.75</ele>
        <time>2024-12-01T10:41:17.341Z</time>
      </trkpt>
      <trkpt lat="43.65748" lon="7.1205">
        <ele>17.779999</ele>
        <time>2024-12-01T10:41:19.346Z</time>
      </trkpt>
      <trkpt lat="43.65743" lon="7.12051">
        <ele>18.46</ele>
        <time>2024-12-01T10:41:21.349Z</time>
      </trkpt>
      <trkpt lat="43.65735" lon="7.1205">
        <ele>18.630001</ele>
        <time>2024-12-01T10:41:23.350Z</time>
      </trkpt>
      <trkpt lat="43.65726" lon="7.12048">
        <ele>18.580002</ele>
        <time>2024-12-01T10:41:25.354Z</time>
      </trkpt>
      <trkpt lat="43.65718" lon="7.12047">
        <ele>17.02</ele>
        <time>2024-12-01T10:41:27.357Z</time>
      </trkpt>
      <trkpt lat="43.65711" lon="7.12049">
        <ele>16.559998</ele>
        <time>2024-12-01T10:41:29.362Z</time>
      </trkpt>
      <trkpt lat="43.65705" lon="7.12057">
        <ele>16.370003</ele>
        <time>2024-12-01T10:41:31.363Z</time>
      </trkpt>
      <trkpt lat="43.657" lon="7.12066">
        <ele>16.730003</ele>
        <time>2024-12-01T10:41:33.367Z</time>
      </trkpt>
      <trkpt lat="43.65697" lon="7.12073">
        <ele>16.809998</ele>
        <time>2024-12-01T10:41:35.370Z</time>
      </trkpt>
      <trkpt lat="43.65693" lon="7.12077">
        <ele>16.75</ele>
        <time>2024-12-01T10:41:37.374Z</time>
      </trkpt>
      <trkpt lat="43.65687" lon="7.12078">
        <ele>17.39</ele>
        <time>2024-12-01T10:41:39.376Z</time>
      </trkpt>
      <trkpt lat="43.65679" lon="7.12081">
        <ele>17.82</ele>
        <time>2024-12-01T10:41:41.381Z</time>
      </trkpt>
      <trkpt lat="43.65671" lon="7.12086">
        <ele>17.380001</ele>
        <time>2024-12-01T10:41:43.385Z</time>
      </trkpt>
      <trkpt lat="43.65664" lon="7.12091">
        <ele>17.259998</ele>
        <time>2024-12-01T10:41:45.389Z</time>
      </trkpt>
      <trkpt lat="43.6566" lon="7.12096">
        <ele>17.259998</ele>
        <time>2024-12-01T10:41:47.392Z</time>
      </trkpt>
      <trkpt lat="43.65654" lon="7.12103">
        <ele>17.310001</ele>
        <time>2024-12-01T10:41:49.395Z</time>
      </trkpt>
      <trkpt lat="43.65652" lon="7.12112">
        <ele>16.830002</ele>
        <time>2024-12-01T10:41:50.498Z</time>
      </trkpt>
      <trkpt lat="43.65612" lon="7.12174">
        <ele>17.16</ele>
        <time>2024-12-01T10:43:07.633Z</time>
      </trkpt>
      <trkpt lat="43.65615" lon="7.1217">
        <ele>20.580002</ele>
        <time>2024-12-01T10:43:10.623Z</time>
      </trkpt>
      <trkpt lat="43.65639" lon="7.1215">
        <ele>19.71</ele>
        <time>2024-12-01T10:43:11.630Z</time>
      </trkpt>
      <trkpt lat="43.65643" lon="7.12146">
        <ele>19.400002</ele>
        <time>2024-12-01T10:43:14.608Z</time>
      </trkpt>
      <trkpt lat="43.65636" lon="7.12145">
        <ele>19.73</ele>
        <time>2024-12-01T10:43:16.633Z</time>
      </trkpt>
      <trkpt lat="43.65635" lon="7.12147">
        <ele>20.07</ele>
        <time>2024-12-01T10:43:17.646Z</time>
      </trkpt>
      <trkpt lat="43.65632" lon="7.12152">
        <ele>20.07</ele>
        <time>2024-12-01T10:43:20.640Z</time>
      </trkpt>
      <trkpt lat="43.65629" lon="7.12159">
        <ele>20.07</ele>
        <time>2024-12-01T10:43:22.599Z</time>
      </trkpt>
      <trkpt lat="43.65628" lon="7.12173">
        <ele>15.769997</ele>
        <time>2024-12-01T10:43:24.645Z</time>
      </trkpt>
      <trkpt lat="43.65627" lon="7.12184">
        <ele>14.660004</ele>
        <time>2024-12-01T10:43:25.669Z</time>
      </trkpt>
      <trkpt lat="43.65626" lon="7.12193">
        <ele>14.599998</ele>
        <time>2024-12-01T10:43:28.653Z</time>
      </trkpt>
      <trkpt lat="43.65624" lon="7.12202">
        <ele>15.370003</ele>
        <time>2024-12-01T10:43:30.665Z</time>
      </trkpt>
      <trkpt lat="43.65622" lon="7.12211">
        <ele>15.239998</ele>
        <time>2024-12-01T10:43:32.662Z</time>
      </trkpt>
      <trkpt lat="43.65621" lon="7.12219">
        <ele>16.059998</ele>
        <time>2024-12-01T10:43:34.665Z</time>
      </trkpt>
      <trkpt lat="43.65621" lon="7.1223">
        <ele>16.04</ele>
        <time>2024-12-01T10:43:36.668Z</time>
      </trkpt>
      <trkpt lat="43.6562" lon="7.12241">
        <ele>13.830002</ele>
        <time>2024-12-01T10:43:38.672Z</time>
      </trkpt>
      <trkpt lat="43.65617" lon="7.12254">
        <ele>14.900002</ele>
        <time>2024-12-01T10:43:40.630Z</time>
      </trkpt>
      <trkpt lat="43.65614" lon="7.12266">
        <ele>15.57</ele>
        <time>2024-12-01T10:43:42.680Z</time>
      </trkpt>
      <trkpt lat="43.6561" lon="7.12281">
        <ele>16</ele>
        <time>2024-12-01T10:43:44.681Z</time>
      </trkpt>
      <trkpt lat="43.65604" lon="7.12298">
        <ele>15.760002</ele>
        <time>2024-12-01T10:43:46.684Z</time>
      </trkpt>
      <trkpt lat="43.656" lon="7.12312">
        <ele>15.080002</ele>
        <time>2024-12-01T10:43:48.689Z</time>
      </trkpt>
      <trkpt lat="43.65597" lon="7.12325">
        <ele>14.209999</ele>
        <time>2024-12-01T10:43:50.690Z</time>
      </trkpt>
      <trkpt lat="43.65594" lon="7.12336">
        <ele>13.410004</ele>
        <time>2024-12-01T10:43:52.695Z</time>
      </trkpt>
      <trkpt lat="43.65591" lon="7.12345">
        <ele>12.620003</ele>
        <time>2024-12-01T10:43:54.697Z</time>
      </trkpt>
      <trkpt lat="43.65589" lon="7.12353">
        <ele>12.800003</ele>
        <time>2024-12-01T10:43:56.699Z</time>
      </trkpt>
      <trkpt lat="43.65586" lon="7.12361">
        <ele>13.260002</ele>
        <time>2024-12-01T10:43:58.703Z</time>
      </trkpt>
      <trkpt lat="43.65582" lon="7.12371">
        <ele>12.980003</ele>
        <time>2024-12-01T10:44:00.574Z</time>
      </trkpt>
      <trkpt lat="43.65578" lon="7.12383">
        <ele>12.480003</ele>
        <time>2024-12-01T10:44:02.709Z</time>
      </trkpt>
      <trkpt lat="43.65574" lon="7.12395">
        <ele>12.470001</ele>
        <time>2024-12-01T10:44:04.591Z</time>
      </trkpt>
      <trkpt lat="43.6557" lon="7.12404">
        <ele>12.220001</ele>
        <time>2024-12-01T10:44:05.752Z</time>
      </trkpt>
      <trkpt lat="43.65565" lon="7.12411">
        <ele>12.25</ele>
        <time>2024-12-01T10:44:08.723Z</time>
      </trkpt>
      <trkpt lat="43.6556" lon="7.12419">
        <ele>12.75</ele>
        <time>2024-12-01T10:44:10.725Z</time>
      </trkpt>
      <trkpt lat="43.65554" lon="7.12427">
        <ele>13.370003</ele>
        <time>2024-12-01T10:44:12.728Z</time>
      </trkpt>
      <trkpt lat="43.65548" lon="7.12437">
        <ele>14.239998</ele>
        <time>2024-12-01T10:44:14.731Z</time>
      </trkpt>
      <trkpt lat="43.65543" lon="7.12446">
        <ele>15.129997</ele>
        <time>2024-12-01T10:44:16.734Z</time>
      </trkpt>
      <trkpt lat="43.65537" lon="7.12454">
        <ele>16.089996</ele>
        <time>2024-12-01T10:44:18.588Z</time>
      </trkpt>
      <trkpt lat="43.65533" lon="7.1246">
        <ele>17.05</ele>
        <time>2024-12-01T10:44:20.739Z</time>
      </trkpt>
      <trkpt lat="43.65527" lon="7.12466">
        <ele>18.09</ele>
        <time>2024-12-01T10:44:22.742Z</time>
      </trkpt>
      <trkpt lat="43.65522" lon="7.12472">
        <ele>19.369999</ele>
        <time>2024-12-01T10:44:24.748Z</time>
      </trkpt>
      <trkpt lat="43.65517" lon="7.12479">
        <ele>20.48</ele>
        <time>2024-12-01T10:44:26.750Z</time>
      </trkpt>
      <trkpt lat="43.6551" lon="7.12486">
        <ele>21.07</ele>
        <time>2024-12-01T10:44:28.754Z</time>
      </trkpt>
      <trkpt lat="43.65504" lon="7.12493">
        <ele>20.16</ele>
        <time>2024-12-01T10:44:30.756Z</time>
      </trkpt>
      <trkpt lat="43.65498" lon="7.125">
        <ele>18.849998</ele>
        <time>2024-12-01T10:44:32.758Z</time>
      </trkpt>
      <trkpt lat="43.65491" lon="7.12507">
        <ele>18.82</ele>
        <time>2024-12-01T10:44:34.761Z</time>
      </trkpt>
      <trkpt lat="43.65483" lon="7.12517">
        <ele>18.560001</ele>
        <time>2024-12-01T10:44:36.306Z</time>
      </trkpt>
      <trkpt lat="43.65477" lon="7.12526">
        <ele>18.509998</ele>
        <time>2024-12-01T10:44:38.769Z</time>
      </trkpt>
      <trkpt lat="43.65469" lon="7.12533">
        <ele>18.900002</ele>
        <time>2024-12-01T10:44:40.771Z</time>
      </trkpt>
      <trkpt lat="43.65461" lon="7.12537">
        <ele>18.970001</ele>
        <time>2024-12-01T10:44:42.775Z</time>
      </trkpt>
      <trkpt lat="43.65454" lon="7.12542">
        <ele>19.39</ele>
        <time>2024-12-01T10:44:44.779Z</time>
      </trkpt>
      <trkpt lat="43.65446" lon="7.12547">
        <ele>19.470001</ele>
        <time>2024-12-01T10:44:46.799Z</time>
      </trkpt>
      <trkpt lat="43.6544" lon="7.12552">
        <ele>20.18</ele>
        <time>2024-12-01T10:44:48.784Z</time>
      </trkpt>
      <trkpt lat="43.65432" lon="7.12558">
        <ele>20.240002</ele>
        <time>2024-12-01T10:44:50.358Z</time>
      </trkpt>
      <trkpt lat="43.65425" lon="7.12564">
        <ele>20.18</ele>
        <time>2024-12-01T10:44:52.792Z</time>
      </trkpt>
      <trkpt lat="43.65419" lon="7.1257">
        <ele>20.029999</ele>
        <time>2024-12-01T10:44:54.794Z</time>
      </trkpt>
      <trkpt lat="43.65413" lon="7.12576">
        <ele>20.07</ele>
        <time>2024-12-01T10:44:56.798Z</time>
      </trkpt>
      <trkpt lat="43.65407" lon="7.12582">
        <ele>19.509998</ele>
        <time>2024-12-01T10:44:58.793Z</time>
      </trkpt>
      <trkpt lat="43.654" lon="7.12589">
        <ele>19.07</ele>
        <time>2024-12-01T10:45:00.807Z</time>
      </trkpt>
      <trkpt lat="43.65393" lon="7.12595">
        <ele>17.939999</ele>
        <time>2024-12-01T10:45:02.808Z</time>
      </trkpt>
      <trkpt lat="43.65386" lon="7.12603">
        <ele>17.23</ele>
        <time>2024-12-01T10:45:04.815Z</time>
      </trkpt>
      <trkpt lat="43.65379" lon="7.12611">
        <ele>17.57</ele>
        <time>2024-12-01T10:45:06.814Z</time>
      </trkpt>
      <trkpt lat="43.65371" lon="7.12618">
        <ele>18.09</ele>
        <time>2024-12-01T10:45:08.818Z</time>
      </trkpt>
      <trkpt lat="43.65364" lon="7.12624">
        <ele>18.68</ele>
        <time>2024-12-01T10:45:10.434Z</time>
      </trkpt>
      <trkpt lat="43.65356" lon="7.1263">
        <ele>19.07</ele>
        <time>2024-12-01T10:45:12.336Z</time>
      </trkpt>
      <trkpt lat="43.65349" lon="7.12635">
        <ele>19.150002</ele>
        <time>2024-12-01T10:45:14.827Z</time>
      </trkpt>
      <trkpt lat="43.65342" lon="7.12638">
        <ele>19.310001</ele>
        <time>2024-12-01T10:45:16.832Z</time>
      </trkpt>
      <trkpt lat="43.65339" lon="7.12644">
        <ele>18.77</ele>
        <time>2024-12-01T10:45:18.835Z</time>
      </trkpt>
      <trkpt lat="43.65338" lon="7.12651">
        <ele>18.779999</ele>
        <time>2024-12-01T10:45:20.840Z</time>
      </trkpt>
      <trkpt lat="43.65337" lon="7.12659">
        <ele>18.32</ele>
        <time>2024-12-01T10:45:22.630Z</time>
      </trkpt>
      <trkpt lat="43.65335" lon="7.12667">
        <ele>17.54</ele>
        <time>2024-12-01T10:45:24.433Z</time>
      </trkpt>
      <trkpt lat="43.65331" lon="7.12674">
        <ele>18.11</ele>
        <time>2024-12-01T10:45:26.847Z</time>
      </trkpt>
      <trkpt lat="43.65327" lon="7.1268">
        <ele>18.169998</ele>
        <time>2024-12-01T10:45:28.851Z</time>
      </trkpt>
      <trkpt lat="43.65321" lon="7.12688">
        <ele>17.580002</ele>
        <time>2024-12-01T10:45:30.855Z</time>
      </trkpt>
      <trkpt lat="43.65315" lon="7.12695">
        <ele>16.870003</ele>
        <time>2024-12-01T10:45:32.858Z</time>
      </trkpt>
      <trkpt lat="43.65308" lon="7.12702">
        <ele>15.860001</ele>
        <time>2024-12-01T10:45:34.862Z</time>
      </trkpt>
      <trkpt lat="43.65302" lon="7.12709">
        <ele>15.739998</ele>
        <time>2024-12-01T10:45:36.866Z</time>
      </trkpt>
      <trkpt lat="43.65297" lon="7.12717">
        <ele>15.910004</ele>
        <time>2024-12-01T10:45:38.867Z</time>
      </trkpt>
      <trkpt lat="43.6529" lon="7.12726">
        <ele>16.11</ele>
        <time>2024-12-01T10:45:40.873Z</time>
      </trkpt>
      <trkpt lat="43.65284" lon="7.12734">
        <ele>16.199997</ele>
        <time>2024-12-01T10:45:42.877Z</time>
      </trkpt>
      <trkpt lat="43.65278" lon="7.12742">
        <ele>15.989998</ele>
        <time>2024-12-01T10:45:44.879Z</time>
      </trkpt>
      <trkpt lat="43.65273" lon="7.12749">
        <ele>15.330002</ele>
        <time>2024-12-01T10:45:46.881Z</time>
      </trkpt>
      <trkpt lat="43.65268" lon="7.12757">
        <ele>15.25</ele>
        <time>2024-12-01T10:45:48.886Z</time>
      </trkpt>
      <trkpt lat="43.65265" lon="7.12767">
        <ele>15.370003</ele>
        <time>2024-12-01T10:45:50.890Z</time>
      </trkpt>
      <trkpt lat="43.65261" lon="7.12777">
        <ele>15.699997</ele>
        <time>2024-12-01T10:45:52.894Z</time>
      </trkpt>
      <trkpt lat="43.65259" lon="7.12788">
        <ele>15.889999</ele>
        <time>2024-12-01T10:45:54.898Z</time>
      </trkpt>
      <trkpt lat="43.65258" lon="7.12798">
        <ele>15.440002</ele>
        <time>2024-12-01T10:45:56.898Z</time>
      </trkpt>
      <trkpt lat="43.65257" lon="7.12804">
        <ele>15.449997</ele>
        <time>2024-12-01T10:45:58.903Z</time>
      </trkpt>
      <trkpt lat="43.65253" lon="7.12807">
        <ele>15.389999</ele>
        <time>2024-12-01T10:46:00.907Z</time>
      </trkpt>
      <trkpt lat="43.6525" lon="7.12807">
        <ele>15.5</ele>
        <time>2024-12-01T10:46:02.911Z</time>
      </trkpt>
      <trkpt lat="43.65245" lon="7.12809">
        <ele>14.470001</ele>
        <time>2024-12-01T10:46:04.914Z</time>
      </trkpt>
      <trkpt lat="43.65243" lon="7.12813">
        <ele>14.57</ele>
        <time>2024-12-01T10:46:06.919Z</time>
      </trkpt>
      <trkpt lat="43.65243" lon="7.12817">
        <ele>14.720001</ele>
        <time>2024-12-01T10:46:08.918Z</time>
      </trkpt>
      <trkpt lat="43.65244" lon="7.12824">
        <ele>15.010002</ele>
        <time>2024-12-01T10:46:10.921Z</time>
      </trkpt>
      <trkpt lat="43.65244" lon="7.12831">
        <ele>15.400002</ele>
        <time>2024-12-01T10:46:12.928Z</time>
      </trkpt>
      <trkpt lat="43.65244" lon="7.12834">
        <ele>15.470001</ele>
        <time>2024-12-01T10:46:14.929Z</time>
      </trkpt>
      <trkpt lat="43.65242" lon="7.12835">
        <ele>15.550003</ele>
        <time>2024-12-01T10:46:16.933Z</time>
      </trkpt>
      <trkpt lat="43.6524" lon="7.12837">
        <ele>15.629997</ele>
        <time>2024-12-01T10:46:18.937Z</time>
      </trkpt>
      <trkpt lat="43.65237" lon="7.12838">
        <ele>15.639999</ele>
        <time>2024-12-01T10:46:20.940Z</time>
      </trkpt>
      <trkpt lat="43.65232" lon="7.12841">
        <ele>15.550003</ele>
        <time>2024-12-01T10:46:22.943Z</time>
      </trkpt>
      <trkpt lat="43.65226" lon="7.12841">
        <ele>14.309998</ele>
        <time>2024-12-01T10:46:24.599Z</time>
      </trkpt>
      <trkpt lat="43.6522" lon="7.12839">
        <ele>14.290001</ele>
        <time>2024-12-01T10:46:26.950Z</time>
      </trkpt>
      <trkpt lat="43.65215" lon="7.12838">
        <ele>14.330002</ele>
        <time>2024-12-01T10:46:28.954Z</time>
      </trkpt>
      <trkpt lat="43.65211" lon="7.12839">
        <ele>14.540001</ele>
        <time>2024-12-01T10:46:30.957Z</time>
      </trkpt>
      <trkpt lat="43.65206" lon="7.12842">
        <ele>14.610001</ele>
        <time>2024-12-01T10:46:32.959Z</time>
      </trkpt>
      <trkpt lat="43.652" lon="7.12848">
        <ele>14.629997</ele>
        <time>2024-12-01T10:46:34.964Z</time>
      </trkpt>
      <trkpt lat="43.65195" lon="7.12855">
        <ele>14.879997</ele>
        <time>2024-12-01T10:46:36.653Z</time>
      </trkpt>
      <trkpt lat="43.65192" lon="7.12865">
        <ele>14.849998</ele>
        <time>2024-12-01T10:46:38.969Z</time>
      </trkpt>
      <trkpt lat="43.65189" lon="7.12876">
        <ele>14.860001</ele>
        <time>2024-12-01T10:46:40.972Z</time>
      </trkpt>
      <trkpt lat="43.65185" lon="7.12884">
        <ele>14.849998</ele>
        <time>2024-12-01T10:46:42.974Z</time>
      </trkpt>
      <trkpt lat="43.65181" lon="7.12889">
        <ele>14.639999</ele>
        <time>2024-12-01T10:46:44.980Z</time>
      </trkpt>
      <trkpt lat="43.65178" lon="7.12893">
        <ele>14.720001</ele>
        <time>2024-12-01T10:46:46.636Z</time>
      </trkpt>
      <trkpt lat="43.65174" lon="7.12897">
        <ele>14.769997</ele>
        <time>2024-12-01T10:46:48.984Z</time>
      </trkpt>
      <trkpt lat="43.65171" lon="7.12901">
        <ele>14.959999</ele>
        <time>2024-12-01T10:46:50.610Z</time>
      </trkpt>
      <trkpt lat="43.65166" lon="7.12905">
        <ele>14.860001</ele>
        <time>2024-12-01T10:46:52.992Z</time>
      </trkpt>
      <trkpt lat="43.65162" lon="7.12908">
        <ele>15.029999</ele>
        <time>2024-12-01T10:46:54.996Z</time>
      </trkpt>
      <trkpt lat="43.65155" lon="7.12912">
        <ele>15.150002</ele>
        <time>2024-12-01T10:46:57.001Z</time>
      </trkpt>
      <trkpt lat="43.65148" lon="7.12916">
        <ele>15.339996</ele>
        <time>2024-12-01T10:46:59.003Z</time>
      </trkpt>
      <trkpt lat="43.6514" lon="7.1292">
        <ele>15.440002</ele>
        <time>2024-12-01T10:47:01.004Z</time>
      </trkpt>
      <trkpt lat="43.6513" lon="7.12927">
        <ele>15.5</ele>
        <time>2024-12-01T10:47:03.008Z</time>
      </trkpt>
      <trkpt lat="43.65121" lon="7.12933">
        <ele>15.68</ele>
        <time>2024-12-01T10:47:05.013Z</time>
      </trkpt>
      <trkpt lat="43.65113" lon="7.1294">
        <ele>15.639999</ele>
        <time>2024-12-01T10:47:07.015Z</time>
      </trkpt>
      <trkpt lat="43.65105" lon="7.12946">
        <ele>15.720001</ele>
        <time>2024-12-01T10:47:09.019Z</time>
      </trkpt>
      <trkpt lat="43.65097" lon="7.12954">
        <ele>15.720001</ele>
        <time>2024-12-01T10:47:11.023Z</time>
      </trkpt>
      <trkpt lat="43.6509" lon="7.1296">
        <ele>15.589996</ele>
        <time>2024-12-01T10:47:13.026Z</time>
      </trkpt>
      <trkpt lat="43.65082" lon="7.12967">
        <ele>15.629997</ele>
        <time>2024-12-01T10:47:15.029Z</time>
      </trkpt>
      <trkpt lat="43.65075" lon="7.12974">
        <ele>15.790001</ele>
        <time>2024-12-01T10:47:17.032Z</time>
      </trkpt>
      <trkpt lat="43.65068" lon="7.12979">
        <ele>15.650002</ele>
        <time>2024-12-01T10:47:19.035Z</time>
      </trkpt>
      <trkpt lat="43.65063" lon="7.12985">
        <ele>15.540001</ele>
        <time>2024-12-01T10:47:21.040Z</time>
      </trkpt>
      <trkpt lat="43.65058" lon="7.1299">
        <ele>15.5</ele>
        <time>2024-12-01T10:47:23.045Z</time>
      </trkpt>
      <trkpt lat="43.65053" lon="7.12996">
        <ele>15.449997</ele>
        <time>2024-12-01T10:47:25.044Z</time>
      </trkpt>
      <trkpt lat="43.65049" lon="7.13001">
        <ele>15.440002</ele>
        <time>2024-12-01T10:47:26.637Z</time>
      </trkpt>
      <trkpt lat="43.65044" lon="7.13008">
        <ele>15.410004</ele>
        <time>2024-12-01T10:47:29.053Z</time>
      </trkpt>
      <trkpt lat="43.65039" lon="7.13016">
        <ele>14.93</ele>
        <time>2024-12-01T10:47:30.638Z</time>
      </trkpt>
      <trkpt lat="43.65033" lon="7.13024">
        <ele>15.040001</ele>
        <time>2024-12-01T10:47:32.647Z</time>
      </trkpt>
      <trkpt lat="43.65029" lon="7.13032">
        <ele>15.059998</ele>
        <time>2024-12-01T10:47:34.682Z</time>
      </trkpt>
      <trkpt lat="43.65023" lon="7.1304">
        <ele>15.080002</ele>
        <time>2024-12-01T10:47:36.693Z</time>
      </trkpt>
      <trkpt lat="43.65018" lon="7.13048">
        <ele>14.620003</ele>
        <time>2024-12-01T10:47:38.655Z</time>
      </trkpt>
      <trkpt lat="43.65013" lon="7.13058">
        <ele>14.18</ele>
        <time>2024-12-01T10:47:40.650Z</time>
      </trkpt>
      <trkpt lat="43.65008" lon="7.13067">
        <ele>14.18</ele>
        <time>2024-12-01T10:47:42.662Z</time>
      </trkpt>
      <trkpt lat="43.65002" lon="7.13075">
        <ele>13.370003</ele>
        <time>2024-12-01T10:47:44.725Z</time>
      </trkpt>
      <trkpt lat="43.64998" lon="7.13083">
        <ele>12.669998</ele>
        <time>2024-12-01T10:47:47.085Z</time>
      </trkpt>
      <trkpt lat="43.64995" lon="7.1309">
        <ele>10.040001</ele>
        <time>2024-12-01T10:47:49.086Z</time>
      </trkpt>
      <trkpt lat="43.64991" lon="7.13099">
        <ele>7.7699966</ele>
        <time>2024-12-01T10:47:51.089Z</time>
      </trkpt>
      <trkpt lat="43.64987" lon="7.13107">
        <ele>6.6500015</ele>
        <time>2024-12-01T10:47:53.095Z</time>
      </trkpt>
      <trkpt lat="43.64983" lon="7.13117">
        <ele>6.0599976</ele>
        <time>2024-12-01T10:47:55.111Z</time>
      </trkpt>
      <trkpt lat="43.64979" lon="7.13127">
        <ele>7.239998</ele>
        <time>2024-12-01T10:47:56.997Z</time>
      </trkpt>
      <trkpt lat="43.64975" lon="7.13137">
        <ele>8.059998</ele>
        <time>2024-12-01T10:47:58.208Z</time>
      </trkpt>
      <trkpt lat="43.64972" lon="7.13148">
        <ele>8.68</ele>
        <time>2024-12-01T10:48:00.202Z</time>
      </trkpt>
      <trkpt lat="43.64968" lon="7.13159">
        <ele>8.519997</ele>
        <time>2024-12-01T10:48:02.197Z</time>
      </trkpt>
      <trkpt lat="43.64966" lon="7.13168">
        <ele>8.419998</ele>
        <time>2024-12-01T10:48:04.209Z</time>
      </trkpt>
      <trkpt lat="43.64964" lon="7.13178">
        <ele>8.050003</ele>
        <time>2024-12-01T10:48:06.202Z</time>
      </trkpt>
      <trkpt lat="43.64962" lon="7.13189">
        <ele>7.8499985</ele>
        <time>2024-12-01T10:48:09.141Z</time>
      </trkpt>
      <trkpt lat="43.64959" lon="7.13199">
        <ele>8.190002</ele>
        <time>2024-12-01T10:48:10.566Z</time>
      </trkpt>
      <trkpt lat="43.64956" lon="7.1321">
        <ele>8.290001</ele>
        <time>2024-12-01T10:48:12.205Z</time>
      </trkpt>
      <trkpt lat="43.64953" lon="7.1322">
        <ele>8.709999</ele>
        <time>2024-12-01T10:48:14.217Z</time>
      </trkpt>
      <trkpt lat="43.64951" lon="7.13231">
        <ele>9.220001</ele>
        <time>2024-12-01T10:48:17.139Z</time>
      </trkpt>
      <trkpt lat="43.6495" lon="7.1324">
        <ele>9.629997</ele>
        <time>2024-12-01T10:48:18.617Z</time>
      </trkpt>
      <trkpt lat="43.64948" lon="7.13251">
        <ele>10.470001</ele>
        <time>2024-12-01T10:48:20.192Z</time>
      </trkpt>
      <trkpt lat="43.64946" lon="7.13261">
        <ele>11.010002</ele>
        <time>2024-12-01T10:48:22.209Z</time>
      </trkpt>
      <trkpt lat="43.64944" lon="7.13272">
        <ele>11.120003</ele>
        <time>2024-12-01T10:48:24.207Z</time>
      </trkpt>
      <trkpt lat="43.64941" lon="7.13282">
        <ele>11.010002</ele>
        <time>2024-12-01T10:48:27.148Z</time>
      </trkpt>
      <trkpt lat="43.64938" lon="7.13294">
        <ele>11.160004</ele>
        <time>2024-12-01T10:48:28.214Z</time>
      </trkpt>
      <trkpt lat="43.64937" lon="7.13304">
        <ele>11.620003</ele>
        <time>2024-12-01T10:48:31.175Z</time>
      </trkpt>
      <trkpt lat="43.64936" lon="7.13315">
        <ele>12.459999</ele>
        <time>2024-12-01T10:48:32.969Z</time>
      </trkpt>
      <trkpt lat="43.64936" lon="7.13327">
        <ele>13.57</ele>
        <time>2024-12-01T10:48:34.105Z</time>
      </trkpt>
      <trkpt lat="43.64935" lon="7.13338">
        <ele>14.589996</ele>
        <time>2024-12-01T10:48:36.229Z</time>
      </trkpt>
      <trkpt lat="43.64935" lon="7.13348">
        <ele>15.720001</ele>
        <time>2024-12-01T10:48:38.225Z</time>
      </trkpt>
      <trkpt lat="43.64935" lon="7.1336">
        <ele>16.629997</ele>
        <time>2024-12-01T10:48:40.274Z</time>
      </trkpt>
      <trkpt lat="43.64935" lon="7.13372">
        <ele>17.64</ele>
        <time>2024-12-01T10:48:42.223Z</time>
      </trkpt>
      <trkpt lat="43.64936" lon="7.13383">
        <ele>18.5</ele>
        <time>2024-12-01T10:48:44.230Z</time>
      </trkpt>
      <trkpt lat="43.64938" lon="7.13395">
        <ele>18.75</ele>
        <time>2024-12-01T10:48:47.179Z</time>
      </trkpt>
      <trkpt lat="43.6494" lon="7.13406">
        <ele>18.619999</ele>
        <time>2024-12-01T10:48:48.220Z</time>
      </trkpt>
      <trkpt lat="43.64941" lon="7.13415">
        <ele>18.55</ele>
        <time>2024-12-01T10:48:50.224Z</time>
      </trkpt>
      <trkpt lat="43.64943" lon="7.13426">
        <ele>17.59</ele>
        <time>2024-12-01T10:48:52.227Z</time>
      </trkpt>
      <trkpt lat="43.64946" lon="7.13435">
        <ele>16.370003</ele>
        <time>2024-12-01T10:48:54.230Z</time>
      </trkpt>
      <trkpt lat="43.64948" lon="7.13446">
        <ele>15.660004</ele>
        <time>2024-12-01T10:48:56.235Z</time>
      </trkpt>
      <trkpt lat="43.64949" lon="7.13457">
        <ele>15.139999</ele>
        <time>2024-12-01T10:48:58.237Z</time>
      </trkpt>
      <trkpt lat="43.6495" lon="7.13467">
        <ele>14.370003</ele>
        <time>2024-12-01T10:49:00.161Z</time>
      </trkpt>
      <trkpt lat="43.64951" lon="7.13475">
        <ele>13.080002</ele>
        <time>2024-12-01T10:49:02.166Z</time>
      </trkpt>
      <trkpt lat="43.64952" lon="7.13484">
        <ele>11.389999</ele>
        <time>2024-12-01T10:49:04.166Z</time>
      </trkpt>
      <trkpt lat="43.64953" lon="7.13496">
        <ele>9.190002</ele>
        <time>2024-12-01T10:49:06.173Z</time>
      </trkpt>
      <trkpt lat="43.64953" lon="7.13508">
        <ele>7.1600037</ele>
        <time>2024-12-01T10:49:08.071Z</time>
      </trkpt>
      <trkpt lat="43.64952" lon="7.13518">
        <ele>6.3799973</ele>
        <time>2024-12-01T10:49:10.258Z</time>
      </trkpt>
      <trkpt lat="43.64951" lon="7.13529">
        <ele>7.8899994</ele>
        <time>2024-12-01T10:49:12.260Z</time>
      </trkpt>
      <trkpt lat="43.64948" lon="7.1354">
        <ele>9.260002</ele>
        <time>2024-12-01T10:49:14.264Z</time>
      </trkpt>
      <trkpt lat="43.64946" lon="7.13551">
        <ele>10.209999</ele>
        <time>2024-12-01T10:49:16.268Z</time>
      </trkpt>
      <trkpt lat="43.64942" lon="7.13563">
        <ele>9.68</ele>
        <time>2024-12-01T10:49:18.271Z</time>
      </trkpt>
      <trkpt lat="43.64938" lon="7.13574">
        <ele>8.519997</ele>
        <time>2024-12-01T10:49:20.274Z</time>
      </trkpt>
      <trkpt lat="43.64933" lon="7.13585">
        <ele>8.519997</ele>
        <time>2024-12-01T10:49:22.278Z</time>
      </trkpt>
      <trkpt lat="43.64928" lon="7.13594">
        <ele>8.07</ele>
        <time>2024-12-01T10:49:24.283Z</time>
      </trkpt>
      <trkpt lat="43.64922" lon="7.13602">
        <ele>8.040001</ele>
        <time>2024-12-01T10:49:26.284Z</time>
      </trkpt>
      <trkpt lat="43.64916" lon="7.1361">
        <ele>8.849998</ele>
        <time>2024-12-01T10:49:28.132Z</time>
      </trkpt>
      <trkpt lat="43.64909" lon="7.13618">
        <ele>9.519997</ele>
        <time>2024-12-01T10:49:30.292Z</time>
      </trkpt>
      <trkpt lat="43.64903" lon="7.13627">
        <ele>10.080002</ele>
        <time>2024-12-01T10:49:32.293Z</time>
      </trkpt>
      <trkpt lat="43.64896" lon="7.13636">
        <ele>10.199997</ele>
        <time>2024-12-01T10:49:34.296Z</time>
      </trkpt>
      <trkpt lat="43.6489" lon="7.13643">
        <ele>10.239998</ele>
        <time>2024-12-01T10:49:36.301Z</time>
      </trkpt>
      <trkpt lat="43.64882" lon="7.13649">
        <ele>10.400002</ele>
        <time>2024-12-01T10:49:38.303Z</time>
      </trkpt>
      <trkpt lat="43.64876" lon="7.13655">
        <ele>10.760002</ele>
        <time>2024-12-01T10:49:40.307Z</time>
      </trkpt>
      <trkpt lat="43.64868" lon="7.13663">
        <ele>10.910004</ele>
        <time>2024-12-01T10:49:42.310Z</time>
      </trkpt>
      <trkpt lat="43.6486" lon="7.1367">
        <ele>10.82</ele>
        <time>2024-12-01T10:49:44.314Z</time>
      </trkpt>
      <trkpt lat="43.64853" lon="7.13677">
        <ele>10.68</ele>
        <time>2024-12-01T10:49:46.318Z</time>
      </trkpt>
      <trkpt lat="43.64846" lon="7.13683">
        <ele>10.75</ele>
        <time>2024-12-01T10:49:48.322Z</time>
      </trkpt>
      <trkpt lat="43.64839" lon="7.1369">
        <ele>10.599998</ele>
        <time>2024-12-01T10:49:50.326Z</time>
      </trkpt>
      <trkpt lat="43.64833" lon="7.13697">
        <ele>10.510002</ele>
        <time>2024-12-01T10:49:52.328Z</time>
      </trkpt>
      <trkpt lat="43.64827" lon="7.13705">
        <ele>10.550003</ele>
        <time>2024-12-01T10:49:54.332Z</time>
      </trkpt>
      <trkpt lat="43.64822" lon="7.13713">
        <ele>10.529999</ele>
        <time>2024-12-01T10:49:56.334Z</time>
      </trkpt>
      <trkpt lat="43.64816" lon="7.13724">
        <ele>10.529999</ele>
        <time>2024-12-01T10:49:58.336Z</time>
      </trkpt>
      <trkpt lat="43.64811" lon="7.13733">
        <ele>10.57</ele>
        <time>2024-12-01T10:50:00.340Z</time>
      </trkpt>
      <trkpt lat="43.64807" lon="7.1374">
        <ele>10.629997</ele>
        <time>2024-12-01T10:50:02.345Z</time>
      </trkpt>
      <trkpt lat="43.64802" lon="7.13748">
        <ele>10.589996</ele>
        <time>2024-12-01T10:50:04.349Z</time>
      </trkpt>
      <trkpt lat="43.64798" lon="7.13756">
        <ele>10.400002</ele>
        <time>2024-12-01T10:50:06.351Z</time>
      </trkpt>
      <trkpt lat="43.64794" lon="7.13766">
        <ele>9.739998</ele>
        <time>2024-12-01T10:50:08.353Z</time>
      </trkpt>
      <trkpt lat="43.64791" lon="7.13774">
        <ele>9.879997</ele>
        <time>2024-12-01T10:50:10.357Z</time>
      </trkpt>
      <trkpt lat="43.6479" lon="7.13779">
        <ele>10.139999</ele>
        <time>2024-12-01T10:50:12.359Z</time>
      </trkpt>
      <trkpt lat="43.64786" lon="7.13786">
        <ele>10.529999</ele>
        <time>2024-12-01T10:50:14.365Z</time>
      </trkpt>
      <trkpt lat="43.64782" lon="7.13794">
        <ele>10.93</ele>
        <time>2024-12-01T10:50:16.367Z</time>
      </trkpt>
      <trkpt lat="43.64776" lon="7.13802">
        <ele>11.43</ele>
        <time>2024-12-01T10:50:18.369Z</time>
      </trkpt>
      <trkpt lat="43.6477" lon="7.13811">
        <ele>11.330002</ele>
        <time>2024-12-01T10:50:20.374Z</time>
      </trkpt>
      <trkpt lat="43.64765" lon="7.13821">
        <ele>11.510002</ele>
        <time>2024-12-01T10:50:22.378Z</time>
      </trkpt>
      <trkpt lat="43.64763" lon="7.1383">
        <ele>12.209999</ele>
        <time>2024-12-01T10:50:24.379Z</time>
      </trkpt>
      <trkpt lat="43.64763" lon="7.13837">
        <ele>12.43</ele>
        <time>2024-12-01T10:50:26.383Z</time>
      </trkpt>
      <trkpt lat="43.64761" lon="7.13844">
        <ele>13.019997</ele>
        <time>2024-12-01T10:50:27.929Z</time>
      </trkpt>
      <trkpt lat="43.64757" lon="7.13849">
        <ele>12.419998</ele>
        <time>2024-12-01T10:50:30.391Z</time>
      </trkpt>
      <trkpt lat="43.64754" lon="7.13854">
        <ele>12.459999</ele>
        <time>2024-12-01T10:50:32.936Z</time>
      </trkpt>
      <trkpt lat="43.64755" lon="7.13856">
        <ele>12.599998</ele>
        <time>2024-12-01T10:51:35.934Z</time>
      </trkpt>
      <trkpt lat="43.6472" lon="7.13892">
        <ele>12.029999</ele>
        <time>2024-12-01T10:51:58.920Z</time>
      </trkpt>
      <trkpt lat="43.64712" lon="7.13891">
        <ele>12.07</ele>
        <time>2024-12-01T10:52:09.146Z</time>
      </trkpt>
      <trkpt lat="43.6471" lon="7.13894">
        <ele>10.400002</ele>
        <time>2024-12-01T10:52:12.079Z</time>
      </trkpt>
      <trkpt lat="43.64708" lon="7.13896">
        <ele>10.610001</ele>
        <time>2024-12-01T10:52:13.140Z</time>
      </trkpt>
      <trkpt lat="43.64707" lon="7.13902">
        <ele>10.419998</ele>
        <time>2024-12-01T10:52:15.144Z</time>
      </trkpt>
      <trkpt lat="43.64703" lon="7.13907">
        <ele>10.730003</ele>
        <time>2024-12-01T10:52:17.197Z</time>
      </trkpt>
      <trkpt lat="43.64699" lon="7.13911">
        <ele>11.190002</ele>
        <time>2024-12-01T10:52:20.128Z</time>
      </trkpt>
      <trkpt lat="43.64695" lon="7.13917">
        <ele>11.239998</ele>
        <time>2024-12-01T10:52:22.092Z</time>
      </trkpt>
      <trkpt lat="43.6469" lon="7.13925">
        <ele>10.68</ele>
        <time>2024-12-01T10:52:23.204Z</time>
      </trkpt>
      <trkpt lat="43.64685" lon="7.13934">
        <ele>10.690002</ele>
        <time>2024-12-01T10:52:26.152Z</time>
      </trkpt>
      <trkpt lat="43.64681" lon="7.13946">
        <ele>10.970001</ele>
        <time>2024-12-01T10:52:27.682Z</time>
      </trkpt>
      <trkpt lat="43.64675" lon="7.13957">
        <ele>11.790001</ele>
        <time>2024-12-01T10:52:29.179Z</time>
      </trkpt>
      <trkpt lat="43.64669" lon="7.13965">
        <ele>12.809998</ele>
        <time>2024-12-01T10:52:31.222Z</time>
      </trkpt>
      <trkpt lat="43.64662" lon="7.13973">
        <ele>12.809998</ele>
        <time>2024-12-01T10:52:33.201Z</time>
      </trkpt>
      <trkpt lat="43.64655" lon="7.1398">
        <ele>12.910004</ele>
        <time>2024-12-01T10:52:35.213Z</time>
      </trkpt>
      <trkpt lat="43.6465" lon="7.13986">
        <ele>12.480003</ele>
        <time>2024-12-01T10:52:37.212Z</time>
      </trkpt>
      <trkpt lat="43.64643" lon="7.13994">
        <ele>12.220001</ele>
        <time>2024-12-01T10:52:40.034Z</time>
      </trkpt>
      <trkpt lat="43.64637" lon="7.14">
        <ele>12.470001</ele>
        <time>2024-12-01T10:52:41.215Z</time>
      </trkpt>
      <trkpt lat="43.64631" lon="7.14007">
        <ele>12.900002</ele>
        <time>2024-12-01T10:52:43.211Z</time>
      </trkpt>
      <trkpt lat="43.64626" lon="7.14015">
        <ele>13.349998</ele>
        <time>2024-12-01T10:52:45.230Z</time>
      </trkpt>
      <trkpt lat="43.64619" lon="7.14023">
        <ele>13.209999</ele>
        <time>2024-12-01T10:52:47.222Z</time>
      </trkpt>
      <trkpt lat="43.64612" lon="7.14032">
        <ele>12.489998</ele>
        <time>2024-12-01T10:52:49.218Z</time>
      </trkpt>
      <trkpt lat="43.64605" lon="7.1404">
        <ele>12.129997</ele>
        <time>2024-12-01T10:52:51.213Z</time>
      </trkpt>
      <trkpt lat="43.64597" lon="7.14046">
        <ele>12.529999</ele>
        <time>2024-12-01T10:52:54.002Z</time>
      </trkpt>
      <trkpt lat="43.64588" lon="7.14052">
        <ele>13.32</ele>
        <time>2024-12-01T10:52:55.218Z</time>
      </trkpt>
      <trkpt lat="43.64581" lon="7.14057">
        <ele>13.230003</ele>
        <time>2024-12-01T10:52:57.142Z</time>
      </trkpt>
      <trkpt lat="43.64571" lon="7.14063">
        <ele>12.260002</ele>
        <time>2024-12-01T10:52:59.198Z</time>
      </trkpt>
      <trkpt lat="43.64563" lon="7.14066">
        <ele>12.610001</ele>
        <time>2024-12-01T10:53:01.197Z</time>
      </trkpt>
      <trkpt lat="43.64555" lon="7.1407">
        <ele>13.18</ele>
        <time>2024-12-01T10:53:03.199Z</time>
      </trkpt>
      <trkpt lat="43.64548" lon="7.14075">
        <ele>14.279999</ele>
        <time>2024-12-01T10:53:05.235Z</time>
      </trkpt>
      <trkpt lat="43.64541" lon="7.1408">
        <ele>15.370003</ele>
        <time>2024-12-01T10:53:07.206Z</time>
      </trkpt>
      <trkpt lat="43.64534" lon="7.14086">
        <ele>16.150002</ele>
        <time>2024-12-01T10:53:09.208Z</time>
      </trkpt>
      <trkpt lat="43.64525" lon="7.14093">
        <ele>17.130001</ele>
        <time>2024-12-01T10:53:11.212Z</time>
      </trkpt>
      <trkpt lat="43.64515" lon="7.14099">
        <ele>18.119999</ele>
        <time>2024-12-01T10:53:13.214Z</time>
      </trkpt>
      <trkpt lat="43.64505" lon="7.14106">
        <ele>19.060001</ele>
        <time>2024-12-01T10:53:15.173Z</time>
      </trkpt>
      <trkpt lat="43.64495" lon="7.14113">
        <ele>20.060001</ele>
        <time>2024-12-01T10:53:17.225Z</time>
      </trkpt>
      <trkpt lat="43.64485" lon="7.14118">
        <ele>19.7</ele>
        <time>2024-12-01T10:53:19.231Z</time>
      </trkpt>
      <trkpt lat="43.64476" lon="7.14123">
        <ele>19.099998</ele>
        <time>2024-12-01T10:53:20.255Z</time>
      </trkpt>
      <trkpt lat="43.64467" lon="7.14129">
        <ele>18.93</ele>
        <time>2024-12-01T10:53:23.233Z</time>
      </trkpt>
      <trkpt lat="43.64458" lon="7.14133">
        <ele>18.73</ele>
        <time>2024-12-01T10:53:25.235Z</time>
      </trkpt>
      <trkpt lat="43.6445" lon="7.14137">
        <ele>18.41</ele>
        <time>2024-12-01T10:53:27.238Z</time>
      </trkpt>
      <trkpt lat="43.64442" lon="7.14138">
        <ele>17.48</ele>
        <time>2024-12-01T10:53:29.242Z</time>
      </trkpt>
      <trkpt lat="43.64432" lon="7.14138">
        <ele>17.23</ele>
        <time>2024-12-01T10:53:31.247Z</time>
      </trkpt>
      <trkpt lat="43.64425" lon="7.14141">
        <ele>17.150002</ele>
        <time>2024-12-01T10:53:33.249Z</time>
      </trkpt>
      <trkpt lat="43.64419" lon="7.14144">
        <ele>17</ele>
        <time>2024-12-01T10:53:35.252Z</time>
      </trkpt>
      <trkpt lat="43.64413" lon="7.14152">
        <ele>16.989998</ele>
        <time>2024-12-01T10:53:37.257Z</time>
      </trkpt>
      <trkpt lat="43.64407" lon="7.14162">
        <ele>16.300003</ele>
        <time>2024-12-01T10:53:39.263Z</time>
      </trkpt>
      <trkpt lat="43.64402" lon="7.14173">
        <ele>16.650002</ele>
        <time>2024-12-01T10:53:41.262Z</time>
      </trkpt>
      <trkpt lat="43.64398" lon="7.14183">
        <ele>16.650002</ele>
        <time>2024-12-01T10:53:43.266Z</time>
      </trkpt>
      <trkpt lat="43.64394" lon="7.1419">
        <ele>16.650002</ele>
        <time>2024-12-01T10:53:45.268Z</time>
      </trkpt>
      <trkpt lat="43.64388" lon="7.14199">
        <ele>16.43</ele>
        <time>2024-12-01T10:53:47.272Z</time>
      </trkpt>
      <trkpt lat="43.64382" lon="7.14206">
        <ele>16.93</ele>
        <time>2024-12-01T10:53:49.275Z</time>
      </trkpt>
      <trkpt lat="43.64377" lon="7.14213">
        <ele>16.339996</ele>
        <time>2024-12-01T10:53:51.278Z</time>
      </trkpt>
      <trkpt lat="43.64371" lon="7.14222">
        <ele>15.379997</ele>
        <time>2024-12-01T10:53:53.281Z</time>
      </trkpt>
      <trkpt lat="43.64365" lon="7.14231">
        <ele>15.300003</ele>
        <time>2024-12-01T10:53:55.176Z</time>
      </trkpt>
      <trkpt lat="43.64359" lon="7.14239">
        <ele>15.790001</ele>
        <time>2024-12-01T10:53:57.289Z</time>
      </trkpt>
      <trkpt lat="43.64354" lon="7.14247">
        <ele>16.099998</ele>
        <time>2024-12-01T10:53:59.290Z</time>
      </trkpt>
      <trkpt lat="43.64349" lon="7.14255">
        <ele>16.169998</ele>
        <time>2024-12-01T10:54:01.295Z</time>
      </trkpt>
      <trkpt lat="43.64344" lon="7.14265">
        <ele>15.440002</ele>
        <time>2024-12-01T10:54:03.217Z</time>
      </trkpt>
      <trkpt lat="43.64339" lon="7.14275">
        <ele>15.040001</ele>
        <time>2024-12-01T10:54:05.302Z</time>
      </trkpt>
      <trkpt lat="43.64333" lon="7.14285">
        <ele>15.010002</ele>
        <time>2024-12-01T10:54:07.210Z</time>
      </trkpt>
      <trkpt lat="43.64327" lon="7.14295">
        <ele>15.160004</ele>
        <time>2024-12-01T10:54:09.139Z</time>
      </trkpt>
      <trkpt lat="43.64321" lon="7.14304">
        <ele>15.400002</ele>
        <time>2024-12-01T10:54:11.311Z</time>
      </trkpt>
      <trkpt lat="43.64314" lon="7.14315">
        <ele>15.629997</ele>
        <time>2024-12-01T10:54:13.127Z</time>
      </trkpt>
      <trkpt lat="43.64307" lon="7.14327">
        <ele>15.870003</ele>
        <time>2024-12-01T10:54:14.332Z</time>
      </trkpt>
      <trkpt lat="43.64301" lon="7.14338">
        <ele>16.14</ele>
        <time>2024-12-01T10:54:17.241Z</time>
      </trkpt>
      <trkpt lat="43.64296" lon="7.14348">
        <ele>15.940002</ele>
        <time>2024-12-01T10:54:18.866Z</time>
      </trkpt>
      <trkpt lat="43.64291" lon="7.14356">
        <ele>15.910004</ele>
        <time>2024-12-01T10:54:21.328Z</time>
      </trkpt>
      <trkpt lat="43.64291" lon="7.14362">
        <ele>16.14</ele>
        <time>2024-12-01T10:54:39.717Z</time>
      </trkpt>
      <trkpt lat="43.64291" lon="7.14365">
        <ele>16.059998</ele>
        <time>2024-12-01T10:54:41.732Z</time>
      </trkpt>
      <trkpt lat="43.64293" lon="7.14369">
        <ele>16.099998</ele>
        <time>2024-12-01T10:54:43.725Z</time>
      </trkpt>
      <trkpt lat="43.64294" lon="7.14371">
        <ele>16.07</ele>
        <time>2024-12-01T10:54:45.744Z</time>
      </trkpt>
      <trkpt lat="43.64284" lon="7.14389">
        <ele>15.980003</ele>
        <time>2024-12-01T10:57:17.747Z</time>
      </trkpt>
      <trkpt lat="43.64283" lon="7.14385">
        <ele>15.980003</ele>
        <time>2024-12-01T10:57:20.677Z</time>
      </trkpt>
      <trkpt lat="43.64267" lon="7.14369">
        <ele>15.980003</ele>
        <time>2024-12-01T10:57:24.682Z</time>
      </trkpt>
      <trkpt lat="43.64262" lon="7.14363">
        <ele>15.980003</ele>
        <time>2024-12-01T10:57:26.342Z</time>
      </trkpt>
      <trkpt lat="43.64256" lon="7.14358">
        <ele>15.980003</ele>
        <time>2024-12-01T10:57:28.692Z</time>
      </trkpt>
      <trkpt lat="43.64249" lon="7.1435">
        <ele>15.980003</ele>
        <time>2024-12-01T10:57:30.694Z</time>
      </trkpt>
      <trkpt lat="43.64243" lon="7.14344">
        <ele>0.069999695</ele>
        <time>2024-12-01T10:57:32.696Z</time>
      </trkpt>
      <trkpt lat="43.64237" lon="7.14338">
        <ele>0.5400009</ele>
        <time>2024-12-01T10:57:34.363Z</time>
      </trkpt>
      <trkpt lat="43.64231" lon="7.14331">
        <ele>0.6399994</ele>
        <time>2024-12-01T10:57:36.703Z</time>
      </trkpt>
      <trkpt lat="43.64226" lon="7.14325">
        <ele>1.0599976</ele>
        <time>2024-12-01T10:57:38.707Z</time>
      </trkpt>
      <trkpt lat="43.6422" lon="7.14318">
        <ele>1.2200012</ele>
        <time>2024-12-01T10:57:40.709Z</time>
      </trkpt>
      <trkpt lat="43.64214" lon="7.14312">
        <ele>1.1600037</ele>
        <time>2024-12-01T10:57:42.715Z</time>
      </trkpt>
      <trkpt lat="43.64207" lon="7.14306">
        <ele>1.3899994</ele>
        <time>2024-12-01T10:57:44.716Z</time>
      </trkpt>
      <trkpt lat="43.64202" lon="7.14301">
        <ele>2.5800018</ele>
        <time>2024-12-01T10:57:46.719Z</time>
      </trkpt>
      <trkpt lat="43.64195" lon="7.14293">
        <ele>3.8799973</ele>
        <time>2024-12-01T10:57:48.766Z</time>
      </trkpt>
      <trkpt lat="43.64189" lon="7.14287">
        <ele>3.1399994</ele>
        <time>2024-12-01T10:57:50.364Z</time>
      </trkpt>
      <trkpt lat="43.64183" lon="7.14279">
        <ele>2.5999985</ele>
        <time>2024-12-01T10:57:52.729Z</time>
      </trkpt>
      <trkpt lat="43.64176" lon="7.14272">
        <ele>2.3799973</ele>
        <time>2024-12-01T10:57:54.732Z</time>
      </trkpt>
      <trkpt lat="43.6417" lon="7.14265">
        <ele>3.1699982</ele>
        <time>2024-12-01T10:57:56.743Z</time>
      </trkpt>
      <trkpt lat="43.64163" lon="7.14257">
        <ele>4.4800034</ele>
        <time>2024-12-01T10:57:58.745Z</time>
      </trkpt>
      <trkpt lat="43.64156" lon="7.1425">
        <ele>6.1500015</ele>
        <time>2024-12-01T10:58:00.743Z</time>
      </trkpt>
      <trkpt lat="43.64149" lon="7.14244">
        <ele>8.129997</ele>
        <time>2024-12-01T10:58:02.747Z</time>
      </trkpt>
      <trkpt lat="43.64142" lon="7.14237">
        <ele>10.120003</ele>
        <time>2024-12-01T10:58:04.750Z</time>
      </trkpt>
      <trkpt lat="43.64136" lon="7.14229">
        <ele>12.93</ele>
        <time>2024-12-01T10:58:06.788Z</time>
      </trkpt>
      <trkpt lat="43.6413" lon="7.14223">
        <ele>14.190002</ele>
        <time>2024-12-01T10:58:08.812Z</time>
      </trkpt>
      <trkpt lat="43.64125" lon="7.14215">
        <ele>14.800003</ele>
        <time>2024-12-01T10:58:10.816Z</time>
      </trkpt>
      <trkpt lat="43.64118" lon="7.14207">
        <ele>15.769997</ele>
        <time>2024-12-01T10:58:12.764Z</time>
      </trkpt>
      <trkpt lat="43.64111" lon="7.14199">
        <ele>16.349998</ele>
        <time>2024-12-01T10:58:14.767Z</time>
      </trkpt>
      <trkpt lat="43.64104" lon="7.14192">
        <ele>14.839996</ele>
        <time>2024-12-01T10:58:16.771Z</time>
      </trkpt>
      <trkpt lat="43.641" lon="7.14184">
        <ele>13.169998</ele>
        <time>2024-12-01T10:58:18.833Z</time>
      </trkpt>
      <trkpt lat="43.64096" lon="7.14176">
        <ele>14.900002</ele>
        <time>2024-12-01T10:58:20.778Z</time>
      </trkpt>
      <trkpt lat="43.6409" lon="7.14167">
        <ele>16.230003</ele>
        <time>2024-12-01T10:58:22.781Z</time>
      </trkpt>
      <trkpt lat="43.64085" lon="7.14156">
        <ele>15.349998</ele>
        <time>2024-12-01T10:58:24.834Z</time>
      </trkpt>
      <trkpt lat="43.6408" lon="7.14146">
        <ele>15.199997</ele>
        <time>2024-12-01T10:58:26.790Z</time>
      </trkpt>
      <trkpt lat="43.64075" lon="7.14137">
        <ele>15.120003</ele>
        <time>2024-12-01T10:58:28.841Z</time>
      </trkpt>
      <trkpt lat="43.64071" lon="7.14128">
        <ele>14.830002</ele>
        <time>2024-12-01T10:58:30.796Z</time>
      </trkpt>
      <trkpt lat="43.64067" lon="7.14117">
        <ele>16.190002</ele>
        <time>2024-12-01T10:58:32.869Z</time>
      </trkpt>
      <trkpt lat="43.64063" lon="7.14108">
        <ele>17.75</ele>
        <time>2024-12-01T10:58:34.830Z</time>
      </trkpt>
      <trkpt lat="43.64058" lon="7.14097">
        <ele>18.919998</ele>
        <time>2024-12-01T10:58:36.360Z</time>
      </trkpt>
      <trkpt lat="43.64054" lon="7.14087">
        <ele>20.36</ele>
        <time>2024-12-01T10:58:38.809Z</time>
      </trkpt>
      <trkpt lat="43.64049" lon="7.14078">
        <ele>21.61</ele>
        <time>2024-12-01T10:58:40.857Z</time>
      </trkpt>
      <trkpt lat="43.64043" lon="7.14068">
        <ele>22.490002</ele>
        <time>2024-12-01T10:58:42.728Z</time>
      </trkpt>
      <trkpt lat="43.64036" lon="7.14058">
        <ele>23.21</ele>
        <time>2024-12-01T10:58:44.869Z</time>
      </trkpt>
      <trkpt lat="43.6403" lon="7.14049">
        <ele>22.77</ele>
        <time>2024-12-01T10:58:46.454Z</time>
      </trkpt>
      <trkpt lat="43.64025" lon="7.14041">
        <ele>21.669998</ele>
        <time>2024-12-01T10:58:48.825Z</time>
      </trkpt>
      <trkpt lat="43.64021" lon="7.14033">
        <ele>20.490002</ele>
        <time>2024-12-01T10:58:50.826Z</time>
      </trkpt>
      <trkpt lat="43.64017" lon="7.14026">
        <ele>19.419998</ele>
        <time>2024-12-01T10:58:52.833Z</time>
      </trkpt>
      <trkpt lat="43.64013" lon="7.1402">
        <ele>19.57</ele>
        <time>2024-12-01T10:58:54.834Z</time>
      </trkpt>
      <trkpt lat="43.64011" lon="7.14016">
        <ele>19.36</ele>
        <time>2024-12-01T10:58:56.838Z</time>
      </trkpt>
      <trkpt lat="43.6399" lon="7.13971">
        <ele>3</ele>
        <time>2024-12-01T10:59:55.467Z</time>
      </trkpt>
      <trkpt lat="43.63979" lon="7.13949">
        <ele>3</ele>
        <time>2024-12-01T10:59:57.500Z</time>
      </trkpt>
      <trkpt lat="43.63975" lon="7.13938">
        <ele>3</ele>
        <time>2024-12-01T10:59:59.336Z</time>
      </trkpt>
      <trkpt lat="43.63971" lon="7.13931">
        <ele>3</ele>
      </trkpt>
      <trkpt lat="43.63967" lon="7.13923">
        <ele>3</ele>
        <time>2024-12-01T11:00:01.505Z</time>
      </trkpt>
      <trkpt lat="43.63962" lon="7.13915">
        <ele>3</ele>
      </trkpt>
      <trkpt lat="43.6396" lon="7.1391">
        <ele>3</ele>
        <time>2024-12-01T11:00:03.510Z</time>
      </trkpt>
      <trkpt lat="43.63957" lon="7.13904">
        <ele>3</ele>
        <time>2024-12-01T11:00:05.510Z</time>
      </trkpt>
      <trkpt lat="43.63955" lon="7.13899">
        <ele>3</ele>
        <time>2024-12-01T11:00:07.515Z</time>
      </trkpt>
      <trkpt lat="43.63951" lon="7.13894">
        <ele>3</ele>
        <time>2024-12-01T11:00:09.520Z</time>
      </trkpt>
      <trkpt lat="43.63946" lon="7.13889">
        <ele>3</ele>
        <time>2024-12-01T11:00:10.551Z</time>
      </trkpt>
      <trkpt lat="43.63941" lon="7.13876">
        <ele>2.9</ele>
        <time>2024-12-01T11:00:13.282Z</time>
      </trkpt>
      <trkpt lat="43.63937" lon="7.13871">
        <ele>2.8</ele>
      </trkpt>
      <trkpt lat="43.63933" lon="7.13867">
        <ele>2.7</ele>
        <time>2024-12-01T11:00:15.528Z</time>
      </trkpt>
      <trkpt lat="43.63931" lon="7.13863">
        <ele>2.5</ele>
        <time>2024-12-01T11:00:17.531Z</time>
      </trkpt>
      <trkpt lat="43.63929" lon="7.13859">
        <ele>2.5</ele>
      </trkpt>
      <trkpt lat="43.63925" lon="7.13855">
        <ele>2.4</ele>
        <time>2024-12-01T11:00:19.535Z</time>
      </trkpt>
      <trkpt lat="43.63923" lon="7.1385">
        <ele>2.5</ele>
        <time>2024-12-01T11:00:21.539Z</time>
      </trkpt>
      <trkpt lat="43.63918" lon="7.13842">
        <ele>2.7</ele>
        <time>2024-12-01T11:00:23.544Z</time>
      </trkpt>
      <trkpt lat="43.63915" lon="7.13837">
        <ele>2.8</ele>
        <time>2024-12-01T11:00:25.341Z</time>
      </trkpt>
      <trkpt lat="43.6391" lon="7.13829">
        <ele>12.029999</ele>
        <time>2024-12-01T11:00:27.550Z</time>
      </trkpt>
      <trkpt lat="43.63904" lon="7.13821">
        <ele>9.400002</ele>
        <time>2024-12-01T11:00:29.552Z</time>
      </trkpt>
      <trkpt lat="43.63897" lon="7.13812">
        <ele>7.3199997</ele>
        <time>2024-12-01T11:00:31.555Z</time>
      </trkpt>
      <trkpt lat="43.63891" lon="7.13803">
        <ele>5.9800034</ele>
        <time>2024-12-01T11:00:33.561Z</time>
      </trkpt>
      <trkpt lat="43.63886" lon="7.13793">
        <ele>5.5</ele>
        <time>2024-12-01T11:00:35.562Z</time>
      </trkpt>
      <trkpt lat="43.63881" lon="7.13785">
        <ele>4.6500015</ele>
        <time>2024-12-01T11:00:37.567Z</time>
      </trkpt>
      <trkpt lat="43.63877" lon="7.13778">
        <ele>4.5599976</ele>
        <time>2024-12-01T11:00:39.570Z</time>
      </trkpt>
      <trkpt lat="43.63872" lon="7.13767">
        <ele>3.9000015</ele>
        <time>2024-12-01T11:00:41.572Z</time>
      </trkpt>
      <trkpt lat="43.63868" lon="7.13757">
        <ele>2.4700012</ele>
        <time>2024-12-01T11:00:43.584Z</time>
      </trkpt>
      <trkpt lat="43.63864" lon="7.13749">
        <ele>1.1800003</ele>
        <time>2024-12-01T11:00:45.579Z</time>
      </trkpt>
      <trkpt lat="43.6386" lon="7.1374">
        <ele>-0.48999786</ele>
        <time>2024-12-01T11:00:47.086Z</time>
      </trkpt>
      <trkpt lat="43.63856" lon="7.13728">
        <ele>-2.6500015</ele>
        <time>2024-12-01T11:00:49.588Z</time>
      </trkpt>
      <trkpt lat="43.63852" lon="7.13716">
        <ele>-0.94999695</ele>
        <time>2024-12-01T11:00:51.589Z</time>
      </trkpt>
      <trkpt lat="43.63847" lon="7.13704">
        <ele>1.2600021</ele>
        <time>2024-12-01T11:00:53.594Z</time>
      </trkpt>
      <trkpt lat="43.63844" lon="7.13693">
        <ele>2.9300003</ele>
        <time>2024-12-01T11:00:55.597Z</time>
      </trkpt>
      <trkpt lat="43.6384" lon="7.13683">
        <ele>3.9100037</ele>
        <time>2024-12-01T11:00:57.599Z</time>
      </trkpt>
      <trkpt lat="43.63835" lon="7.13674">
        <ele>4.6800003</ele>
        <time>2024-12-01T11:00:59.604Z</time>
      </trkpt>
      <trkpt lat="43.63832" lon="7.13666">
        <ele>5.8199997</ele>
        <time>2024-12-01T11:01:01.607Z</time>
      </trkpt>
      <trkpt lat="43.63828" lon="7.13655">
        <ele>7.3799973</ele>
        <time>2024-12-01T11:01:03.619Z</time>
      </trkpt>
      <trkpt lat="43.63825" lon="7.13645">
        <ele>9.290001</ele>
        <time>2024-12-01T11:01:05.614Z</time>
      </trkpt>
      <trkpt lat="43.63821" lon="7.13635">
        <ele>11.32</ele>
        <time>2024-12-01T11:01:07.617Z</time>
      </trkpt>
      <trkpt lat="43.63818" lon="7.13627">
        <ele>13.690002</ele>
        <time>2024-12-01T11:01:09.621Z</time>
      </trkpt>
      <trkpt lat="43.63815" lon="7.13619">
        <ele>15.620003</ele>
        <time>2024-12-01T11:01:11.625Z</time>
      </trkpt>
      <trkpt lat="43.63811" lon="7.13611">
        <ele>17.18</ele>
        <time>2024-12-01T11:01:13.203Z</time>
      </trkpt>
      <trkpt lat="43.63807" lon="7.13602">
        <ele>19.029999</ele>
        <time>2024-12-01T11:01:15.633Z</time>
      </trkpt>
      <trkpt lat="43.63802" lon="7.13595">
        <ele>21.029999</ele>
        <time>2024-12-01T11:01:17.639Z</time>
      </trkpt>
      <trkpt lat="43.63799" lon="7.13587">
        <ele>23.45</ele>
        <time>2024-12-01T11:01:19.494Z</time>
      </trkpt>
      <trkpt lat="43.63795" lon="7.1358">
        <ele>24.689999</ele>
        <time>2024-12-01T11:01:21.642Z</time>
      </trkpt>
      <trkpt lat="43.63791" lon="7.13574">
        <ele>24.91</ele>
        <time>2024-12-01T11:01:23.645Z</time>
      </trkpt>
      <trkpt lat="43.63786" lon="7.13566">
        <ele>24.04</ele>
        <time>2024-12-01T11:01:25.648Z</time>
      </trkpt>
      <trkpt lat="43.63782" lon="7.13559">
        <ele>22.650002</ele>
        <time>2024-12-01T11:01:27.651Z</time>
      </trkpt>
      <trkpt lat="43.63778" lon="7.13553">
        <ele>20.509998</ele>
        <time>2024-12-01T11:01:29.655Z</time>
      </trkpt>
      <trkpt lat="43.63771" lon="7.13547">
        <ele>19.900002</ele>
        <time>2024-12-01T11:01:31.658Z</time>
      </trkpt>
      <trkpt lat="43.63766" lon="7.13542">
        <ele>19.189999</ele>
        <time>2024-12-01T11:01:33.663Z</time>
      </trkpt>
      <trkpt lat="43.6376" lon="7.13535">
        <ele>18.46</ele>
        <time>2024-12-01T11:01:35.665Z</time>
      </trkpt>
      <trkpt lat="43.63753" lon="7.13531">
        <ele>18.54</ele>
        <time>2024-12-01T11:01:37.670Z</time>
      </trkpt>
      <trkpt lat="43.63746" lon="7.13525">
        <ele>18.529999</ele>
        <time>2024-12-01T11:01:39.673Z</time>
      </trkpt>
      <trkpt lat="43.63739" lon="7.1352">
        <ele>18.32</ele>
        <time>2024-12-01T11:01:41.677Z</time>
      </trkpt>
      <trkpt lat="43.63731" lon="7.13515">
        <ele>17.900002</ele>
        <time>2024-12-01T11:01:43.680Z</time>
      </trkpt>
      <trkpt lat="43.63723" lon="7.13509">
        <ele>17.79</ele>
        <time>2024-12-01T11:01:45.683Z</time>
      </trkpt>
      <trkpt lat="43.63712" lon="7.13504">
        <ele>17.810001</ele>
        <time>2024-12-01T11:01:47.690Z</time>
      </trkpt>
      <trkpt lat="43.63703" lon="7.13502">
        <ele>17.77</ele>
        <time>2024-12-01T11:01:49.692Z</time>
      </trkpt>
      <trkpt lat="43.63692" lon="7.13499">
        <ele>17.75</ele>
        <time>2024-12-01T11:01:51.696Z</time>
      </trkpt>
      <trkpt lat="43.6368" lon="7.13497">
        <ele>17.740002</ele>
        <time>2024-12-01T11:01:53.699Z</time>
      </trkpt>
      <trkpt lat="43.63667" lon="7.13496">
        <ele>17.75</ele>
        <time>2024-12-01T11:01:55.702Z</time>
      </trkpt>
      <trkpt lat="43.63654" lon="7.13496">
        <ele>17.73</ele>
        <time>2024-12-01T11:01:57.704Z</time>
      </trkpt>
      <trkpt lat="43.63641" lon="7.13497">
        <ele>17.71</ele>
        <time>2024-12-01T11:01:59.711Z</time>
      </trkpt>
      <trkpt lat="43.63629" lon="7.13498">
        <ele>17.669998</ele>
        <time>2024-12-01T11:02:01.713Z</time>
      </trkpt>
      <trkpt lat="43.63616" lon="7.135">
        <ele>17.630001</ele>
        <time>2024-12-01T11:02:03.714Z</time>
      </trkpt>
      <trkpt lat="43.63604" lon="7.13504">
        <ele>17.5</ele>
        <time>2024-12-01T11:02:05.720Z</time>
      </trkpt>
      <trkpt lat="43.63593" lon="7.13508">
        <ele>17.349998</ele>
        <time>2024-12-01T11:02:07.723Z</time>
      </trkpt>
      <trkpt lat="43.63583" lon="7.13512">
        <ele>17.27</ele>
        <time>2024-12-01T11:02:09.727Z</time>
      </trkpt>
      <trkpt lat="43.63573" lon="7.13513">
        <ele>17.080002</ele>
        <time>2024-12-01T11:02:11.354Z</time>
      </trkpt>
      <trkpt lat="43.63565" lon="7.13513">
        <ele>17.2</ele>
        <time>2024-12-01T11:02:13.733Z</time>
      </trkpt>
      <trkpt lat="43.63556" lon="7.13511">
        <ele>17.080002</ele>
        <time>2024-12-01T11:02:15.365Z</time>
      </trkpt>
      <trkpt lat="43.63548" lon="7.1351">
        <ele>17.04</ele>
        <time>2024-12-01T11:02:17.740Z</time>
      </trkpt>
      <trkpt lat="43.6354" lon="7.1351">
        <ele>17.07</ele>
        <time>2024-12-01T11:02:19.535Z</time>
      </trkpt>
      <trkpt lat="43.63533" lon="7.1351">
        <ele>17.009998</ele>
        <time>2024-12-01T11:02:21.745Z</time>
      </trkpt>
      <trkpt lat="43.63527" lon="7.13511">
        <ele>17</ele>
        <time>2024-12-01T11:02:23.753Z</time>
      </trkpt>
      <trkpt lat="43.63519" lon="7.13512">
        <ele>16.64</ele>
        <time>2024-12-01T11:02:25.456Z</time>
      </trkpt>
      <trkpt lat="43.63512" lon="7.13513">
        <ele>16.830002</ele>
        <time>2024-12-01T11:02:27.755Z</time>
      </trkpt>
      <trkpt lat="43.63506" lon="7.13515">
        <ele>17.21</ele>
        <time>2024-12-01T11:02:29.757Z</time>
      </trkpt>
      <trkpt lat="43.635" lon="7.13517">
        <ele>17.59</ele>
        <time>2024-12-01T11:02:31.761Z</time>
      </trkpt>
      <trkpt lat="43.63493" lon="7.13518">
        <ele>17.580002</ele>
        <time>2024-12-01T11:02:33.766Z</time>
      </trkpt>
      <trkpt lat="43.63485" lon="7.13518">
        <ele>17.080002</ele>
        <time>2024-12-01T11:02:35.350Z</time>
      </trkpt>
      <trkpt lat="43.63478" lon="7.13519">
        <ele>16.150002</ele>
        <time>2024-12-01T11:02:37.773Z</time>
      </trkpt>
      <trkpt lat="43.63472" lon="7.13519">
        <ele>16.11</ele>
        <time>2024-12-01T11:02:39.777Z</time>
      </trkpt>
      <trkpt lat="43.63463" lon="7.1352">
        <ele>16.470001</ele>
        <time>2024-12-01T11:02:41.780Z</time>
      </trkpt>
      <trkpt lat="43.63456" lon="7.1352">
        <ele>16.839996</ele>
        <time>2024-12-01T11:02:43.379Z</time>
      </trkpt>
      <trkpt lat="43.63446" lon="7.1352">
        <ele>16.370003</ele>
        <time>2024-12-01T11:02:45.353Z</time>
      </trkpt>
      <trkpt lat="43.6344" lon="7.13519">
        <ele>16.279999</ele>
        <time>2024-12-01T11:02:47.789Z</time>
      </trkpt>
      <trkpt lat="43.63435" lon="7.1352">
        <ele>4.3</ele>
        <time>2024-12-01T11:03:39.711Z</time>
      </trkpt>
      <trkpt lat="43.63429" lon="7.1352">
        <ele>4.3</ele>
      </trkpt>
      <trkpt lat="43.63423" lon="7.1352">
        <ele>4.3</ele>
        <time>2024-12-01T11:03:55.910Z</time>
      </trkpt>
      <trkpt lat="43.63418" lon="7.13521">
        <ele>4.3</ele>
        <time>2024-12-01T11:03:57.563Z</time>
      </trkpt>
      <trkpt lat="43.63411" lon="7.1352">
        <ele>4.3</ele>
        <time>2024-12-01T11:03:59.918Z</time>
      </trkpt>
      <trkpt lat="43.63401" lon="7.1352">
        <ele>4.3</ele>
        <time>2024-12-01T11:04:01.921Z</time>
      </trkpt>
      <trkpt lat="43.63391" lon="7.1352">
        <ele>4.3</ele>
        <time>2024-12-01T11:04:03.752Z</time>
      </trkpt>
      <trkpt lat="43.63384" lon="7.13521">
        <ele>15.849998</ele>
        <time>2024-12-01T11:04:05.926Z</time>
      </trkpt>
      <trkpt lat="43.63377" lon="7.13523">
        <ele>16.089996</ele>
        <time>2024-12-01T11:04:07.535Z</time>
      </trkpt>
      <trkpt lat="43.6337" lon="7.13525">
        <ele>16.150002</ele>
        <time>2024-12-01T11:04:09.633Z</time>
      </trkpt>
      <trkpt lat="43.63363" lon="7.13527">
        <ele>16.21</ele>
        <time>2024-12-01T11:04:11.937Z</time>
      </trkpt>
      <trkpt lat="43.63358" lon="7.13529">
        <ele>16.199997</ele>
        <time>2024-12-01T11:04:13.877Z</time>
      </trkpt>
      <trkpt lat="43.63353" lon="7.1353">
        <ele>16.64</ele>
        <time>2024-12-01T11:04:15.944Z</time>
      </trkpt>
      <trkpt lat="43.63346" lon="7.1353">
        <ele>17.34</ele>
        <time>2024-12-01T11:04:17.058Z</time>
      </trkpt>
      <trkpt lat="43.63337" lon="7.13529">
        <ele>18.220001</ele>
        <time>2024-12-01T11:04:19.955Z</time>
      </trkpt>
      <trkpt lat="43.63329" lon="7.13528">
        <ele>18.919998</ele>
        <time>2024-12-01T11:04:21.546Z</time>
      </trkpt>
      <trkpt lat="43.63322" lon="7.13528">
        <ele>19.48</ele>
        <time>2024-12-01T11:04:23.961Z</time>
      </trkpt>
      <trkpt lat="43.63314" lon="7.13529">
        <ele>19.439999</ele>
        <time>2024-12-01T11:04:25.598Z</time>
      </trkpt>
      <trkpt lat="43.63306" lon="7.13529">
        <ele>19.27</ele>
        <time>2024-12-01T11:04:27.749Z</time>
      </trkpt>
      <trkpt lat="43.633" lon="7.1353">
        <ele>19.21</ele>
        <time>2024-12-01T11:04:29.972Z</time>
      </trkpt>
      <trkpt lat="43.63294" lon="7.1353">
        <ele>19.43</ele>
        <time>2024-12-01T11:04:31.974Z</time>
      </trkpt>
      <trkpt lat="43.63287" lon="7.13527">
        <ele>18.54</ele>
        <time>2024-12-01T11:04:33.978Z</time>
      </trkpt>
      <trkpt lat="43.6328" lon="7.13522">
        <ele>19.09</ele>
        <time>2024-12-01T11:04:35.982Z</time>
      </trkpt>
      <trkpt lat="43.63271" lon="7.13518">
        <ele>18.470001</ele>
        <time>2024-12-01T11:04:37.985Z</time>
      </trkpt>
      <trkpt lat="43.63263" lon="7.13517">
        <ele>18.080002</ele>
        <time>2024-12-01T11:04:39.989Z</time>
      </trkpt>
      <trkpt lat="43.63256" lon="7.13517">
        <ele>18.36</ele>
        <time>2024-12-01T11:04:41.990Z</time>
      </trkpt>
      <trkpt lat="43.63248" lon="7.13516">
        <ele>19.060001</ele>
        <time>2024-12-01T11:04:43.995Z</time>
      </trkpt>
      <trkpt lat="43.63242" lon="7.13517">
        <ele>18.990002</ele>
        <time>2024-12-01T11:04:45.997Z</time>
      </trkpt>
      <trkpt lat="43.63235" lon="7.13516">
        <ele>18.77</ele>
        <time>2024-12-01T11:04:48.002Z</time>
      </trkpt>
      <trkpt lat="43.63227" lon="7.13517">
        <ele>18.18</ele>
        <time>2024-12-01T11:04:50.005Z</time>
      </trkpt>
      <trkpt lat="43.6322" lon="7.13516">
        <ele>17.27</ele>
        <time>2024-12-01T11:04:52.009Z</time>
      </trkpt>
      <trkpt lat="43.63211" lon="7.13516">
        <ele>16.599998</ele>
        <time>2024-12-01T11:04:54.011Z</time>
      </trkpt>
      <trkpt lat="43.63204" lon="7.13517">
        <ele>16.64</ele>
        <time>2024-12-01T11:04:56.016Z</time>
      </trkpt>
      <trkpt lat="43.63196" lon="7.13516">
        <ele>16.61</ele>
        <time>2024-12-01T11:04:58.020Z</time>
      </trkpt>
      <trkpt lat="43.63188" lon="7.13515">
        <ele>17.23</ele>
        <time>2024-12-01T11:04:59.985Z</time>
      </trkpt>
      <trkpt lat="43.63181" lon="7.13514">
        <ele>16.720001</ele>
        <time>2024-12-01T11:05:02.027Z</time>
      </trkpt>
      <trkpt lat="43.63173" lon="7.13515">
        <ele>16.57</ele>
        <time>2024-12-01T11:05:04.030Z</time>
      </trkpt>
      <trkpt lat="43.63165" lon="7.13515">
        <ele>16.400002</ele>
        <time>2024-12-01T11:05:06.035Z</time>
      </trkpt>
      <trkpt lat="43.63156" lon="7.13515">
        <ele>15.120003</ele>
        <time>2024-12-01T11:05:07.629Z</time>
      </trkpt>
      <trkpt lat="43.63147" lon="7.13513">
        <ele>15.769997</ele>
        <time>2024-12-01T11:05:10.039Z</time>
      </trkpt>
      <trkpt lat="43.63138" lon="7.13511">
        <ele>14.110001</ele>
        <time>2024-12-01T11:05:12.046Z</time>
      </trkpt>
      <trkpt lat="43.63131" lon="7.13511">
        <ele>14.959999</ele>
        <time>2024-12-01T11:05:14.048Z</time>
      </trkpt>
      <trkpt lat="43.6312" lon="7.13511">
        <ele>14.690002</ele>
        <time>2024-12-01T11:05:16.053Z</time>
      </trkpt>
      <trkpt lat="43.63108" lon="7.1351">
        <ele>13.169998</ele>
        <time>2024-12-01T11:05:18.058Z</time>
      </trkpt>
      <trkpt lat="43.63097" lon="7.13508">
        <ele>13.260002</ele>
        <time>2024-12-01T11:05:20.062Z</time>
      </trkpt>
      <trkpt lat="43.63089" lon="7.13507">
        <ele>13.400002</ele>
        <time>2024-12-01T11:05:22.064Z</time>
      </trkpt>
      <trkpt lat="43.63079" lon="7.13507">
        <ele>13.519997</ele>
        <time>2024-12-01T11:05:24.067Z</time>
      </trkpt>
      <trkpt lat="43.63071" lon="7.13507">
        <ele>13.57</ele>
        <time>2024-12-01T11:05:26.070Z</time>
      </trkpt>
      <trkpt lat="43.63063" lon="7.13505">
        <ele>13.589996</ele>
        <time>2024-12-01T11:05:28.073Z</time>
      </trkpt>
      <trkpt lat="43.63052" lon="7.13501">
        <ele>14.209999</ele>
        <time>2024-12-01T11:05:30.081Z</time>
      </trkpt>
      <trkpt lat="43.63043" lon="7.13494">
        <ele>13.160004</ele>
        <time>2024-12-01T11:05:32.081Z</time>
      </trkpt>
      <trkpt lat="43.63034" lon="7.13489">
        <ele>13.25</ele>
        <time>2024-12-01T11:05:34.085Z</time>
      </trkpt>
      <trkpt lat="43.63023" lon="7.13485">
        <ele>13.779999</ele>
        <time>2024-12-01T11:05:36.091Z</time>
      </trkpt>
      <trkpt lat="43.63013" lon="7.13481">
        <ele>13.970001</ele>
        <time>2024-12-01T11:05:38.091Z</time>
      </trkpt>
      <trkpt lat="43.63004" lon="7.13479">
        <ele>13.949997</ele>
        <time>2024-12-01T11:05:40.094Z</time>
      </trkpt>
      <trkpt lat="43.62996" lon="7.13475">
        <ele>13.860001</ele>
        <time>2024-12-01T11:05:41.736Z</time>
      </trkpt>
      <trkpt lat="43.62988" lon="7.13472">
        <ele>13.830002</ele>
        <time>2024-12-01T11:05:44.102Z</time>
      </trkpt>
      <trkpt lat="43.6298" lon="7.13469">
        <ele>13.980003</ele>
        <time>2024-12-01T11:05:45.771Z</time>
      </trkpt>
      <trkpt lat="43.62972" lon="7.13465">
        <ele>13.959999</ele>
        <time>2024-12-01T11:05:47.741Z</time>
      </trkpt>
      <trkpt lat="43.62967" lon="7.13462">
        <ele>13.900002</ele>
        <time>2024-12-01T11:05:50.112Z</time>
      </trkpt>
      <trkpt lat="43.62964" lon="7.1346">
        <ele>13.900002</ele>
        <time>2024-12-01T11:05:51.726Z</time>
      </trkpt>
      <trkpt lat="43.62961" lon="7.13455">
        <ele>14.050003</ele>
        <time>2024-12-01T11:05:53.702Z</time>
      </trkpt>
      <trkpt lat="43.62955" lon="7.13451">
        <ele>12.989998</ele>
        <time>2024-12-01T11:05:56.049Z</time>
      </trkpt>
      <trkpt lat="43.62949" lon="7.13448">
        <ele>13.57</ele>
        <time>2024-12-01T11:05:57.238Z</time>
      </trkpt>
      <trkpt lat="43.62941" lon="7.13445">
        <ele>13.620003</ele>
        <time>2024-12-01T11:05:59.222Z</time>
      </trkpt>
      <trkpt lat="43.62932" lon="7.13441">
        <ele>13.629997</ele>
        <time>2024-12-01T11:06:01.724Z</time>
      </trkpt>
      <trkpt lat="43.62924" lon="7.13436">
        <ele>13.57</ele>
        <time>2024-12-01T11:06:03.735Z</time>
      </trkpt>
      <trkpt lat="43.62917" lon="7.13431">
        <ele>13.690002</ele>
        <time>2024-12-01T11:06:05.236Z</time>
      </trkpt>
      <trkpt lat="43.62912" lon="7.13427">
        <ele>13.760002</ele>
        <time>2024-12-01T11:06:07.750Z</time>
      </trkpt>
      <trkpt lat="43.62904" lon="7.13424">
        <ele>13.839996</ele>
        <time>2024-12-01T11:06:09.246Z</time>
      </trkpt>
      <trkpt lat="43.62897" lon="7.13421">
        <ele>13.830002</ele>
        <time>2024-12-01T11:06:11.228Z</time>
      </trkpt>
      <trkpt lat="43.62889" lon="7.13417">
        <ele>14.010002</ele>
        <time>2024-12-01T11:06:13.724Z</time>
      </trkpt>
      <trkpt lat="43.62883" lon="7.13415">
        <ele>14.010002</ele>
        <time>2024-12-01T11:06:15.246Z</time>
      </trkpt>
      <trkpt lat="43.62876" lon="7.13413">
        <ele>13.980003</ele>
        <time>2024-12-01T11:06:17.733Z</time>
      </trkpt>
      <trkpt lat="43.6287" lon="7.1341">
        <ele>14.010002</ele>
        <time>2024-12-01T11:06:19.237Z</time>
      </trkpt>
      <trkpt lat="43.62863" lon="7.13407">
        <ele>13.989998</ele>
        <time>2024-12-01T11:06:21.745Z</time>
      </trkpt>
      <trkpt lat="43.62857" lon="7.13404">
        <ele>14.019997</ele>
        <time>2024-12-01T11:06:23.253Z</time>
      </trkpt>
      <trkpt lat="43.6285" lon="7.13401">
        <ele>13.989998</ele>
        <time>2024-12-01T11:06:25.766Z</time>
      </trkpt>
      <trkpt lat="43.62844" lon="7.13398">
        <ele>13.82</ele>
        <time>2024-12-01T11:06:27.255Z</time>
      </trkpt>
      <trkpt lat="43.62836" lon="7.13396">
        <ele>14.029999</ele>
        <time>2024-12-01T11:06:29.244Z</time>
      </trkpt>
      <trkpt lat="43.6283" lon="7.13395">
        <ele>14.610001</ele>
        <time>2024-12-01T11:06:31.255Z</time>
      </trkpt>
      <trkpt lat="43.62822" lon="7.13393">
        <ele>14.279999</ele>
        <time>2024-12-01T11:06:33.225Z</time>
      </trkpt>
      <trkpt lat="43.62815" lon="7.13391">
        <ele>14.699997</ele>
        <time>2024-12-01T11:06:35.260Z</time>
      </trkpt>
      <trkpt lat="43.62807" lon="7.13389">
        <ele>14.519997</ele>
        <time>2024-12-01T11:06:37.233Z</time>
      </trkpt>
      <trkpt lat="43.62798" lon="7.13385">
        <ele>15.239998</ele>
        <time>2024-12-01T11:06:39.237Z</time>
      </trkpt>
      <trkpt lat="43.62791" lon="7.13381">
        <ele>14.589996</ele>
        <time>2024-12-01T11:06:41.253Z</time>
      </trkpt>
      <trkpt lat="43.62783" lon="7.13377">
        <ele>14.510002</ele>
        <time>2024-12-01T11:06:43.248Z</time>
      </trkpt>
      <trkpt lat="43.62774" lon="7.13373">
        <ele>14.43</ele>
        <time>2024-12-01T11:06:45.248Z</time>
      </trkpt>
      <trkpt lat="43.62766" lon="7.13371">
        <ele>13.849998</ele>
        <time>2024-12-01T11:06:47.252Z</time>
      </trkpt>
      <trkpt lat="43.62757" lon="7.13368">
        <ele>14.160004</ele>
        <time>2024-12-01T11:06:49.254Z</time>
      </trkpt>
      <trkpt lat="43.62749" lon="7.13366">
        <ele>13.940002</ele>
        <time>2024-12-01T11:06:51.258Z</time>
      </trkpt>
      <trkpt lat="43.6274" lon="7.13362">
        <ele>14.290001</ele>
        <time>2024-12-01T11:06:53.263Z</time>
      </trkpt>
      <trkpt lat="43.62732" lon="7.13359">
        <ele>13.400002</ele>
        <time>2024-12-01T11:06:55.263Z</time>
      </trkpt>
      <trkpt lat="43.62724" lon="7.13356">
        <ele>13.610001</ele>
        <time>2024-12-01T11:06:57.269Z</time>
      </trkpt>
      <trkpt lat="43.62715" lon="7.13352">
        <ele>14.139999</ele>
        <time>2024-12-01T11:06:59.274Z</time>
      </trkpt>
      <trkpt lat="43.62706" lon="7.13347">
        <ele>13.300003</ele>
        <time>2024-12-01T11:07:01.275Z</time>
      </trkpt>
      <trkpt lat="43.62696" lon="7.13344">
        <ele>12.599998</ele>
        <time>2024-12-01T11:07:03.284Z</time>
      </trkpt>
      <trkpt lat="43.62687" lon="7.1334">
        <ele>12.919998</ele>
        <time>2024-12-01T11:07:05.281Z</time>
      </trkpt>
      <trkpt lat="43.62678" lon="7.13336">
        <ele>13.360001</ele>
        <time>2024-12-01T11:07:07.287Z</time>
      </trkpt>
      <trkpt lat="43.62669" lon="7.13332">
        <ele>13.349998</ele>
        <time>2024-12-01T11:07:09.288Z</time>
      </trkpt>
      <trkpt lat="43.62661" lon="7.13328">
        <ele>13.480003</ele>
        <time>2024-12-01T11:07:11.293Z</time>
      </trkpt>
      <trkpt lat="43.62656" lon="7.13325">
        <ele>2.6</ele>
        <time>2024-12-01T11:07:13.296Z</time>
      </trkpt>
      <trkpt lat="43.62649" lon="7.13322">
        <ele>2.8</ele>
        <time>2024-12-01T11:10:19.162Z</time>
      </trkpt>
      <trkpt lat="43.62641" lon="7.13317">
        <ele>3.2</ele>
        <time>2024-12-01T11:10:20.242Z</time>
      </trkpt>
      <trkpt lat="43.62636" lon="7.13316">
        <ele>3.1</ele>
        <time>2024-12-01T11:10:25.174Z</time>
      </trkpt>
      <trkpt lat="43.62632" lon="7.13314">
        <ele>3</ele>
        <time>2024-12-01T11:10:27.177Z</time>
      </trkpt>
      <trkpt lat="43.62623" lon="7.13311">
        <ele>16.54</ele>
        <time>2024-12-01T11:10:29.216Z</time>
      </trkpt>
      <trkpt lat="43.62614" lon="7.1331">
        <ele>15.5</ele>
        <time>2024-12-01T11:10:31.185Z</time>
      </trkpt>
      <trkpt lat="43.62607" lon="7.13307">
        <ele>15.879997</ele>
        <time>2024-12-01T11:10:32.281Z</time>
      </trkpt>
      <trkpt lat="43.62601" lon="7.13305">
        <ele>15.709999</ele>
        <time>2024-12-01T11:10:34.798Z</time>
      </trkpt>
      <trkpt lat="43.62595" lon="7.13303">
        <ele>15.610001</ele>
        <time>2024-12-01T11:10:37.197Z</time>
      </trkpt>
      <trkpt lat="43.6259" lon="7.133">
        <ele>15.480003</ele>
        <time>2024-12-01T11:10:38.801Z</time>
      </trkpt>
      <trkpt lat="43.62585" lon="7.13298">
        <ele>15.400002</ele>
        <time>2024-12-01T11:10:41.205Z</time>
      </trkpt>
      <trkpt lat="43.62581" lon="7.13295">
        <ele>14.959999</ele>
        <time>2024-12-01T11:10:42.848Z</time>
      </trkpt>
      <trkpt lat="43.62575" lon="7.13292">
        <ele>13.889999</ele>
        <time>2024-12-01T11:10:45.216Z</time>
      </trkpt>
      <trkpt lat="43.62569" lon="7.13289">
        <ele>14.449997</ele>
        <time>2024-12-01T11:10:47.262Z</time>
      </trkpt>
      <trkpt lat="43.62563" lon="7.13285">
        <ele>14.690002</ele>
        <time>2024-12-01T11:10:49.143Z</time>
      </trkpt>
      <trkpt lat="43.62557" lon="7.13281">
        <ele>14.769997</ele>
        <time>2024-12-01T11:10:50.835Z</time>
      </trkpt>
      <trkpt lat="43.6255" lon="7.13277">
        <ele>13.220001</ele>
        <time>2024-12-01T11:10:52.836Z</time>
      </trkpt>
      <trkpt lat="43.62543" lon="7.13274">
        <ele>13.639999</ele>
        <time>2024-12-01T11:10:55.229Z</time>
      </trkpt>
      <trkpt lat="43.62536" lon="7.13271">
        <ele>13.790001</ele>
        <time>2024-12-01T11:10:57.235Z</time>
      </trkpt>
      <trkpt lat="43.62529" lon="7.13268">
        <ele>12.519997</ele>
        <time>2024-12-01T11:10:59.236Z</time>
      </trkpt>
      <trkpt lat="43.62521" lon="7.13265">
        <ele>12.870003</ele>
        <time>2024-12-01T11:11:01.240Z</time>
      </trkpt>
      <trkpt lat="43.62513" lon="7.13262">
        <ele>12.970001</ele>
        <time>2024-12-01T11:11:03.249Z</time>
      </trkpt>
      <trkpt lat="43.62505" lon="7.13259">
        <ele>13</ele>
        <time>2024-12-01T11:11:05.248Z</time>
      </trkpt>
      <trkpt lat="43.62498" lon="7.13256">
        <ele>13.169998</ele>
        <time>2024-12-01T11:11:07.252Z</time>
      </trkpt>
      <trkpt lat="43.6249" lon="7.13253">
        <ele>12.019997</ele>
        <time>2024-12-01T11:11:09.257Z</time>
      </trkpt>
      <trkpt lat="43.62482" lon="7.13249">
        <ele>12.309998</ele>
        <time>2024-12-01T11:11:11.259Z</time>
      </trkpt>
      <trkpt lat="43.62475" lon="7.13245">
        <ele>11.209999</ele>
        <time>2024-12-01T11:11:13.263Z</time>
      </trkpt>
      <trkpt lat="43.62467" lon="7.13242">
        <ele>11.589996</ele>
        <time>2024-12-01T11:11:15.269Z</time>
      </trkpt>
      <trkpt lat="43.62459" lon="7.13239">
        <ele>11.470001</ele>
        <time>2024-12-01T11:11:17.271Z</time>
      </trkpt>
      <trkpt lat="43.6245" lon="7.13237">
        <ele>11.790001</ele>
        <time>2024-12-01T11:11:19.276Z</time>
      </trkpt>
      <trkpt lat="43.62442" lon="7.13234">
        <ele>11.669998</ele>
        <time>2024-12-01T11:11:21.282Z</time>
      </trkpt>
      <trkpt lat="43.62433" lon="7.13232">
        <ele>11.949997</ele>
        <time>2024-12-01T11:11:23.282Z</time>
      </trkpt>
      <trkpt lat="43.62426" lon="7.13227">
        <ele>11.440002</ele>
        <time>2024-12-01T11:11:25.286Z</time>
      </trkpt>
      <trkpt lat="43.62417" lon="7.13223">
        <ele>11.690002</ele>
        <time>2024-12-01T11:11:27.290Z</time>
      </trkpt>
      <trkpt lat="43.6241" lon="7.13219">
        <ele>11.800003</ele>
        <time>2024-12-01T11:11:28.853Z</time>
      </trkpt>
      <trkpt lat="43.62401" lon="7.13215">
        <ele>11.809998</ele>
        <time>2024-12-01T11:11:31.297Z</time>
      </trkpt>
      <trkpt lat="43.62391" lon="7.13212">
        <ele>12.080002</ele>
        <time>2024-12-01T11:11:33.300Z</time>
      </trkpt>
      <trkpt lat="43.62383" lon="7.13208">
        <ele>11.110001</ele>
        <time>2024-12-01T11:11:35.305Z</time>
      </trkpt>
      <trkpt lat="43.62374" lon="7.13204">
        <ele>11.309998</ele>
        <time>2024-12-01T11:11:37.307Z</time>
      </trkpt>
      <trkpt lat="43.62365" lon="7.13201">
        <ele>11.690002</ele>
        <time>2024-12-01T11:11:39.311Z</time>
      </trkpt>
      <trkpt lat="43.62357" lon="7.13197">
        <ele>11.389999</ele>
        <time>2024-12-01T11:11:41.314Z</time>
      </trkpt>
      <trkpt lat="43.62348" lon="7.13194">
        <ele>11.589996</ele>
        <time>2024-12-01T11:11:43.317Z</time>
      </trkpt>
      <trkpt lat="43.6234" lon="7.13191">
        <ele>11.150002</ele>
        <time>2024-12-01T11:11:45.321Z</time>
      </trkpt>
      <trkpt lat="43.62332" lon="7.13187">
        <ele>11.32</ele>
        <time>2024-12-01T11:11:47.327Z</time>
      </trkpt>
      <trkpt lat="43.62323" lon="7.13183">
        <ele>11.580002</ele>
        <time>2024-12-01T11:11:49.329Z</time>
      </trkpt>
      <trkpt lat="43.62313" lon="7.1318">
        <ele>10.639999</ele>
        <time>2024-12-01T11:11:51.335Z</time>
      </trkpt>
      <trkpt lat="43.62304" lon="7.13175">
        <ele>10.830002</ele>
        <time>2024-12-01T11:11:53.334Z</time>
      </trkpt>
      <trkpt lat="43.62296" lon="7.13171">
        <ele>11.080002</ele>
        <time>2024-12-01T11:11:55.338Z</time>
      </trkpt>
      <trkpt lat="43.62288" lon="7.13167">
        <ele>10.970001</ele>
        <time>2024-12-01T11:11:57.342Z</time>
      </trkpt>
      <trkpt lat="43.62278" lon="7.13163">
        <ele>11.099998</ele>
        <time>2024-12-01T11:11:59.347Z</time>
      </trkpt>
      <trkpt lat="43.62269" lon="7.1316">
        <ele>11.269997</ele>
        <time>2024-12-01T11:12:01.351Z</time>
      </trkpt>
      <trkpt lat="43.6226" lon="7.13157">
        <ele>11.349998</ele>
        <time>2024-12-01T11:12:03.338Z</time>
      </trkpt>
      <trkpt lat="43.62251" lon="7.13153">
        <ele>11.309998</ele>
        <time>2024-12-01T11:12:05.357Z</time>
      </trkpt>
      <trkpt lat="43.62241" lon="7.13149">
        <ele>11.449997</ele>
        <time>2024-12-01T11:12:07.361Z</time>
      </trkpt>
      <trkpt lat="43.62231" lon="7.13145">
        <ele>11.82</ele>
        <time>2024-12-01T11:12:09.366Z</time>
      </trkpt>
      <trkpt lat="43.62223" lon="7.13141">
        <ele>11.349998</ele>
        <time>2024-12-01T11:12:11.366Z</time>
      </trkpt>
      <trkpt lat="43.62213" lon="7.13136">
        <ele>11.389999</ele>
        <time>2024-12-01T11:12:13.373Z</time>
      </trkpt>
      <trkpt lat="43.62204" lon="7.1313">
        <ele>11.529999</ele>
        <time>2024-12-01T11:12:15.373Z</time>
      </trkpt>
      <trkpt lat="43.62195" lon="7.13125">
        <ele>11.760002</ele>
        <time>2024-12-01T11:12:17.377Z</time>
      </trkpt>
      <trkpt lat="43.62185" lon="7.13122">
        <ele>12.150002</ele>
        <time>2024-12-01T11:12:19.380Z</time>
      </trkpt>
      <trkpt lat="43.62175" lon="7.13118">
        <ele>11.82</ele>
        <time>2024-12-01T11:12:21.386Z</time>
      </trkpt>
      <trkpt lat="43.62166" lon="7.13114">
        <ele>11.389999</ele>
        <time>2024-12-01T11:12:23.424Z</time>
      </trkpt>
      <trkpt lat="43.62156" lon="7.13109">
        <ele>11.510002</ele>
        <time>2024-12-01T11:12:25.394Z</time>
      </trkpt>
      <trkpt lat="43.62146" lon="7.13105">
        <ele>11.660004</ele>
        <time>2024-12-01T11:12:26.968Z</time>
      </trkpt>
      <trkpt lat="43.62137" lon="7.13101">
        <ele>11.940002</ele>
        <time>2024-12-01T11:12:28.945Z</time>
      </trkpt>
      <trkpt lat="43.62128" lon="7.13097">
        <ele>11.730003</ele>
        <time>2024-12-01T11:12:30.971Z</time>
      </trkpt>
      <trkpt lat="43.62119" lon="7.13093">
        <ele>11.730003</ele>
        <time>2024-12-01T11:12:32.976Z</time>
      </trkpt>
      <trkpt lat="43.62109" lon="7.13089">
        <ele>11.889999</ele>
        <time>2024-12-01T11:12:35.451Z</time>
      </trkpt>
      <trkpt lat="43.621" lon="7.13085">
        <ele>12.139999</ele>
        <time>2024-12-01T11:12:36.978Z</time>
      </trkpt>
      <trkpt lat="43.62091" lon="7.1308">
        <ele>12.519997</ele>
        <time>2024-12-01T11:12:39.457Z</time>
      </trkpt>
      <trkpt lat="43.62082" lon="7.13076">
        <ele>12.059998</ele>
        <time>2024-12-01T11:12:40.986Z</time>
      </trkpt>
      <trkpt lat="43.62072" lon="7.13071">
        <ele>12.019997</ele>
        <time>2024-12-01T11:12:43.425Z</time>
      </trkpt>
      <trkpt lat="43.62062" lon="7.13067">
        <ele>12.190002</ele>
        <time>2024-12-01T11:12:45.461Z</time>
      </trkpt>
      <trkpt lat="43.62053" lon="7.13064">
        <ele>12.5</ele>
        <time>2024-12-01T11:12:46.965Z</time>
      </trkpt>
      <trkpt lat="43.62043" lon="7.1306">
        <ele>12.669998</ele>
        <time>2024-12-01T11:12:49.477Z</time>
      </trkpt>
      <trkpt lat="43.62034" lon="7.13056">
        <ele>12.279999</ele>
        <time>2024-12-01T11:12:51.064Z</time>
      </trkpt>
      <trkpt lat="43.62025" lon="7.13051">
        <ele>12.410004</ele>
        <time>2024-12-01T11:12:53.118Z</time>
      </trkpt>
      <trkpt lat="43.62016" lon="7.13047">
        <ele>12.620003</ele>
        <time>2024-12-01T11:12:55.443Z</time>
      </trkpt>
      <trkpt lat="43.62006" lon="7.13044">
        <ele>12.900002</ele>
        <time>2024-12-01T11:12:57.446Z</time>
      </trkpt>
      <trkpt lat="43.61996" lon="7.1304">
        <ele>12.529999</ele>
        <time>2024-12-01T11:12:59.451Z</time>
      </trkpt>
      <trkpt lat="43.61988" lon="7.13035">
        <ele>12.660004</ele>
        <time>2024-12-01T11:13:01.452Z</time>
      </trkpt>
      <trkpt lat="43.61978" lon="7.13031">
        <ele>12.879997</ele>
        <time>2024-12-01T11:13:03.457Z</time>
      </trkpt>
      <trkpt lat="43.61969" lon="7.13028">
        <ele>13.309998</ele>
        <time>2024-12-01T11:13:05.461Z</time>
      </trkpt>
      <trkpt lat="43.6196" lon="7.13024">
        <ele>12.830002</ele>
        <time>2024-12-01T11:13:07.463Z</time>
      </trkpt>
      <trkpt lat="43.6195" lon="7.13021">
        <ele>12.980003</ele>
        <time>2024-12-01T11:13:09.466Z</time>
      </trkpt>
      <trkpt lat="43.61941" lon="7.13017">
        <ele>13.239998</ele>
        <time>2024-12-01T11:13:11.017Z</time>
      </trkpt>
      <trkpt lat="43.61932" lon="7.13013">
        <ele>13.449997</ele>
        <time>2024-12-01T11:13:13.087Z</time>
      </trkpt>
      <trkpt lat="43.61923" lon="7.13008">
        <ele>13.279999</ele>
        <time>2024-12-01T11:13:15.479Z</time>
      </trkpt>
      <trkpt lat="43.61914" lon="7.13005">
        <ele>13.419998</ele>
        <time>2024-12-01T11:13:17.019Z</time>
      </trkpt>
      <trkpt lat="43.61905" lon="7.13001">
        <ele>13.839996</ele>
        <time>2024-12-01T11:13:19.012Z</time>
      </trkpt>
      <trkpt lat="43.61896" lon="7.12998">
        <ele>13.5</ele>
        <time>2024-12-01T11:13:21.524Z</time>
      </trkpt>
      <trkpt lat="43.61887" lon="7.12994">
        <ele>12.989998</ele>
        <time>2024-12-01T11:13:23.541Z</time>
      </trkpt>
      <trkpt lat="43.61879" lon="7.1299">
        <ele>12.190002</ele>
        <time>2024-12-01T11:13:25.492Z</time>
      </trkpt>
      <trkpt lat="43.61871" lon="7.12985">
        <ele>12.260002</ele>
        <time>2024-12-01T11:13:27.495Z</time>
      </trkpt>
      <trkpt lat="43.61863" lon="7.1298">
        <ele>12.43</ele>
        <time>2024-12-01T11:13:29.500Z</time>
      </trkpt>
      <trkpt lat="43.61854" lon="7.12976">
        <ele>12.589996</ele>
        <time>2024-12-01T11:13:31.502Z</time>
      </trkpt>
      <trkpt lat="43.61846" lon="7.12973">
        <ele>12.779999</ele>
        <time>2024-12-01T11:13:33.506Z</time>
      </trkpt>
      <trkpt lat="43.61837" lon="7.1297">
        <ele>13.099998</ele>
        <time>2024-12-01T11:13:35.509Z</time>
      </trkpt>
      <trkpt lat="43.6183" lon="7.12966">
        <ele>12.309998</ele>
        <time>2024-12-01T11:13:37.512Z</time>
      </trkpt>
      <trkpt lat="43.61822" lon="7.12962">
        <ele>12.449997</ele>
        <time>2024-12-01T11:13:39.516Z</time>
      </trkpt>
      <trkpt lat="43.61814" lon="7.12958">
        <ele>12.599998</ele>
        <time>2024-12-01T11:13:41.522Z</time>
      </trkpt>
      <trkpt lat="43.61806" lon="7.12955">
        <ele>12.830002</ele>
        <time>2024-12-01T11:13:43.522Z</time>
      </trkpt>
      <trkpt lat="43.61797" lon="7.12951">
        <ele>13.169998</ele>
        <time>2024-12-01T11:13:45.527Z</time>
      </trkpt>
      <trkpt lat="43.61788" lon="7.12948">
        <ele>12.800003</ele>
        <time>2024-12-01T11:13:47.532Z</time>
      </trkpt>
      <trkpt lat="43.6178" lon="7.12944">
        <ele>12.559998</ele>
        <time>2024-12-01T11:13:49.535Z</time>
      </trkpt>
      <trkpt lat="43.61771" lon="7.1294">
        <ele>12.68</ele>
        <time>2024-12-01T11:13:51.581Z</time>
      </trkpt>
      <trkpt lat="43.61762" lon="7.12937">
        <ele>12.860001</ele>
        <time>2024-12-01T11:13:53.590Z</time>
      </trkpt>
      <trkpt lat="43.61753" lon="7.12934">
        <ele>13.129997</ele>
        <time>2024-12-01T11:13:55.590Z</time>
      </trkpt>
      <trkpt lat="43.61745" lon="7.12931">
        <ele>13.519997</ele>
        <time>2024-12-01T11:13:57.509Z</time>
      </trkpt>
      <trkpt lat="43.61736" lon="7.12928">
        <ele>12.82</ele>
        <time>2024-12-01T11:13:59.171Z</time>
      </trkpt>
      <trkpt lat="43.61728" lon="7.12924">
        <ele>12.910004</ele>
        <time>2024-12-01T11:14:00.606Z</time>
      </trkpt>
      <trkpt lat="43.6172" lon="7.12921">
        <ele>13.089996</ele>
        <time>2024-12-01T11:14:02.611Z</time>
      </trkpt>
      <trkpt lat="43.61711" lon="7.12917">
        <ele>13.360001</ele>
        <time>2024-12-01T11:14:04.611Z</time>
      </trkpt>
      <trkpt lat="43.61702" lon="7.12915">
        <ele>13.849998</ele>
        <time>2024-12-01T11:14:06.630Z</time>
      </trkpt>
      <trkpt lat="43.61694" lon="7.12912">
        <ele>13.519997</ele>
        <time>2024-12-01T11:14:08.651Z</time>
      </trkpt>
      <trkpt lat="43.61685" lon="7.12908">
        <ele>12.309998</ele>
        <time>2024-12-01T11:14:11.573Z</time>
      </trkpt>
      <trkpt lat="43.61677" lon="7.12902">
        <ele>11.309998</ele>
        <time>2024-12-01T11:14:13.200Z</time>
      </trkpt>
      <trkpt lat="43.61669" lon="7.12897">
        <ele>11.599998</ele>
        <time>2024-12-01T11:14:15.579Z</time>
      </trkpt>
      <trkpt lat="43.61661" lon="7.12894">
        <ele>11.870003</ele>
        <time>2024-12-01T11:14:17.581Z</time>
      </trkpt>
      <trkpt lat="43.61652" lon="7.12891">
        <ele>12.25</ele>
        <time>2024-12-01T11:14:19.584Z</time>
      </trkpt>
      <trkpt lat="43.61644" lon="7.12887">
        <ele>11.68</ele>
        <time>2024-12-01T11:14:21.586Z</time>
      </trkpt>
      <trkpt lat="43.61636" lon="7.12883">
        <ele>11.449997</ele>
        <time>2024-12-01T11:14:23.590Z</time>
      </trkpt>
      <trkpt lat="43.61628" lon="7.12879">
        <ele>11.690002</ele>
        <time>2024-12-01T11:14:25.594Z</time>
      </trkpt>
      <trkpt lat="43.6162" lon="7.12875">
        <ele>11.940002</ele>
        <time>2024-12-01T11:14:27.597Z</time>
      </trkpt>
      <trkpt lat="43.61612" lon="7.12871">
        <ele>12.300003</ele>
        <time>2024-12-01T11:14:29.600Z</time>
      </trkpt>
      <trkpt lat="43.61603" lon="7.12869">
        <ele>11.860001</ele>
        <time>2024-12-01T11:14:31.605Z</time>
      </trkpt>
      <trkpt lat="43.61594" lon="7.12865">
        <ele>11.339996</ele>
        <time>2024-12-01T11:14:33.606Z</time>
      </trkpt>
      <trkpt lat="43.61586" lon="7.12861">
        <ele>11.540001</ele>
        <time>2024-12-01T11:14:35.611Z</time>
      </trkpt>
      <trkpt lat="43.61578" lon="7.12858">
        <ele>11.739998</ele>
        <time>2024-12-01T11:14:37.615Z</time>
      </trkpt>
      <trkpt lat="43.6157" lon="7.12854">
        <ele>12.010002</ele>
        <time>2024-12-01T11:14:39.617Z</time>
      </trkpt>
      <trkpt lat="43.61562" lon="7.1285">
        <ele>12.239998</ele>
        <time>2024-12-01T11:14:41.619Z</time>
      </trkpt>
      <trkpt lat="43.61554" lon="7.12847">
        <ele>11.610001</ele>
        <time>2024-12-01T11:14:43.625Z</time>
      </trkpt>
      <trkpt lat="43.61545" lon="7.12843">
        <ele>11.690002</ele>
        <time>2024-12-01T11:14:45.627Z</time>
      </trkpt>
      <trkpt lat="43.61537" lon="7.12839">
        <ele>11.830002</ele>
        <time>2024-12-01T11:14:47.632Z</time>
      </trkpt>
      <trkpt lat="43.61529" lon="7.12835">
        <ele>12.07</ele>
        <time>2024-12-01T11:14:49.635Z</time>
      </trkpt>
      <trkpt lat="43.61521" lon="7.12832">
        <ele>12.57</ele>
        <time>2024-12-01T11:14:51.636Z</time>
      </trkpt>
      <trkpt lat="43.61513" lon="7.12828">
        <ele>12.110001</ele>
        <time>2024-12-01T11:14:53.641Z</time>
      </trkpt>
      <trkpt lat="43.61504" lon="7.12824">
        <ele>11.559998</ele>
        <time>2024-12-01T11:14:55.645Z</time>
      </trkpt>
      <trkpt lat="43.61495" lon="7.1282">
        <ele>11.709999</ele>
        <time>2024-12-01T11:14:57.648Z</time>
      </trkpt>
      <trkpt lat="43.61486" lon="7.12816">
        <ele>11.900002</ele>
        <time>2024-12-01T11:14:59.649Z</time>
      </trkpt>
      <trkpt lat="43.61478" lon="7.12813">
        <ele>12.110001</ele>
        <time>2024-12-01T11:15:01.653Z</time>
      </trkpt>
      <trkpt lat="43.6147" lon="7.12809">
        <ele>12.480003</ele>
        <time>2024-12-01T11:15:03.659Z</time>
      </trkpt>
      <trkpt lat="43.61461" lon="7.12806">
        <ele>12.360001</ele>
        <time>2024-12-01T11:15:05.660Z</time>
      </trkpt>
      <trkpt lat="43.61452" lon="7.12802">
        <ele>11.620003</ele>
        <time>2024-12-01T11:15:07.664Z</time>
      </trkpt>
      <trkpt lat="43.61444" lon="7.12798">
        <ele>11.370003</ele>
        <time>2024-12-01T11:15:09.669Z</time>
      </trkpt>
      <trkpt lat="43.61436" lon="7.12794">
        <ele>11.580002</ele>
        <time>2024-12-01T11:15:11.672Z</time>
      </trkpt>
      <trkpt lat="43.61427" lon="7.12791">
        <ele>11.769997</ele>
        <time>2024-12-01T11:15:13.674Z</time>
      </trkpt>
      <trkpt lat="43.61419" lon="7.12788">
        <ele>12.080002</ele>
        <time>2024-12-01T11:15:15.677Z</time>
      </trkpt>
      <trkpt lat="43.61411" lon="7.12785">
        <ele>12.190002</ele>
        <time>2024-12-01T11:15:17.680Z</time>
      </trkpt>
      <trkpt lat="43.61402" lon="7.12781">
        <ele>11.459999</ele>
        <time>2024-12-01T11:15:19.681Z</time>
      </trkpt>
      <trkpt lat="43.61395" lon="7.12776">
        <ele>11.550003</ele>
        <time>2024-12-01T11:15:21.684Z</time>
      </trkpt>
      <trkpt lat="43.61386" lon="7.12772">
        <ele>11.709999</ele>
        <time>2024-12-01T11:15:23.687Z</time>
      </trkpt>
      <trkpt lat="43.61378" lon="7.12769">
        <ele>11.93</ele>
        <time>2024-12-01T11:15:25.692Z</time>
      </trkpt>
      <trkpt lat="43.61369" lon="7.12765">
        <ele>12.360001</ele>
        <time>2024-12-01T11:15:27.694Z</time>
      </trkpt>
      <trkpt lat="43.61361" lon="7.12762">
        <ele>12.769997</ele>
        <time>2024-12-01T11:15:29.702Z</time>
      </trkpt>
      <trkpt lat="43.61352" lon="7.12759">
        <ele>12.379997</ele>
        <time>2024-12-01T11:15:31.701Z</time>
      </trkpt>
      <trkpt lat="43.61343" lon="7.12755">
        <ele>11.910004</ele>
        <time>2024-12-01T11:15:33.314Z</time>
      </trkpt>
      <trkpt lat="43.61335" lon="7.1275">
        <ele>11.910004</ele>
        <time>2024-12-01T11:15:35.707Z</time>
      </trkpt>
      <trkpt lat="43.61327" lon="7.12748">
        <ele>12.050003</ele>
        <time>2024-12-01T11:15:37.711Z</time>
      </trkpt>
      <trkpt lat="43.61319" lon="7.12745">
        <ele>12.269997</ele>
        <time>2024-12-01T11:15:39.714Z</time>
      </trkpt>
      <trkpt lat="43.6131" lon="7.12742">
        <ele>12.550003</ele>
        <time>2024-12-01T11:15:41.719Z</time>
      </trkpt>
      <trkpt lat="43.613" lon="7.12739">
        <ele>12.849998</ele>
        <time>2024-12-01T11:15:43.719Z</time>
      </trkpt>
      <trkpt lat="43.6129" lon="7.12736">
        <ele>13</ele>
        <time>2024-12-01T11:15:45.722Z</time>
      </trkpt>
      <trkpt lat="43.61281" lon="7.12733">
        <ele>12.550003</ele>
        <time>2024-12-01T11:15:47.725Z</time>
      </trkpt>
      <trkpt lat="43.61273" lon="7.12729">
        <ele>11.900002</ele>
        <time>2024-12-01T11:15:49.731Z</time>
      </trkpt>
      <trkpt lat="43.61265" lon="7.12725">
        <ele>11.82</ele>
        <time>2024-12-01T11:15:51.733Z</time>
      </trkpt>
      <trkpt lat="43.61256" lon="7.1272">
        <ele>11.970001</ele>
        <time>2024-12-01T11:15:53.736Z</time>
      </trkpt>
      <trkpt lat="43.61247" lon="7.12716">
        <ele>12.110001</ele>
        <time>2024-12-01T11:15:55.739Z</time>
      </trkpt>
      <trkpt lat="43.61238" lon="7.12713">
        <ele>12.269997</ele>
        <time>2024-12-01T11:15:57.742Z</time>
      </trkpt>
      <trkpt lat="43.61229" lon="7.12711">
        <ele>12.540001</ele>
        <time>2024-12-01T11:15:59.745Z</time>
      </trkpt>
      <trkpt lat="43.61221" lon="7.12708">
        <ele>12.910004</ele>
        <time>2024-12-01T11:16:01.748Z</time>
      </trkpt>
      <trkpt lat="43.61212" lon="7.12705">
        <ele>12.57</ele>
        <time>2024-12-01T11:16:03.751Z</time>
      </trkpt>
      <trkpt lat="43.61203" lon="7.12702">
        <ele>11.980003</ele>
        <time>2024-12-01T11:16:05.754Z</time>
      </trkpt>
      <trkpt lat="43.61195" lon="7.12699">
        <ele>12.089996</ele>
        <time>2024-12-01T11:16:07.760Z</time>
      </trkpt>
      <trkpt lat="43.61187" lon="7.12697">
        <ele>12.239998</ele>
        <time>2024-12-01T11:16:09.700Z</time>
      </trkpt>
      <trkpt lat="43.61178" lon="7.12694">
        <ele>12.459999</ele>
        <time>2024-12-01T11:16:11.764Z</time>
      </trkpt>
      <trkpt lat="43.61171" lon="7.12691">
        <ele>12.68</ele>
        <time>2024-12-01T11:16:13.767Z</time>
      </trkpt>
      <trkpt lat="43.61164" lon="7.12689">
        <ele>12.529999</ele>
        <time>2024-12-01T11:16:15.770Z</time>
      </trkpt>
      <trkpt lat="43.61158" lon="7.12687">
        <ele>12.480003</ele>
        <time>2024-12-01T11:16:17.481Z</time>
      </trkpt>
      <trkpt lat="43.61152" lon="7.12685">
        <ele>12.599998</ele>
        <time>2024-12-01T11:16:19.777Z</time>
      </trkpt>
      <trkpt lat="43.61147" lon="7.12681">
        <ele>12.580002</ele>
        <time>2024-12-01T11:16:21.511Z</time>
      </trkpt>
      <trkpt lat="43.61142" lon="7.12676">
        <ele>12.5</ele>
        <time>2024-12-01T11:16:23.782Z</time>
      </trkpt>
      <trkpt lat="43.61138" lon="7.12672">
        <ele>12.480003</ele>
        <time>2024-12-01T11:16:24.889Z</time>
      </trkpt>
      <trkpt lat="43.61137" lon="7.12669">
        <ele>12.519997</ele>
        <time>2024-12-01T11:16:27.790Z</time>
      </trkpt>
      <trkpt lat="43.61137" lon="7.12665">
        <ele>12.480003</ele>
        <time>2024-12-01T11:16:29.470Z</time>
      </trkpt>
      <trkpt lat="43.61139" lon="7.12658">
        <ele>12.919998</ele>
        <time>2024-12-01T11:16:32.835Z</time>
      </trkpt>
      <trkpt lat="43.6114" lon="7.12651">
        <ele>12.190002</ele>
        <time>2024-12-01T11:16:34.840Z</time>
      </trkpt>
      <trkpt lat="43.61142" lon="7.12643">
        <ele>12.5</ele>
        <time>2024-12-01T11:16:36.842Z</time>
      </trkpt>
      <trkpt lat="43.61145" lon="7.1263">
        <ele>12.389999</ele>
        <time>2024-12-01T11:16:38.631Z</time>
      </trkpt>
      <trkpt lat="43.6115" lon="7.12629">
        <ele>12.470001</ele>
        <time>2024-12-01T11:16:40.851Z</time>
      </trkpt>
      <trkpt lat="43.61155" lon="7.12634">
        <ele>11.669998</ele>
        <time>2024-12-01T11:16:42.851Z</time>
      </trkpt>
      <trkpt lat="43.61161" lon="7.12638">
        <ele>11.830002</ele>
        <time>2024-12-01T11:16:44.854Z</time>
      </trkpt>
      <trkpt lat="43.61167" lon="7.12641">
        <ele>12.029999</ele>
        <time>2024-12-01T11:16:46.744Z</time>
      </trkpt>
      <trkpt lat="43.61173" lon="7.12644">
        <ele>12.279999</ele>
        <time>2024-12-01T11:16:48.862Z</time>
      </trkpt>
      <trkpt lat="43.6118" lon="7.12646">
        <ele>11.809998</ele>
        <time>2024-12-01T11:16:50.862Z</time>
      </trkpt>
      <trkpt lat="43.61186" lon="7.12649">
        <ele>11.279999</ele>
        <time>2024-12-01T11:16:52.869Z</time>
      </trkpt>
      <trkpt lat="43.61192" lon="7.12651">
        <ele>11.260002</ele>
        <time>2024-12-01T11:16:54.452Z</time>
      </trkpt>
      <trkpt lat="43.61196" lon="7.12654">
        <ele>11.220001</ele>
        <time>2024-12-01T11:16:56.873Z</time>
      </trkpt>
      <trkpt lat="43.61201" lon="7.12657">
        <ele>11.25</ele>
        <time>2024-12-01T11:16:58.875Z</time>
      </trkpt>
      <trkpt lat="43.61205" lon="7.12659">
        <ele>11.300003</ele>
        <time>2024-12-01T11:17:00.879Z</time>
      </trkpt>
      <trkpt lat="43.61209" lon="7.1266">
        <ele>11.360001</ele>
        <time>2024-12-01T11:17:02.882Z</time>
      </trkpt>
      <trkpt lat="43.61214" lon="7.12658">
        <ele>11.599998</ele>
        <time>2024-12-01T11:17:04.885Z</time>
      </trkpt>
      <trkpt lat="43.61216" lon="7.12654">
        <ele>11.650002</ele>
        <time>2024-12-01T11:17:06.888Z</time>
      </trkpt>
      <trkpt lat="43.61216" lon="7.1265">
        <ele>11.75</ele>
        <time>2024-12-01T11:17:08.891Z</time>
      </trkpt>
      <trkpt lat="43.61216" lon="7.12643">
        <ele>11.160004</ele>
        <time>2024-12-01T11:17:10.893Z</time>
      </trkpt>
      <trkpt lat="43.61216" lon="7.12639">
        <ele>11.099998</ele>
        <time>2024-12-01T11:17:12.897Z</time>
      </trkpt>
      <trkpt lat="43.61217" lon="7.1263">
        <ele>11.290001</ele>
        <time>2024-12-01T11:17:14.901Z</time>
      </trkpt>
      <trkpt lat="43.6122" lon="7.12628">
        <ele>11.160004</ele>
        <time>2024-12-01T11:17:16.904Z</time>
      </trkpt>
      <trkpt lat="43.61225" lon="7.12625">
        <ele>10.419998</ele>
        <time>2024-12-01T11:17:18.904Z</time>
      </trkpt>
      <trkpt lat="43.6123" lon="7.12618">
        <ele>10.629997</ele>
        <time>2024-12-01T11:17:20.911Z</time>
      </trkpt>
      <trkpt lat="43.61232" lon="7.12614">
        <ele>10.769997</ele>
        <time>2024-12-01T11:17:22.912Z</time>
      </trkpt>
      <trkpt lat="43.61234" lon="7.12611">
        <ele>10.739998</ele>
        <time>2024-12-01T11:17:24.473Z</time>
      </trkpt>
      <trkpt lat="43.61238" lon="7.12609">
        <ele>10.919998</ele>
        <time>2024-12-01T11:17:28.923Z</time>
      </trkpt>
      <trkpt lat="43.61244" lon="7.12612">
        <ele>11.169998</ele>
        <time>2024-12-01T11:17:30.926Z</time>
      </trkpt>
      <trkpt lat="43.6125" lon="7.12612">
        <ele>11.220001</ele>
        <time>2024-12-01T11:17:32.467Z</time>
      </trkpt>
      <trkpt lat="43.61252" lon="7.12608">
        <ele>11.360001</ele>
        <time>2024-12-01T11:17:34.927Z</time>
      </trkpt>
      <trkpt lat="43.61251" lon="7.12597">
        <ele>11.440002</ele>
        <time>2024-12-01T11:17:36.931Z</time>
      </trkpt>
      <trkpt lat="43.61253" lon="7.12585">
        <ele>11.43</ele>
        <time>2024-12-01T11:17:38.935Z</time>
      </trkpt>
      <trkpt lat="43.61254" lon="7.12574">
        <ele>11.239998</ele>
        <time>2024-12-01T11:17:40.942Z</time>
      </trkpt>
      <trkpt lat="43.61257" lon="7.12562">
        <ele>11.410004</ele>
        <time>2024-12-01T11:17:42.940Z</time>
      </trkpt>
      <trkpt lat="43.6126" lon="7.12551">
        <ele>11.470001</ele>
        <time>2024-12-01T11:17:44.949Z</time>
      </trkpt>
      <trkpt lat="43.61264" lon="7.12541">
        <ele>11.5</ele>
        <time>2024-12-01T11:17:46.946Z</time>
      </trkpt>
      <trkpt lat="43.61268" lon="7.12531">
        <ele>11.480003</ele>
        <time>2024-12-01T11:17:48.964Z</time>
      </trkpt>
      <trkpt lat="43.61273" lon="7.12522">
        <ele>11.489998</ele>
        <time>2024-12-01T11:17:50.952Z</time>
      </trkpt>
      <trkpt lat="43.61277" lon="7.12513">
        <ele>10.660004</ele>
        <time>2024-12-01T11:17:52.956Z</time>
      </trkpt>
      <trkpt lat="43.6128" lon="7.12503">
        <ele>10.769997</ele>
        <time>2024-12-01T11:17:54.957Z</time>
      </trkpt>
      <trkpt lat="43.61284" lon="7.12494">
        <ele>10.800003</ele>
        <time>2024-12-01T11:17:56.960Z</time>
      </trkpt>
      <trkpt lat="43.61287" lon="7.12486">
        <ele>10.739998</ele>
        <time>2024-12-01T11:17:58.965Z</time>
      </trkpt>
      <trkpt lat="43.6129" lon="7.1248">
        <ele>10.779999</ele>
        <time>2024-12-01T11:18:00.980Z</time>
      </trkpt>
      <trkpt lat="43.61292" lon="7.12471">
        <ele>10.980003</ele>
        <time>2024-12-01T11:18:02.969Z</time>
      </trkpt>
      <trkpt lat="43.61296" lon="7.12461">
        <ele>11.059998</ele>
        <time>2024-12-01T11:18:04.013Z</time>
      </trkpt>
      <trkpt lat="43.61301" lon="7.12454">
        <ele>10.870003</ele>
        <time>2024-12-01T11:18:06.975Z</time>
      </trkpt>
      <trkpt lat="43.61306" lon="7.12446">
        <ele>10.790001</ele>
        <time>2024-12-01T11:18:08.979Z</time>
      </trkpt>
      <trkpt lat="43.61309" lon="7.12437">
        <ele>10.849998</ele>
        <time>2024-12-01T11:18:10.980Z</time>
      </trkpt>
      <trkpt lat="43.61312" lon="7.12426">
        <ele>10.650002</ele>
        <time>2024-12-01T11:18:12.983Z</time>
      </trkpt>
      <trkpt lat="43.61316" lon="7.12416">
        <ele>10.470001</ele>
        <time>2024-12-01T11:18:14.555Z</time>
      </trkpt>
      <trkpt lat="43.61319" lon="7.12406">
        <ele>10.470001</ele>
        <time>2024-12-01T11:18:16.540Z</time>
      </trkpt>
      <trkpt lat="43.61323" lon="7.12399">
        <ele>10.410004</ele>
        <time>2024-12-01T11:18:18.993Z</time>
      </trkpt>
      <trkpt lat="43.61327" lon="7.1239">
        <ele>10.480003</ele>
        <time>2024-12-01T11:18:20.996Z</time>
      </trkpt>
      <trkpt lat="43.6133" lon="7.12381">
        <ele>10.720001</ele>
        <time>2024-12-01T11:18:22.998Z</time>
      </trkpt>
      <trkpt lat="43.61334" lon="7.12372">
        <ele>11</ele>
        <time>2024-12-01T11:18:25.003Z</time>
      </trkpt>
      <trkpt lat="43.61337" lon="7.12363">
        <ele>11.370003</ele>
        <time>2024-12-01T11:18:27.003Z</time>
      </trkpt>
      <trkpt lat="43.61341" lon="7.12354">
        <ele>11.400002</ele>
        <time>2024-12-01T11:18:29.006Z</time>
      </trkpt>
      <trkpt lat="43.61346" lon="7.12344">
        <ele>11.029999</ele>
        <time>2024-12-01T11:18:30.135Z</time>
      </trkpt>
      <trkpt lat="43.6135" lon="7.12334">
        <ele>10.669998</ele>
        <time>2024-12-01T11:18:33.011Z</time>
      </trkpt>
      <trkpt lat="43.61353" lon="7.12325">
        <ele>10.620003</ele>
        <time>2024-12-01T11:18:35.014Z</time>
      </trkpt>
      <trkpt lat="43.61357" lon="7.12316">
        <ele>9.93</ele>
        <time>2024-12-01T11:18:36.107Z</time>
      </trkpt>
      <trkpt lat="43.6136" lon="7.12305">
        <ele>8.900002</ele>
        <time>2024-12-01T11:18:39.022Z</time>
      </trkpt>
      <trkpt lat="43.61363" lon="7.12295">
        <ele>7.510002</ele>
        <time>2024-12-01T11:18:41.023Z</time>
      </trkpt>
      <trkpt lat="43.61367" lon="7.12285">
        <ele>6.279999</ele>
        <time>2024-12-01T11:18:43.027Z</time>
      </trkpt>
      <trkpt lat="43.61372" lon="7.12276">
        <ele>6.970001</ele>
        <time>2024-12-01T11:18:45.029Z</time>
      </trkpt>
      <trkpt lat="43.61375" lon="7.12265">
        <ele>6.6500015</ele>
        <time>2024-12-01T11:18:47.034Z</time>
      </trkpt>
      <trkpt lat="43.6138" lon="7.12255">
        <ele>7.080002</ele>
        <time>2024-12-01T11:18:49.075Z</time>
      </trkpt>
      <trkpt lat="43.61384" lon="7.12246">
        <ele>7.5699997</ele>
        <time>2024-12-01T11:18:50.144Z</time>
      </trkpt>
      <trkpt lat="43.61387" lon="7.12236">
        <ele>6.2699966</ele>
        <time>2024-12-01T11:18:52.123Z</time>
      </trkpt>
      <trkpt lat="43.61391" lon="7.12227">
        <ele>6.3700027</ele>
        <time>2024-12-01T11:18:54.141Z</time>
      </trkpt>
      <trkpt lat="43.61395" lon="7.12217">
        <ele>6.919998</ele>
        <time>2024-12-01T11:18:56.159Z</time>
      </trkpt>
      <trkpt lat="43.61399" lon="7.12207">
        <ele>6.550003</ele>
        <time>2024-12-01T11:18:58.679Z</time>
      </trkpt>
      <trkpt lat="43.61403" lon="7.12198">
        <ele>6.9100037</ele>
        <time>2024-12-01T11:19:00.137Z</time>
      </trkpt>
      <trkpt lat="43.61406" lon="7.12189">
        <ele>7.3499985</ele>
        <time>2024-12-01T11:19:02.151Z</time>
      </trkpt>
      <trkpt lat="43.61411" lon="7.12179">
        <ele>7.6900024</ele>
        <time>2024-12-01T11:19:05.115Z</time>
      </trkpt>
      <trkpt lat="43.61415" lon="7.12168">
        <ele>7.0699997</ele>
        <time>2024-12-01T11:19:06.140Z</time>
      </trkpt>
      <trkpt lat="43.61419" lon="7.12158">
        <ele>7.3099976</ele>
        <time>2024-12-01T11:19:09.135Z</time>
      </trkpt>
      <trkpt lat="43.61423" lon="7.12149">
        <ele>7.5899963</ele>
        <time>2024-12-01T11:19:10.153Z</time>
      </trkpt>
      <trkpt lat="43.61426" lon="7.1214">
        <ele>7.75</ele>
        <time>2024-12-01T11:19:13.153Z</time>
      </trkpt>
      <trkpt lat="43.6143" lon="7.12131">
        <ele>7.9100037</ele>
        <time>2024-12-01T11:19:15.112Z</time>
      </trkpt>
      <trkpt lat="43.61433" lon="7.12124">
        <ele>7.970001</ele>
        <time>2024-12-01T11:19:17.157Z</time>
      </trkpt>
      <trkpt lat="43.61436" lon="7.12116">
        <ele>8.120003</ele>
        <time>2024-12-01T11:19:19.132Z</time>
      </trkpt>
      <trkpt lat="43.61439" lon="7.12108">
        <ele>8.709999</ele>
        <time>2024-12-01T11:19:21.163Z</time>
      </trkpt>
      <trkpt lat="43.61442" lon="7.12101">
        <ele>8.889999</ele>
        <time>2024-12-01T11:19:23.166Z</time>
      </trkpt>
      <trkpt lat="43.61444" lon="7.12095">
        <ele>9.040001</ele>
        <time>2024-12-01T11:19:25.169Z</time>
      </trkpt>
      <trkpt lat="43.61446" lon="7.12086">
        <ele>10.620003</ele>
        <time>2024-12-01T11:19:27.172Z</time>
      </trkpt>
      <trkpt lat="43.61449" lon="7.12076">
        <ele>11.650002</ele>
        <time>2024-12-01T11:19:28.649Z</time>
      </trkpt>
      <trkpt lat="43.61454" lon="7.12068">
        <ele>11.129997</ele>
        <time>2024-12-01T11:19:30.213Z</time>
      </trkpt>
      <trkpt lat="43.6146" lon="7.12062">
        <ele>11.129997</ele>
        <time>2024-12-01T11:19:32.219Z</time>
      </trkpt>
      <trkpt lat="43.61465" lon="7.12057">
        <ele>12.18</ele>
        <time>2024-12-01T11:19:35.174Z</time>
      </trkpt>
      <trkpt lat="43.61473" lon="7.12052">
        <ele>12.400002</ele>
        <time>2024-12-01T11:19:36.219Z</time>
      </trkpt>
      <trkpt lat="43.6148" lon="7.1205">
        <ele>13</ele>
        <time>2024-12-01T11:19:39.190Z</time>
      </trkpt>
      <trkpt lat="43.61487" lon="7.1205">
        <ele>13.269997</ele>
        <time>2024-12-01T11:19:41.193Z</time>
      </trkpt>
      <trkpt lat="43.61493" lon="7.12048">
        <ele>13.239998</ele>
        <time>2024-12-01T11:19:42.222Z</time>
      </trkpt>
      <trkpt lat="43.61497" lon="7.12041">
        <ele>12.589996</ele>
        <time>2024-12-01T11:19:45.199Z</time>
      </trkpt>
      <trkpt lat="43.61501" lon="7.12033">
        <ele>12.889999</ele>
        <time>2024-12-01T11:19:46.238Z</time>
      </trkpt>
      <trkpt lat="43.61504" lon="7.12025">
        <ele>12.839996</ele>
        <time>2024-12-01T11:19:48.227Z</time>
      </trkpt>
      <trkpt lat="43.61509" lon="7.12018">
        <ele>13.209999</ele>
        <time>2024-12-01T11:19:50.225Z</time>
      </trkpt>
      <trkpt lat="43.61511" lon="7.12006">
        <ele>13.970001</ele>
        <time>2024-12-01T11:19:52.235Z</time>
      </trkpt>
      <trkpt lat="43.61508" lon="7.11994">
        <ele>15.019997</ele>
        <time>2024-12-01T11:19:54.233Z</time>
      </trkpt>
      <trkpt lat="43.61503" lon="7.11985">
        <ele>14.739998</ele>
        <time>2024-12-01T11:19:56.247Z</time>
      </trkpt>
      <trkpt lat="43.61497" lon="7.11977">
        <ele>14.660004</ele>
        <time>2024-12-01T11:19:58.249Z</time>
      </trkpt>
      <trkpt lat="43.61493" lon="7.11966">
        <ele>13.580002</ele>
        <time>2024-12-01T11:20:00.182Z</time>
      </trkpt>
      <trkpt lat="43.61491" lon="7.11953">
        <ele>13</ele>
        <time>2024-12-01T11:20:02.184Z</time>
      </trkpt>
      <trkpt lat="43.6149" lon="7.11942">
        <ele>12.919998</ele>
        <time>2024-12-01T11:20:04.146Z</time>
      </trkpt>
      <trkpt lat="43.61491" lon="7.11929">
        <ele>13.040001</ele>
        <time>2024-12-01T11:20:06.191Z</time>
      </trkpt>
      <trkpt lat="43.61494" lon="7.11916">
        <ele>13.25</ele>
        <time>2024-12-01T11:20:08.193Z</time>
      </trkpt>
      <trkpt lat="43.61497" lon="7.11904">
        <ele>13.510002</ele>
        <time>2024-12-01T11:20:10.197Z</time>
      </trkpt>
      <trkpt lat="43.61501" lon="7.11892">
        <ele>13.760002</ele>
        <time>2024-12-01T11:20:12.202Z</time>
      </trkpt>
      <trkpt lat="43.61505" lon="7.11878">
        <ele>14.010002</ele>
        <time>2024-12-01T11:20:14.273Z</time>
      </trkpt>
      <trkpt lat="43.61508" lon="7.11866">
        <ele>14.309998</ele>
        <time>2024-12-01T11:20:16.205Z</time>
      </trkpt>
      <trkpt lat="43.61512" lon="7.11853">
        <ele>14.599998</ele>
        <time>2024-12-01T11:20:18.128Z</time>
      </trkpt>
      <trkpt lat="43.61517" lon="7.11842">
        <ele>14.910004</ele>
        <time>2024-12-01T11:20:20.213Z</time>
      </trkpt>
      <trkpt lat="43.6152" lon="7.11831">
        <ele>15.279999</ele>
        <time>2024-12-01T11:20:22.189Z</time>
      </trkpt>
      <trkpt lat="43.61524" lon="7.11818">
        <ele>15.669998</ele>
        <time>2024-12-01T11:20:24.217Z</time>
      </trkpt>
      <trkpt lat="43.61528" lon="7.11807">
        <ele>16.050003</ele>
        <time>2024-12-01T11:20:26.221Z</time>
      </trkpt>
      <trkpt lat="43.61533" lon="7.11797">
        <ele>16.550003</ele>
        <time>2024-12-01T11:20:28.229Z</time>
      </trkpt>
      <trkpt lat="43.61537" lon="7.11786">
        <ele>17.07</ele>
        <time>2024-12-01T11:20:30.226Z</time>
      </trkpt>
      <trkpt lat="43.61542" lon="7.11775">
        <ele>17.849998</ele>
        <time>2024-12-01T11:20:32.228Z</time>
      </trkpt>
      <trkpt lat="43.61546" lon="7.11764">
        <ele>17.3</ele>
        <time>2024-12-01T11:20:34.232Z</time>
      </trkpt>
      <trkpt lat="43.61551" lon="7.11754">
        <ele>16.86</ele>
        <time>2024-12-01T11:20:36.233Z</time>
      </trkpt>
      <trkpt lat="43.61556" lon="7.11746">
        <ele>17.25</ele>
        <time>2024-12-01T11:20:38.239Z</time>
      </trkpt>
      <trkpt lat="43.61562" lon="7.11736">
        <ele>17.75</ele>
        <time>2024-12-01T11:20:40.241Z</time>
      </trkpt>
      <trkpt lat="43.61567" lon="7.11725">
        <ele>18.16</ele>
        <time>2024-12-01T11:20:42.245Z</time>
      </trkpt>
      <trkpt lat="43.61572" lon="7.11714">
        <ele>18.7</ele>
        <time>2024-12-01T11:20:43.872Z</time>
      </trkpt>
      <trkpt lat="43.61577" lon="7.11703">
        <ele>19.02</ele>
        <time>2024-12-01T11:20:45.877Z</time>
      </trkpt>
      <trkpt lat="43.61582" lon="7.11691">
        <ele>19.029999</ele>
        <time>2024-12-01T11:20:47.836Z</time>
      </trkpt>
      <trkpt lat="43.61587" lon="7.1168">
        <ele>19.599998</ele>
        <time>2024-12-01T11:20:50.309Z</time>
      </trkpt>
      <trkpt lat="43.61592" lon="7.11668">
        <ele>20.490002</ele>
        <time>2024-12-01T11:20:51.841Z</time>
      </trkpt>
      <trkpt lat="43.61599" lon="7.11658">
        <ele>21.18</ele>
        <time>2024-12-01T11:20:54.342Z</time>
      </trkpt>
      <trkpt lat="43.61604" lon="7.11648">
        <ele>21.599998</ele>
        <time>2024-12-01T11:20:56.348Z</time>
      </trkpt>
      <trkpt lat="43.61609" lon="7.11636">
        <ele>19.990002</ele>
        <time>2024-12-01T11:20:58.226Z</time>
      </trkpt>
      <trkpt lat="43.61613" lon="7.11627">
        <ele>20.61</ele>
        <time>2024-12-01T11:21:00.352Z</time>
      </trkpt>
      <trkpt lat="43.61618" lon="7.11619">
        <ele>21.130001</ele>
        <time>2024-12-01T11:21:02.354Z</time>
      </trkpt>
      <trkpt lat="43.61623" lon="7.1161">
        <ele>21.580002</ele>
        <time>2024-12-01T11:21:03.916Z</time>
      </trkpt>
      <trkpt lat="43.61628" lon="7.11601">
        <ele>22.07</ele>
        <time>2024-12-01T11:21:06.360Z</time>
      </trkpt>
      <trkpt lat="43.61633" lon="7.1159">
        <ele>22.43</ele>
        <time>2024-12-01T11:21:07.916Z</time>
      </trkpt>
      <trkpt lat="43.61637" lon="7.11579">
        <ele>21.779999</ele>
        <time>2024-12-01T11:21:09.933Z</time>
      </trkpt>
      <trkpt lat="43.61642" lon="7.11567">
        <ele>20.970001</ele>
        <time>2024-12-01T11:21:11.895Z</time>
      </trkpt>
      <trkpt lat="43.61646" lon="7.11557">
        <ele>21.7</ele>
        <time>2024-12-01T11:21:14.375Z</time>
      </trkpt>
      <trkpt lat="43.61651" lon="7.11546">
        <ele>22.279999</ele>
        <time>2024-12-01T11:21:16.375Z</time>
      </trkpt>
      <trkpt lat="43.61657" lon="7.11536">
        <ele>22.75</ele>
        <time>2024-12-01T11:21:17.909Z</time>
      </trkpt>
      <trkpt lat="43.61662" lon="7.11526">
        <ele>22.220001</ele>
        <time>2024-12-01T11:21:19.936Z</time>
      </trkpt>
      <trkpt lat="43.61668" lon="7.11514">
        <ele>22.96</ele>
        <time>2024-12-01T11:21:21.934Z</time>
      </trkpt>
      <trkpt lat="43.61674" lon="7.11502">
        <ele>22.849998</ele>
        <time>2024-12-01T11:21:24.396Z</time>
      </trkpt>
      <trkpt lat="43.6168" lon="7.11489">
        <ele>22.61</ele>
        <time>2024-12-01T11:21:25.926Z</time>
      </trkpt>
      <trkpt lat="43.61687" lon="7.11475">
        <ele>22.869999</ele>
        <time>2024-12-01T11:21:28.397Z</time>
      </trkpt>
      <trkpt lat="43.61694" lon="7.11462">
        <ele>22.939999</ele>
        <time>2024-12-01T11:21:29.941Z</time>
      </trkpt>
      <trkpt lat="43.61701" lon="7.11446">
        <ele>22.86</ele>
        <time>2024-12-01T11:21:32.410Z</time>
      </trkpt>
      <trkpt lat="43.6171" lon="7.11429">
        <ele>22.849998</ele>
        <time>2024-12-01T11:21:33.937Z</time>
      </trkpt>
      <trkpt lat="43.6172" lon="7.11411">
        <ele>22.82</ele>
        <time>2024-12-01T11:21:35.968Z</time>
      </trkpt>
      <trkpt lat="43.61732" lon="7.11394">
        <ele>22.8</ele>
        <time>2024-12-01T11:21:38.425Z</time>
      </trkpt>
      <trkpt lat="43.61742" lon="7.11377">
        <ele>22.73</ele>
        <time>2024-12-01T11:21:40.415Z</time>
      </trkpt>
      <trkpt lat="43.61751" lon="7.11361">
        <ele>22.759998</ele>
        <time>2024-12-01T11:21:42.418Z</time>
      </trkpt>
      <trkpt lat="43.61757" lon="7.11343">
        <ele>22.720001</ele>
        <time>2024-12-01T11:21:44.426Z</time>
      </trkpt>
      <trkpt lat="43.61762" lon="7.11325">
        <ele>22.740002</ele>
        <time>2024-12-01T11:21:46.424Z</time>
      </trkpt>
      <trkpt lat="43.61766" lon="7.11307">
        <ele>22.669998</ele>
        <time>2024-12-01T11:21:47.994Z</time>
      </trkpt>
      <trkpt lat="43.6177" lon="7.11289">
        <ele>22.66</ele>
        <time>2024-12-01T11:21:50.430Z</time>
      </trkpt>
      <trkpt lat="43.61773" lon="7.11274">
        <ele>22.900002</ele>
        <time>2024-12-01T11:21:52.435Z</time>
      </trkpt>
      <trkpt lat="43.61775" lon="7.11259">
        <ele>22.86</ele>
        <time>2024-12-01T11:21:54.436Z</time>
      </trkpt>
      <trkpt lat="43.61777" lon="7.11245">
        <ele>22.79</ele>
        <time>2024-12-01T11:21:56.439Z</time>
      </trkpt>
      <trkpt lat="43.61782" lon="7.11234">
        <ele>22.669998</ele>
        <time>2024-12-01T11:21:58.444Z</time>
      </trkpt>
      <trkpt lat="43.61789" lon="7.11227">
        <ele>22.630001</ele>
        <time>2024-12-01T11:22:00.443Z</time>
      </trkpt>
      <trkpt lat="43.61795" lon="7.11219">
        <ele>22.560001</ele>
        <time>2024-12-01T11:22:02.447Z</time>
      </trkpt>
      <trkpt lat="43.61798" lon="7.11207">
        <ele>22.66</ele>
        <time>2024-12-01T11:22:04.452Z</time>
      </trkpt>
      <trkpt lat="43.61797" lon="7.11192">
        <ele>22.59</ele>
        <time>2024-12-01T11:22:06.454Z</time>
      </trkpt>
      <trkpt lat="43.61791" lon="7.11182">
        <ele>22.419998</ele>
        <time>2024-12-01T11:22:08.457Z</time>
      </trkpt>
      <trkpt lat="43.61782" lon="7.11178">
        <ele>22.39</ele>
        <time>2024-12-01T11:22:10.001Z</time>
      </trkpt>
      <trkpt lat="43.61774" lon="7.11179">
        <ele>22.34</ele>
        <time>2024-12-01T11:22:12.463Z</time>
      </trkpt>
      <trkpt lat="43.61765" lon="7.11183">
        <ele>22.259998</ele>
        <time>2024-12-01T11:22:14.470Z</time>
      </trkpt>
      <trkpt lat="43.61754" lon="7.11186">
        <ele>22.46</ele>
        <time>2024-12-01T11:22:16.468Z</time>
      </trkpt>
      <trkpt lat="43.61743" lon="7.11183">
        <ele>21.779999</ele>
        <time>2024-12-01T11:22:18.449Z</time>
      </trkpt>
      <trkpt lat="43.61734" lon="7.11177">
        <ele>21.810001</ele>
        <time>2024-12-01T11:22:20.476Z</time>
      </trkpt>
      <trkpt lat="43.61725" lon="7.1117">
        <ele>21.779999</ele>
        <time>2024-12-01T11:22:22.478Z</time>
      </trkpt>
      <trkpt lat="43.61717" lon="7.11163">
        <ele>20.86</ele>
        <time>2024-12-01T11:22:24.479Z</time>
      </trkpt>
      <trkpt lat="43.6171" lon="7.11153">
        <ele>21.21</ele>
        <time>2024-12-01T11:22:26.484Z</time>
      </trkpt>
      <trkpt lat="43.61703" lon="7.11142">
        <ele>21.46</ele>
        <time>2024-12-01T11:22:28.485Z</time>
      </trkpt>
      <trkpt lat="43.61698" lon="7.11131">
        <ele>21.630001</ele>
        <time>2024-12-01T11:22:30.489Z</time>
      </trkpt>
      <trkpt lat="43.61691" lon="7.11121">
        <ele>21.759998</ele>
        <time>2024-12-01T11:22:32.492Z</time>
      </trkpt>
      <trkpt lat="43.61684" lon="7.11112">
        <ele>21.869999</ele>
        <time>2024-12-01T11:22:34.496Z</time>
      </trkpt>
      <trkpt lat="43.61676" lon="7.11103">
        <ele>21.95</ele>
        <time>2024-12-01T11:22:36.498Z</time>
      </trkpt>
      <trkpt lat="43.61667" lon="7.11095">
        <ele>21.95</ele>
        <time>2024-12-01T11:22:38.498Z</time>
      </trkpt>
      <trkpt lat="43.61658" lon="7.11089">
        <ele>21.880001</ele>
        <time>2024-12-01T11:22:40.352Z</time>
      </trkpt>
      <trkpt lat="43.6165" lon="7.11082">
        <ele>21.66</ele>
        <time>2024-12-01T11:22:42.507Z</time>
      </trkpt>
      <trkpt lat="43.61642" lon="7.11074">
        <ele>21.41</ele>
        <time>2024-12-01T11:22:44.073Z</time>
      </trkpt>
      <trkpt lat="43.61634" lon="7.11066">
        <ele>20.61</ele>
        <time>2024-12-01T11:22:46.514Z</time>
      </trkpt>
      <trkpt lat="43.61626" lon="7.11058">
        <ele>19.32</ele>
        <time>2024-12-01T11:22:48.514Z</time>
      </trkpt>
      <trkpt lat="43.6162" lon="7.11048">
        <ele>17.900002</ele>
        <time>2024-12-01T11:22:50.519Z</time>
      </trkpt>
      <trkpt lat="43.61613" lon="7.11038">
        <ele>17.21</ele>
        <time>2024-12-01T11:22:52.520Z</time>
      </trkpt>
      <trkpt lat="43.61609" lon="7.11025">
        <ele>17.73</ele>
        <time>2024-12-01T11:22:54.525Z</time>
      </trkpt>
      <trkpt lat="43.61605" lon="7.11012">
        <ele>18.34</ele>
        <time>2024-12-01T11:22:56.525Z</time>
      </trkpt>
      <trkpt lat="43.61601" lon="7.11">
        <ele>18.849998</ele>
        <time>2024-12-01T11:22:58.146Z</time>
      </trkpt>
      <trkpt lat="43.61595" lon="7.10988">
        <ele>19.27</ele>
        <time>2024-12-01T11:23:00.532Z</time>
      </trkpt>
      <trkpt lat="43.61589" lon="7.10978">
        <ele>19.66</ele>
        <time>2024-12-01T11:23:02.137Z</time>
      </trkpt>
      <trkpt lat="43.61583" lon="7.1097">
        <ele>19.880001</ele>
        <time>2024-12-01T11:23:04.538Z</time>
      </trkpt>
      <trkpt lat="43.61576" lon="7.10961">
        <ele>19.470001</ele>
        <time>2024-12-01T11:23:06.587Z</time>
      </trkpt>
      <trkpt lat="43.61568" lon="7.10952">
        <ele>19.71</ele>
        <time>2024-12-01T11:23:08.106Z</time>
      </trkpt>
      <trkpt lat="43.61562" lon="7.10941">
        <ele>19.580002</ele>
        <time>2024-12-01T11:23:10.088Z</time>
      </trkpt>
      <trkpt lat="43.61554" lon="7.1093">
        <ele>19.54</ele>
        <time>2024-12-01T11:23:12.112Z</time>
      </trkpt>
      <trkpt lat="43.61548" lon="7.1092">
        <ele>19.52</ele>
        <time>2024-12-01T11:23:14.553Z</time>
      </trkpt>
      <trkpt lat="43.61541" lon="7.1091">
        <ele>19.5</ele>
        <time>2024-12-01T11:23:16.102Z</time>
      </trkpt>
      <trkpt lat="43.61535" lon="7.109">
        <ele>19.490002</ele>
        <time>2024-12-01T11:23:18.126Z</time>
      </trkpt>
      <trkpt lat="43.6153" lon="7.10888">
        <ele>19.75</ele>
        <time>2024-12-01T11:23:20.560Z</time>
      </trkpt>
      <trkpt lat="43.61525" lon="7.10877">
        <ele>18.970001</ele>
        <time>2024-12-01T11:23:22.566Z</time>
      </trkpt>
      <trkpt lat="43.6152" lon="7.10867">
        <ele>19.169998</ele>
        <time>2024-12-01T11:23:24.075Z</time>
      </trkpt>
      <trkpt lat="43.61518" lon="7.10856">
        <ele>19.470001</ele>
        <time>2024-12-01T11:23:26.486Z</time>
      </trkpt>
      <trkpt lat="43.61517" lon="7.10844">
        <ele>19.71</ele>
        <time>2024-12-01T11:23:28.573Z</time>
      </trkpt>
      <trkpt lat="43.61518" lon="7.10831">
        <ele>19.93</ele>
        <time>2024-12-01T11:23:30.482Z</time>
      </trkpt>
      <trkpt lat="43.61523" lon="7.1082">
        <ele>19.380001</ele>
        <time>2024-12-01T11:23:32.578Z</time>
      </trkpt>
      <trkpt lat="43.6153" lon="7.10812">
        <ele>19.55</ele>
        <time>2024-12-01T11:23:34.583Z</time>
      </trkpt>
      <trkpt lat="43.61536" lon="7.10802">
        <ele>19.970001</ele>
        <time>2024-12-01T11:23:36.587Z</time>
      </trkpt>
      <trkpt lat="43.61542" lon="7.10793">
        <ele>20.259998</ele>
        <time>2024-12-01T11:23:38.588Z</time>
      </trkpt>
      <trkpt lat="43.61547" lon="7.10783">
        <ele>20.380001</ele>
        <time>2024-12-01T11:23:40.594Z</time>
      </trkpt>
      <trkpt lat="43.61551" lon="7.10773">
        <ele>20.419998</ele>
        <time>2024-12-01T11:23:42.596Z</time>
      </trkpt>
      <trkpt lat="43.61555" lon="7.10763">
        <ele>20.61</ele>
        <time>2024-12-01T11:23:44.605Z</time>
      </trkpt>
      <trkpt lat="43.61561" lon="7.10753">
        <ele>20.650002</ele>
        <time>2024-12-01T11:23:46.601Z</time>
      </trkpt>
      <trkpt lat="43.61567" lon="7.10743">
        <ele>20.669998</ele>
        <time>2024-12-01T11:23:48.603Z</time>
      </trkpt>
      <trkpt lat="43.61574" lon="7.10732">
        <ele>20.71</ele>
        <time>2024-12-01T11:23:50.609Z</time>
      </trkpt>
      <trkpt lat="43.6158" lon="7.10721">
        <ele>20.82</ele>
        <time>2024-12-01T11:23:52.609Z</time>
      </trkpt>
      <trkpt lat="43.61587" lon="7.10711">
        <ele>20.86</ele>
        <time>2024-12-01T11:23:54.610Z</time>
      </trkpt>
      <trkpt lat="43.61594" lon="7.10701">
        <ele>21.32</ele>
        <time>2024-12-01T11:23:56.125Z</time>
      </trkpt>
      <trkpt lat="43.61602" lon="7.10689">
        <ele>21.560001</ele>
        <time>2024-12-01T11:23:58.617Z</time>
      </trkpt>
      <trkpt lat="43.61609" lon="7.10677">
        <ele>20.919998</ele>
        <time>2024-12-01T11:24:00.623Z</time>
      </trkpt>
      <trkpt lat="43.61617" lon="7.10668">
        <ele>21.119999</ele>
        <time>2024-12-01T11:24:02.626Z</time>
      </trkpt>
      <trkpt lat="43.61625" lon="7.1066">
        <ele>21.490002</ele>
        <time>2024-12-01T11:24:04.706Z</time>
      </trkpt>
      <trkpt lat="43.61632" lon="7.1065">
        <ele>21.8</ele>
        <time>2024-12-01T11:24:06.631Z</time>
      </trkpt>
      <trkpt lat="43.6164" lon="7.10638">
        <ele>21.880001</ele>
        <time>2024-12-01T11:24:08.634Z</time>
      </trkpt>
      <trkpt lat="43.61647" lon="7.10627">
        <ele>21.900002</ele>
        <time>2024-12-01T11:24:10.717Z</time>
      </trkpt>
      <trkpt lat="43.61653" lon="7.10616">
        <ele>21.849998</ele>
        <time>2024-12-01T11:24:12.721Z</time>
      </trkpt>
      <trkpt lat="43.61658" lon="7.10605">
        <ele>21.869999</ele>
        <time>2024-12-01T11:24:14.723Z</time>
      </trkpt>
      <trkpt lat="43.61663" lon="7.10595">
        <ele>21.82</ele>
        <time>2024-12-01T11:24:16.726Z</time>
      </trkpt>
      <trkpt lat="43.61668" lon="7.10585">
        <ele>21.869999</ele>
        <time>2024-12-01T11:24:18.728Z</time>
      </trkpt>
      <trkpt lat="43.61672" lon="7.10574">
        <ele>21.79</ele>
        <time>2024-12-01T11:24:20.734Z</time>
      </trkpt>
      <trkpt lat="43.61676" lon="7.10565">
        <ele>22.130001</ele>
        <time>2024-12-01T11:24:22.265Z</time>
      </trkpt>
      <trkpt lat="43.61679" lon="7.10556">
        <ele>22.529999</ele>
        <time>2024-12-01T11:24:24.736Z</time>
      </trkpt>
      <trkpt lat="43.61683" lon="7.10546">
        <ele>22.27</ele>
        <time>2024-12-01T11:24:26.739Z</time>
      </trkpt>
      <trkpt lat="43.61685" lon="7.10536">
        <ele>22.29</ele>
        <time>2024-12-01T11:24:28.743Z</time>
      </trkpt>
      <trkpt lat="43.61687" lon="7.10527">
        <ele>22.27</ele>
        <time>2024-12-01T11:24:30.745Z</time>
      </trkpt>
      <trkpt lat="43.6169" lon="7.10517">
        <ele>22.740002</ele>
        <time>2024-12-01T11:24:32.749Z</time>
      </trkpt>
      <trkpt lat="43.61693" lon="7.10506">
        <ele>22.89</ele>
        <time>2024-12-01T11:24:34.751Z</time>
      </trkpt>
      <trkpt lat="43.61696" lon="7.10494">
        <ele>23.18</ele>
        <time>2024-12-01T11:24:35.780Z</time>
      </trkpt>
      <trkpt lat="43.61699" lon="7.10483">
        <ele>23.619999</ele>
        <time>2024-12-01T11:24:38.176Z</time>
      </trkpt>
      <trkpt lat="43.61703" lon="7.10472">
        <ele>24.150002</ele>
        <time>2024-12-01T11:24:40.761Z</time>
      </trkpt>
      <trkpt lat="43.61707" lon="7.10462">
        <ele>24.310001</ele>
        <time>2024-12-01T11:24:42.764Z</time>
      </trkpt>
      <trkpt lat="43.61709" lon="7.10452">
        <ele>24.21</ele>
        <time>2024-12-01T11:24:44.765Z</time>
      </trkpt>
      <trkpt lat="43.61712" lon="7.10442">
        <ele>24.130001</ele>
        <time>2024-12-01T11:24:46.766Z</time>
      </trkpt>
      <trkpt lat="43.61715" lon="7.10432">
        <ele>24.130001</ele>
        <time>2024-12-01T11:24:48.769Z</time>
      </trkpt>
      <trkpt lat="43.61719" lon="7.10423">
        <ele>24.46</ele>
        <time>2024-12-01T11:24:50.774Z</time>
      </trkpt>
      <trkpt lat="43.61723" lon="7.10414">
        <ele>24.34</ele>
        <time>2024-12-01T11:24:52.776Z</time>
      </trkpt>
      <trkpt lat="43.61727" lon="7.10403">
        <ele>24.400002</ele>
        <time>2024-12-01T11:24:54.781Z</time>
      </trkpt>
      <trkpt lat="43.61732" lon="7.10394">
        <ele>24.650002</ele>
        <time>2024-12-01T11:24:56.785Z</time>
      </trkpt>
      <trkpt lat="43.61737" lon="7.10384">
        <ele>25.14</ele>
        <time>2024-12-01T11:24:58.786Z</time>
      </trkpt>
      <trkpt lat="43.61742" lon="7.10376">
        <ele>24.419998</ele>
        <time>2024-12-01T11:25:00.788Z</time>
      </trkpt>
      <trkpt lat="43.61747" lon="7.10368">
        <ele>24.5</ele>
        <time>2024-12-01T11:25:02.807Z</time>
      </trkpt>
      <trkpt lat="43.61755" lon="7.10361">
        <ele>24.68</ele>
        <time>2024-12-01T11:25:04.423Z</time>
      </trkpt>
      <trkpt lat="43.61763" lon="7.10354">
        <ele>25.05</ele>
        <time>2024-12-01T11:25:05.867Z</time>
      </trkpt>
      <trkpt lat="43.61769" lon="7.10347">
        <ele>24.79</ele>
        <time>2024-12-01T11:25:08.341Z</time>
      </trkpt>
      <trkpt lat="43.61775" lon="7.10341">
        <ele>24.740002</ele>
        <time>2024-12-01T11:25:10.409Z</time>
      </trkpt>
      <trkpt lat="43.6178" lon="7.10334">
        <ele>24.73</ele>
        <time>2024-12-01T11:25:12.826Z</time>
      </trkpt>
      <trkpt lat="43.61785" lon="7.10329">
        <ele>24.64</ele>
        <time>2024-12-01T11:25:14.651Z</time>
      </trkpt>
      <trkpt lat="43.61792" lon="7.10323">
        <ele>24.830002</ele>
        <time>2024-12-01T11:25:16.811Z</time>
      </trkpt>
      <trkpt lat="43.61799" lon="7.10318">
        <ele>25.2</ele>
        <time>2024-12-01T11:25:18.814Z</time>
      </trkpt>
      <trkpt lat="43.61807" lon="7.10312">
        <ele>24.599998</ele>
        <time>2024-12-01T11:25:20.816Z</time>
      </trkpt>
      <trkpt lat="43.61814" lon="7.10306">
        <ele>24.669998</ele>
        <time>2024-12-01T11:25:22.819Z</time>
      </trkpt>
      <trkpt lat="43.6182" lon="7.10299">
        <ele>24.669998</ele>
        <time>2024-12-01T11:25:24.822Z</time>
      </trkpt>
      <trkpt lat="43.61827" lon="7.10291">
        <ele>24.52</ele>
        <time>2024-12-01T11:25:26.825Z</time>
      </trkpt>
      <trkpt lat="43.61835" lon="7.10282">
        <ele>24.599998</ele>
        <time>2024-12-01T11:25:28.828Z</time>
      </trkpt>
      <trkpt lat="43.61843" lon="7.10275">
        <ele>24.740002</ele>
        <time>2024-12-01T11:25:30.473Z</time>
      </trkpt>
      <trkpt lat="43.61852" lon="7.10269">
        <ele>24.869999</ele>
        <time>2024-12-01T11:25:32.833Z</time>
      </trkpt>
      <trkpt lat="43.61861" lon="7.10263">
        <ele>24.95</ele>
        <time>2024-12-01T11:25:34.838Z</time>
      </trkpt>
      <trkpt lat="43.61869" lon="7.10256">
        <ele>25.02</ele>
        <time>2024-12-01T11:25:36.841Z</time>
      </trkpt>
      <trkpt lat="43.61877" lon="7.1025">
        <ele>25.009998</ele>
        <time>2024-12-01T11:25:38.842Z</time>
      </trkpt>
      <trkpt lat="43.61884" lon="7.10244">
        <ele>24.96</ele>
        <time>2024-12-01T11:25:40.846Z</time>
      </trkpt>
      <trkpt lat="43.61891" lon="7.10239">
        <ele>25.130001</ele>
        <time>2024-12-01T11:25:42.783Z</time>
      </trkpt>
      <trkpt lat="43.61899" lon="7.10233">
        <ele>25.279999</ele>
        <time>2024-12-01T11:25:44.848Z</time>
      </trkpt>
      <trkpt lat="43.61908" lon="7.10227">
        <ele>25.48</ele>
        <time>2024-12-01T11:25:46.471Z</time>
      </trkpt>
      <trkpt lat="43.61916" lon="7.1022">
        <ele>25.740002</ele>
        <time>2024-12-01T11:25:48.500Z</time>
      </trkpt>
      <trkpt lat="43.61925" lon="7.10214">
        <ele>26.07</ele>
        <time>2024-12-01T11:25:50.477Z</time>
      </trkpt>
      <trkpt lat="43.61932" lon="7.10209">
        <ele>26.23</ele>
        <time>2024-12-01T11:25:52.863Z</time>
      </trkpt>
      <trkpt lat="43.61942" lon="7.10203">
        <ele>25.740002</ele>
        <time>2024-12-01T11:25:54.863Z</time>
      </trkpt>
      <trkpt lat="43.6195" lon="7.10197">
        <ele>25.48</ele>
        <time>2024-12-01T11:25:56.869Z</time>
      </trkpt>
      <trkpt lat="43.61959" lon="7.10191">
        <ele>25.36</ele>
        <time>2024-12-01T11:25:58.780Z</time>
      </trkpt>
      <trkpt lat="43.6197" lon="7.10185">
        <ele>25.400002</ele>
        <time>2024-12-01T11:26:00.492Z</time>
      </trkpt>
      <trkpt lat="43.61979" lon="7.10179">
        <ele>25.580002</ele>
        <time>2024-12-01T11:26:02.486Z</time>
      </trkpt>
      <trkpt lat="43.61987" lon="7.10173">
        <ele>25.79</ele>
        <time>2024-12-01T11:26:04.494Z</time>
      </trkpt>
      <trkpt lat="43.61995" lon="7.10166">
        <ele>26.009998</ele>
        <time>2024-12-01T11:26:06.962Z</time>
      </trkpt>
      <trkpt lat="43.62003" lon="7.10157">
        <ele>26.32</ele>
        <time>2024-12-01T11:26:08.495Z</time>
      </trkpt>
      <trkpt lat="43.6201" lon="7.10148">
        <ele>26.7</ele>
        <time>2024-12-01T11:26:10.969Z</time>
      </trkpt>
      <trkpt lat="43.62019" lon="7.10141">
        <ele>27.099998</ele>
        <time>2024-12-01T11:26:12.507Z</time>
      </trkpt>
      <trkpt lat="43.62029" lon="7.10136">
        <ele>27.41</ele>
        <time>2024-12-01T11:26:14.479Z</time>
      </trkpt>
      <trkpt lat="43.62038" lon="7.10132">
        <ele>27.419998</ele>
        <time>2024-12-01T11:26:16.966Z</time>
      </trkpt>
      <trkpt lat="43.62047" lon="7.10128">
        <ele>27.34</ele>
        <time>2024-12-01T11:26:18.981Z</time>
      </trkpt>
      <trkpt lat="43.62056" lon="7.10125">
        <ele>27.29</ele>
        <time>2024-12-01T11:26:20.984Z</time>
      </trkpt>
      <trkpt lat="43.62065" lon="7.10123">
        <ele>27.310001</ele>
        <time>2024-12-01T11:26:22.492Z</time>
      </trkpt>
      <trkpt lat="43.62074" lon="7.10119">
        <ele>27.21</ele>
        <time>2024-12-01T11:26:24.989Z</time>
      </trkpt>
      <trkpt lat="43.62082" lon="7.10116">
        <ele>27.07</ele>
        <time>2024-12-01T11:26:26.496Z</time>
      </trkpt>
      <trkpt lat="43.62088" lon="7.10112">
        <ele>26.970001</ele>
        <time>2024-12-01T11:26:28.877Z</time>
      </trkpt>
      <trkpt lat="43.62095" lon="7.10108">
        <ele>27.43</ele>
        <time>2024-12-01T11:26:30.997Z</time>
      </trkpt>
      <trkpt lat="43.62103" lon="7.10103">
        <ele>26.84</ele>
        <time>2024-12-01T11:26:33Z</time>
      </trkpt>
      <trkpt lat="43.62112" lon="7.10099">
        <ele>26.84</ele>
        <time>2024-12-01T11:26:34.978Z</time>
      </trkpt>
      <trkpt lat="43.62121" lon="7.10094">
        <ele>26.939999</ele>
        <time>2024-12-01T11:26:37.007Z</time>
      </trkpt>
      <trkpt lat="43.6213" lon="7.10089">
        <ele>27.05</ele>
        <time>2024-12-01T11:26:39.011Z</time>
      </trkpt>
      <trkpt lat="43.62139" lon="7.10082">
        <ele>27.18</ele>
        <time>2024-12-01T11:26:41.012Z</time>
      </trkpt>
      <trkpt lat="43.62148" lon="7.10076">
        <ele>27.279999</ele>
        <time>2024-12-01T11:26:43.015Z</time>
      </trkpt>
      <trkpt lat="43.62156" lon="7.10069">
        <ele>27.380001</ele>
        <time>2024-12-01T11:26:45.018Z</time>
      </trkpt>
      <trkpt lat="43.62164" lon="7.10062">
        <ele>27.529999</ele>
        <time>2024-12-01T11:26:47.023Z</time>
      </trkpt>
      <trkpt lat="43.62172" lon="7.10056">
        <ele>27.7</ele>
        <time>2024-12-01T11:26:49.025Z</time>
      </trkpt>
      <trkpt lat="43.62179" lon="7.10049">
        <ele>28</ele>
        <time>2024-12-01T11:26:51.029Z</time>
      </trkpt>
      <trkpt lat="43.62186" lon="7.10041">
        <ele>28.279999</ele>
        <time>2024-12-01T11:26:52.621Z</time>
      </trkpt>
      <trkpt lat="43.62193" lon="7.10034">
        <ele>27.73</ele>
        <time>2024-12-01T11:26:55.033Z</time>
      </trkpt>
      <trkpt lat="43.62199" lon="7.10027">
        <ele>27.48</ele>
        <time>2024-12-01T11:26:57.035Z</time>
      </trkpt>
      <trkpt lat="43.62203" lon="7.10017">
        <ele>27.61</ele>
        <time>2024-12-01T11:26:58.112Z</time>
      </trkpt>
      <trkpt lat="43.62206" lon="7.10007">
        <ele>27.720001</ele>
        <time>2024-12-01T11:27:00.826Z</time>
      </trkpt>
      <trkpt lat="43.62209" lon="7.09994">
        <ele>27.54</ele>
        <time>2024-12-01T11:27:02.132Z</time>
      </trkpt>
      <trkpt lat="43.62209" lon="7.09981">
        <ele>27.18</ele>
        <time>2024-12-01T11:27:05.046Z</time>
      </trkpt>
      <trkpt lat="43.62212" lon="7.09972">
        <ele>26.14</ele>
        <time>2024-12-01T11:27:06.115Z</time>
      </trkpt>
      <trkpt lat="43.62221" lon="7.09969">
        <ele>25.18</ele>
        <time>2024-12-01T11:27:09.053Z</time>
      </trkpt>
      <trkpt lat="43.62227" lon="7.09962">
        <ele>25.779999</ele>
        <time>2024-12-01T11:27:10.135Z</time>
      </trkpt>
      <trkpt lat="43.62227" lon="7.09954">
        <ele>23.490002</ele>
        <time>2024-12-01T11:27:13.105Z</time>
      </trkpt>
      <trkpt lat="43.62225" lon="7.09947">
        <ele>23.91</ele>
        <time>2024-12-01T11:27:14.166Z</time>
      </trkpt>
      <trkpt lat="43.6222" lon="7.09944">
        <ele>24.52</ele>
        <time>2024-12-01T11:27:16.120Z</time>
      </trkpt>
      <trkpt lat="43.62214" lon="7.09943">
        <ele>24.529999</ele>
        <time>2024-12-01T11:27:18.133Z</time>
      </trkpt>
      <trkpt lat="43.62209" lon="7.09943">
        <ele>24.939999</ele>
        <time>2024-12-01T11:27:20.659Z</time>
      </trkpt>
      <trkpt lat="43.62203" lon="7.09942">
        <ele>24.57</ele>
        <time>2024-12-01T11:27:23.118Z</time>
      </trkpt>
      <trkpt lat="43.62197" lon="7.09939">
        <ele>24.880001</ele>
        <time>2024-12-01T11:27:24.143Z</time>
      </trkpt>
      <trkpt lat="43.62191" lon="7.09937">
        <ele>25.23</ele>
        <time>2024-12-01T11:27:27.095Z</time>
      </trkpt>
      <trkpt lat="43.62186" lon="7.09935">
        <ele>25.07</ele>
        <time>2024-12-01T11:27:28.668Z</time>
      </trkpt>
      <trkpt lat="43.62181" lon="7.09933">
        <ele>25.04</ele>
        <time>2024-12-01T11:27:31.135Z</time>
      </trkpt>
      <trkpt lat="43.62175" lon="7.0993">
        <ele>25.279999</ele>
        <time>2024-12-01T11:27:32.152Z</time>
      </trkpt>
      <trkpt lat="43.62169" lon="7.09929">
        <ele>25.849998</ele>
        <time>2024-12-01T11:27:34.155Z</time>
      </trkpt>
      <trkpt lat="43.62164" lon="7.09928">
        <ele>25.470001</ele>
        <time>2024-12-01T11:27:37.141Z</time>
      </trkpt>
      <trkpt lat="43.62159" lon="7.09925">
        <ele>25.71</ele>
        <time>2024-12-01T11:27:38.685Z</time>
      </trkpt>
      <trkpt lat="43.62153" lon="7.09921">
        <ele>26.27</ele>
        <time>2024-12-01T11:27:41.133Z</time>
      </trkpt>
      <trkpt lat="43.62149" lon="7.09915">
        <ele>27.240002</ele>
        <time>2024-12-01T11:27:42.207Z</time>
      </trkpt>
      <trkpt lat="43.62149" lon="7.09907">
        <ele>28.07</ele>
        <time>2024-12-01T11:27:44.947Z</time>
      </trkpt>
      <trkpt lat="43.62153" lon="7.09902">
        <ele>27.669998</ele>
        <time>2024-12-01T11:27:46.203Z</time>
      </trkpt>
      <trkpt lat="43.62159" lon="7.09899">
        <ele>27.310001</ele>
        <time>2024-12-01T11:27:48.197Z</time>
      </trkpt>
      <trkpt lat="43.62165" lon="7.09897">
        <ele>27.16</ele>
        <time>2024-12-01T11:27:51.183Z</time>
      </trkpt>
      <trkpt lat="43.6217" lon="7.09894">
        <ele>27.369999</ele>
        <time>2024-12-01T11:27:52.212Z</time>
      </trkpt>
      <trkpt lat="43.62175" lon="7.09893">
        <ele>28.05</ele>
        <time>2024-12-01T11:27:54.203Z</time>
      </trkpt>
      <trkpt lat="43.6218" lon="7.09891">
        <ele>28.990002</ele>
        <time>2024-12-01T11:27:56.159Z</time>
      </trkpt>
      <trkpt lat="43.62186" lon="7.09886">
        <ele>30.220001</ele>
        <time>2024-12-01T11:27:58.215Z</time>
      </trkpt>
      <trkpt lat="43.62191" lon="7.09882">
        <ele>31.029999</ele>
        <time>2024-12-01T11:28:00.165Z</time>
      </trkpt>
      <trkpt lat="43.62194" lon="7.09877">
        <ele>29.650002</ele>
        <time>2024-12-01T11:28:02.169Z</time>
      </trkpt>
      <trkpt lat="43.62196" lon="7.09869">
        <ele>29.64</ele>
        <time>2024-12-01T11:28:03.943Z</time>
      </trkpt>
      <trkpt lat="43.62198" lon="7.09861">
        <ele>29.900002</ele>
        <time>2024-12-01T11:28:06.175Z</time>
      </trkpt>
      <trkpt lat="43.62194" lon="7.09852">
        <ele>30.419998</ele>
        <time>2024-12-01T11:28:08.126Z</time>
      </trkpt>
      <trkpt lat="43.62191" lon="7.09847">
        <ele>30.93</ele>
        <time>2024-12-01T11:28:10.183Z</time>
      </trkpt>
      <trkpt lat="43.62187" lon="7.09843">
        <ele>31.77</ele>
        <time>2024-12-01T11:28:12.182Z</time>
      </trkpt>
      <trkpt lat="43.62181" lon="7.09841">
        <ele>32.76</ele>
        <time>2024-12-01T11:28:14.228Z</time>
      </trkpt>
      <trkpt lat="43.62175" lon="7.0984">
        <ele>33.63</ele>
        <time>2024-12-01T11:28:16.242Z</time>
      </trkpt>
      <trkpt lat="43.62169" lon="7.09838">
        <ele>34.34</ele>
        <time>2024-12-01T11:28:18.231Z</time>
      </trkpt>
      <trkpt lat="43.62163" lon="7.09836">
        <ele>35.29</ele>
        <time>2024-12-01T11:28:20.238Z</time>
      </trkpt>
      <trkpt lat="43.62157" lon="7.09835">
        <ele>36.23</ele>
        <time>2024-12-01T11:28:22.198Z</time>
      </trkpt>
      <trkpt lat="43.62151" lon="7.09833">
        <ele>37.31</ele>
        <time>2024-12-01T11:28:24.201Z</time>
      </trkpt>
      <trkpt lat="43.62146" lon="7.0983">
        <ele>38.66</ele>
        <time>2024-12-01T11:28:26.202Z</time>
      </trkpt>
      <trkpt lat="43.6214" lon="7.09828">
        <ele>39.88</ele>
        <time>2024-12-01T11:28:28.207Z</time>
      </trkpt>
      <trkpt lat="43.62134" lon="7.09828">
        <ele>41.18</ele>
        <time>2024-12-01T11:28:30.080Z</time>
      </trkpt>
      <trkpt lat="43.62128" lon="7.09828">
        <ele>42.63</ele>
        <time>2024-12-01T11:28:31.326Z</time>
      </trkpt>
      <trkpt lat="43.62122" lon="7.09828">
        <ele>44.37</ele>
        <time>2024-12-01T11:28:34.216Z</time>
      </trkpt>
      <trkpt lat="43.62116" lon="7.09826">
        <ele>45.73</ele>
        <time>2024-12-01T11:28:36.218Z</time>
      </trkpt>
      <trkpt lat="43.62112" lon="7.09822">
        <ele>47.31</ele>
        <time>2024-12-01T11:28:38.221Z</time>
      </trkpt>
      <trkpt lat="43.6211" lon="7.09814">
        <ele>48.73</ele>
        <time>2024-12-01T11:28:40.223Z</time>
      </trkpt>
      <trkpt lat="43.62112" lon="7.09806">
        <ele>49.93</ele>
        <time>2024-12-01T11:28:42.227Z</time>
      </trkpt>
      <trkpt lat="43.62114" lon="7.09801">
        <ele>51.16</ele>
        <time>2024-12-01T11:28:44.066Z</time>
      </trkpt>
      <trkpt lat="43.6212" lon="7.09799">
        <ele>52.23</ele>
        <time>2024-12-01T11:28:46.232Z</time>
      </trkpt>
      <trkpt lat="43.62127" lon="7.09799">
        <ele>53.370003</ele>
        <time>2024-12-01T11:28:48.234Z</time>
      </trkpt>
      <trkpt lat="43.62133" lon="7.09798">
        <ele>54.7</ele>
        <time>2024-12-01T11:28:50.238Z</time>
      </trkpt>
      <trkpt lat="43.6214" lon="7.09795">
        <ele>56.14</ele>
        <time>2024-12-01T11:28:52.239Z</time>
      </trkpt>
      <trkpt lat="43.62145" lon="7.09792">
        <ele>57.53</ele>
        <time>2024-12-01T11:28:54.249Z</time>
      </trkpt>
      <trkpt lat="43.62149" lon="7.09787">
        <ele>59.05</ele>
        <time>2024-12-01T11:28:56.246Z</time>
      </trkpt>
      <trkpt lat="43.62151" lon="7.0978">
        <ele>60.32</ele>
        <time>2024-12-01T11:28:58.247Z</time>
      </trkpt>
      <trkpt lat="43.62149" lon="7.0977">
        <ele>61.48</ele>
        <time>2024-12-01T11:29:00.250Z</time>
      </trkpt>
      <trkpt lat="43.62144" lon="7.09765">
        <ele>62.370003</ele>
        <time>2024-12-01T11:29:02.149Z</time>
      </trkpt>
      <trkpt lat="43.62137" lon="7.09765">
        <ele>63.629997</ele>
        <time>2024-12-01T11:29:04.255Z</time>
      </trkpt>
      <trkpt lat="43.6213" lon="7.09765">
        <ele>64.87</ele>
        <time>2024-12-01T11:29:06.259Z</time>
      </trkpt>
      <trkpt lat="43.62123" lon="7.09765">
        <ele>65.75</ele>
        <time>2024-12-01T11:29:08.260Z</time>
      </trkpt>
      <trkpt lat="43.62117" lon="7.09766">
        <ele>66.49</ele>
        <time>2024-12-01T11:29:10.262Z</time>
      </trkpt>
      <trkpt lat="43.62111" lon="7.09767">
        <ele>67.8</ele>
        <time>2024-12-01T11:29:12.265Z</time>
      </trkpt>
      <trkpt lat="43.62106" lon="7.09768">
        <ele>68.81</ele>
        <time>2024-12-01T11:29:14.269Z</time>
      </trkpt>
      <trkpt lat="43.621" lon="7.09768">
        <ele>70.05</ele>
        <time>2024-12-01T11:29:15.878Z</time>
      </trkpt>
      <trkpt lat="43.62094" lon="7.09769">
        <ele>71.1</ele>
        <time>2024-12-01T11:29:18.274Z</time>
      </trkpt>
      <trkpt lat="43.62088" lon="7.09769">
        <ele>72.01</ele>
        <time>2024-12-01T11:29:20.164Z</time>
      </trkpt>
      <trkpt lat="43.62082" lon="7.09768">
        <ele>72.520004</ele>
        <time>2024-12-01T11:29:22.281Z</time>
      </trkpt>
      <trkpt lat="43.62076" lon="7.09765">
        <ele>72.17</ele>
        <time>2024-12-01T11:29:24.283Z</time>
      </trkpt>
      <trkpt lat="43.6207" lon="7.0976">
        <ele>69.81</ele>
        <time>2024-12-01T11:29:26.285Z</time>
      </trkpt>
      <trkpt lat="43.62066" lon="7.09753">
        <ele>67.78</ele>
        <time>2024-12-01T11:29:28.288Z</time>
      </trkpt>
      <trkpt lat="43.62064" lon="7.09745">
        <ele>67.97</ele>
        <time>2024-12-01T11:29:30.291Z</time>
      </trkpt>
      <trkpt lat="43.62062" lon="7.09736">
        <ele>68.5</ele>
        <time>2024-12-01T11:29:32.295Z</time>
      </trkpt>
      <trkpt lat="43.62062" lon="7.09727">
        <ele>68.8</ele>
        <time>2024-12-01T11:29:33.925Z</time>
      </trkpt>
      <trkpt lat="43.62061" lon="7.09717">
        <ele>68.01</ele>
        <time>2024-12-01T11:29:35.878Z</time>
      </trkpt>
      <trkpt lat="43.62061" lon="7.09707">
        <ele>68.51</ele>
        <time>2024-12-01T11:29:38.148Z</time>
      </trkpt>
      <trkpt lat="43.6206" lon="7.09698">
        <ele>68.92</ele>
        <time>2024-12-01T11:29:39.951Z</time>
      </trkpt>
      <trkpt lat="43.62059" lon="7.09689">
        <ele>69.31</ele>
        <time>2024-12-01T11:29:42.305Z</time>
      </trkpt>
      <trkpt lat="43.62057" lon="7.0968">
        <ele>68.39</ele>
        <time>2024-12-01T11:29:44.311Z</time>
      </trkpt>
      <trkpt lat="43.62056" lon="7.09671">
        <ele>69.04</ele>
        <time>2024-12-01T11:29:46.311Z</time>
      </trkpt>
      <trkpt lat="43.62056" lon="7.09662">
        <ele>69.42</ele>
        <time>2024-12-01T11:29:48.314Z</time>
      </trkpt>
      <trkpt lat="43.62056" lon="7.09655">
        <ele>69.55</ele>
        <time>2024-12-01T11:29:50.315Z</time>
      </trkpt>
      <trkpt lat="43.62056" lon="7.09647">
        <ele>70.06</ele>
        <time>2024-12-01T11:29:52.320Z</time>
      </trkpt>
      <trkpt lat="43.62057" lon="7.09639">
        <ele>70.63</ele>
        <time>2024-12-01T11:29:54.323Z</time>
      </trkpt>
      <trkpt lat="43.62059" lon="7.09632">
        <ele>70.61</ele>
        <time>2024-12-01T11:29:56.324Z</time>
      </trkpt>
      <trkpt lat="43.62062" lon="7.09625">
        <ele>70.74</ele>
        <time>2024-12-01T11:29:58.327Z</time>
      </trkpt>
      <trkpt lat="43.62063" lon="7.0962">
        <ele>70.75</ele>
        <time>2024-12-01T11:30:00.331Z</time>
      </trkpt>
      <trkpt lat="43.62064" lon="7.09613">
        <ele>70.9</ele>
        <time>2024-12-01T11:30:02.335Z</time>
      </trkpt>
      <trkpt lat="43.62064" lon="7.09605">
        <ele>70.9</ele>
        <time>2024-12-01T11:30:04.335Z</time>
      </trkpt>
      <trkpt lat="43.62064" lon="7.09595">
        <ele>71.05</ele>
        <time>2024-12-01T11:30:06.338Z</time>
      </trkpt>
      <trkpt lat="43.62064" lon="7.09583">
        <ele>71.13</ele>
        <time>2024-12-01T11:30:08.342Z</time>
      </trkpt>
      <trkpt lat="43.62064" lon="7.09572">
        <ele>71.11</ele>
        <time>2024-12-01T11:30:10.344Z</time>
      </trkpt>
      <trkpt lat="43.62063" lon="7.0956">
        <ele>71.06</ele>
        <time>2024-12-01T11:30:12.428Z</time>
      </trkpt>
      <trkpt lat="43.62062" lon="7.09548">
        <ele>71.07</ele>
        <time>2024-12-01T11:30:14.351Z</time>
      </trkpt>
      <trkpt lat="43.62059" lon="7.09536">
        <ele>71</ele>
        <time>2024-12-01T11:30:16.353Z</time>
      </trkpt>
      <trkpt lat="43.62056" lon="7.09526">
        <ele>70.88</ele>
        <time>2024-12-01T11:30:18.435Z</time>
      </trkpt>
      <trkpt lat="43.62051" lon="7.09518">
        <ele>70.87</ele>
        <time>2024-12-01T11:30:20.438Z</time>
      </trkpt>
      <trkpt lat="43.62043" lon="7.09509">
        <ele>70.72</ele>
        <time>2024-12-01T11:30:23.069Z</time>
      </trkpt>
      <trkpt lat="43.62038" lon="7.09504">
        <ele>71.15</ele>
        <time>2024-12-01T11:30:25.405Z</time>
      </trkpt>
      <trkpt lat="43.62032" lon="7.09501">
        <ele>71.33</ele>
        <time>2024-12-01T11:30:27.408Z</time>
      </trkpt>
      <trkpt lat="43.62027" lon="7.09499">
        <ele>71.3</ele>
        <time>2024-12-01T11:30:29.410Z</time>
      </trkpt>
      <trkpt lat="43.62021" lon="7.09496">
        <ele>71.4</ele>
        <time>2024-12-01T11:30:31.413Z</time>
      </trkpt>
      <trkpt lat="43.62014" lon="7.09495">
        <ele>70.85</ele>
        <time>2024-12-01T11:30:33.414Z</time>
      </trkpt>
      <trkpt lat="43.62009" lon="7.09492">
        <ele>70.38</ele>
        <time>2024-12-01T11:30:35.094Z</time>
      </trkpt>
      <trkpt lat="43.62003" lon="7.0949">
        <ele>70</ele>
        <time>2024-12-01T11:30:37.421Z</time>
      </trkpt>
      <trkpt lat="43.61996" lon="7.09487">
        <ele>70.32</ele>
        <time>2024-12-01T11:30:39.423Z</time>
      </trkpt>
      <trkpt lat="43.61992" lon="7.09484">
        <ele>70.8</ele>
        <time>2024-12-01T11:30:41.427Z</time>
      </trkpt>
      <trkpt lat="43.61986" lon="7.0948">
        <ele>71.34</ele>
        <time>2024-12-01T11:30:43.429Z</time>
      </trkpt>
      <trkpt lat="43.6198" lon="7.09475">
        <ele>71.87</ele>
        <time>2024-12-01T11:30:45.432Z</time>
      </trkpt>
      <trkpt lat="43.61975" lon="7.09471">
        <ele>72.5</ele>
        <time>2024-12-01T11:30:47.434Z</time>
      </trkpt>
      <trkpt lat="43.6197" lon="7.09465">
        <ele>73.02</ele>
        <time>2024-12-01T11:30:49.437Z</time>
      </trkpt>
      <trkpt lat="43.61965" lon="7.09462">
        <ele>73.8</ele>
        <time>2024-12-01T11:30:51.440Z</time>
      </trkpt>
      <trkpt lat="43.61959" lon="7.09458">
        <ele>74.66</ele>
        <time>2024-12-01T11:30:53.376Z</time>
      </trkpt>
      <trkpt lat="43.61954" lon="7.09454">
        <ele>75.33</ele>
        <time>2024-12-01T11:30:55.048Z</time>
      </trkpt>
      <trkpt lat="43.61949" lon="7.0945">
        <ele>76.18</ele>
        <time>2024-12-01T11:30:57.447Z</time>
      </trkpt>
      <trkpt lat="43.61944" lon="7.09445">
        <ele>76.94</ele>
        <time>2024-12-01T11:30:59.494Z</time>
      </trkpt>
      <trkpt lat="43.61939" lon="7.0944">
        <ele>77.7</ele>
        <time>2024-12-01T11:31:01.454Z</time>
      </trkpt>
      <trkpt lat="43.61934" lon="7.09435">
        <ele>78.49</ele>
        <time>2024-12-01T11:31:03.231Z</time>
      </trkpt>
      <trkpt lat="43.6193" lon="7.09429">
        <ele>79.23</ele>
        <time>2024-12-01T11:31:05.456Z</time>
      </trkpt>
      <trkpt lat="43.61927" lon="7.09421">
        <ele>79.64</ele>
        <time>2024-12-01T11:31:07.460Z</time>
      </trkpt>
      <trkpt lat="43.61924" lon="7.09412">
        <ele>77.99</ele>
        <time>2024-12-01T11:31:09.463Z</time>
      </trkpt>
      <trkpt lat="43.61921" lon="7.09404">
        <ele>77.98</ele>
        <time>2024-12-01T11:31:11.375Z</time>
      </trkpt>
      <trkpt lat="43.61917" lon="7.09397">
        <ele>78.92</ele>
        <time>2024-12-01T11:31:13.467Z</time>
      </trkpt>
      <trkpt lat="43.61914" lon="7.0939">
        <ele>79.89</ele>
        <time>2024-12-01T11:31:15.474Z</time>
      </trkpt>
      <trkpt lat="43.61911" lon="7.09384">
        <ele>80.8</ele>
        <time>2024-12-01T11:31:17.473Z</time>
      </trkpt>
      <trkpt lat="43.61908" lon="7.09376">
        <ele>81.55</ele>
        <time>2024-12-01T11:31:19.475Z</time>
      </trkpt>
      <trkpt lat="43.61904" lon="7.09368">
        <ele>80.17</ele>
        <time>2024-12-01T11:31:21.478Z</time>
      </trkpt>
      <trkpt lat="43.61899" lon="7.0936">
        <ele>80.42</ele>
        <time>2024-12-01T11:31:23.481Z</time>
      </trkpt>
      <trkpt lat="43.61896" lon="7.09353">
        <ele>81.31</ele>
        <time>2024-12-01T11:31:25.329Z</time>
      </trkpt>
      <trkpt lat="43.61892" lon="7.09346">
        <ele>82.22</ele>
        <time>2024-12-01T11:31:27.228Z</time>
      </trkpt>
      <trkpt lat="43.6189" lon="7.09338">
        <ele>82.91</ele>
        <time>2024-12-01T11:31:29.487Z</time>
      </trkpt>
      <trkpt lat="43.61888" lon="7.09332">
        <ele>83.37</ele>
        <time>2024-12-01T11:31:31.490Z</time>
      </trkpt>
      <trkpt lat="43.61886" lon="7.09325">
        <ele>83.13</ele>
        <time>2024-12-01T11:31:33.492Z</time>
      </trkpt>
      <trkpt lat="43.61884" lon="7.09317">
        <ele>83.16</ele>
        <time>2024-12-01T11:31:35.496Z</time>
      </trkpt>
      <trkpt lat="43.61881" lon="7.09309">
        <ele>82.23</ele>
        <time>2024-12-01T11:31:37.498Z</time>
      </trkpt>
      <trkpt lat="43.61878" lon="7.093">
        <ele>82.13</ele>
        <time>2024-12-01T11:31:39.207Z</time>
      </trkpt>
      <trkpt lat="43.61875" lon="7.09291">
        <ele>82.76</ele>
        <time>2024-12-01T11:31:41.167Z</time>
      </trkpt>
      <trkpt lat="43.61874" lon="7.09283">
        <ele>83.29</ele>
        <time>2024-12-01T11:31:43.455Z</time>
      </trkpt>
      <trkpt lat="43.61871" lon="7.09275">
        <ele>83.73</ele>
        <time>2024-12-01T11:31:45.510Z</time>
      </trkpt>
      <trkpt lat="43.61869" lon="7.09265">
        <ele>83.32</ele>
        <time>2024-12-01T11:31:47.512Z</time>
      </trkpt>
      <trkpt lat="43.61868" lon="7.09256">
        <ele>83.94</ele>
        <time>2024-12-01T11:31:49.514Z</time>
      </trkpt>
      <trkpt lat="43.61866" lon="7.09247">
        <ele>84.57</ele>
        <time>2024-12-01T11:31:51.515Z</time>
      </trkpt>
      <trkpt lat="43.61865" lon="7.09238">
        <ele>85.14</ele>
        <time>2024-12-01T11:31:53.518Z</time>
      </trkpt>
      <trkpt lat="43.61862" lon="7.0923">
        <ele>85.46</ele>
        <time>2024-12-01T11:31:55.521Z</time>
      </trkpt>
      <trkpt lat="43.6186" lon="7.0922">
        <ele>86.12</ele>
        <time>2024-12-01T11:31:57.524Z</time>
      </trkpt>
      <trkpt lat="43.61858" lon="7.09211">
        <ele>86.77</ele>
        <time>2024-12-01T11:31:59.526Z</time>
      </trkpt>
      <trkpt lat="43.61856" lon="7.09203">
        <ele>87.36</ele>
        <time>2024-12-01T11:32:01.443Z</time>
      </trkpt>
      <trkpt lat="43.61855" lon="7.09194">
        <ele>87.8</ele>
        <time>2024-12-01T11:32:03.532Z</time>
      </trkpt>
      <trkpt lat="43.61853" lon="7.09185">
        <ele>87.13</ele>
        <time>2024-12-01T11:32:05.534Z</time>
      </trkpt>
      <trkpt lat="43.6185" lon="7.09176">
        <ele>86.98</ele>
        <time>2024-12-01T11:32:07.538Z</time>
      </trkpt>
      <trkpt lat="43.61848" lon="7.09169">
        <ele>87.74</ele>
        <time>2024-12-01T11:32:09.541Z</time>
      </trkpt>
      <trkpt lat="43.61845" lon="7.09163">
        <ele>88.44</ele>
        <time>2024-12-01T11:32:11.623Z</time>
      </trkpt>
      <trkpt lat="43.61843" lon="7.09156">
        <ele>89.28</ele>
        <time>2024-12-01T11:32:13.192Z</time>
      </trkpt>
      <trkpt lat="43.61841" lon="7.09149">
        <ele>90.12</ele>
        <time>2024-12-01T11:32:15.138Z</time>
      </trkpt>
      <trkpt lat="43.61838" lon="7.09142">
        <ele>90.8</ele>
        <time>2024-12-01T11:32:17.630Z</time>
      </trkpt>
      <trkpt lat="43.61836" lon="7.09133">
        <ele>91.7</ele>
        <time>2024-12-01T11:32:19.083Z</time>
      </trkpt>
      <trkpt lat="43.61834" lon="7.09125">
        <ele>92.64</ele>
        <time>2024-12-01T11:32:21.636Z</time>
      </trkpt>
      <trkpt lat="43.61832" lon="7.09118">
        <ele>93.39</ele>
        <time>2024-12-01T11:32:23.166Z</time>
      </trkpt>
      <trkpt lat="43.61829" lon="7.09112">
        <ele>94.29</ele>
        <time>2024-12-01T11:32:25.642Z</time>
      </trkpt>
      <trkpt lat="43.61827" lon="7.09107">
        <ele>95.29</ele>
        <time>2024-12-01T11:32:27.645Z</time>
      </trkpt>
      <trkpt lat="43.61824" lon="7.09102">
        <ele>96.28</ele>
        <time>2024-12-01T11:32:29.647Z</time>
      </trkpt>
      <trkpt lat="43.61822" lon="7.09095">
        <ele>97.229996</ele>
        <time>2024-12-01T11:32:30.679Z</time>
      </trkpt>
      <trkpt lat="43.61819" lon="7.09089">
        <ele>95.770004</ele>
        <time>2024-12-01T11:32:32.679Z</time>
      </trkpt>
      <trkpt lat="43.61816" lon="7.09083">
        <ele>94.44</ele>
        <time>2024-12-01T11:32:35.657Z</time>
      </trkpt>
      <trkpt lat="43.61814" lon="7.09076">
        <ele>93.59</ele>
        <time>2024-12-01T11:32:37.657Z</time>
      </trkpt>
      <trkpt lat="43.61812" lon="7.0907">
        <ele>93.68</ele>
        <time>2024-12-01T11:32:39.661Z</time>
      </trkpt>
      <trkpt lat="43.6181" lon="7.09063">
        <ele>94.06</ele>
        <time>2024-12-01T11:32:40.700Z</time>
      </trkpt>
      <trkpt lat="43.61809" lon="7.09056">
        <ele>95.19</ele>
        <time>2024-12-01T11:32:43.666Z</time>
      </trkpt>
      <trkpt lat="43.61806" lon="7.0905">
        <ele>96.39</ele>
        <time>2024-12-01T11:32:45.671Z</time>
      </trkpt>
      <trkpt lat="43.61804" lon="7.09043">
        <ele>96.979996</ele>
        <time>2024-12-01T11:32:47.673Z</time>
      </trkpt>
      <trkpt lat="43.61803" lon="7.09033">
        <ele>97.28</ele>
        <time>2024-12-01T11:32:49.679Z</time>
      </trkpt>
      <trkpt lat="43.61803" lon="7.09024">
        <ele>97.6</ele>
        <time>2024-12-01T11:32:51.680Z</time>
      </trkpt>
      <trkpt lat="43.61805" lon="7.09012">
        <ele>97.99</ele>
        <time>2024-12-01T11:32:53.681Z</time>
      </trkpt>
      <trkpt lat="43.61806" lon="7.09001">
        <ele>98.26</ele>
        <time>2024-12-01T11:32:55.682Z</time>
      </trkpt>
      <trkpt lat="43.61808" lon="7.08989">
        <ele>98.56</ele>
        <time>2024-12-01T11:32:57.686Z</time>
      </trkpt>
      <trkpt lat="43.61811" lon="7.08979">
        <ele>98.85</ele>
        <time>2024-12-01T11:32:59.299Z</time>
      </trkpt>
      <trkpt lat="43.61813" lon="7.08971">
        <ele>100.18</ele>
        <time>2024-12-01T11:33:01.132Z</time>
      </trkpt>
      <trkpt lat="43.61815" lon="7.08963">
        <ele>101.12</ele>
        <time>2024-12-01T11:33:03.195Z</time>
      </trkpt>
      <trkpt lat="43.61815" lon="7.08955">
        <ele>100.84</ele>
        <time>2024-12-01T11:33:05.256Z</time>
      </trkpt>
      <trkpt lat="43.61813" lon="7.08946">
        <ele>100.84</ele>
        <time>2024-12-01T11:33:07.342Z</time>
      </trkpt>
      <trkpt lat="43.6181" lon="7.08937">
        <ele>101.020004</ele>
        <time>2024-12-01T11:33:09.290Z</time>
      </trkpt>
      <trkpt lat="43.61806" lon="7.08931">
        <ele>102.01</ele>
        <time>2024-12-01T11:33:11.283Z</time>
      </trkpt>
      <trkpt lat="43.618" lon="7.08924">
        <ele>102.65</ele>
        <time>2024-12-01T11:33:13.595Z</time>
      </trkpt>
      <trkpt lat="43.61794" lon="7.08917">
        <ele>103.32</ele>
        <time>2024-12-01T11:33:15.306Z</time>
      </trkpt>
      <trkpt lat="43.61791" lon="7.0891">
        <ele>104.34</ele>
        <time>2024-12-01T11:33:17.714Z</time>
      </trkpt>
      <trkpt lat="43.61788" lon="7.08903">
        <ele>105.72</ele>
        <time>2024-12-01T11:33:19.718Z</time>
      </trkpt>
      <trkpt lat="43.61783" lon="7.08896">
        <ele>106.8</ele>
        <time>2024-12-01T11:33:21.313Z</time>
      </trkpt>
      <trkpt lat="43.61779" lon="7.08888">
        <ele>107.65</ele>
        <time>2024-12-01T11:33:23.782Z</time>
      </trkpt>
      <trkpt lat="43.61776" lon="7.08879">
        <ele>108.44</ele>
        <time>2024-12-01T11:33:25.289Z</time>
      </trkpt>
      <trkpt lat="43.61774" lon="7.08869">
        <ele>109.09</ele>
        <time>2024-12-01T11:33:26.791Z</time>
      </trkpt>
      <trkpt lat="43.61771" lon="7.08858">
        <ele>108.8</ele>
        <time>2024-12-01T11:33:29.305Z</time>
      </trkpt>
      <trkpt lat="43.61769" lon="7.08846">
        <ele>108.67</ele>
        <time>2024-12-01T11:33:31.777Z</time>
      </trkpt>
      <trkpt lat="43.61767" lon="7.08835">
        <ele>108.62</ele>
        <time>2024-12-01T11:33:33.737Z</time>
      </trkpt>
      <trkpt lat="43.61765" lon="7.08822">
        <ele>108.61</ele>
        <time>2024-12-01T11:33:35.737Z</time>
      </trkpt>
      <trkpt lat="43.61763" lon="7.0881">
        <ele>108.61</ele>
        <time>2024-12-01T11:33:37.773Z</time>
      </trkpt>
      <trkpt lat="43.61761" lon="7.08797">
        <ele>108.62</ele>
        <time>2024-12-01T11:33:39.744Z</time>
      </trkpt>
      <trkpt lat="43.61758" lon="7.08787">
        <ele>108.59</ele>
        <time>2024-12-01T11:33:41.746Z</time>
      </trkpt>
      <trkpt lat="43.61756" lon="7.08776">
        <ele>109.14</ele>
        <time>2024-12-01T11:33:43.747Z</time>
      </trkpt>
      <trkpt lat="43.61755" lon="7.08766">
        <ele>109.2</ele>
        <time>2024-12-01T11:33:45.344Z</time>
      </trkpt>
      <trkpt lat="43.61753" lon="7.08757">
        <ele>109.03</ele>
        <time>2024-12-01T11:33:47.810Z</time>
      </trkpt>
      <trkpt lat="43.61753" lon="7.08749">
        <ele>108.15</ele>
        <time>2024-12-01T11:33:49.336Z</time>
      </trkpt>
      <trkpt lat="43.61752" lon="7.08739">
        <ele>108.16</ele>
        <time>2024-12-01T11:33:51.788Z</time>
      </trkpt>
      <trkpt lat="43.61751" lon="7.08727">
        <ele>108.1</ele>
        <time>2024-12-01T11:33:53.334Z</time>
      </trkpt>
      <trkpt lat="43.61749" lon="7.08716">
        <ele>107.93</ele>
        <time>2024-12-01T11:33:55.373Z</time>
      </trkpt>
      <trkpt lat="43.61747" lon="7.08706">
        <ele>108.020004</ele>
        <time>2024-12-01T11:33:57.347Z</time>
      </trkpt>
      <trkpt lat="43.61744" lon="7.08696">
        <ele>108</ele>
        <time>2024-12-01T11:33:59.360Z</time>
      </trkpt>
      <trkpt lat="43.61743" lon="7.08687">
        <ele>108.21</ele>
        <time>2024-12-01T11:34:01.772Z</time>
      </trkpt>
      <trkpt lat="43.61731" lon="7.08664">
        <ele>91.6</ele>
        <time>2024-12-01T11:34:45.214Z</time>
      </trkpt>
      <trkpt lat="43.6173" lon="7.08647">
        <ele>91.2</ele>
        <time>2024-12-01T11:34:47.187Z</time>
      </trkpt>
      <trkpt lat="43.61732" lon="7.08633">
        <ele>107.979996</ele>
        <time>2024-12-01T11:34:48.762Z</time>
      </trkpt>
      <trkpt lat="43.61734" lon="7.08614">
        <ele>90.6</ele>
        <time>2024-12-01T11:34:51.222Z</time>
      </trkpt>
      <trkpt lat="43.61737" lon="7.08596">
        <ele>88.9</ele>
        <time>2024-12-01T11:34:52.731Z</time>
      </trkpt>
      <trkpt lat="43.61738" lon="7.08585">
        <ele>87.8</ele>
        <time>2024-12-01T11:34:54.752Z</time>
      </trkpt>
      <trkpt lat="43.61741" lon="7.08555">
        <ele>87.4</ele>
        <time>2024-12-01T11:34:56.803Z</time>
      </trkpt>
      <trkpt lat="43.61739" lon="7.08545">
        <ele>88</ele>
        <time>2024-12-01T11:34:59.156Z</time>
      </trkpt>
      <trkpt lat="43.61733" lon="7.08529">
        <ele>88.7</ele>
        <time>2024-12-01T11:35:01.231Z</time>
      </trkpt>
      <trkpt lat="43.61722" lon="7.08513">
        <ele>88.5</ele>
        <time>2024-12-01T11:35:05.163Z</time>
      </trkpt>
      <trkpt lat="43.61719" lon="7.08509">
        <ele>89.2</ele>
        <time>2024-12-01T11:35:07.135Z</time>
      </trkpt>
      <trkpt lat="43.61715" lon="7.08501">
        <ele>90.3</ele>
        <time>2024-12-01T11:35:09.245Z</time>
      </trkpt>
      <trkpt lat="43.61709" lon="7.08496">
        <ele>91.6</ele>
        <time>2024-12-01T11:35:11.169Z</time>
      </trkpt>
      <trkpt lat="43.61703" lon="7.08489">
        <ele>92.5</ele>
        <time>2024-12-01T11:35:15.253Z</time>
      </trkpt>
      <trkpt lat="43.61699" lon="7.08485">
        <ele>93</ele>
        <time>2024-12-01T11:35:16.806Z</time>
      </trkpt>
      <trkpt lat="43.61695" lon="7.08482">
        <ele>93.3</ele>
        <time>2024-12-01T11:35:19.201Z</time>
      </trkpt>
      <trkpt lat="43.61675" lon="7.08457">
        <ele>107.78</ele>
        <time>2024-12-01T11:35:21.271Z</time>
      </trkpt>
      <trkpt lat="43.6167" lon="7.08447">
        <ele>106.66</ele>
        <time>2024-12-01T11:35:23.126Z</time>
      </trkpt>
      <trkpt lat="43.61665" lon="7.08437">
        <ele>105.67</ele>
        <time>2024-12-01T11:35:25.891Z</time>
      </trkpt>
      <trkpt lat="43.61661" lon="7.08428">
        <ele>104.8</ele>
        <time>2024-12-01T11:35:27.269Z</time>
      </trkpt>
      <trkpt lat="43.61657" lon="7.0842">
        <ele>103.31</ele>
        <time>2024-12-01T11:35:29.272Z</time>
      </trkpt>
      <trkpt lat="43.61653" lon="7.08412">
        <ele>102.770004</ele>
        <time>2024-12-01T11:35:30.796Z</time>
      </trkpt>
      <trkpt lat="43.6165" lon="7.08404">
        <ele>102.66</ele>
        <time>2024-12-01T11:35:33.213Z</time>
      </trkpt>
      <trkpt lat="43.61645" lon="7.08398">
        <ele>102.95</ele>
        <time>2024-12-01T11:35:34.859Z</time>
      </trkpt>
      <trkpt lat="43.6164" lon="7.08392">
        <ele>103.29</ele>
        <time>2024-12-01T11:35:37.282Z</time>
      </trkpt>
      <trkpt lat="43.61636" lon="7.08387">
        <ele>103.64</ele>
        <time>2024-12-01T11:35:38.859Z</time>
      </trkpt>
      <trkpt lat="43.61631" lon="7.08382">
        <ele>104</ele>
        <time>2024-12-01T11:35:40.836Z</time>
      </trkpt>
      <trkpt lat="43.61626" lon="7.08377">
        <ele>104.39</ele>
        <time>2024-12-01T11:35:42.846Z</time>
      </trkpt>
      <trkpt lat="43.61621" lon="7.08372">
        <ele>104.67</ele>
        <time>2024-12-01T11:35:45.293Z</time>
      </trkpt>
      <trkpt lat="43.61616" lon="7.08367">
        <ele>104.99</ele>
        <time>2024-12-01T11:35:46.822Z</time>
      </trkpt>
      <trkpt lat="43.61611" lon="7.08362">
        <ele>105.38</ele>
        <time>2024-12-01T11:35:49.300Z</time>
      </trkpt>
      <trkpt lat="43.61605" lon="7.08357">
        <ele>105.44</ele>
        <time>2024-12-01T11:35:50.826Z</time>
      </trkpt>
      <trkpt lat="43.61601" lon="7.0835">
        <ele>105.63</ele>
        <time>2024-12-01T11:35:53.303Z</time>
      </trkpt>
      <trkpt lat="43.61599" lon="7.08344">
        <ele>106.16</ele>
        <time>2024-12-01T11:35:55.176Z</time>
      </trkpt>
      <trkpt lat="43.616" lon="7.08337">
        <ele>106.92</ele>
        <time>2024-12-01T11:35:56.816Z</time>
      </trkpt>
      <trkpt lat="43.61602" lon="7.08329">
        <ele>106.479996</ele>
        <time>2024-12-01T11:35:59.309Z</time>
      </trkpt>
      <trkpt lat="43.61604" lon="7.0832">
        <ele>107.04</ele>
        <time>2024-12-01T11:36:00.882Z</time>
      </trkpt>
      <trkpt lat="43.61606" lon="7.08312">
        <ele>107.78</ele>
        <time>2024-12-01T11:36:02.795Z</time>
      </trkpt>
      <trkpt lat="43.61606" lon="7.08302">
        <ele>108.63</ele>
        <time>2024-12-01T11:36:04.871Z</time>
      </trkpt>
      <trkpt lat="43.61606" lon="7.08292">
        <ele>109.46</ele>
        <time>2024-12-01T11:36:07.322Z</time>
      </trkpt>
      <trkpt lat="43.61605" lon="7.08282">
        <ele>110.34</ele>
        <time>2024-12-01T11:36:09.297Z</time>
      </trkpt>
      <trkpt lat="43.61604" lon="7.08272">
        <ele>111.26</ele>
        <time>2024-12-01T11:36:11.327Z</time>
      </trkpt>
      <trkpt lat="43.61601" lon="7.08264">
        <ele>112.229996</ele>
        <time>2024-12-01T11:36:13.329Z</time>
      </trkpt>
      <trkpt lat="43.61598" lon="7.08254">
        <ele>113.14</ele>
        <time>2024-12-01T11:36:15.334Z</time>
      </trkpt>
      <trkpt lat="43.61595" lon="7.08245">
        <ele>114.009995</ele>
        <time>2024-12-01T11:36:17.335Z</time>
      </trkpt>
      <trkpt lat="43.61592" lon="7.08235">
        <ele>115.07</ele>
        <time>2024-12-01T11:36:18.849Z</time>
      </trkpt>
      <trkpt lat="43.61589" lon="7.08226">
        <ele>115.990005</ele>
        <time>2024-12-01T11:36:21.341Z</time>
      </trkpt>
      <trkpt lat="43.61586" lon="7.08218">
        <ele>117.009995</ele>
        <time>2024-12-01T11:36:22.924Z</time>
      </trkpt>
      <trkpt lat="43.61583" lon="7.0821">
        <ele>118.06</ele>
        <time>2024-12-01T11:36:25.345Z</time>
      </trkpt>
      <trkpt lat="43.6158" lon="7.08201">
        <ele>119.07</ele>
        <time>2024-12-01T11:36:27.321Z</time>
      </trkpt>
      <trkpt lat="43.61578" lon="7.08192">
        <ele>119.990005</ele>
        <time>2024-12-01T11:36:29.352Z</time>
      </trkpt>
      <trkpt lat="43.61575" lon="7.08183">
        <ele>120.84</ele>
        <time>2024-12-01T11:36:30.927Z</time>
      </trkpt>
      <trkpt lat="43.61572" lon="7.08174">
        <ele>121.82</ele>
        <time>2024-12-01T11:36:33.356Z</time>
      </trkpt>
      <trkpt lat="43.61568" lon="7.08165">
        <ele>122.490005</ele>
        <time>2024-12-01T11:36:35.359Z</time>
      </trkpt>
      <trkpt lat="43.61565" lon="7.08156">
        <ele>122.11</ele>
        <time>2024-12-01T11:36:37.361Z</time>
      </trkpt>
      <trkpt lat="43.61562" lon="7.08147">
        <ele>120.21</ele>
        <time>2024-12-01T11:36:39.364Z</time>
      </trkpt>
      <trkpt lat="43.6156" lon="7.08138">
        <ele>120.009995</ele>
        <time>2024-12-01T11:36:41.365Z</time>
      </trkpt>
      <trkpt lat="43.61557" lon="7.08129">
        <ele>120.490005</ele>
        <time>2024-12-01T11:36:42.972Z</time>
      </trkpt>
      <trkpt lat="43.61554" lon="7.08118">
        <ele>120.9</ele>
        <time>2024-12-01T11:36:45.370Z</time>
      </trkpt>
      <trkpt lat="43.61551" lon="7.08108">
        <ele>119.34</ele>
        <time>2024-12-01T11:36:47.374Z</time>
      </trkpt>
      <trkpt lat="43.61549" lon="7.081">
        <ele>119.5</ele>
        <time>2024-12-01T11:36:49.358Z</time>
      </trkpt>
      <trkpt lat="43.61546" lon="7.08093">
        <ele>120.41</ele>
        <time>2024-12-01T11:36:51.378Z</time>
      </trkpt>
      <trkpt lat="43.61544" lon="7.08085">
        <ele>119.28</ele>
        <time>2024-12-01T11:36:53.381Z</time>
      </trkpt>
      <trkpt lat="43.61543" lon="7.08075">
        <ele>118.520004</ele>
        <time>2024-12-01T11:36:55.381Z</time>
      </trkpt>
      <trkpt lat="43.61545" lon="7.08065">
        <ele>118.92</ele>
        <time>2024-12-01T11:36:57.386Z</time>
      </trkpt>
      <trkpt lat="43.61549" lon="7.08056">
        <ele>119.59</ele>
        <time>2024-12-01T11:36:59.388Z</time>
      </trkpt>
      <trkpt lat="43.61551" lon="7.08048">
        <ele>120.33</ele>
        <time>2024-12-01T11:37:01.393Z</time>
      </trkpt>
      <trkpt lat="43.6155" lon="7.0804">
        <ele>120.56</ele>
        <time>2024-12-01T11:37:03.392Z</time>
      </trkpt>
      <trkpt lat="43.61547" lon="7.08037">
        <ele>120.9</ele>
        <time>2024-12-01T11:37:05.394Z</time>
      </trkpt>
      <trkpt lat="43.61541" lon="7.08034">
        <ele>121.04</ele>
        <time>2024-12-01T11:37:07.398Z</time>
      </trkpt>
      <trkpt lat="43.61535" lon="7.08029">
        <ele>121.39</ele>
        <time>2024-12-01T11:37:09.401Z</time>
      </trkpt>
      <trkpt lat="43.61532" lon="7.08021">
        <ele>121.130005</ele>
        <time>2024-12-01T11:37:11.178Z</time>
      </trkpt>
      <trkpt lat="43.61531" lon="7.08017">
        <ele>121.66</ele>
        <time>2024-12-01T11:37:13.405Z</time>
      </trkpt>
      <trkpt lat="43.6153" lon="7.08012">
        <ele>121.759995</ele>
        <time>2024-12-01T11:37:15.410Z</time>
      </trkpt>
      <trkpt lat="43.61528" lon="7.08005">
        <ele>122.14</ele>
        <time>2024-12-01T11:37:17.411Z</time>
      </trkpt>
      <trkpt lat="43.61527" lon="7.07995">
        <ele>121.69</ele>
        <time>2024-12-01T11:37:19.411Z</time>
      </trkpt>
      <trkpt lat="43.61526" lon="7.07984">
        <ele>121.31</ele>
        <time>2024-12-01T11:37:21.080Z</time>
      </trkpt>
      <trkpt lat="43.61526" lon="7.07973">
        <ele>120.85</ele>
        <time>2024-12-01T11:37:23.418Z</time>
      </trkpt>
      <trkpt lat="43.61526" lon="7.07962">
        <ele>121.34</ele>
        <time>2024-12-01T11:37:25.422Z</time>
      </trkpt>
      <trkpt lat="43.61527" lon="7.07951">
        <ele>121.979996</ele>
        <time>2024-12-01T11:37:27.422Z</time>
      </trkpt>
      <trkpt lat="43.61529" lon="7.07941">
        <ele>122.6</ele>
        <time>2024-12-01T11:37:29.459Z</time>
      </trkpt>
      <trkpt lat="43.6153" lon="7.07929">
        <ele>123.19</ele>
        <time>2024-12-01T11:37:31.438Z</time>
      </trkpt>
      <trkpt lat="43.61531" lon="7.07918">
        <ele>122.64</ele>
        <time>2024-12-01T11:37:33.433Z</time>
      </trkpt>
      <trkpt lat="43.61534" lon="7.07908">
        <ele>123.04</ele>
        <time>2024-12-01T11:37:35.434Z</time>
      </trkpt>
      <trkpt lat="43.61536" lon="7.07898">
        <ele>123.29</ele>
        <time>2024-12-01T11:37:37.465Z</time>
      </trkpt>
      <trkpt lat="43.61539" lon="7.07889">
        <ele>123.5</ele>
        <time>2024-12-01T11:37:39.437Z</time>
      </trkpt>
      <trkpt lat="43.61542" lon="7.07878">
        <ele>123.41</ele>
        <time>2024-12-01T11:37:41.441Z</time>
      </trkpt>
      <trkpt lat="43.61546" lon="7.07866">
        <ele>123.56</ele>
        <time>2024-12-01T11:37:43.444Z</time>
      </trkpt>
      <trkpt lat="43.61553" lon="7.07854">
        <ele>123.97</ele>
        <time>2024-12-01T11:37:45.445Z</time>
      </trkpt>
      <trkpt lat="43.61559" lon="7.07843">
        <ele>123.86</ele>
        <time>2024-12-01T11:37:47.450Z</time>
      </trkpt>
      <trkpt lat="43.61567" lon="7.0783">
        <ele>124.09</ele>
        <time>2024-12-01T11:37:49.454Z</time>
      </trkpt>
      <trkpt lat="43.61574" lon="7.07817">
        <ele>124.270004</ele>
        <time>2024-12-01T11:37:51.454Z</time>
      </trkpt>
      <trkpt lat="43.61583" lon="7.07803">
        <ele>124.41</ele>
        <time>2024-12-01T11:37:53.456Z</time>
      </trkpt>
      <trkpt lat="43.61591" lon="7.07788">
        <ele>124.479996</ele>
        <time>2024-12-01T11:37:55.459Z</time>
      </trkpt>
      <trkpt lat="43.61599" lon="7.07774">
        <ele>124.57</ele>
        <time>2024-12-01T11:37:57.462Z</time>
      </trkpt>
      <trkpt lat="43.61606" lon="7.07759">
        <ele>124.66</ele>
        <time>2024-12-01T11:37:59.463Z</time>
      </trkpt>
      <trkpt lat="43.61613" lon="7.07745">
        <ele>124.75</ele>
        <time>2024-12-01T11:38:01.466Z</time>
      </trkpt>
      <trkpt lat="43.6162" lon="7.07731">
        <ele>124.630005</ele>
        <time>2024-12-01T11:38:03.468Z</time>
      </trkpt>
      <trkpt lat="43.61624" lon="7.07719">
        <ele>124.65</ele>
        <time>2024-12-01T11:38:05.469Z</time>
      </trkpt>
      <trkpt lat="43.61628" lon="7.07706">
        <ele>124.770004</ele>
        <time>2024-12-01T11:38:07.472Z</time>
      </trkpt>
      <trkpt lat="43.61631" lon="7.07692">
        <ele>124.06</ele>
        <time>2024-12-01T11:38:09.475Z</time>
      </trkpt>
      <trkpt lat="43.61636" lon="7.07678">
        <ele>124.05</ele>
        <time>2024-12-01T11:38:11.476Z</time>
      </trkpt>
      <trkpt lat="43.61639" lon="7.07665">
        <ele>124.630005</ele>
        <time>2024-12-01T11:38:13.482Z</time>
      </trkpt>
      <trkpt lat="43.61643" lon="7.07652">
        <ele>125.259995</ele>
        <time>2024-12-01T11:38:15.484Z</time>
      </trkpt>
      <trkpt lat="43.61647" lon="7.07639">
        <ele>125.729996</ele>
        <time>2024-12-01T11:38:17.487Z</time>
      </trkpt>
      <trkpt lat="43.61652" lon="7.07625">
        <ele>125.869995</ele>
        <time>2024-12-01T11:38:19.488Z</time>
      </trkpt>
      <trkpt lat="43.61656" lon="7.07612">
        <ele>125.89</ele>
        <time>2024-12-01T11:38:21.491Z</time>
      </trkpt>
      <trkpt lat="43.6166" lon="7.07597">
        <ele>126.020004</ele>
        <time>2024-12-01T11:38:23.493Z</time>
      </trkpt>
      <trkpt lat="43.61666" lon="7.07584">
        <ele>126.11</ele>
        <time>2024-12-01T11:38:25.496Z</time>
      </trkpt>
      <trkpt lat="43.61673" lon="7.07571">
        <ele>126.15</ele>
        <time>2024-12-01T11:38:27.499Z</time>
      </trkpt>
      <trkpt lat="43.6168" lon="7.07558">
        <ele>126.270004</ele>
        <time>2024-12-01T11:38:29.501Z</time>
      </trkpt>
      <trkpt lat="43.61688" lon="7.07544">
        <ele>126.28</ele>
        <time>2024-12-01T11:38:31.505Z</time>
      </trkpt>
      <trkpt lat="43.61695" lon="7.0753">
        <ele>126.380005</ele>
        <time>2024-12-01T11:38:33.507Z</time>
      </trkpt>
      <trkpt lat="43.61702" lon="7.07515">
        <ele>126.479996</ele>
        <time>2024-12-01T11:38:35.516Z</time>
      </trkpt>
      <trkpt lat="43.61705" lon="7.07499">
        <ele>126.53</ele>
        <time>2024-12-01T11:38:37.593Z</time>
      </trkpt>
      <trkpt lat="43.61708" lon="7.07485">
        <ele>126.6</ele>
        <time>2024-12-01T11:38:39.593Z</time>
      </trkpt>
      <trkpt lat="43.61715" lon="7.07473">
        <ele>126.85</ele>
        <time>2024-12-01T11:38:41.598Z</time>
      </trkpt>
      <trkpt lat="43.61723" lon="7.07466">
        <ele>126.86</ele>
        <time>2024-12-01T11:38:43.599Z</time>
      </trkpt>
      <trkpt lat="43.6173" lon="7.07456">
        <ele>126.86</ele>
        <time>2024-12-01T11:38:45.603Z</time>
      </trkpt>
      <trkpt lat="43.61737" lon="7.07449">
        <ele>127.17</ele>
        <time>2024-12-01T11:38:47.603Z</time>
      </trkpt>
      <trkpt lat="43.61744" lon="7.07427">
        <ele>109.17</ele>
        <time>2024-12-01T12:47:00.178Z</time>
      </trkpt>
      <trkpt lat="43.61742" lon="7.07423">
        <ele>108.54</ele>
        <time>2024-12-01T12:47:02.333Z</time>
      </trkpt>
      <trkpt lat="43.6174" lon="7.07415">
        <ele>107.88</ele>
        <time>2024-12-01T12:47:04.134Z</time>
      </trkpt>
      <trkpt lat="43.6174" lon="7.07408">
        <ele>106.479996</ele>
        <time>2024-12-01T12:47:06.342Z</time>
      </trkpt>
      <trkpt lat="43.6174" lon="7.07399">
        <ele>106.94</ele>
        <time>2024-12-01T12:47:08.345Z</time>
      </trkpt>
      <trkpt lat="43.61739" lon="7.0739">
        <ele>107.12</ele>
        <time>2024-12-01T12:47:10.351Z</time>
      </trkpt>
      <trkpt lat="43.61738" lon="7.07382">
        <ele>107.520004</ele>
        <time>2024-12-01T12:47:12.355Z</time>
      </trkpt>
      <trkpt lat="43.61736" lon="7.07374">
        <ele>107.97</ele>
        <time>2024-12-01T12:47:14.358Z</time>
      </trkpt>
      <trkpt lat="43.61734" lon="7.07364">
        <ele>108.42</ele>
        <time>2024-12-01T12:47:16.367Z</time>
      </trkpt>
      <trkpt lat="43.61732" lon="7.07355">
        <ele>108.58</ele>
        <time>2024-12-01T12:47:18.365Z</time>
      </trkpt>
      <trkpt lat="43.61732" lon="7.07346">
        <ele>108.55</ele>
        <time>2024-12-01T12:47:20.024Z</time>
      </trkpt>
      <trkpt lat="43.61731" lon="7.07337">
        <ele>109.19</ele>
        <time>2024-12-01T12:47:22.329Z</time>
      </trkpt>
      <trkpt lat="43.61732" lon="7.07328">
        <ele>109.69</ele>
        <time>2024-12-01T12:47:23.994Z</time>
      </trkpt>
      <trkpt lat="43.61732" lon="7.07319">
        <ele>109.729996</ele>
        <time>2024-12-01T12:47:26.385Z</time>
      </trkpt>
      <trkpt lat="43.61733" lon="7.07311">
        <ele>108.86</ele>
        <time>2024-12-01T12:47:28.388Z</time>
      </trkpt>
      <trkpt lat="43.61735" lon="7.07304">
        <ele>109.13</ele>
        <time>2024-12-01T12:47:29.991Z</time>
      </trkpt>
      <trkpt lat="43.61737" lon="7.07295">
        <ele>110.11</ele>
        <time>2024-12-01T12:47:32.397Z</time>
      </trkpt>
      <trkpt lat="43.6174" lon="7.07287">
        <ele>111.270004</ele>
        <time>2024-12-01T12:47:34.400Z</time>
      </trkpt>
      <trkpt lat="43.61742" lon="7.07279">
        <ele>112.229996</ele>
        <time>2024-12-01T12:47:36.406Z</time>
      </trkpt>
      <trkpt lat="43.61744" lon="7.07271">
        <ele>113.19</ele>
        <time>2024-12-01T12:47:37.992Z</time>
      </trkpt>
      <trkpt lat="43.61747" lon="7.07265">
        <ele>114.43</ele>
        <time>2024-12-01T12:47:40.415Z</time>
      </trkpt>
      <trkpt lat="43.61751" lon="7.07257">
        <ele>115.869995</ele>
        <time>2024-12-01T12:47:42.420Z</time>
      </trkpt>
      <trkpt lat="43.61755" lon="7.07249">
        <ele>117.16</ele>
        <time>2024-12-01T12:47:44.424Z</time>
      </trkpt>
      <trkpt lat="43.61758" lon="7.07241">
        <ele>118.47</ele>
        <time>2024-12-01T12:47:46.429Z</time>
      </trkpt>
      <trkpt lat="43.6176" lon="7.07233">
        <ele>119.479996</ele>
        <time>2024-12-01T12:47:48.207Z</time>
      </trkpt>
      <trkpt lat="43.61761" lon="7.07226">
        <ele>120.58</ele>
        <time>2024-12-01T12:47:50.292Z</time>
      </trkpt>
      <trkpt lat="43.61763" lon="7.07217">
        <ele>121.479996</ele>
        <time>2024-12-01T12:47:52.442Z</time>
      </trkpt>
      <trkpt lat="43.61765" lon="7.0721">
        <ele>122.229996</ele>
        <time>2024-12-01T12:47:54.310Z</time>
      </trkpt>
      <trkpt lat="43.61768" lon="7.07201">
        <ele>122.65</ele>
        <time>2024-12-01T12:47:56.449Z</time>
      </trkpt>
      <trkpt lat="43.61769" lon="7.07194">
        <ele>120.65</ele>
        <time>2024-12-01T12:47:58.453Z</time>
      </trkpt>
      <trkpt lat="43.6177" lon="7.07185">
        <ele>119.36</ele>
        <time>2024-12-01T12:48:00.459Z</time>
      </trkpt>
      <trkpt lat="43.61771" lon="7.07176">
        <ele>120.119995</ele>
        <time>2024-12-01T12:48:02.154Z</time>
      </trkpt>
      <trkpt lat="43.61773" lon="7.07167">
        <ele>121.09</ele>
        <time>2024-12-01T12:48:04.466Z</time>
      </trkpt>
      <trkpt lat="43.61774" lon="7.07158">
        <ele>121.990005</ele>
        <time>2024-12-01T12:48:06.472Z</time>
      </trkpt>
      <trkpt lat="43.61774" lon="7.07149">
        <ele>122.619995</ele>
        <time>2024-12-01T12:48:08.184Z</time>
      </trkpt>
      <trkpt lat="43.61773" lon="7.0714">
        <ele>120.86</ele>
        <time>2024-12-01T12:48:10.480Z</time>
      </trkpt>
      <trkpt lat="43.61772" lon="7.0713">
        <ele>121.09</ele>
        <time>2024-12-01T12:48:12.110Z</time>
      </trkpt>
      <trkpt lat="43.61771" lon="7.07122">
        <ele>122.05</ele>
        <time>2024-12-01T12:48:14.488Z</time>
      </trkpt>
      <trkpt lat="43.61771" lon="7.07112">
        <ele>122.85</ele>
        <time>2024-12-01T12:48:16.492Z</time>
      </trkpt>
      <trkpt lat="43.61769" lon="7.07103">
        <ele>123.47</ele>
        <time>2024-12-01T12:48:18.496Z</time>
      </trkpt>
      <trkpt lat="43.61769" lon="7.07093">
        <ele>121.89</ele>
        <time>2024-12-01T12:48:20.500Z</time>
      </trkpt>
      <trkpt lat="43.61771" lon="7.07083">
        <ele>122.93</ele>
        <time>2024-12-01T12:48:22.507Z</time>
      </trkpt>
      <trkpt lat="43.61773" lon="7.07074">
        <ele>123.229996</ele>
        <time>2024-12-01T12:48:24.510Z</time>
      </trkpt>
      <trkpt lat="43.61773" lon="7.07066">
        <ele>123.33</ele>
        <time>2024-12-01T12:48:26.516Z</time>
      </trkpt>
      <trkpt lat="43.61773" lon="7.07056">
        <ele>123.41</ele>
        <time>2024-12-01T12:48:28.517Z</time>
      </trkpt>
      <trkpt lat="43.61772" lon="7.07048">
        <ele>122.34</ele>
        <time>2024-12-01T12:48:30.522Z</time>
      </trkpt>
      <trkpt lat="43.61773" lon="7.07041">
        <ele>121.6</ele>
        <time>2024-12-01T12:48:32.528Z</time>
      </trkpt>
      <trkpt lat="43.61775" lon="7.07031">
        <ele>121.78</ele>
        <time>2024-12-01T12:48:34.531Z</time>
      </trkpt>
      <trkpt lat="43.61777" lon="7.07021">
        <ele>121.85</ele>
        <time>2024-12-01T12:48:36.536Z</time>
      </trkpt>
      <trkpt lat="43.61781" lon="7.0701">
        <ele>121.9</ele>
        <time>2024-12-01T12:48:38.539Z</time>
      </trkpt>
      <trkpt lat="43.61784" lon="7.07">
        <ele>121.94</ele>
        <time>2024-12-01T12:48:40.544Z</time>
      </trkpt>
      <trkpt lat="43.61787" lon="7.06987">
        <ele>121.979996</ele>
        <time>2024-12-01T12:48:42.551Z</time>
      </trkpt>
      <trkpt lat="43.6179" lon="7.06973">
        <ele>122</ele>
        <time>2024-12-01T12:48:44.556Z</time>
      </trkpt>
      <trkpt lat="43.61795" lon="7.06956">
        <ele>122.009995</ele>
        <time>2024-12-01T12:48:46.558Z</time>
      </trkpt>
      <trkpt lat="43.618" lon="7.06938">
        <ele>122.009995</ele>
        <time>2024-12-01T12:48:48.564Z</time>
      </trkpt>
      <trkpt lat="43.61806" lon="7.0692">
        <ele>121.990005</ele>
        <time>2024-12-01T12:48:50.564Z</time>
      </trkpt>
      <trkpt lat="43.61814" lon="7.06903">
        <ele>121.96</ele>
        <time>2024-12-01T12:48:52.572Z</time>
      </trkpt>
      <trkpt lat="43.61822" lon="7.06886">
        <ele>121.91</ele>
        <time>2024-12-01T12:48:54.576Z</time>
      </trkpt>
      <trkpt lat="43.61832" lon="7.06867">
        <ele>121.86</ele>
        <time>2024-12-01T12:48:56.579Z</time>
      </trkpt>
      <trkpt lat="43.61842" lon="7.06846">
        <ele>121.79</ele>
        <time>2024-12-01T12:48:58.584Z</time>
      </trkpt>
      <trkpt lat="43.61854" lon="7.06825">
        <ele>121.69</ele>
        <time>2024-12-01T12:49:00.588Z</time>
      </trkpt>
      <trkpt lat="43.61867" lon="7.06803">
        <ele>121.57</ele>
        <time>2024-12-01T12:49:02.594Z</time>
      </trkpt>
      <trkpt lat="43.6188" lon="7.0678">
        <ele>121.41</ele>
        <time>2024-12-01T12:49:04.598Z</time>
      </trkpt>
      <trkpt lat="43.61894" lon="7.06758">
        <ele>121.21</ele>
        <time>2024-12-01T12:49:06.600Z</time>
      </trkpt>
      <trkpt lat="43.61907" lon="7.06737">
        <ele>120.97</ele>
        <time>2024-12-01T12:49:08.606Z</time>
      </trkpt>
      <trkpt lat="43.61922" lon="7.06714">
        <ele>120.7</ele>
        <time>2024-12-01T12:49:10.609Z</time>
      </trkpt>
      <trkpt lat="43.61937" lon="7.06691">
        <ele>120.369995</ele>
        <time>2024-12-01T12:49:12.613Z</time>
      </trkpt>
      <trkpt lat="43.61953" lon="7.06668">
        <ele>120</ele>
        <time>2024-12-01T12:49:14.619Z</time>
      </trkpt>
      <trkpt lat="43.61967" lon="7.06646">
        <ele>119.58</ele>
        <time>2024-12-01T12:49:16.164Z</time>
      </trkpt>
      <trkpt lat="43.6198" lon="7.06625">
        <ele>119.16</ele>
        <time>2024-12-01T12:49:18.625Z</time>
      </trkpt>
      <trkpt lat="43.61991" lon="7.06605">
        <ele>118.69</ele>
        <time>2024-12-01T12:49:20.195Z</time>
      </trkpt>
      <trkpt lat="43.62001" lon="7.0659">
        <ele>118.240005</ele>
        <time>2024-12-01T12:49:22.630Z</time>
      </trkpt>
      <trkpt lat="43.62011" lon="7.06574">
        <ele>117.759995</ele>
        <time>2024-12-01T12:49:24.660Z</time>
      </trkpt>
      <trkpt lat="43.62021" lon="7.0656">
        <ele>117.29</ele>
        <time>2024-12-01T12:49:26.190Z</time>
      </trkpt>
      <trkpt lat="43.62029" lon="7.06547">
        <ele>116.83</ele>
        <time>2024-12-01T12:49:28.650Z</time>
      </trkpt>
      <trkpt lat="43.62035" lon="7.06537">
        <ele>116.380005</ele>
        <time>2024-12-01T12:49:30.246Z</time>
      </trkpt>
      <trkpt lat="43.62042" lon="7.06528">
        <ele>115.96</ele>
        <time>2024-12-01T12:49:32.238Z</time>
      </trkpt>
      <trkpt lat="43.62047" lon="7.06521">
        <ele>115.53</ele>
        <time>2024-12-01T12:49:34.655Z</time>
      </trkpt>
      <trkpt lat="43.62046" lon="7.06521">
        <ele>114.21</ele>
        <time>2024-12-01T12:49:35.699Z</time>
      </trkpt>
      <trkpt lat="43.62048" lon="7.06519">
        <ele>114.14</ele>
        <time>2024-12-01T12:49:36.659Z</time>
      </trkpt>
      <trkpt lat="43.62051" lon="7.06513">
        <ele>114.229996</ele>
        <time>2024-12-01T12:49:38.663Z</time>
      </trkpt>
      <trkpt lat="43.62054" lon="7.06507">
        <ele>114.83</ele>
        <time>2024-12-01T12:49:40.669Z</time>
      </trkpt>
      <trkpt lat="43.62057" lon="7.06503">
        <ele>114.83</ele>
        <time>2024-12-01T12:49:42.672Z</time>
      </trkpt>
      <trkpt lat="43.62061" lon="7.06497">
        <ele>111.81</ele>
        <time>2024-12-01T12:49:44.675Z</time>
      </trkpt>
      <trkpt lat="43.62065" lon="7.0649">
        <ele>112.21</ele>
        <time>2024-12-01T12:49:46.678Z</time>
      </trkpt>
      <trkpt lat="43.62069" lon="7.06483">
        <ele>112.62</ele>
        <time>2024-12-01T12:49:48.349Z</time>
      </trkpt>
      <trkpt lat="43.62072" lon="7.06476">
        <ele>113.009995</ele>
        <time>2024-12-01T12:49:50.690Z</time>
      </trkpt>
      <trkpt lat="43.62077" lon="7.06469">
        <ele>113.369995</ele>
        <time>2024-12-01T12:49:52.308Z</time>
      </trkpt>
      <trkpt lat="43.62082" lon="7.06462">
        <ele>113.54</ele>
        <time>2024-12-01T12:49:54.310Z</time>
      </trkpt>
      <trkpt lat="43.62085" lon="7.06454">
        <ele>110.95</ele>
        <time>2024-12-01T12:49:55.766Z</time>
      </trkpt>
      <trkpt lat="43.62086" lon="7.06446">
        <ele>110.07</ele>
        <time>2024-12-01T12:49:57.760Z</time>
      </trkpt>
      <trkpt lat="43.62088" lon="7.06437">
        <ele>110.86</ele>
        <time>2024-12-01T12:49:59.794Z</time>
      </trkpt>
      <trkpt lat="43.6209" lon="7.06429">
        <ele>111.479996</ele>
        <time>2024-12-01T12:50:01.776Z</time>
      </trkpt>
      <trkpt lat="43.62092" lon="7.06421">
        <ele>111.97</ele>
        <time>2024-12-01T12:50:04.285Z</time>
      </trkpt>
      <trkpt lat="43.62095" lon="7.06415">
        <ele>112.37</ele>
        <time>2024-12-01T12:50:05.838Z</time>
      </trkpt>
      <trkpt lat="43.62096" lon="7.06413">
        <ele>112.39</ele>
        <time>2024-12-01T12:50:13.309Z</time>
      </trkpt>
      <trkpt lat="43.62111" lon="7.06369">
        <ele>113.2</ele>
        <time>2024-12-01T12:53:19.805Z</time>
      </trkpt>
      <trkpt lat="43.62117" lon="7.06362">
        <ele>116.55</ele>
        <time>2024-12-01T12:53:28.220Z</time>
      </trkpt>
      <trkpt lat="43.62123" lon="7.06356">
        <ele>114.89</ele>
        <time>2024-12-01T12:53:29.261Z</time>
      </trkpt>
      <trkpt lat="43.62131" lon="7.06349">
        <ele>114.59</ele>
        <time>2024-12-01T12:53:32.193Z</time>
      </trkpt>
      <trkpt lat="43.62134" lon="7.06346">
        <ele>113.770004</ele>
        <time>2024-12-01T12:53:35.281Z</time>
      </trkpt>
      <trkpt lat="43.62161" lon="7.06331">
        <ele>114.3</ele>
        <time>2024-12-01T12:53:39.254Z</time>
      </trkpt>
      <trkpt lat="43.62175" lon="7.06329">
        <ele>113.869995</ele>
        <time>2024-12-01T12:53:42.246Z</time>
      </trkpt>
      <trkpt lat="43.62181" lon="7.06325">
        <ele>111.1</ele>
        <time>2024-12-01T12:53:43.263Z</time>
      </trkpt>
      <trkpt lat="43.62183" lon="7.06324">
        <ele>111.1</ele>
        <time>2024-12-01T12:53:45.928Z</time>
      </trkpt>
      <trkpt lat="43.62191" lon="7.06322">
        <ele>107.61</ele>
        <time>2024-12-01T12:53:48.021Z</time>
      </trkpt>
      <trkpt lat="43.62194" lon="7.06318">
        <ele>108.67</ele>
        <time>2024-12-01T12:53:50.184Z</time>
      </trkpt>
      <trkpt lat="43.62202" lon="7.06312">
        <ele>109.44</ele>
        <time>2024-12-01T12:53:52.268Z</time>
      </trkpt>
      <trkpt lat="43.62209" lon="7.06304">
        <ele>110.03</ele>
        <time>2024-12-01T12:53:54.215Z</time>
      </trkpt>
      <trkpt lat="43.62211" lon="7.06297">
        <ele>110.47</ele>
        <time>2024-12-01T12:53:56.217Z</time>
      </trkpt>
      <trkpt lat="43.62214" lon="7.06292">
        <ele>110.97</ele>
        <time>2024-12-01T12:53:58.221Z</time>
      </trkpt>
      <trkpt lat="43.62218" lon="7.06287">
        <ele>111.81</ele>
        <time>2024-12-01T12:53:59.999Z</time>
      </trkpt>
      <trkpt lat="43.6222" lon="7.06285">
        <ele>113.229996</ele>
        <time>2024-12-01T12:54:02.265Z</time>
      </trkpt>
      <trkpt lat="43.62223" lon="7.06282">
        <ele>113.229996</ele>
        <time>2024-12-01T12:54:04.235Z</time>
      </trkpt>
      <trkpt lat="43.62225" lon="7.0628">
        <ele>111.56</ele>
        <time>2024-12-01T12:54:05.822Z</time>
      </trkpt>
      <trkpt lat="43.62233" lon="7.06277">
        <ele>111.96</ele>
        <time>2024-12-01T12:54:08.242Z</time>
      </trkpt>
      <trkpt lat="43.62238" lon="7.06273">
        <ele>112.520004</ele>
        <time>2024-12-01T12:54:10.279Z</time>
      </trkpt>
      <trkpt lat="43.62239" lon="7.06271">
        <ele>113.43</ele>
        <time>2024-12-01T12:54:12.248Z</time>
      </trkpt>
      <trkpt lat="43.62242" lon="7.06269">
        <ele>113.43</ele>
        <time>2024-12-01T12:54:14.255Z</time>
      </trkpt>
      <trkpt lat="43.62244" lon="7.06268">
        <ele>113.43</ele>
        <time>2024-12-01T12:54:16.257Z</time>
      </trkpt>
      <trkpt lat="43.62246" lon="7.06264">
        <ele>115.41</ele>
        <time>2024-12-01T12:54:18.261Z</time>
      </trkpt>
      <trkpt lat="43.62252" lon="7.0626">
        <ele>114.22</ele>
        <time>2024-12-01T12:54:20.199Z</time>
      </trkpt>
      <trkpt lat="43.62259" lon="7.06255">
        <ele>114.78</ele>
        <time>2024-12-01T12:54:22.267Z</time>
      </trkpt>
      <trkpt lat="43.62264" lon="7.06252">
        <ele>115.46</ele>
        <time>2024-12-01T12:54:24.271Z</time>
      </trkpt>
      <trkpt lat="43.62266" lon="7.06251">
        <ele>116.55</ele>
        <time>2024-12-01T12:54:26.277Z</time>
      </trkpt>
      <trkpt lat="43.62271" lon="7.06248">
        <ele>116.55</ele>
        <time>2024-12-01T12:54:28.279Z</time>
      </trkpt>
      <trkpt lat="43.62276" lon="7.06247">
        <ele>116.55</ele>
        <time>2024-12-01T12:54:30.009Z</time>
      </trkpt>
      <trkpt lat="43.62277" lon="7.06246">
        <ele>121.130005</ele>
        <time>2024-12-01T12:54:31.327Z</time>
      </trkpt>
      <trkpt lat="43.62275" lon="7.06246">
        <ele>121.130005</ele>
        <time>2024-12-01T12:54:32.287Z</time>
      </trkpt>
      <trkpt lat="43.62292" lon="7.06239">
        <ele>121.130005</ele>
        <time>2024-12-01T12:54:34.290Z</time>
      </trkpt>
      <trkpt lat="43.62296" lon="7.06236">
        <ele>118.14</ele>
        <time>2024-12-01T12:54:36.297Z</time>
      </trkpt>
      <trkpt lat="43.623" lon="7.06233">
        <ele>118.47</ele>
        <time>2024-12-01T12:54:38.299Z</time>
      </trkpt>
      <trkpt lat="43.62307" lon="7.06226">
        <ele>118.979996</ele>
        <time>2024-12-01T12:54:39.912Z</time>
      </trkpt>
      <trkpt lat="43.62307" lon="7.06225">
        <ele>119.67</ele>
        <time>2024-12-01T12:54:41.345Z</time>
      </trkpt>
      <trkpt lat="43.62308" lon="7.06223">
        <ele>119.67</ele>
        <time>2024-12-01T12:54:42.187Z</time>
      </trkpt>
      <trkpt lat="43.62313" lon="7.06215">
        <ele>120.55</ele>
        <time>2024-12-01T12:54:43.913Z</time>
      </trkpt>
      <trkpt lat="43.62319" lon="7.06208">
        <ele>121.619995</ele>
        <time>2024-12-01T12:54:46.313Z</time>
      </trkpt>
      <trkpt lat="43.62325" lon="7.06202">
        <ele>122.85</ele>
        <time>2024-12-01T12:54:48.069Z</time>
      </trkpt>
      <trkpt lat="43.62329" lon="7.062">
        <ele>124.3</ele>
        <time>2024-12-01T12:54:50.176Z</time>
      </trkpt>
      <trkpt lat="43.62337" lon="7.06198">
        <ele>124.3</ele>
        <time>2024-12-01T12:54:53.961Z</time>
      </trkpt>
      <trkpt lat="43.62337" lon="7.06194">
        <ele>124.3</ele>
        <time>2024-12-01T12:54:55.937Z</time>
      </trkpt>
      <trkpt lat="43.62342" lon="7.06187">
        <ele>124.3</ele>
        <time>2024-12-01T12:54:57.929Z</time>
      </trkpt>
      <trkpt lat="43.62344" lon="7.06182">
        <ele>124.3</ele>
        <time>2024-12-01T12:55:00.935Z</time>
      </trkpt>
      <trkpt lat="43.62351" lon="7.06167">
        <ele>124.3</ele>
        <time>2024-12-01T12:55:03.974Z</time>
      </trkpt>
      <trkpt lat="43.62356" lon="7.06157">
        <ele>124.3</ele>
        <time>2024-12-01T12:55:05.940Z</time>
      </trkpt>
      <trkpt lat="43.6236" lon="7.06149">
        <ele>141.27</ele>
        <time>2024-12-01T12:55:07.918Z</time>
      </trkpt>
      <trkpt lat="43.62363" lon="7.06143">
        <ele>143.13</ele>
        <time>2024-12-01T12:55:10.092Z</time>
      </trkpt>
      <trkpt lat="43.62364" lon="7.06141">
        <ele>144.69</ele>
        <time>2024-12-01T12:55:11.404Z</time>
      </trkpt>
      <trkpt lat="43.6237" lon="7.0613">
        <ele>144.69</ele>
        <time>2024-12-01T12:55:14.373Z</time>
      </trkpt>
      <trkpt lat="43.62371" lon="7.06123">
        <ele>143.85</ele>
        <time>2024-12-01T12:55:16.374Z</time>
      </trkpt>
      <trkpt lat="43.62375" lon="7.06114">
        <ele>145.09</ele>
        <time>2024-12-01T12:55:18.379Z</time>
      </trkpt>
      <trkpt lat="43.62376" lon="7.06105">
        <ele>146.01001</ele>
        <time>2024-12-01T12:55:20.382Z</time>
      </trkpt>
      <trkpt lat="43.62377" lon="7.06104">
        <ele>146.98999</ele>
        <time>2024-12-01T12:55:21.415Z</time>
      </trkpt>
      <trkpt lat="43.62381" lon="7.06088">
        <ele>146.98999</ele>
        <time>2024-12-01T12:55:24.389Z</time>
      </trkpt>
      <trkpt lat="43.62383" lon="7.06079">
        <ele>149.66</ele>
        <time>2024-12-01T12:55:26.392Z</time>
      </trkpt>
      <trkpt lat="43.62384" lon="7.06069">
        <ele>150.48001</ele>
        <time>2024-12-01T12:55:28.396Z</time>
      </trkpt>
      <trkpt lat="43.62386" lon="7.06061">
        <ele>150.48001</ele>
        <time>2024-12-01T12:55:30.403Z</time>
      </trkpt>
      <trkpt lat="43.62387" lon="7.06058">
        <ele>146.32</ele>
        <time>2024-12-01T12:55:31.234Z</time>
      </trkpt>
      <trkpt lat="43.62391" lon="7.06046">
        <ele>146.57</ele>
        <time>2024-12-01T12:55:34.410Z</time>
      </trkpt>
      <trkpt lat="43.62394" lon="7.06038">
        <ele>147.76999</ele>
        <time>2024-12-01T12:55:36.418Z</time>
      </trkpt>
      <trkpt lat="43.62398" lon="7.06032">
        <ele>149.26001</ele>
        <time>2024-12-01T12:55:38.417Z</time>
      </trkpt>
      <trkpt lat="43.624" lon="7.06027">
        <ele>150.15</ele>
        <time>2024-12-01T12:55:40.420Z</time>
      </trkpt>
      <trkpt lat="43.62401" lon="7.06026">
        <ele>150.91</ele>
        <time>2024-12-01T12:55:42.424Z</time>
      </trkpt>
      <trkpt lat="43.62407" lon="7.0602">
        <ele>150.92</ele>
        <time>2024-12-01T12:55:44.429Z</time>
      </trkpt>
      <trkpt lat="43.6241" lon="7.06014">
        <ele>150.73999</ele>
        <time>2024-12-01T12:55:46.431Z</time>
      </trkpt>
      <trkpt lat="43.62409" lon="7.06008">
        <ele>150.6</ele>
        <time>2024-12-01T12:55:48.436Z</time>
      </trkpt>
      <trkpt lat="43.62416" lon="7.05979">
        <ele>151.41</ele>
        <time>2024-12-01T12:55:50.440Z</time>
      </trkpt>
      <trkpt lat="43.62418" lon="7.05972">
        <ele>152.28</ele>
        <time>2024-12-01T12:55:52.444Z</time>
      </trkpt>
      <trkpt lat="43.6242" lon="7.05963">
        <ele>152.98999</ele>
        <time>2024-12-01T12:55:54.447Z</time>
      </trkpt>
      <trkpt lat="43.62421" lon="7.05954">
        <ele>151.62</ele>
        <time>2024-12-01T12:55:56.451Z</time>
      </trkpt>
      <trkpt lat="43.62422" lon="7.05948">
        <ele>150.51001</ele>
        <time>2024-12-01T12:55:58.459Z</time>
      </trkpt>
      <trkpt lat="43.62421" lon="7.05945">
        <ele>150.2</ele>
        <time>2024-12-01T12:56:00.460Z</time>
      </trkpt>
      <trkpt lat="43.6242" lon="7.05941">
        <ele>150.26001</ele>
        <time>2024-12-01T12:56:02.463Z</time>
      </trkpt>
      <trkpt lat="43.62419" lon="7.05936">
        <ele>150.26001</ele>
        <time>2024-12-01T12:56:04.467Z</time>
      </trkpt>
      <trkpt lat="43.62418" lon="7.05923">
        <ele>150.17</ele>
        <time>2024-12-01T12:56:08.473Z</time>
      </trkpt>
      <trkpt lat="43.62418" lon="7.05917">
        <ele>149.07</ele>
        <time>2024-12-01T12:56:10.479Z</time>
      </trkpt>
      <trkpt lat="43.62417" lon="7.05915">
        <ele>149.01999</ele>
        <time>2024-12-01T12:57:07.199Z</time>
      </trkpt>
      <trkpt lat="43.62417" lon="7.05916">
        <ele>150.1</ele>
        <time>2024-12-01T12:57:08.257Z</time>
      </trkpt>
      <trkpt lat="43.62429" lon="7.05911">
        <ele>150.26001</ele>
        <time>2024-12-01T12:57:11.235Z</time>
      </trkpt>
      <trkpt lat="43.62436" lon="7.05908">
        <ele>150.63</ele>
        <time>2024-12-01T12:57:13.205Z</time>
      </trkpt>
      <trkpt lat="43.62444" lon="7.05906">
        <ele>150.86</ele>
        <time>2024-12-01T12:57:15.209Z</time>
      </trkpt>
      <trkpt lat="43.62452" lon="7.05907">
        <ele>150.22</ele>
        <time>2024-12-01T12:57:17.213Z</time>
      </trkpt>
      <trkpt lat="43.62459" lon="7.05907">
        <ele>149.73999</ele>
        <time>2024-12-01T12:57:18.272Z</time>
      </trkpt>
      <trkpt lat="43.62464" lon="7.05907">
        <ele>149.91</ele>
        <time>2024-12-01T12:57:21.222Z</time>
      </trkpt>
      <trkpt lat="43.62472" lon="7.05905">
        <ele>150.01001</ele>
        <time>2024-12-01T12:57:22.288Z</time>
      </trkpt>
      <trkpt lat="43.62476" lon="7.05904">
        <ele>150.26999</ele>
        <time>2024-12-01T12:57:25.226Z</time>
      </trkpt>
      <trkpt lat="43.62483" lon="7.059">
        <ele>150.34</ele>
        <time>2024-12-01T12:57:27.232Z</time>
      </trkpt>
      <trkpt lat="43.62488" lon="7.05898">
        <ele>150.36</ele>
        <time>2024-12-01T12:57:29.236Z</time>
      </trkpt>
      <trkpt lat="43.62489" lon="7.05897">
        <ele>150.61</ele>
        <time>2024-12-01T12:57:31.241Z</time>
      </trkpt>
      <trkpt lat="43.62496" lon="7.05891">
        <ele>150.87</ele>
        <time>2024-12-01T12:57:33.243Z</time>
      </trkpt>
      <trkpt lat="43.625" lon="7.05889">
        <ele>150.91</ele>
        <time>2024-12-01T12:57:35.247Z</time>
      </trkpt>
      <trkpt lat="43.62502" lon="7.05888">
        <ele>151.14</ele>
        <time>2024-12-01T12:57:37.254Z</time>
      </trkpt>
      <trkpt lat="43.6252" lon="7.0588">
        <ele>150.69</ele>
        <time>2024-12-01T12:57:38.340Z</time>
      </trkpt>
      <trkpt lat="43.6253" lon="7.05876">
        <ele>150.84</ele>
        <time>2024-12-01T12:57:41.257Z</time>
      </trkpt>
      <trkpt lat="43.62534" lon="7.05873">
        <ele>149.62</ele>
        <time>2024-12-01T12:57:43.263Z</time>
      </trkpt>
      <trkpt lat="43.62538" lon="7.0587">
        <ele>149.92</ele>
        <time>2024-12-01T12:57:45.267Z</time>
      </trkpt>
      <trkpt lat="43.6254" lon="7.05867">
        <ele>150.22</ele>
        <time>2024-12-01T12:57:47.271Z</time>
      </trkpt>
      <trkpt lat="43.62543" lon="7.05863">
        <ele>150.66</ele>
        <time>2024-12-01T12:57:49.268Z</time>
      </trkpt>
      <trkpt lat="43.62546" lon="7.0586">
        <ele>151.19</ele>
        <time>2024-12-01T12:57:51.277Z</time>
      </trkpt>
      <trkpt lat="43.62551" lon="7.05856">
        <ele>151.73999</ele>
        <time>2024-12-01T12:57:53.166Z</time>
      </trkpt>
      <trkpt lat="43.62557" lon="7.05851">
        <ele>151.9</ele>
        <time>2024-12-01T12:57:55.285Z</time>
      </trkpt>
      <trkpt lat="43.62561" lon="7.05845">
        <ele>152.26001</ele>
        <time>2024-12-01T12:57:57.291Z</time>
      </trkpt>
      <trkpt lat="43.62564" lon="7.0584">
        <ele>152.59</ele>
        <time>2024-12-01T12:57:59.295Z</time>
      </trkpt>
      <trkpt lat="43.62568" lon="7.05834">
        <ele>152.3</ele>
        <time>2024-12-01T12:58:01.276Z</time>
      </trkpt>
      <trkpt lat="43.62571" lon="7.0583">
        <ele>151.48001</ele>
        <time>2024-12-01T12:58:02.329Z</time>
      </trkpt>
      <trkpt lat="43.62575" lon="7.05827">
        <ele>151.23999</ele>
        <time>2024-12-01T12:58:04.328Z</time>
      </trkpt>
      <trkpt lat="43.62582" lon="7.05825">
        <ele>153.3</ele>
        <time>2024-12-01T12:58:06.328Z</time>
      </trkpt>
      <trkpt lat="43.62588" lon="7.05823">
        <ele>153.8</ele>
        <time>2024-12-01T12:58:08.336Z</time>
      </trkpt>
      <trkpt lat="43.62593" lon="7.0582">
        <ele>154.3</ele>
        <time>2024-12-01T12:58:10.332Z</time>
      </trkpt>
      <trkpt lat="43.626" lon="7.05815">
        <ele>154.8</ele>
        <time>2024-12-01T12:58:11.998Z</time>
      </trkpt>
      <trkpt lat="43.62605" lon="7.05811">
        <ele>155.4</ele>
        <time>2024-12-01T12:58:15.323Z</time>
      </trkpt>
      <trkpt lat="43.62609" lon="7.05806">
        <ele>155.7</ele>
        <time>2024-12-01T12:58:16.338Z</time>
      </trkpt>
      <trkpt lat="43.62612" lon="7.05801">
        <ele>155.8</ele>
        <time>2024-12-01T12:58:18.289Z</time>
      </trkpt>
      <trkpt lat="43.62618" lon="7.05794">
        <ele>156.3</ele>
        <time>2024-12-01T12:58:20.346Z</time>
      </trkpt>
      <trkpt lat="43.62622" lon="7.05789">
        <ele>156.5</ele>
        <time>2024-12-01T12:58:22.300Z</time>
      </trkpt>
      <trkpt lat="43.62627" lon="7.05785">
        <ele>157.1</ele>
        <time>2024-12-01T12:58:23.371Z</time>
      </trkpt>
      <trkpt lat="43.6263" lon="7.05779">
        <ele>157.5</ele>
        <time>2024-12-01T12:58:26.024Z</time>
      </trkpt>
      <trkpt lat="43.62632" lon="7.05771">
        <ele>157.3</ele>
        <time>2024-12-01T12:58:28.309Z</time>
      </trkpt>
      <trkpt lat="43.62635" lon="7.05764">
        <ele>157.3</ele>
        <time>2024-12-01T12:58:30.312Z</time>
      </trkpt>
      <trkpt lat="43.62639" lon="7.05755">
        <ele>157.4</ele>
        <time>2024-12-01T12:58:32.356Z</time>
      </trkpt>
      <trkpt lat="43.62646" lon="7.05746">
        <ele>157.4</ele>
        <time>2024-12-01T12:58:34.320Z</time>
      </trkpt>
      <trkpt lat="43.62653" lon="7.05741">
        <ele>157.8</ele>
        <time>2024-12-01T12:58:36.006Z</time>
      </trkpt>
      <trkpt lat="43.6266" lon="7.05737">
        <ele>158.1</ele>
        <time>2024-12-01T12:58:38.328Z</time>
      </trkpt>
      <trkpt lat="43.62663" lon="7.05732">
        <ele>150.32</ele>
        <time>2024-12-01T12:58:40.333Z</time>
      </trkpt>
      <trkpt lat="43.62668" lon="7.05731">
        <ele>158.8</ele>
        <time>2024-12-01T12:58:42.363Z</time>
      </trkpt>
      <trkpt lat="43.62674" lon="7.05731">
        <ele>159.4</ele>
        <time>2024-12-01T12:58:44.339Z</time>
      </trkpt>
      <trkpt lat="43.62678" lon="7.0573">
        <ele>159.8</ele>
      </trkpt>
      <trkpt lat="43.6268" lon="7.05729">
        <ele>160</ele>
        <time>2024-12-01T12:58:46.341Z</time>
      </trkpt>
      <trkpt lat="43.62683" lon="7.05728">
        <ele>160.2</ele>
        <time>2024-12-01T12:58:48.346Z</time>
      </trkpt>
      <trkpt lat="43.62686" lon="7.05727">
        <ele>149.98001</ele>
        <time>2024-12-01T12:58:50.349Z</time>
      </trkpt>
      <trkpt lat="43.62691" lon="7.05729">
        <ele>150.64</ele>
        <time>2024-12-01T12:58:52.353Z</time>
      </trkpt>
      <trkpt lat="43.62699" lon="7.05732">
        <ele>151.43</ele>
        <time>2024-12-01T12:58:54.356Z</time>
      </trkpt>
      <trkpt lat="43.62706" lon="7.05735">
        <ele>152.3</ele>
        <time>2024-12-01T12:58:56.362Z</time>
      </trkpt>
      <trkpt lat="43.62713" lon="7.05738">
        <ele>152.93</ele>
        <time>2024-12-01T12:58:58.363Z</time>
      </trkpt>
      <trkpt lat="43.62718" lon="7.05739">
        <ele>153.5</ele>
        <time>2024-12-01T12:59:00.367Z</time>
      </trkpt>
      <trkpt lat="43.62722" lon="7.05739">
        <ele>155.89</ele>
        <time>2024-12-01T12:59:12.078Z</time>
      </trkpt>
      <trkpt lat="43.62725" lon="7.05741">
        <ele>155.82</ele>
        <time>2024-12-01T12:59:15.043Z</time>
      </trkpt>
      <trkpt lat="43.62731" lon="7.05746">
        <ele>156.5</ele>
        <time>2024-12-01T12:59:16.976Z</time>
      </trkpt>
      <trkpt lat="43.62738" lon="7.05751">
        <ele>157.33</ele>
        <time>2024-12-01T12:59:19.056Z</time>
      </trkpt>
      <trkpt lat="43.62743" lon="7.05754">
        <ele>158.17</ele>
        <time>2024-12-01T12:59:20.085Z</time>
      </trkpt>
      <trkpt lat="43.62749" lon="7.05754">
        <ele>158.57</ele>
        <time>2024-12-01T12:59:23.012Z</time>
      </trkpt>
      <trkpt lat="43.62753" lon="7.05753">
        <ele>159.84</ele>
        <time>2024-12-01T12:59:25.017Z</time>
      </trkpt>
      <trkpt lat="43.62757" lon="7.05752">
        <ele>160.32</ele>
        <time>2024-12-01T12:59:26.098Z</time>
      </trkpt>
      <trkpt lat="43.62761" lon="7.0575">
        <ele>160.73001</ele>
        <time>2024-12-01T12:59:29.043Z</time>
      </trkpt>
      <trkpt lat="43.62766" lon="7.05747">
        <ele>161.67</ele>
        <time>2024-12-01T12:59:30.104Z</time>
      </trkpt>
      <trkpt lat="43.62769" lon="7.05743">
        <ele>162.63</ele>
        <time>2024-12-01T12:59:33.032Z</time>
      </trkpt>
      <trkpt lat="43.62773" lon="7.05741">
        <ele>163.23999</ele>
        <time>2024-12-01T12:59:35.038Z</time>
      </trkpt>
      <trkpt lat="43.62778" lon="7.05737">
        <ele>161.64</ele>
        <time>2024-12-01T12:59:36.637Z</time>
      </trkpt>
      <trkpt lat="43.62782" lon="7.05734">
        <ele>159.88</ele>
        <time>2024-12-01T12:59:39.067Z</time>
      </trkpt>
      <trkpt lat="43.62787" lon="7.05731">
        <ele>158.42</ele>
        <time>2024-12-01T12:59:40.113Z</time>
      </trkpt>
      <trkpt lat="43.62791" lon="7.05728">
        <ele>157.73001</ele>
        <time>2024-12-01T12:59:43.062Z</time>
      </trkpt>
      <trkpt lat="43.62797" lon="7.05724">
        <ele>158.36</ele>
        <time>2024-12-01T12:59:44.117Z</time>
      </trkpt>
      <trkpt lat="43.62804" lon="7.0572">
        <ele>158.76001</ele>
        <time>2024-12-01T12:59:47.103Z</time>
      </trkpt>
      <trkpt lat="43.62811" lon="7.05716">
        <ele>159.19</ele>
        <time>2024-12-01T12:59:48.116Z</time>
      </trkpt>
      <trkpt lat="43.6282" lon="7.05712">
        <ele>159.68</ele>
        <time>2024-12-01T12:59:51.109Z</time>
      </trkpt>
      <trkpt lat="43.6283" lon="7.05708">
        <ele>159.17</ele>
        <time>2024-12-01T12:59:53.057Z</time>
      </trkpt>
      <trkpt lat="43.62839" lon="7.05704">
        <ele>159.43</ele>
        <time>2024-12-01T12:59:54.710Z</time>
      </trkpt>
      <trkpt lat="43.62848" lon="7.05701">
        <ele>159.57</ele>
        <time>2024-12-01T12:59:57.112Z</time>
      </trkpt>
      <trkpt lat="43.62857" lon="7.05696">
        <ele>159.76001</ele>
        <time>2024-12-01T12:59:58.659Z</time>
      </trkpt>
      <trkpt lat="43.62865" lon="7.0569">
        <ele>160.32</ele>
        <time>2024-12-01T13:00:00.689Z</time>
      </trkpt>
      <trkpt lat="43.6287" lon="7.05682">
        <ele>160.95999</ele>
        <time>2024-12-01T13:00:03.087Z</time>
      </trkpt>
      <trkpt lat="43.62873" lon="7.05671">
        <ele>161.67</ele>
        <time>2024-12-01T13:00:05.090Z</time>
      </trkpt>
      <trkpt lat="43.62878" lon="7.05662">
        <ele>162.45</ele>
        <time>2024-12-01T13:00:07.097Z</time>
      </trkpt>
      <trkpt lat="43.62882" lon="7.05654">
        <ele>162.98999</ele>
        <time>2024-12-01T13:00:09.098Z</time>
      </trkpt>
      <trkpt lat="43.62885" lon="7.05647">
        <ele>163.88</ele>
        <time>2024-12-01T13:00:11.011Z</time>
      </trkpt>
      <trkpt lat="43.62888" lon="7.05639">
        <ele>164.79001</ele>
        <time>2024-12-01T13:00:13.106Z</time>
      </trkpt>
      <trkpt lat="43.62891" lon="7.0563">
        <ele>163.33</ele>
        <time>2024-12-01T13:00:15.109Z</time>
      </trkpt>
      <trkpt lat="43.62893" lon="7.05619">
        <ele>164.72</ele>
        <time>2024-12-01T13:00:17.115Z</time>
      </trkpt>
      <trkpt lat="43.62894" lon="7.05611">
        <ele>166.25</ele>
        <time>2024-12-01T13:00:19.117Z</time>
      </trkpt>
      <trkpt lat="43.62896" lon="7.05605">
        <ele>167.63</ele>
        <time>2024-12-01T13:00:21.123Z</time>
      </trkpt>
      <trkpt lat="43.62899" lon="7.05595">
        <ele>168.89</ele>
        <time>2024-12-01T13:00:23.124Z</time>
      </trkpt>
      <trkpt lat="43.62901" lon="7.05586">
        <ele>170.11</ele>
        <time>2024-12-01T13:00:25.131Z</time>
      </trkpt>
      <trkpt lat="43.62903" lon="7.05577">
        <ele>171.18</ele>
        <time>2024-12-01T13:00:27.133Z</time>
      </trkpt>
      <trkpt lat="43.62905" lon="7.05569">
        <ele>169.58</ele>
        <time>2024-12-01T13:00:29.137Z</time>
      </trkpt>
      <trkpt lat="43.62906" lon="7.0556">
        <ele>167.86</ele>
        <time>2024-12-01T13:00:31.139Z</time>
      </trkpt>
      <trkpt lat="43.62906" lon="7.05553">
        <ele>169.16</ele>
        <time>2024-12-01T13:00:33.144Z</time>
      </trkpt>
      <trkpt lat="43.62907" lon="7.05542">
        <ele>170.48999</ele>
        <time>2024-12-01T13:00:35.150Z</time>
      </trkpt>
      <trkpt lat="43.62906" lon="7.05533">
        <ele>171.58</ele>
        <time>2024-12-01T13:00:37.150Z</time>
      </trkpt>
      <trkpt lat="43.62906" lon="7.05523">
        <ele>172.57</ele>
        <time>2024-12-01T13:00:39.155Z</time>
      </trkpt>
      <trkpt lat="43.62907" lon="7.05518">
        <ele>171.73001</ele>
        <time>2024-12-01T13:00:41.160Z</time>
      </trkpt>
      <trkpt lat="43.62909" lon="7.05511">
        <ele>172.93</ele>
        <time>2024-12-01T13:00:43.021Z</time>
      </trkpt>
      <trkpt lat="43.62912" lon="7.05507">
        <ele>173.84</ele>
        <time>2024-12-01T13:00:45.167Z</time>
      </trkpt>
      <trkpt lat="43.62917" lon="7.05503">
        <ele>174.8</ele>
        <time>2024-12-01T13:00:47.169Z</time>
      </trkpt>
      <trkpt lat="43.62924" lon="7.05498">
        <ele>175.01999</ele>
        <time>2024-12-01T13:00:48.838Z</time>
      </trkpt>
      <trkpt lat="43.62931" lon="7.05491">
        <ele>175.94</ele>
        <time>2024-12-01T13:00:51.179Z</time>
      </trkpt>
      <trkpt lat="43.62937" lon="7.05483">
        <ele>176.7</ele>
        <time>2024-12-01T13:00:53.182Z</time>
      </trkpt>
      <trkpt lat="43.62942" lon="7.05476">
        <ele>177.35</ele>
        <time>2024-12-01T13:00:54.817Z</time>
      </trkpt>
      <trkpt lat="43.62946" lon="7.05469">
        <ele>176.09</ele>
        <time>2024-12-01T13:00:56.770Z</time>
      </trkpt>
      <trkpt lat="43.6295" lon="7.05461">
        <ele>177.05</ele>
        <time>2024-12-01T13:00:58.825Z</time>
      </trkpt>
      <trkpt lat="43.62955" lon="7.0545">
        <ele>177.66</ele>
        <time>2024-12-01T13:01:00.843Z</time>
      </trkpt>
      <trkpt lat="43.6296" lon="7.05438">
        <ele>177.8</ele>
        <time>2024-12-01T13:01:02.831Z</time>
      </trkpt>
      <trkpt lat="43.62964" lon="7.05426">
        <ele>177.86</ele>
        <time>2024-12-01T13:01:04.840Z</time>
      </trkpt>
      <trkpt lat="43.62967" lon="7.05412">
        <ele>178.05</ele>
        <time>2024-12-01T13:01:07.208Z</time>
      </trkpt>
      <trkpt lat="43.6297" lon="7.05402">
        <ele>177.48999</ele>
        <time>2024-12-01T13:01:08.833Z</time>
      </trkpt>
      <trkpt lat="43.62973" lon="7.05393">
        <ele>177.61</ele>
        <time>2024-12-01T13:01:10.804Z</time>
      </trkpt>
      <trkpt lat="43.62976" lon="7.05381">
        <ele>177.83</ele>
        <time>2024-12-01T13:01:12.873Z</time>
      </trkpt>
      <trkpt lat="43.6298" lon="7.05368">
        <ele>177.6</ele>
        <time>2024-12-01T13:01:15.223Z</time>
      </trkpt>
      <trkpt lat="43.62983" lon="7.05359">
        <ele>177.9</ele>
        <time>2024-12-01T13:01:17.228Z</time>
      </trkpt>
      <trkpt lat="43.62987" lon="7.05351">
        <ele>178.11</ele>
        <time>2024-12-01T13:01:19.232Z</time>
      </trkpt>
      <trkpt lat="43.62991" lon="7.05343">
        <ele>178.42</ele>
        <time>2024-12-01T13:01:20.831Z</time>
      </trkpt>
      <trkpt lat="43.62995" lon="7.05337">
        <ele>178.01999</ele>
        <time>2024-12-01T13:01:22.910Z</time>
      </trkpt>
      <trkpt lat="43.62999" lon="7.05329">
        <ele>178.26001</ele>
        <time>2024-12-01T13:01:24.329Z</time>
      </trkpt>
      <trkpt lat="43.63002" lon="7.05322">
        <ele>178.47</ele>
        <time>2024-12-01T13:01:26.851Z</time>
      </trkpt>
      <trkpt lat="43.63006" lon="7.05313">
        <ele>178.45</ele>
        <time>2024-12-01T13:01:28.359Z</time>
      </trkpt>
      <trkpt lat="43.6301" lon="7.05302">
        <ele>178.13</ele>
        <time>2024-12-01T13:01:30.335Z</time>
      </trkpt>
      <trkpt lat="43.63012" lon="7.05292">
        <ele>178.63</ele>
        <time>2024-12-01T13:01:32.370Z</time>
      </trkpt>
      <trkpt lat="43.63013" lon="7.05282">
        <ele>178.98999</ele>
        <time>2024-12-01T13:01:35.261Z</time>
      </trkpt>
      <trkpt lat="43.63015" lon="7.05275">
        <ele>179.39</ele>
        <time>2024-12-01T13:01:36.353Z</time>
      </trkpt>
      <trkpt lat="43.63016" lon="7.05266">
        <ele>179.93</ele>
        <time>2024-12-01T13:01:38.356Z</time>
      </trkpt>
      <trkpt lat="43.63016" lon="7.0526">
        <ele>180.51001</ele>
        <time>2024-12-01T13:01:41.272Z</time>
      </trkpt>
      <trkpt lat="43.63014" lon="7.05255">
        <ele>181.11</ele>
        <time>2024-12-01T13:01:43.276Z</time>
      </trkpt>
      <trkpt lat="43.63013" lon="7.05244">
        <ele>180.79001</ele>
        <time>2024-12-01T13:01:45.279Z</time>
      </trkpt>
      <trkpt lat="43.63011" lon="7.05233">
        <ele>181.41</ele>
        <time>2024-12-01T13:01:47.284Z</time>
      </trkpt>
      <trkpt lat="43.63008" lon="7.05222">
        <ele>182.01001</ele>
        <time>2024-12-01T13:01:49.286Z</time>
      </trkpt>
      <trkpt lat="43.63006" lon="7.05213">
        <ele>182.3</ele>
        <time>2024-12-01T13:01:51.290Z</time>
      </trkpt>
      <trkpt lat="43.63002" lon="7.05204">
        <ele>182.58</ele>
        <time>2024-12-01T13:01:53.294Z</time>
      </trkpt>
      <trkpt lat="43.62998" lon="7.05193">
        <ele>182.78</ele>
        <time>2024-12-01T13:01:55.299Z</time>
      </trkpt>
      <trkpt lat="43.62995" lon="7.05183">
        <ele>183.07</ele>
        <time>2024-12-01T13:01:57.304Z</time>
      </trkpt>
      <trkpt lat="43.62991" lon="7.05173">
        <ele>183.3</ele>
        <time>2024-12-01T13:01:59.304Z</time>
      </trkpt>
      <trkpt lat="43.62986" lon="7.05158">
        <ele>183.4</ele>
        <time>2024-12-01T13:02:01.309Z</time>
      </trkpt>
      <trkpt lat="43.62985" lon="7.05144">
        <ele>183.39</ele>
        <time>2024-12-01T13:02:03.314Z</time>
      </trkpt>
      <trkpt lat="43.62986" lon="7.05129">
        <ele>183.48999</ele>
        <time>2024-12-01T13:02:05.316Z</time>
      </trkpt>
      <trkpt lat="43.62986" lon="7.05112">
        <ele>183.55</ele>
        <time>2024-12-01T13:02:07.320Z</time>
      </trkpt>
      <trkpt lat="43.62988" lon="7.05095">
        <ele>183.6</ele>
        <time>2024-12-01T13:02:08.283Z</time>
      </trkpt>
      <trkpt lat="43.62991" lon="7.05082">
        <ele>183.63</ele>
        <time>2024-12-01T13:02:10.288Z</time>
      </trkpt>
      <trkpt lat="43.62993" lon="7.05068">
        <ele>183.63</ele>
        <time>2024-12-01T13:02:12.289Z</time>
      </trkpt>
      <trkpt lat="43.62994" lon="7.05054">
        <ele>183.58</ele>
        <time>2024-12-01T13:02:14.369Z</time>
      </trkpt>
      <trkpt lat="43.62994" lon="7.0504">
        <ele>183.48001</ele>
        <time>2024-12-01T13:02:16.299Z</time>
      </trkpt>
      <trkpt lat="43.62994" lon="7.05027">
        <ele>183.41</ele>
        <time>2024-12-01T13:02:18.334Z</time>
      </trkpt>
      <trkpt lat="43.62998" lon="7.05012">
        <ele>183.32</ele>
        <time>2024-12-01T13:02:20.374Z</time>
      </trkpt>
      <trkpt lat="43.63004" lon="7.04997">
        <ele>183.25</ele>
        <time>2024-12-01T13:02:22.359Z</time>
      </trkpt>
      <trkpt lat="43.6301" lon="7.04981">
        <ele>183.12</ele>
        <time>2024-12-01T13:02:24.364Z</time>
      </trkpt>
      <trkpt lat="43.63014" lon="7.04964">
        <ele>183.06</ele>
        <time>2024-12-01T13:02:26.384Z</time>
      </trkpt>
      <trkpt lat="43.63018" lon="7.04949">
        <ele>183.01999</ele>
        <time>2024-12-01T13:02:28.397Z</time>
      </trkpt>
      <trkpt lat="43.63023" lon="7.04934">
        <ele>182.95</ele>
        <time>2024-12-01T13:02:30.403Z</time>
      </trkpt>
      <trkpt lat="43.63029" lon="7.04921">
        <ele>182.87</ele>
        <time>2024-12-01T13:02:32.361Z</time>
      </trkpt>
      <trkpt lat="43.63036" lon="7.04909">
        <ele>182.78</ele>
        <time>2024-12-01T13:02:34.408Z</time>
      </trkpt>
      <trkpt lat="43.63043" lon="7.04899">
        <ele>182.68</ele>
        <time>2024-12-01T13:02:36.384Z</time>
      </trkpt>
      <trkpt lat="43.63049" lon="7.04886">
        <ele>182.57</ele>
        <time>2024-12-01T13:02:38.397Z</time>
      </trkpt>
      <trkpt lat="43.63052" lon="7.04873">
        <ele>182.45999</ele>
        <time>2024-12-01T13:02:40.420Z</time>
      </trkpt>
      <trkpt lat="43.63053" lon="7.04861">
        <ele>182.29001</ele>
        <time>2024-12-01T13:02:41.985Z</time>
      </trkpt>
      <trkpt lat="43.6305" lon="7.04849">
        <ele>182.12</ele>
        <time>2024-12-01T13:02:43.998Z</time>
      </trkpt>
      <trkpt lat="43.63044" lon="7.04839">
        <ele>181.95999</ele>
        <time>2024-12-01T13:02:46.432Z</time>
      </trkpt>
      <trkpt lat="43.63037" lon="7.04828">
        <ele>181.75</ele>
        <time>2024-12-01T13:02:48.002Z</time>
      </trkpt>
      <trkpt lat="43.63033" lon="7.04816">
        <ele>181.51001</ele>
        <time>2024-12-01T13:02:49.991Z</time>
      </trkpt>
      <trkpt lat="43.6303" lon="7.04804">
        <ele>181.22</ele>
        <time>2024-12-01T13:02:52.442Z</time>
      </trkpt>
      <trkpt lat="43.63029" lon="7.04792">
        <ele>180.94</ele>
        <time>2024-12-01T13:02:54.446Z</time>
      </trkpt>
      <trkpt lat="43.63028" lon="7.0478">
        <ele>180.85</ele>
        <time>2024-12-01T13:02:56.450Z</time>
      </trkpt>
      <trkpt lat="43.63028" lon="7.04768">
        <ele>180.95</ele>
        <time>2024-12-01T13:02:58.453Z</time>
      </trkpt>
      <trkpt lat="43.63027" lon="7.04756">
        <ele>180.97</ele>
        <time>2024-12-01T13:03:00.456Z</time>
      </trkpt>
      <trkpt lat="43.63026" lon="7.04744">
        <ele>181.04001</ele>
        <time>2024-12-01T13:03:02.459Z</time>
      </trkpt>
      <trkpt lat="43.63025" lon="7.04733">
        <ele>181.07</ele>
        <time>2024-12-01T13:03:04.464Z</time>
      </trkpt>
      <trkpt lat="43.63024" lon="7.04724">
        <ele>180.75</ele>
        <time>2024-12-01T13:03:06.467Z</time>
      </trkpt>
      <trkpt lat="43.63022" lon="7.04717">
        <ele>180.8</ele>
        <time>2024-12-01T13:03:08.471Z</time>
      </trkpt>
      <trkpt lat="43.6302" lon="7.04705">
        <ele>179.98999</ele>
        <time>2024-12-01T13:03:10.478Z</time>
      </trkpt>
      <trkpt lat="43.63016" lon="7.04693">
        <ele>180.26999</ele>
        <time>2024-12-01T13:03:12.478Z</time>
      </trkpt>
      <trkpt lat="43.63014" lon="7.0468">
        <ele>177.97</ele>
        <time>2024-12-01T13:03:14.485Z</time>
      </trkpt>
      <trkpt lat="43.6301" lon="7.04669">
        <ele>178.18</ele>
        <time>2024-12-01T13:03:16.487Z</time>
      </trkpt>
      <trkpt lat="43.63006" lon="7.04658">
        <ele>178.47</ele>
        <time>2024-12-01T13:03:18.488Z</time>
      </trkpt>
      <trkpt lat="43.63001" lon="7.04648">
        <ele>178.47</ele>
        <time>2024-12-01T13:03:20.493Z</time>
      </trkpt>
      <trkpt lat="43.62995" lon="7.0464">
        <ele>175.07</ele>
        <time>2024-12-01T13:03:22.498Z</time>
      </trkpt>
      <trkpt lat="43.6299" lon="7.04632">
        <ele>175.63</ele>
        <time>2024-12-01T13:03:24.499Z</time>
      </trkpt>
      <trkpt lat="43.62987" lon="7.04623">
        <ele>175.98001</ele>
        <time>2024-12-01T13:03:26.504Z</time>
      </trkpt>
      <trkpt lat="43.62982" lon="7.04615">
        <ele>173.95</ele>
        <time>2024-12-01T13:03:28.508Z</time>
      </trkpt>
      <trkpt lat="43.62976" lon="7.04606">
        <ele>174.6</ele>
        <time>2024-12-01T13:03:30.509Z</time>
      </trkpt>
      <trkpt lat="43.62969" lon="7.04598">
        <ele>175.12</ele>
        <time>2024-12-01T13:03:32.049Z</time>
      </trkpt>
      <trkpt lat="43.62962" lon="7.0459">
        <ele>175.47</ele>
        <time>2024-12-01T13:03:34.518Z</time>
      </trkpt>
      <trkpt lat="43.62954" lon="7.04582">
        <ele>174</ele>
        <time>2024-12-01T13:03:36.519Z</time>
      </trkpt>
      <trkpt lat="43.62944" lon="7.04575">
        <ele>174.53</ele>
        <time>2024-12-01T13:03:38.524Z</time>
      </trkpt>
      <trkpt lat="43.62936" lon="7.04569">
        <ele>172.91</ele>
        <time>2024-12-01T13:03:40.528Z</time>
      </trkpt>
      <trkpt lat="43.62929" lon="7.04563">
        <ele>173.37</ele>
        <time>2024-12-01T13:03:42.531Z</time>
      </trkpt>
      <trkpt lat="43.62923" lon="7.04555">
        <ele>173.31</ele>
        <time>2024-12-01T13:03:44.535Z</time>
      </trkpt>
      <trkpt lat="43.62918" lon="7.04546">
        <ele>173.47</ele>
        <time>2024-12-01T13:03:46.538Z</time>
      </trkpt>
      <trkpt lat="43.62914" lon="7.04535">
        <ele>173.53</ele>
        <time>2024-12-01T13:03:48.540Z</time>
      </trkpt>
      <trkpt lat="43.62913" lon="7.04525">
        <ele>173.66</ele>
        <time>2024-12-01T13:03:50.545Z</time>
      </trkpt>
      <trkpt lat="43.62912" lon="7.04519">
        <ele>173.78</ele>
        <time>2024-12-01T13:03:52.548Z</time>
      </trkpt>
      <trkpt lat="43.62907" lon="7.04513">
        <ele>174.03</ele>
        <time>2024-12-01T13:03:54.553Z</time>
      </trkpt>
      <trkpt lat="43.62902" lon="7.04508">
        <ele>174.26999</ele>
        <time>2024-12-01T13:03:56.556Z</time>
      </trkpt>
      <trkpt lat="43.62899" lon="7.04503">
        <ele>174.35</ele>
        <time>2024-12-01T13:03:58.560Z</time>
      </trkpt>
      <trkpt lat="43.62897" lon="7.04498">
        <ele>174.43</ele>
        <time>2024-12-01T13:04:00.563Z</time>
      </trkpt>
      <trkpt lat="43.62893" lon="7.04493">
        <ele>174.61</ele>
        <time>2024-12-01T13:04:02.082Z</time>
      </trkpt>
      <trkpt lat="43.6289" lon="7.04485">
        <ele>174.78</ele>
        <time>2024-12-01T13:04:04.569Z</time>
      </trkpt>
      <trkpt lat="43.62887" lon="7.04475">
        <ele>175.01999</ele>
        <time>2024-12-01T13:04:06.574Z</time>
      </trkpt>
      <trkpt lat="43.62888" lon="7.04466">
        <ele>175.14</ele>
        <time>2024-12-01T13:04:08.578Z</time>
      </trkpt>
      <trkpt lat="43.62891" lon="7.04462">
        <ele>175.22</ele>
        <time>2024-12-01T13:04:10.582Z</time>
      </trkpt>
      <trkpt lat="43.62894" lon="7.04459">
        <ele>175.28</ele>
        <time>2024-12-01T13:04:12.584Z</time>
      </trkpt>
      <trkpt lat="43.62897" lon="7.04458">
        <ele>175.34</ele>
        <time>2024-12-01T13:04:14.590Z</time>
      </trkpt>
      <trkpt lat="43.62901" lon="7.04455">
        <ele>175.38</ele>
        <time>2024-12-01T13:04:16.591Z</time>
      </trkpt>
      <trkpt lat="43.62904" lon="7.04451">
        <ele>175.48999</ele>
        <time>2024-12-01T13:04:18.594Z</time>
      </trkpt>
      <trkpt lat="43.62908" lon="7.04447">
        <ele>175.55</ele>
        <time>2024-12-01T13:04:20.169Z</time>
      </trkpt>
      <trkpt lat="43.62909" lon="7.04443">
        <ele>175.57</ele>
        <time>2024-12-01T13:04:22.602Z</time>
      </trkpt>
      <trkpt lat="43.62906" lon="7.04444">
        <ele>175.86</ele>
        <time>2024-12-01T13:04:29.832Z</time>
      </trkpt>
      <trkpt lat="43.62906" lon="7.04443">
        <ele>175.88</ele>
        <time>2024-12-01T13:04:31.821Z</time>
      </trkpt>
      <trkpt lat="43.62906" lon="7.04437">
        <ele>176.04001</ele>
        <time>2024-12-01T13:04:33.787Z</time>
      </trkpt>
      <trkpt lat="43.62906" lon="7.04429">
        <ele>176.25</ele>
        <time>2024-12-01T13:04:34.859Z</time>
      </trkpt>
      <trkpt lat="43.62905" lon="7.04423">
        <ele>175.82</ele>
        <time>2024-12-01T13:04:37.840Z</time>
      </trkpt>
      <trkpt lat="43.62906" lon="7.04417">
        <ele>176.18</ele>
        <time>2024-12-01T13:04:38.878Z</time>
      </trkpt>
      <trkpt lat="43.62906" lon="7.0441">
        <ele>176.44</ele>
        <time>2024-12-01T13:04:41.851Z</time>
      </trkpt>
      <trkpt lat="43.62905" lon="7.04404">
        <ele>176.87</ele>
        <time>2024-12-01T13:04:42.875Z</time>
      </trkpt>
      <trkpt lat="43.62907" lon="7.04398">
        <ele>177.12</ele>
        <time>2024-12-01T13:04:45.858Z</time>
      </trkpt>
      <trkpt lat="43.62907" lon="7.04391">
        <ele>177.61</ele>
        <time>2024-12-01T13:04:47.862Z</time>
      </trkpt>
      <trkpt lat="43.62909" lon="7.04385">
        <ele>177.38</ele>
        <time>2024-12-01T13:04:49.865Z</time>
      </trkpt>
      <trkpt lat="43.62913" lon="7.04377">
        <ele>177.62</ele>
        <time>2024-12-01T13:04:51.868Z</time>
      </trkpt>
      <trkpt lat="43.62915" lon="7.04368">
        <ele>177.23001</ele>
        <time>2024-12-01T13:04:53.872Z</time>
      </trkpt>
      <trkpt lat="43.62918" lon="7.0436">
        <ele>177.56</ele>
        <time>2024-12-01T13:04:55.877Z</time>
      </trkpt>
      <trkpt lat="43.62919" lon="7.04352">
        <ele>177.98001</ele>
        <time>2024-12-01T13:04:57.880Z</time>
      </trkpt>
      <trkpt lat="43.62922" lon="7.04343">
        <ele>177.83</ele>
        <time>2024-12-01T13:04:59.883Z</time>
      </trkpt>
      <trkpt lat="43.62924" lon="7.04335">
        <ele>178.28</ele>
        <time>2024-12-01T13:05:00.920Z</time>
      </trkpt>
      <trkpt lat="43.62924" lon="7.04328">
        <ele>178.76999</ele>
        <time>2024-12-01T13:05:03.892Z</time>
      </trkpt>
      <trkpt lat="43.62927" lon="7.04321">
        <ele>179.55</ele>
        <time>2024-12-01T13:05:05.893Z</time>
      </trkpt>
      <trkpt lat="43.6293" lon="7.04313">
        <ele>178.41</ele>
        <time>2024-12-01T13:05:07.897Z</time>
      </trkpt>
      <trkpt lat="43.62932" lon="7.04305">
        <ele>178.83</ele>
        <time>2024-12-01T13:05:09.901Z</time>
      </trkpt>
      <trkpt lat="43.62934" lon="7.04297">
        <ele>179.3</ele>
        <time>2024-12-01T13:05:11.903Z</time>
      </trkpt>
      <trkpt lat="43.62936" lon="7.04287">
        <ele>180.03</ele>
        <time>2024-12-01T13:05:13.907Z</time>
      </trkpt>
      <trkpt lat="43.62936" lon="7.0428">
        <ele>180.73001</ele>
        <time>2024-12-01T13:05:15.911Z</time>
      </trkpt>
      <trkpt lat="43.62938" lon="7.04274">
        <ele>180.15</ele>
        <time>2024-12-01T13:05:17.915Z</time>
      </trkpt>
      <trkpt lat="43.6294" lon="7.04266">
        <ele>180.70999</ele>
        <time>2024-12-01T13:05:19.535Z</time>
      </trkpt>
      <trkpt lat="43.62941" lon="7.04257">
        <ele>181.25</ele>
        <time>2024-12-01T13:05:21.917Z</time>
      </trkpt>
      <trkpt lat="43.62942" lon="7.04248">
        <ele>181.72</ele>
        <time>2024-12-01T13:05:23.927Z</time>
      </trkpt>
      <trkpt lat="43.62944" lon="7.04238">
        <ele>182.34</ele>
        <time>2024-12-01T13:05:25.928Z</time>
      </trkpt>
      <trkpt lat="43.62945" lon="7.0423">
        <ele>183.01999</ele>
        <time>2024-12-01T13:05:27.940Z</time>
      </trkpt>
      <trkpt lat="43.62946" lon="7.0422">
        <ele>183.68</ele>
        <time>2024-12-01T13:05:29.934Z</time>
      </trkpt>
      <trkpt lat="43.62947" lon="7.0421">
        <ele>184.4</ele>
        <time>2024-12-01T13:05:31.942Z</time>
      </trkpt>
      <trkpt lat="43.62948" lon="7.04202">
        <ele>184.82</ele>
        <time>2024-12-01T13:05:33.943Z</time>
      </trkpt>
      <trkpt lat="43.62949" lon="7.04193">
        <ele>184.31</ele>
        <time>2024-12-01T13:05:35.651Z</time>
      </trkpt>
      <trkpt lat="43.62951" lon="7.04184">
        <ele>184.19</ele>
        <time>2024-12-01T13:05:37.952Z</time>
      </trkpt>
      <trkpt lat="43.62952" lon="7.04175">
        <ele>183.89</ele>
        <time>2024-12-01T13:05:38.977Z</time>
      </trkpt>
      <trkpt lat="43.62953" lon="7.04166">
        <ele>184.44</ele>
        <time>2024-12-01T13:05:41.958Z</time>
      </trkpt>
      <trkpt lat="43.62953" lon="7.04157">
        <ele>184.88</ele>
        <time>2024-12-01T13:05:43.965Z</time>
      </trkpt>
      <trkpt lat="43.62954" lon="7.04147">
        <ele>185.33</ele>
        <time>2024-12-01T13:05:45.963Z</time>
      </trkpt>
      <trkpt lat="43.62955" lon="7.04136">
        <ele>185.73001</ele>
        <time>2024-12-01T13:05:47.970Z</time>
      </trkpt>
      <trkpt lat="43.62956" lon="7.04126">
        <ele>186.12</ele>
        <time>2024-12-01T13:05:49.972Z</time>
      </trkpt>
      <trkpt lat="43.62957" lon="7.04114">
        <ele>186.51999</ele>
        <time>2024-12-01T13:05:51.975Z</time>
      </trkpt>
      <trkpt lat="43.62959" lon="7.04101">
        <ele>186.81</ele>
        <time>2024-12-01T13:05:53.979Z</time>
      </trkpt>
      <trkpt lat="43.62958" lon="7.04088">
        <ele>187.08</ele>
        <time>2024-12-01T13:05:55.984Z</time>
      </trkpt>
      <trkpt lat="43.62956" lon="7.04074">
        <ele>187.36</ele>
        <time>2024-12-01T13:05:57.986Z</time>
      </trkpt>
      <trkpt lat="43.62954" lon="7.0406">
        <ele>187.7</ele>
        <time>2024-12-01T13:05:59.992Z</time>
      </trkpt>
      <trkpt lat="43.6295" lon="7.04051">
        <ele>188.01999</ele>
        <time>2024-12-01T13:06:01.992Z</time>
      </trkpt>
      <trkpt lat="43.62943" lon="7.04045">
        <ele>188.34</ele>
        <time>2024-12-01T13:06:03.994Z</time>
      </trkpt>
      <trkpt lat="43.62934" lon="7.04041">
        <ele>188.73001</ele>
        <time>2024-12-01T13:06:06Z</time>
      </trkpt>
      <trkpt lat="43.62925" lon="7.04039">
        <ele>189.05</ele>
        <time>2024-12-01T13:06:08.002Z</time>
      </trkpt>
      <trkpt lat="43.62916" lon="7.04035">
        <ele>189.34</ele>
        <time>2024-12-01T13:06:10.005Z</time>
      </trkpt>
      <trkpt lat="43.62911" lon="7.04029">
        <ele>189.54001</ele>
        <time>2024-12-01T13:06:12.012Z</time>
      </trkpt>
      <trkpt lat="43.62906" lon="7.04022">
        <ele>189.93</ele>
        <time>2024-12-01T13:06:14.014Z</time>
      </trkpt>
      <trkpt lat="43.62904" lon="7.04015">
        <ele>190.31</ele>
        <time>2024-12-01T13:06:16.017Z</time>
      </trkpt>
      <trkpt lat="43.62901" lon="7.04006">
        <ele>190.67</ele>
        <time>2024-12-01T13:06:18.023Z</time>
      </trkpt>
      <trkpt lat="43.62897" lon="7.03995">
        <ele>190.95999</ele>
        <time>2024-12-01T13:06:20.023Z</time>
      </trkpt>
      <trkpt lat="43.62893" lon="7.03983">
        <ele>191.31</ele>
        <time>2024-12-01T13:06:21.845Z</time>
      </trkpt>
      <trkpt lat="43.6289" lon="7.03973">
        <ele>191.65</ele>
        <time>2024-12-01T13:06:24.032Z</time>
      </trkpt>
      <trkpt lat="43.62886" lon="7.03961">
        <ele>191.98999</ele>
        <time>2024-12-01T13:06:25.925Z</time>
      </trkpt>
      <trkpt lat="43.62882" lon="7.03949">
        <ele>192.31</ele>
        <time>2024-12-01T13:06:28.039Z</time>
      </trkpt>
      <trkpt lat="43.62878" lon="7.03936">
        <ele>192.78</ele>
        <time>2024-12-01T13:06:30.042Z</time>
      </trkpt>
      <trkpt lat="43.62875" lon="7.03925">
        <ele>193.18</ele>
        <time>2024-12-01T13:06:31.068Z</time>
      </trkpt>
      <trkpt lat="43.62871" lon="7.03914">
        <ele>193.57</ele>
        <time>2024-12-01T13:06:34.049Z</time>
      </trkpt>
      <trkpt lat="43.62868" lon="7.03904">
        <ele>194.06</ele>
        <time>2024-12-01T13:06:36.053Z</time>
      </trkpt>
      <trkpt lat="43.62866" lon="7.03891">
        <ele>194.55</ele>
        <time>2024-12-01T13:06:38.055Z</time>
      </trkpt>
      <trkpt lat="43.62865" lon="7.03878">
        <ele>194.94</ele>
        <time>2024-12-01T13:06:40.059Z</time>
      </trkpt>
      <trkpt lat="43.62864" lon="7.03865">
        <ele>195.34</ele>
        <time>2024-12-01T13:06:42.064Z</time>
      </trkpt>
      <trkpt lat="43.62864" lon="7.03854">
        <ele>195.66</ele>
        <time>2024-12-01T13:06:44.068Z</time>
      </trkpt>
      <trkpt lat="43.62865" lon="7.03842">
        <ele>196</ele>
        <time>2024-12-01T13:06:46.070Z</time>
      </trkpt>
      <trkpt lat="43.62865" lon="7.03829">
        <ele>196.23001</ele>
        <time>2024-12-01T13:06:48.074Z</time>
      </trkpt>
      <trkpt lat="43.62866" lon="7.03816">
        <ele>196.16</ele>
        <time>2024-12-01T13:06:50.077Z</time>
      </trkpt>
      <trkpt lat="43.62865" lon="7.03804">
        <ele>196.59</ele>
        <time>2024-12-01T13:06:52.080Z</time>
      </trkpt>
      <trkpt lat="43.62865" lon="7.03792">
        <ele>196.93</ele>
        <time>2024-12-01T13:06:54.086Z</time>
      </trkpt>
      <trkpt lat="43.62864" lon="7.03779">
        <ele>196.94</ele>
        <time>2024-12-01T13:06:56.087Z</time>
      </trkpt>
      <trkpt lat="43.62862" lon="7.03765">
        <ele>197.3</ele>
        <time>2024-12-01T13:06:58.093Z</time>
      </trkpt>
      <trkpt lat="43.62861" lon="7.03751">
        <ele>197.6</ele>
        <time>2024-12-01T13:07:00.096Z</time>
      </trkpt>
      <trkpt lat="43.6286" lon="7.03738">
        <ele>197.84</ele>
        <time>2024-12-01T13:07:02.099Z</time>
      </trkpt>
      <trkpt lat="43.62859" lon="7.03727">
        <ele>198.05</ele>
        <time>2024-12-01T13:07:04.103Z</time>
      </trkpt>
      <trkpt lat="43.62859" lon="7.03717">
        <ele>198.23001</ele>
        <time>2024-12-01T13:07:06.106Z</time>
      </trkpt>
      <trkpt lat="43.62859" lon="7.03706">
        <ele>198.4</ele>
        <time>2024-12-01T13:07:08.108Z</time>
      </trkpt>
      <trkpt lat="43.62859" lon="7.03696">
        <ele>198.8</ele>
        <time>2024-12-01T13:07:09.918Z</time>
      </trkpt>
      <trkpt lat="43.62858" lon="7.03686">
        <ele>199.18</ele>
        <time>2024-12-01T13:07:12.116Z</time>
      </trkpt>
      <trkpt lat="43.62858" lon="7.03675">
        <ele>199.51001</ele>
        <time>2024-12-01T13:07:14.119Z</time>
      </trkpt>
      <trkpt lat="43.62857" lon="7.03663">
        <ele>199.73999</ele>
        <time>2024-12-01T13:07:16.122Z</time>
      </trkpt>
      <trkpt lat="43.62856" lon="7.03653">
        <ele>199.91</ele>
        <time>2024-12-01T13:07:18.127Z</time>
      </trkpt>
      <trkpt lat="43.62853" lon="7.03643">
        <ele>200.09</ele>
        <time>2024-12-01T13:07:20.130Z</time>
      </trkpt>
      <trkpt lat="43.62849" lon="7.03633">
        <ele>200.29001</ele>
        <time>2024-12-01T13:07:22.132Z</time>
      </trkpt>
      <trkpt lat="43.62845" lon="7.03624">
        <ele>200.55</ele>
        <time>2024-12-01T13:07:24.138Z</time>
      </trkpt>
      <trkpt lat="43.6284" lon="7.03615">
        <ele>200.63</ele>
        <time>2024-12-01T13:07:25.963Z</time>
      </trkpt>
      <trkpt lat="43.62836" lon="7.03606">
        <ele>200.42</ele>
        <time>2024-12-01T13:07:28.146Z</time>
      </trkpt>
      <trkpt lat="43.62833" lon="7.03597">
        <ele>200.08</ele>
        <time>2024-12-01T13:07:29.715Z</time>
      </trkpt>
      <trkpt lat="43.62831" lon="7.03589">
        <ele>200.17</ele>
        <time>2024-12-01T13:07:31.706Z</time>
      </trkpt>
      <trkpt lat="43.6283" lon="7.03579">
        <ele>200.26001</ele>
        <time>2024-12-01T13:07:33.973Z</time>
      </trkpt>
      <trkpt lat="43.62831" lon="7.03571">
        <ele>200.34</ele>
        <time>2024-12-01T13:07:36.159Z</time>
      </trkpt>
      <trkpt lat="43.62833" lon="7.03564">
        <ele>200.34</ele>
        <time>2024-12-01T13:07:38.161Z</time>
      </trkpt>
      <trkpt lat="43.62835" lon="7.03555">
        <ele>200.43</ele>
        <time>2024-12-01T13:07:40.165Z</time>
      </trkpt>
      <trkpt lat="43.62838" lon="7.03545">
        <ele>200.47</ele>
        <time>2024-12-01T13:07:42.089Z</time>
      </trkpt>
      <trkpt lat="43.62841" lon="7.03534">
        <ele>200.47</ele>
        <time>2024-12-01T13:07:44.095Z</time>
      </trkpt>
      <trkpt lat="43.62845" lon="7.03525">
        <ele>200.5</ele>
        <time>2024-12-01T13:07:46.095Z</time>
      </trkpt>
      <trkpt lat="43.62849" lon="7.03516">
        <ele>200.57</ele>
        <time>2024-12-01T13:07:48.178Z</time>
      </trkpt>
      <trkpt lat="43.62854" lon="7.03508">
        <ele>200.64</ele>
        <time>2024-12-01T13:07:49.693Z</time>
      </trkpt>
      <trkpt lat="43.62858" lon="7.03502">
        <ele>200.67</ele>
        <time>2024-12-01T13:07:52.160Z</time>
      </trkpt>
      <trkpt lat="43.62863" lon="7.03494">
        <ele>200.73001</ele>
        <time>2024-12-01T13:07:54.190Z</time>
      </trkpt>
      <trkpt lat="43.62867" lon="7.03486">
        <ele>200.88</ele>
        <time>2024-12-01T13:07:56.194Z</time>
      </trkpt>
      <trkpt lat="43.62873" lon="7.03477">
        <ele>200.9</ele>
        <time>2024-12-01T13:07:57.745Z</time>
      </trkpt>
      <trkpt lat="43.62878" lon="7.03469">
        <ele>200.93</ele>
        <time>2024-12-01T13:08:00.199Z</time>
      </trkpt>
      <trkpt lat="43.62882" lon="7.0346">
        <ele>200.91</ele>
        <time>2024-12-01T13:08:02.204Z</time>
      </trkpt>
      <trkpt lat="43.62887" lon="7.03449">
        <ele>200.92</ele>
        <time>2024-12-01T13:08:04.209Z</time>
      </trkpt>
      <trkpt lat="43.62894" lon="7.03439">
        <ele>200.93</ele>
        <time>2024-12-01T13:08:05.722Z</time>
      </trkpt>
      <trkpt lat="43.62901" lon="7.03427">
        <ele>200.92</ele>
        <time>2024-12-01T13:08:07.702Z</time>
      </trkpt>
      <trkpt lat="43.62908" lon="7.03413">
        <ele>200.91</ele>
        <time>2024-12-01T13:08:10.220Z</time>
      </trkpt>
      <trkpt lat="43.62913" lon="7.03398">
        <ele>200.87</ele>
        <time>2024-12-01T13:08:11.715Z</time>
      </trkpt>
      <trkpt lat="43.62915" lon="7.03382">
        <ele>200.83</ele>
        <time>2024-12-01T13:08:14.225Z</time>
      </trkpt>
      <trkpt lat="43.62917" lon="7.03365">
        <ele>200.76001</ele>
        <time>2024-12-01T13:08:16.232Z</time>
      </trkpt>
      <trkpt lat="43.62918" lon="7.03348">
        <ele>200.69</ele>
        <time>2024-12-01T13:08:18.234Z</time>
      </trkpt>
      <trkpt lat="43.62918" lon="7.03332">
        <ele>200.62</ele>
        <time>2024-12-01T13:08:20.237Z</time>
      </trkpt>
      <trkpt lat="43.62918" lon="7.03318">
        <ele>200.53</ele>
        <time>2024-12-01T13:08:22.243Z</time>
      </trkpt>
      <trkpt lat="43.62916" lon="7.03305">
        <ele>200.44</ele>
        <time>2024-12-01T13:08:24.245Z</time>
      </trkpt>
      <trkpt lat="43.62914" lon="7.03292">
        <ele>200.34</ele>
        <time>2024-12-01T13:08:26.248Z</time>
      </trkpt>
      <trkpt lat="43.62909" lon="7.03278">
        <ele>200.2</ele>
        <time>2024-12-01T13:08:28.231Z</time>
      </trkpt>
      <trkpt lat="43.62899" lon="7.03262">
        <ele>200.06</ele>
        <time>2024-12-01T13:08:30.256Z</time>
      </trkpt>
      <trkpt lat="43.6289" lon="7.03248">
        <ele>199.93</ele>
        <time>2024-12-01T13:08:32.258Z</time>
      </trkpt>
      <trkpt lat="43.62881" lon="7.03234">
        <ele>199.70999</ele>
        <time>2024-12-01T13:08:34.263Z</time>
      </trkpt>
      <trkpt lat="43.62875" lon="7.0322">
        <ele>199.45999</ele>
        <time>2024-12-01T13:08:35.304Z</time>
      </trkpt>
      <trkpt lat="43.62876" lon="7.03208">
        <ele>199.19</ele>
        <time>2024-12-01T13:08:38.270Z</time>
      </trkpt>
      <trkpt lat="43.6288" lon="7.03189">
        <ele>198.87</ele>
        <time>2024-12-01T13:08:40.273Z</time>
      </trkpt>
      <trkpt lat="43.62888" lon="7.03168">
        <ele>198.54001</ele>
        <time>2024-12-01T13:08:42.277Z</time>
      </trkpt>
      <trkpt lat="43.62896" lon="7.03147">
        <ele>198.19</ele>
        <time>2024-12-01T13:08:43.312Z</time>
      </trkpt>
      <trkpt lat="43.62901" lon="7.03126">
        <ele>197.8</ele>
        <time>2024-12-01T13:08:46.285Z</time>
      </trkpt>
      <trkpt lat="43.62903" lon="7.03105">
        <ele>197.36</ele>
        <time>2024-12-01T13:08:48.287Z</time>
      </trkpt>
      <trkpt lat="43.62901" lon="7.03084">
        <ele>196.89</ele>
        <time>2024-12-01T13:08:50.291Z</time>
      </trkpt>
      <trkpt lat="43.62897" lon="7.03061">
        <ele>196.37</ele>
        <time>2024-12-01T13:08:51.333Z</time>
      </trkpt>
      <trkpt lat="43.62896" lon="7.03036">
        <ele>195.85</ele>
        <time>2024-12-01T13:08:53.337Z</time>
      </trkpt>
      <trkpt lat="43.62896" lon="7.03012">
        <ele>195.25</ele>
        <time>2024-12-01T13:08:56.303Z</time>
      </trkpt>
      <trkpt lat="43.629" lon="7.02989">
        <ele>194.57</ele>
        <time>2024-12-01T13:08:57.340Z</time>
      </trkpt>
      <trkpt lat="43.62909" lon="7.02951">
        <ele>193.86</ele>
        <time>2024-12-01T13:09:00.363Z</time>
      </trkpt>
      <trkpt lat="43.62912" lon="7.02928">
        <ele>192.68</ele>
        <time>2024-12-01T13:09:02.369Z</time>
      </trkpt>
      <trkpt lat="43.62913" lon="7.02903">
        <ele>191.82</ele>
        <time>2024-12-01T13:09:04.364Z</time>
      </trkpt>
      <trkpt lat="43.62912" lon="7.02878">
        <ele>190.92</ele>
        <time>2024-12-01T13:09:06.378Z</time>
      </trkpt>
      <trkpt lat="43.6291" lon="7.02853">
        <ele>189.95</ele>
        <time>2024-12-01T13:09:08.360Z</time>
      </trkpt>
      <trkpt lat="43.62907" lon="7.02832">
        <ele>188.81</ele>
        <time>2024-12-01T13:09:10.367Z</time>
      </trkpt>
      <trkpt lat="43.62905" lon="7.02816">
        <ele>187.47</ele>
        <time>2024-12-01T13:09:12.354Z</time>
      </trkpt>
      <trkpt lat="43.62904" lon="7.02803">
        <ele>186.44</ele>
        <time>2024-12-01T13:09:14.360Z</time>
      </trkpt>
      <trkpt lat="43.6291" lon="7.02789">
        <ele>185.12</ele>
        <time>2024-12-01T13:09:16.338Z</time>
      </trkpt>
      <trkpt lat="43.62928" lon="7.0278">
        <ele>183.73999</ele>
        <time>2024-12-01T13:09:19.304Z</time>
      </trkpt>
      <trkpt lat="43.62938" lon="7.02778">
        <ele>181.95</ele>
        <time>2024-12-01T13:09:20.779Z</time>
      </trkpt>
      <trkpt lat="43.62946" lon="7.02777">
        <ele>179.01999</ele>
        <time>2024-12-01T13:09:23.310Z</time>
      </trkpt>
      <trkpt lat="43.62955" lon="7.02774">
        <ele>175.89</ele>
        <time>2024-12-01T13:09:25.317Z</time>
      </trkpt>
      <trkpt lat="43.62962" lon="7.02769">
        <ele>174.7</ele>
        <time>2024-12-01T13:09:27.316Z</time>
      </trkpt>
      <trkpt lat="43.62968" lon="7.02763">
        <ele>174.26001</ele>
        <time>2024-12-01T13:09:29.321Z</time>
      </trkpt>
      <trkpt lat="43.62973" lon="7.02758">
        <ele>173.82</ele>
        <time>2024-12-01T13:09:31.326Z</time>
      </trkpt>
      <trkpt lat="43.62977" lon="7.0275">
        <ele>173.70999</ele>
        <time>2024-12-01T13:09:33.328Z</time>
      </trkpt>
      <trkpt lat="43.62983" lon="7.02744">
        <ele>173.25</ele>
        <time>2024-12-01T13:09:35.262Z</time>
      </trkpt>
      <trkpt lat="43.62988" lon="7.02737">
        <ele>173.04001</ele>
        <time>2024-12-01T13:09:37.335Z</time>
      </trkpt>
      <trkpt lat="43.62991" lon="7.02732">
        <ele>173.07</ele>
        <time>2024-12-01T13:09:39.338Z</time>
      </trkpt>
      <trkpt lat="43.62994" lon="7.02728">
        <ele>172.92</ele>
        <time>2024-12-01T13:09:40.958Z</time>
      </trkpt>
      <trkpt lat="43.62996" lon="7.02724">
        <ele>172.82</ele>
        <time>2024-12-01T13:09:43.390Z</time>
      </trkpt>
      <trkpt lat="43.62999" lon="7.0272">
        <ele>172.72</ele>
        <time>2024-12-01T13:09:45.348Z</time>
      </trkpt>
      <trkpt lat="43.63001" lon="7.02715">
        <ele>172.20999</ele>
        <time>2024-12-01T13:09:47.353Z</time>
      </trkpt>
      <trkpt lat="43.63004" lon="7.02709">
        <ele>172.28</ele>
        <time>2024-12-01T13:09:49.355Z</time>
      </trkpt>
      <trkpt lat="43.63008" lon="7.02703">
        <ele>172.31</ele>
        <time>2024-12-01T13:09:51.358Z</time>
      </trkpt>
      <trkpt lat="43.63011" lon="7.02697">
        <ele>172.41</ele>
        <time>2024-12-01T13:09:53.314Z</time>
      </trkpt>
      <trkpt lat="43.63014" lon="7.0269">
        <ele>172.69</ele>
        <time>2024-12-01T13:09:55.366Z</time>
      </trkpt>
      <trkpt lat="43.63017" lon="7.02683">
        <ele>172.83</ele>
        <time>2024-12-01T13:09:57.369Z</time>
      </trkpt>
      <trkpt lat="43.63019" lon="7.02676">
        <ele>173.12</ele>
        <time>2024-12-01T13:09:59.372Z</time>
      </trkpt>
      <trkpt lat="43.63022" lon="7.02668">
        <ele>173.26001</ele>
        <time>2024-12-01T13:10:01.395Z</time>
      </trkpt>
      <trkpt lat="43.63026" lon="7.0266">
        <ele>173.36</ele>
        <time>2024-12-01T13:10:03.026Z</time>
      </trkpt>
      <trkpt lat="43.63029" lon="7.02652">
        <ele>173.29001</ele>
        <time>2024-12-01T13:10:05.384Z</time>
      </trkpt>
      <trkpt lat="43.63031" lon="7.02645">
        <ele>173.44</ele>
        <time>2024-12-01T13:10:07.388Z</time>
      </trkpt>
      <trkpt lat="43.63033" lon="7.02635">
        <ele>173.55</ele>
        <time>2024-12-01T13:10:09.391Z</time>
      </trkpt>
      <trkpt lat="43.63036" lon="7.02627">
        <ele>173.69</ele>
        <time>2024-12-01T13:10:11.399Z</time>
      </trkpt>
      <trkpt lat="43.63039" lon="7.02617">
        <ele>173.44</ele>
        <time>2024-12-01T13:10:13.399Z</time>
      </trkpt>
      <trkpt lat="43.63042" lon="7.02608">
        <ele>173.51999</ele>
        <time>2024-12-01T13:10:15.400Z</time>
      </trkpt>
      <trkpt lat="43.63046" lon="7.02601">
        <ele>173.75</ele>
        <time>2024-12-01T13:10:17.138Z</time>
      </trkpt>
      <trkpt lat="43.6305" lon="7.02595">
        <ele>172.76999</ele>
        <time>2024-12-01T13:10:19.408Z</time>
      </trkpt>
      <trkpt lat="43.63055" lon="7.02588">
        <ele>172.92</ele>
        <time>2024-12-01T13:10:21.410Z</time>
      </trkpt>
      <trkpt lat="43.63061" lon="7.02578">
        <ele>172.98001</ele>
        <time>2024-12-01T13:10:23.418Z</time>
      </trkpt>
      <trkpt lat="43.63066" lon="7.02566">
        <ele>173.08</ele>
        <time>2024-12-01T13:10:25.419Z</time>
      </trkpt>
      <trkpt lat="43.63072" lon="7.02553">
        <ele>173.11</ele>
        <time>2024-12-01T13:10:27.422Z</time>
      </trkpt>
      <trkpt lat="43.63078" lon="7.02542">
        <ele>173.13</ele>
        <time>2024-12-01T13:10:29.429Z</time>
      </trkpt>
      <trkpt lat="43.63087" lon="7.02537">
        <ele>173.13</ele>
        <time>2024-12-01T13:10:31.429Z</time>
      </trkpt>
      <trkpt lat="43.63097" lon="7.02537">
        <ele>173.12</ele>
        <time>2024-12-01T13:10:33.433Z</time>
      </trkpt>
      <trkpt lat="43.63108" lon="7.02537">
        <ele>173.1</ele>
        <time>2024-12-01T13:10:35.437Z</time>
      </trkpt>
      <trkpt lat="43.63116" lon="7.02538">
        <ele>173.26001</ele>
        <time>2024-12-01T13:10:37.160Z</time>
      </trkpt>
      <trkpt lat="43.63123" lon="7.0254">
        <ele>173.42</ele>
        <time>2024-12-01T13:10:39.426Z</time>
      </trkpt>
      <trkpt lat="43.63129" lon="7.02541">
        <ele>173.53</ele>
        <time>2024-12-01T13:10:41.449Z</time>
      </trkpt>
      <trkpt lat="43.63134" lon="7.02542">
        <ele>173.38</ele>
        <time>2024-12-01T13:10:43.137Z</time>
      </trkpt>
      <trkpt lat="43.63139" lon="7.02542">
        <ele>173.45999</ele>
        <time>2024-12-01T13:10:45.456Z</time>
      </trkpt>
      <trkpt lat="43.63145" lon="7.02542">
        <ele>173.58</ele>
        <time>2024-12-01T13:10:47.218Z</time>
      </trkpt>
      <trkpt lat="43.63151" lon="7.02541">
        <ele>173.69</ele>
        <time>2024-12-01T13:10:49.201Z</time>
      </trkpt>
      <trkpt lat="43.63157" lon="7.02539">
        <ele>173.84</ele>
        <time>2024-12-01T13:10:51.465Z</time>
      </trkpt>
      <trkpt lat="43.63163" lon="7.02538">
        <ele>173.59</ele>
        <time>2024-12-01T13:10:53.354Z</time>
      </trkpt>
      <trkpt lat="43.6317" lon="7.02537">
        <ele>173.26001</ele>
        <time>2024-12-01T13:10:55.473Z</time>
      </trkpt>
      <trkpt lat="43.63176" lon="7.02536">
        <ele>172.98999</ele>
        <time>2024-12-01T13:10:57.200Z</time>
      </trkpt>
      <trkpt lat="43.63181" lon="7.02535">
        <ele>173.38</ele>
        <time>2024-12-01T13:10:59.479Z</time>
      </trkpt>
      <trkpt lat="43.63186" lon="7.02535">
        <ele>173.63</ele>
        <time>2024-12-01T13:11:01.484Z</time>
      </trkpt>
      <trkpt lat="43.63189" lon="7.02535">
        <ele>173.88</ele>
        <time>2024-12-01T13:11:03.490Z</time>
      </trkpt>
      <trkpt lat="43.63192" lon="7.02536">
        <ele>174.2</ele>
        <time>2024-12-01T13:11:05.492Z</time>
      </trkpt>
      <trkpt lat="43.63197" lon="7.02537">
        <ele>174.44</ele>
        <time>2024-12-01T13:11:07.493Z</time>
      </trkpt>
      <trkpt lat="43.63203" lon="7.02536">
        <ele>174.13</ele>
        <time>2024-12-01T13:11:09.078Z</time>
      </trkpt>
      <trkpt lat="43.6321" lon="7.02538">
        <ele>172.45</ele>
        <time>2024-12-01T13:11:11.372Z</time>
      </trkpt>
      <trkpt lat="43.63215" lon="7.02538">
        <ele>172.62</ele>
        <time>2024-12-01T13:11:13.272Z</time>
      </trkpt>
      <trkpt lat="43.63221" lon="7.02538">
        <ele>173.03</ele>
        <time>2024-12-01T13:11:15.509Z</time>
      </trkpt>
      <trkpt lat="43.63226" lon="7.02538">
        <ele>173.42</ele>
        <time>2024-12-01T13:11:17.511Z</time>
      </trkpt>
      <trkpt lat="43.63232" lon="7.02539">
        <ele>173.89</ele>
        <time>2024-12-01T13:11:19.515Z</time>
      </trkpt>
      <trkpt lat="43.63237" lon="7.02538">
        <ele>174.04001</ele>
        <time>2024-12-01T13:11:21.518Z</time>
      </trkpt>
      <trkpt lat="43.63242" lon="7.02536">
        <ele>173.64</ele>
        <time>2024-12-01T13:11:23.129Z</time>
      </trkpt>
      <trkpt lat="43.63246" lon="7.02536">
        <ele>173.66</ele>
        <time>2024-12-01T13:11:25.581Z</time>
      </trkpt>
      <trkpt lat="43.63252" lon="7.02536">
        <ele>174.18</ele>
        <time>2024-12-01T13:11:27.166Z</time>
      </trkpt>
      <trkpt lat="43.63257" lon="7.02536">
        <ele>174.76001</ele>
        <time>2024-12-01T13:11:29.437Z</time>
      </trkpt>
      <trkpt lat="43.63262" lon="7.02535">
        <ele>174.57</ele>
        <time>2024-12-01T13:11:31.537Z</time>
      </trkpt>
      <trkpt lat="43.63267" lon="7.02534">
        <ele>175.31</ele>
        <time>2024-12-01T13:11:33.428Z</time>
      </trkpt>
      <trkpt lat="43.63271" lon="7.02534">
        <ele>176.20999</ele>
        <time>2024-12-01T13:11:35.544Z</time>
      </trkpt>
      <trkpt lat="43.63274" lon="7.02535">
        <ele>177.06</ele>
        <time>2024-12-01T13:11:37.522Z</time>
      </trkpt>
      <trkpt lat="43.63277" lon="7.02536">
        <ele>177.69</ele>
        <time>2024-12-01T13:11:39.555Z</time>
      </trkpt>
      <trkpt lat="43.63281" lon="7.02536">
        <ele>179.11</ele>
        <time>2024-12-01T13:11:40.610Z</time>
      </trkpt>
      <trkpt lat="43.63288" lon="7.02535">
        <ele>179.11</ele>
        <time>2024-12-01T13:11:44.599Z</time>
      </trkpt>
      <trkpt lat="43.6329" lon="7.02534">
        <ele>181.69</ele>
        <time>2024-12-01T13:11:46.603Z</time>
      </trkpt>
      <trkpt lat="43.63294" lon="7.02534">
        <ele>181.69</ele>
        <time>2024-12-01T13:11:48.609Z</time>
      </trkpt>
      <trkpt lat="43.63297" lon="7.02534">
        <ele>181.69</ele>
        <time>2024-12-01T13:11:50.610Z</time>
      </trkpt>
      <trkpt lat="43.63305" lon="7.02532">
        <ele>184.11</ele>
        <time>2024-12-01T13:11:52.613Z</time>
      </trkpt>
      <trkpt lat="43.63312" lon="7.02532">
        <ele>186.26001</ele>
        <time>2024-12-01T13:11:54.619Z</time>
      </trkpt>
      <trkpt lat="43.63319" lon="7.02531">
        <ele>186.26001</ele>
        <time>2024-12-01T13:11:56.620Z</time>
      </trkpt>
      <trkpt lat="43.63325" lon="7.02531">
        <ele>190.76999</ele>
        <time>2024-12-01T13:11:58.524Z</time>
      </trkpt>
      <trkpt lat="43.63328" lon="7.0253">
        <ele>189.76999</ele>
        <time>2024-12-01T13:12:00.627Z</time>
      </trkpt>
      <trkpt lat="43.63331" lon="7.02531">
        <ele>189.76999</ele>
        <time>2024-12-01T13:12:02.631Z</time>
      </trkpt>
      <trkpt lat="43.63334" lon="7.02531">
        <ele>188.25</ele>
        <time>2024-12-01T13:12:04.634Z</time>
      </trkpt>
      <trkpt lat="43.63338" lon="7.0253">
        <ele>188.25</ele>
        <time>2024-12-01T13:12:06.639Z</time>
      </trkpt>
      <trkpt lat="43.63343" lon="7.02531">
        <ele>188.25</ele>
        <time>2024-12-01T13:12:08.642Z</time>
      </trkpt>
      <trkpt lat="43.63347" lon="7.02531">
        <ele>192.39</ele>
        <time>2024-12-01T13:12:10.644Z</time>
      </trkpt>
      <trkpt lat="43.63351" lon="7.02531">
        <ele>192.39</ele>
        <time>2024-12-01T13:12:12.568Z</time>
      </trkpt>
      <trkpt lat="43.63356" lon="7.0253">
        <ele>191.64</ele>
        <time>2024-12-01T13:12:14.479Z</time>
      </trkpt>
      <trkpt lat="43.63359" lon="7.02529">
        <ele>193.01001</ele>
        <time>2024-12-01T13:12:16.575Z</time>
      </trkpt>
      <trkpt lat="43.63362" lon="7.0253">
        <ele>193.42</ele>
        <time>2024-12-01T13:12:18.578Z</time>
      </trkpt>
      <trkpt lat="43.63366" lon="7.02529">
        <ele>194.6</ele>
        <time>2024-12-01T13:12:20.585Z</time>
      </trkpt>
      <trkpt lat="43.63369" lon="7.02528">
        <ele>194.6</ele>
        <time>2024-12-01T13:12:22.586Z</time>
      </trkpt>
      <trkpt lat="43.63374" lon="7.02528">
        <ele>197.19</ele>
        <time>2024-12-01T13:12:24.589Z</time>
      </trkpt>
      <trkpt lat="43.63377" lon="7.02529">
        <ele>198.35</ele>
        <time>2024-12-01T13:12:26.592Z</time>
      </trkpt>
      <trkpt lat="43.63382" lon="7.02529">
        <ele>198.35</ele>
        <time>2024-12-01T13:12:28.596Z</time>
      </trkpt>
      <trkpt lat="43.63386" lon="7.02529">
        <ele>201.44</ele>
        <time>2024-12-01T13:12:30.599Z</time>
      </trkpt>
      <trkpt lat="43.6339" lon="7.02529">
        <ele>202.88</ele>
        <time>2024-12-01T13:12:32.605Z</time>
      </trkpt>
      <trkpt lat="43.63395" lon="7.02529">
        <ele>204.09</ele>
        <time>2024-12-01T13:12:34.362Z</time>
      </trkpt>
      <trkpt lat="43.634" lon="7.02528">
        <ele>204.85</ele>
        <time>2024-12-01T13:12:36.610Z</time>
      </trkpt>
      <trkpt lat="43.63404" lon="7.02527">
        <ele>205.87</ele>
        <time>2024-12-01T13:12:38.617Z</time>
      </trkpt>
      <trkpt lat="43.63411" lon="7.02521">
        <ele>206.76999</ele>
        <time>2024-12-01T13:14:17.899Z</time>
      </trkpt>
      <trkpt lat="43.63413" lon="7.02522">
        <ele>206.76999</ele>
        <time>2024-12-01T13:14:22.372Z</time>
      </trkpt>
      <trkpt lat="43.63414" lon="7.02523">
        <ele>206.76999</ele>
        <time>2024-12-01T13:14:24.377Z</time>
      </trkpt>
      <trkpt lat="43.63419" lon="7.02526">
        <ele>206.76999</ele>
        <time>2024-12-01T13:14:27.326Z</time>
      </trkpt>
      <trkpt lat="43.63427" lon="7.02533">
        <ele>206.76999</ele>
        <time>2024-12-01T13:14:28.384Z</time>
      </trkpt>
      <trkpt lat="43.63435" lon="7.0254">
        <ele>214.77</ele>
        <time>2024-12-01T13:14:30.381Z</time>
      </trkpt>
      <trkpt lat="43.63441" lon="7.02547">
        <ele>214.76</ele>
        <time>2024-12-01T13:14:33.318Z</time>
      </trkpt>
      <trkpt lat="43.63452" lon="7.02554">
        <ele>214.77</ele>
        <time>2024-12-01T13:14:34.895Z</time>
      </trkpt>
      <trkpt lat="43.63459" lon="7.02561">
        <ele>214.81</ele>
        <time>2024-12-01T13:14:36.864Z</time>
      </trkpt>
      <trkpt lat="43.63467" lon="7.02572">
        <ele>214.78</ele>
        <time>2024-12-01T13:14:39.379Z</time>
      </trkpt>
      <trkpt lat="43.63478" lon="7.02583">
        <ele>214.84</ele>
        <time>2024-12-01T13:14:41.356Z</time>
      </trkpt>
      <trkpt lat="43.63485" lon="7.02595">
        <ele>214.88</ele>
        <time>2024-12-01T13:14:42.862Z</time>
      </trkpt>
      <trkpt lat="43.63492" lon="7.02602">
        <ele>214.81</ele>
        <time>2024-12-01T13:14:45.377Z</time>
      </trkpt>
      <trkpt lat="43.63496" lon="7.02607">
        <ele>214.88</ele>
        <time>2024-12-01T13:14:47.398Z</time>
      </trkpt>
      <trkpt lat="43.63498" lon="7.02607">
        <ele>214.93</ele>
        <time>2024-12-01T13:14:48.868Z</time>
      </trkpt>
      <trkpt lat="43.63499" lon="7.02608">
        <ele>214.87</ele>
        <time>2024-12-01T13:14:51.348Z</time>
      </trkpt>
      <trkpt lat="43.635" lon="7.02608">
        <ele>214.79</ele>
        <time>2024-12-01T13:14:53.353Z</time>
      </trkpt>
      <trkpt lat="43.63504" lon="7.02611">
        <ele>214.7</ele>
        <time>2024-12-01T13:14:55.355Z</time>
      </trkpt>
      <trkpt lat="43.63507" lon="7.02611">
        <ele>214.64</ele>
        <time>2024-12-01T13:14:57.359Z</time>
      </trkpt>
      <trkpt lat="43.6351" lon="7.02612">
        <ele>214.48</ele>
        <time>2024-12-01T13:14:59.365Z</time>
      </trkpt>
      <trkpt lat="43.63513" lon="7.02612">
        <ele>214.36</ele>
        <time>2024-12-01T13:15:01.366Z</time>
      </trkpt>
      <trkpt lat="43.63519" lon="7.02611">
        <ele>214.23</ele>
        <time>2024-12-01T13:15:03.370Z</time>
      </trkpt>
      <trkpt lat="43.63527" lon="7.02613">
        <ele>214.02</ele>
        <time>2024-12-01T13:15:05.375Z</time>
      </trkpt>
      <trkpt lat="43.63533" lon="7.02614">
        <ele>213.76</ele>
        <time>2024-12-01T13:15:07.354Z</time>
      </trkpt>
      <trkpt lat="43.63538" lon="7.02615">
        <ele>213.51</ele>
        <time>2024-12-01T13:15:09.380Z</time>
      </trkpt>
      <trkpt lat="43.6354" lon="7.02615">
        <ele>213.24</ele>
        <time>2024-12-01T13:15:11.385Z</time>
      </trkpt>
      <trkpt lat="43.63542" lon="7.02615">
        <ele>212.89</ele>
        <time>2024-12-01T13:15:13.387Z</time>
      </trkpt>
      <trkpt lat="43.63546" lon="7.02615">
        <ele>212.45</ele>
        <time>2024-12-01T13:15:15.391Z</time>
      </trkpt>
      <trkpt lat="43.63549" lon="7.02615">
        <ele>212.05</ele>
        <time>2024-12-01T13:15:17.396Z</time>
      </trkpt>
      <trkpt lat="43.63557" lon="7.02615">
        <ele>211.65</ele>
        <time>2024-12-01T13:15:23.199Z</time>
      </trkpt>
      <trkpt lat="43.63562" lon="7.02618">
        <ele>209.7</ele>
        <time>2024-12-01T13:15:36.321Z</time>
      </trkpt>
      <trkpt lat="43.63566" lon="7.02618">
        <ele>209.7</ele>
        <time>2024-12-01T13:15:38.289Z</time>
      </trkpt>
      <trkpt lat="43.6357" lon="7.02618">
        <ele>207.09</ele>
        <time>2024-12-01T13:15:41.290Z</time>
      </trkpt>
      <trkpt lat="43.63577" lon="7.02619">
        <ele>206.7</ele>
        <time>2024-12-01T13:15:43.229Z</time>
      </trkpt>
      <trkpt lat="43.63584" lon="7.02621">
        <ele>206.29001</ele>
        <time>2024-12-01T13:15:45.298Z</time>
      </trkpt>
      <trkpt lat="43.63588" lon="7.02621">
        <ele>205.76001</ele>
        <time>2024-12-01T13:15:47.302Z</time>
      </trkpt>
      <trkpt lat="43.63593" lon="7.02621">
        <ele>205.33</ele>
        <time>2024-12-01T13:15:48.862Z</time>
      </trkpt>
      <trkpt lat="43.63622" lon="7.02618">
        <ele>205.01999</ele>
        <time>2024-12-01T13:16:40.585Z</time>
      </trkpt>
      <trkpt lat="43.63623" lon="7.0263">
        <ele>199.15</ele>
        <time>2024-12-01T13:16:42.896Z</time>
      </trkpt>
      <trkpt lat="43.63624" lon="7.02634">
        <ele>198.69</ele>
        <time>2024-12-01T13:16:46.903Z</time>
      </trkpt>
      <trkpt lat="43.63626" lon="7.02636">
        <ele>198.51001</ele>
        <time>2024-12-01T13:16:48.969Z</time>
      </trkpt>
      <trkpt lat="43.6363" lon="7.02642">
        <ele>198.28</ele>
        <time>2024-12-01T13:16:50.911Z</time>
      </trkpt>
      <trkpt lat="43.63633" lon="7.02653">
        <ele>198.01001</ele>
        <time>2024-12-01T13:16:52.929Z</time>
      </trkpt>
      <trkpt lat="43.63636" lon="7.02662">
        <ele>197.76999</ele>
        <time>2024-12-01T13:16:54.445Z</time>
      </trkpt>
      <trkpt lat="43.63638" lon="7.02674">
        <ele>197.48999</ele>
        <time>2024-12-01T13:16:56.958Z</time>
      </trkpt>
      <trkpt lat="43.63638" lon="7.02677">
        <ele>197.29001</ele>
        <time>2024-12-01T13:16:57.962Z</time>
      </trkpt>
      <trkpt lat="43.63639" lon="7.02681">
        <ele>197.12</ele>
        <time>2024-12-01T13:16:58.560Z</time>
      </trkpt>
      <trkpt lat="43.63646" lon="7.02696">
        <ele>196.98999</ele>
        <time>2024-12-01T13:17:00.926Z</time>
      </trkpt>
      <trkpt lat="43.63651" lon="7.02704">
        <ele>196.73999</ele>
        <time>2024-12-01T13:17:02.932Z</time>
      </trkpt>
      <trkpt lat="43.63655" lon="7.02708">
        <ele>196.51999</ele>
        <time>2024-12-01T13:17:04.934Z</time>
      </trkpt>
      <trkpt lat="43.6366" lon="7.02705">
        <ele>196.16</ele>
        <time>2024-12-01T13:17:06.937Z</time>
      </trkpt>
      <trkpt lat="43.63667" lon="7.02697">
        <ele>195.76999</ele>
        <time>2024-12-01T13:17:08.058Z</time>
      </trkpt>
      <trkpt lat="43.63674" lon="7.02688">
        <ele>195.35</ele>
        <time>2024-12-01T13:17:10.945Z</time>
      </trkpt>
      <trkpt lat="43.63682" lon="7.02679">
        <ele>195.01001</ele>
        <time>2024-12-01T13:17:12.948Z</time>
      </trkpt>
      <trkpt lat="43.63688" lon="7.02672">
        <ele>194.53</ele>
        <time>2024-12-01T13:17:14.952Z</time>
      </trkpt>
      <trkpt lat="43.63694" lon="7.02666">
        <ele>194.20999</ele>
        <time>2024-12-01T13:17:16.955Z</time>
      </trkpt>
      <trkpt lat="43.637" lon="7.02662">
        <ele>193.64</ele>
        <time>2024-12-01T13:17:18.959Z</time>
      </trkpt>
      <trkpt lat="43.63707" lon="7.02657">
        <ele>193.2</ele>
        <time>2024-12-01T13:17:20.964Z</time>
      </trkpt>
      <trkpt lat="43.63715" lon="7.02654">
        <ele>192.79001</ele>
        <time>2024-12-01T13:17:22.967Z</time>
      </trkpt>
      <trkpt lat="43.63721" lon="7.02651">
        <ele>192.26999</ele>
        <time>2024-12-01T13:17:24.970Z</time>
      </trkpt>
      <trkpt lat="43.63729" lon="7.0265">
        <ele>191.76001</ele>
        <time>2024-12-01T13:17:26.974Z</time>
      </trkpt>
      <trkpt lat="43.63737" lon="7.02648">
        <ele>191.28</ele>
        <time>2024-12-01T13:17:28.977Z</time>
      </trkpt>
      <trkpt lat="43.63744" lon="7.02645">
        <ele>190.69</ele>
        <time>2024-12-01T13:17:30.982Z</time>
      </trkpt>
      <trkpt lat="43.63752" lon="7.02642">
        <ele>190.09</ele>
        <time>2024-12-01T13:17:32.988Z</time>
      </trkpt>
      <trkpt lat="43.6376" lon="7.02637">
        <ele>189.51999</ele>
        <time>2024-12-01T13:17:34.990Z</time>
      </trkpt>
      <trkpt lat="43.63768" lon="7.02632">
        <ele>188.86</ele>
        <time>2024-12-01T13:17:36.993Z</time>
      </trkpt>
      <trkpt lat="43.63777" lon="7.02628">
        <ele>188.22</ele>
        <time>2024-12-01T13:17:38.998Z</time>
      </trkpt>
      <trkpt lat="43.63786" lon="7.02623">
        <ele>187.72</ele>
        <time>2024-12-01T13:17:40.998Z</time>
      </trkpt>
      <trkpt lat="43.63793" lon="7.02621">
        <ele>187.13</ele>
        <time>2024-12-01T13:17:43.004Z</time>
      </trkpt>
      <trkpt lat="43.63799" lon="7.02622">
        <ele>186.54001</ele>
        <time>2024-12-01T13:17:45.005Z</time>
      </trkpt>
      <trkpt lat="43.638" lon="7.02624">
        <ele>185.88</ele>
        <time>2024-12-01T13:17:46.800Z</time>
      </trkpt>
      <trkpt lat="43.638" lon="7.02627">
        <ele>185.08</ele>
        <time>2024-12-01T13:17:49.014Z</time>
      </trkpt>
      <trkpt lat="43.63807" lon="7.02633">
        <ele>185.08</ele>
        <time>2024-12-01T13:17:51.019Z</time>
      </trkpt>
      <trkpt lat="43.63807" lon="7.02638">
        <ele>183.69</ele>
        <time>2024-12-01T13:17:53.018Z</time>
      </trkpt>
      <trkpt lat="43.63806" lon="7.02645">
        <ele>182.56</ele>
        <time>2024-12-01T13:17:55.025Z</time>
      </trkpt>
      <trkpt lat="43.63804" lon="7.02651">
        <ele>181.83</ele>
        <time>2024-12-01T13:17:57.025Z</time>
      </trkpt>
      <trkpt lat="43.638" lon="7.02657">
        <ele>180.91</ele>
        <time>2024-12-01T13:17:59.030Z</time>
      </trkpt>
      <trkpt lat="43.63798" lon="7.02663">
        <ele>180.12</ele>
        <time>2024-12-01T13:18:01.032Z</time>
      </trkpt>
      <trkpt lat="43.63795" lon="7.0267">
        <ele>179.23001</ele>
        <time>2024-12-01T13:18:03.035Z</time>
      </trkpt>
      <trkpt lat="43.63793" lon="7.02682">
        <ele>178.35</ele>
        <time>2024-12-01T13:18:05.039Z</time>
      </trkpt>
      <trkpt lat="43.63794" lon="7.02694">
        <ele>177.65</ele>
        <time>2024-12-01T13:18:07.042Z</time>
      </trkpt>
      <trkpt lat="43.63797" lon="7.02703">
        <ele>176.76999</ele>
        <time>2024-12-01T13:18:08.665Z</time>
      </trkpt>
      <trkpt lat="43.63798" lon="7.02715">
        <ele>176.03</ele>
        <time>2024-12-01T13:18:11.049Z</time>
      </trkpt>
      <trkpt lat="43.63804" lon="7.02724">
        <ele>175.38</ele>
        <time>2024-12-01T13:18:13.053Z</time>
      </trkpt>
      <trkpt lat="43.6381" lon="7.02718">
        <ele>174.79001</ele>
        <time>2024-12-01T13:18:15.057Z</time>
      </trkpt>
      <trkpt lat="43.63812" lon="7.02713">
        <ele>174.28</ele>
        <time>2024-12-01T13:18:17.060Z</time>
      </trkpt>
      <trkpt lat="43.63815" lon="7.02707">
        <ele>173.58</ele>
        <time>2024-12-01T13:18:19.069Z</time>
      </trkpt>
      <trkpt lat="43.63818" lon="7.02697">
        <ele>172.8</ele>
        <time>2024-12-01T13:18:20.707Z</time>
      </trkpt>
      <trkpt lat="43.63821" lon="7.02685">
        <ele>172.19</ele>
        <time>2024-12-01T13:18:22.640Z</time>
      </trkpt>
      <trkpt lat="43.63824" lon="7.02674">
        <ele>171.51999</ele>
        <time>2024-12-01T13:18:24.647Z</time>
      </trkpt>
      <trkpt lat="43.63828" lon="7.02662">
        <ele>170.85</ele>
        <time>2024-12-01T13:18:26.715Z</time>
      </trkpt>
      <trkpt lat="43.63832" lon="7.02655">
        <ele>170.23001</ele>
        <time>2024-12-01T13:18:29.139Z</time>
      </trkpt>
      <trkpt lat="43.63837" lon="7.02654">
        <ele>169.55</ele>
        <time>2024-12-01T13:18:30.652Z</time>
      </trkpt>
      <trkpt lat="43.63842" lon="7.02655">
        <ele>168.93</ele>
        <time>2024-12-01T13:18:33.088Z</time>
      </trkpt>
      <trkpt lat="43.63847" lon="7.02658">
        <ele>168.56</ele>
        <time>2024-12-01T13:18:34.797Z</time>
      </trkpt>
      <trkpt lat="43.63853" lon="7.02665">
        <ele>167.81</ele>
        <time>2024-12-01T13:18:37.097Z</time>
      </trkpt>
      <trkpt lat="43.63859" lon="7.02675">
        <ele>167.44</ele>
        <time>2024-12-01T13:18:39.099Z</time>
      </trkpt>
      <trkpt lat="43.63866" lon="7.02683">
        <ele>166.95999</ele>
        <time>2024-12-01T13:18:41.101Z</time>
      </trkpt>
      <trkpt lat="43.63868" lon="7.0269">
        <ele>166.65</ele>
        <time>2024-12-01T13:18:43.104Z</time>
      </trkpt>
      <trkpt lat="43.63869" lon="7.02697">
        <ele>166.01001</ele>
        <time>2024-12-01T13:18:45.108Z</time>
      </trkpt>
      <trkpt lat="43.63867" lon="7.02703">
        <ele>165.78</ele>
        <time>2024-12-01T13:18:47.111Z</time>
      </trkpt>
      <trkpt lat="43.63867" lon="7.0271">
        <ele>165.01001</ele>
        <time>2024-12-01T13:18:49.124Z</time>
      </trkpt>
      <trkpt lat="43.63868" lon="7.02714">
        <ele>163.94</ele>
        <time>2024-12-01T13:18:51.117Z</time>
      </trkpt>
      <trkpt lat="43.63869" lon="7.02718">
        <ele>163.34</ele>
        <time>2024-12-01T13:18:53.120Z</time>
      </trkpt>
      <trkpt lat="43.6387" lon="7.0272">
        <ele>163.11</ele>
        <time>2024-12-01T13:18:55.057Z</time>
      </trkpt>
      <trkpt lat="43.63871" lon="7.02716">
        <ele>162.79001</ele>
        <time>2024-12-01T13:18:57.207Z</time>
      </trkpt>
      <trkpt lat="43.63872" lon="7.02712">
        <ele>162.51001</ele>
        <time>2024-12-01T13:18:59.195Z</time>
      </trkpt>
      <trkpt lat="43.63872" lon="7.02705">
        <ele>162.5</ele>
        <time>2024-12-01T13:19:01.215Z</time>
      </trkpt>
      <trkpt lat="43.63873" lon="7.02698">
        <ele>162.6</ele>
        <time>2024-12-01T13:19:02.770Z</time>
      </trkpt>
      <trkpt lat="43.63875" lon="7.02693">
        <ele>162.58</ele>
        <time>2024-12-01T13:19:05.223Z</time>
      </trkpt>
      <trkpt lat="43.63878" lon="7.02688">
        <ele>161.81</ele>
        <time>2024-12-01T13:19:06.250Z</time>
      </trkpt>
      <trkpt lat="43.63881" lon="7.02686">
        <ele>161.14</ele>
        <time>2024-12-01T13:19:09.029Z</time>
      </trkpt>
      <trkpt lat="43.63885" lon="7.02682">
        <ele>160.51999</ele>
        <time>2024-12-01T13:19:11.232Z</time>
      </trkpt>
      <trkpt lat="43.63889" lon="7.02678">
        <ele>160.78</ele>
        <time>2024-12-01T13:19:13.235Z</time>
      </trkpt>
      <trkpt lat="43.63895" lon="7.02672">
        <ele>161</ele>
        <time>2024-12-01T13:19:15.244Z</time>
      </trkpt>
      <trkpt lat="43.639" lon="7.02667">
        <ele>160.76999</ele>
        <time>2024-12-01T13:19:17.244Z</time>
      </trkpt>
      <trkpt lat="43.63905" lon="7.02663">
        <ele>160.25</ele>
        <time>2024-12-01T13:19:19.245Z</time>
      </trkpt>
      <trkpt lat="43.63908" lon="7.02659">
        <ele>160.22</ele>
        <time>2024-12-01T13:19:20.943Z</time>
      </trkpt>
      <trkpt lat="43.63912" lon="7.02655">
        <ele>159.51001</ele>
        <time>2024-12-01T13:19:23.252Z</time>
      </trkpt>
      <trkpt lat="43.63916" lon="7.02652">
        <ele>159.98999</ele>
        <time>2024-12-01T13:19:25.256Z</time>
      </trkpt>
      <trkpt lat="43.6392" lon="7.02648">
        <ele>160.29001</ele>
        <time>2024-12-01T13:19:27.025Z</time>
      </trkpt>
      <trkpt lat="43.63926" lon="7.02646">
        <ele>160.62</ele>
        <time>2024-12-01T13:19:29.262Z</time>
      </trkpt>
      <trkpt lat="43.63934" lon="7.02644">
        <ele>161.03</ele>
        <time>2024-12-01T13:19:31.265Z</time>
      </trkpt>
      <trkpt lat="43.6394" lon="7.02642">
        <ele>161.37</ele>
        <time>2024-12-01T13:19:33.268Z</time>
      </trkpt>
      <trkpt lat="43.63945" lon="7.02638">
        <ele>161.47</ele>
        <time>2024-12-01T13:19:35.273Z</time>
      </trkpt>
      <trkpt lat="43.6395" lon="7.02635">
        <ele>161.34</ele>
        <time>2024-12-01T13:19:37.278Z</time>
      </trkpt>
      <trkpt lat="43.63954" lon="7.02631">
        <ele>161.56</ele>
        <time>2024-12-01T13:19:39.279Z</time>
      </trkpt>
      <trkpt lat="43.63958" lon="7.02626">
        <ele>161.85</ele>
        <time>2024-12-01T13:19:41.285Z</time>
      </trkpt>
      <trkpt lat="43.63962" lon="7.02622">
        <ele>162.11</ele>
        <time>2024-12-01T13:19:43.286Z</time>
      </trkpt>
      <trkpt lat="43.63964" lon="7.02619">
        <ele>162.38</ele>
        <time>2024-12-01T13:19:45.290Z</time>
      </trkpt>
      <trkpt lat="43.63966" lon="7.02617">
        <ele>162.7</ele>
        <time>2024-12-01T13:19:47.292Z</time>
      </trkpt>
      <trkpt lat="43.6397" lon="7.02614">
        <ele>163.08</ele>
        <time>2024-12-01T13:19:51.301Z</time>
      </trkpt>
      <trkpt lat="43.63973" lon="7.02611">
        <ele>163.84</ele>
        <time>2024-12-01T13:19:53.304Z</time>
      </trkpt>
      <trkpt lat="43.63976" lon="7.02608">
        <ele>164.45</ele>
        <time>2024-12-01T13:19:55.306Z</time>
      </trkpt>
      <trkpt lat="43.63979" lon="7.02605">
        <ele>165.03</ele>
        <time>2024-12-01T13:19:56.330Z</time>
      </trkpt>
      <trkpt lat="43.63985" lon="7.026">
        <ele>165.61</ele>
        <time>2024-12-01T13:19:59.314Z</time>
      </trkpt>
      <trkpt lat="43.6399" lon="7.02596">
        <ele>166.35</ele>
        <time>2024-12-01T13:20:00.338Z</time>
      </trkpt>
      <trkpt lat="43.63994" lon="7.02593">
        <ele>167.04001</ele>
        <time>2024-12-01T13:20:02.352Z</time>
      </trkpt>
      <trkpt lat="43.63998" lon="7.0259">
        <ele>167.97</ele>
        <time>2024-12-01T13:20:05.323Z</time>
      </trkpt>
      <trkpt lat="43.64003" lon="7.02586">
        <ele>168.93</ele>
        <time>2024-12-01T13:20:07.139Z</time>
      </trkpt>
      <trkpt lat="43.64008" lon="7.02582">
        <ele>170.01001</ele>
        <time>2024-12-01T13:20:08.365Z</time>
      </trkpt>
      <trkpt lat="43.64013" lon="7.02579">
        <ele>170.98999</ele>
        <time>2024-12-01T13:20:10.365Z</time>
      </trkpt>
      <trkpt lat="43.64017" lon="7.02578">
        <ele>171.89</ele>
        <time>2024-12-01T13:20:12.361Z</time>
      </trkpt>
      <trkpt lat="43.64024" lon="7.02577">
        <ele>172.79001</ele>
        <time>2024-12-01T13:20:14.303Z</time>
      </trkpt>
      <trkpt lat="43.6403" lon="7.02577">
        <ele>173.47</ele>
        <time>2024-12-01T13:20:16.351Z</time>
      </trkpt>
      <trkpt lat="43.64036" lon="7.02577">
        <ele>173.61</ele>
        <time>2024-12-01T13:20:18.376Z</time>
      </trkpt>
      <trkpt lat="43.64041" lon="7.02577">
        <ele>174.33</ele>
        <time>2024-12-01T13:20:20.358Z</time>
      </trkpt>
      <trkpt lat="43.64046" lon="7.02578">
        <ele>174.94</ele>
        <time>2024-12-01T13:20:22.355Z</time>
      </trkpt>
      <trkpt lat="43.64052" lon="7.02579">
        <ele>175.76999</ele>
        <time>2024-12-01T13:20:24.316Z</time>
      </trkpt>
      <trkpt lat="43.64056" lon="7.02579">
        <ele>176.91</ele>
        <time>2024-12-01T13:20:26.242Z</time>
      </trkpt>
      <trkpt lat="43.64059" lon="7.0258">
        <ele>177.89</ele>
        <time>2024-12-01T13:20:28.324Z</time>
      </trkpt>
      <trkpt lat="43.64064" lon="7.0258">
        <ele>178.81</ele>
        <time>2024-12-01T13:20:30.327Z</time>
      </trkpt>
      <trkpt lat="43.64068" lon="7.02581">
        <ele>179.6</ele>
        <time>2024-12-01T13:20:32.331Z</time>
      </trkpt>
      <trkpt lat="43.64073" lon="7.0258">
        <ele>178.55</ele>
        <time>2024-12-01T13:20:34.334Z</time>
      </trkpt>
      <trkpt lat="43.64078" lon="7.0258">
        <ele>178.48001</ele>
        <time>2024-12-01T13:20:36.340Z</time>
      </trkpt>
      <trkpt lat="43.64082" lon="7.02581">
        <ele>178.08</ele>
        <time>2024-12-01T13:20:38.384Z</time>
      </trkpt>
      <trkpt lat="43.64086" lon="7.0258">
        <ele>178.76999</ele>
        <time>2024-12-01T13:20:40.380Z</time>
      </trkpt>
      <trkpt lat="43.6409" lon="7.02579">
        <ele>179.51999</ele>
        <time>2024-12-01T13:20:42.350Z</time>
      </trkpt>
      <trkpt lat="43.64095" lon="7.02579">
        <ele>180.33</ele>
        <time>2024-12-01T13:20:44.352Z</time>
      </trkpt>
      <trkpt lat="43.64098" lon="7.02578">
        <ele>181.04001</ele>
        <time>2024-12-01T13:20:46.356Z</time>
      </trkpt>
      <trkpt lat="43.64102" lon="7.02578">
        <ele>181.62</ele>
        <time>2024-12-01T13:20:48.360Z</time>
      </trkpt>
      <trkpt lat="43.64105" lon="7.02578">
        <ele>182.45</ele>
        <time>2024-12-01T13:20:50.363Z</time>
      </trkpt>
      <trkpt lat="43.64108" lon="7.02578">
        <ele>183.19</ele>
        <time>2024-12-01T13:20:52.366Z</time>
      </trkpt>
      <trkpt lat="43.64111" lon="7.02577">
        <ele>183.91</ele>
        <time>2024-12-01T13:20:54.370Z</time>
      </trkpt>
      <trkpt lat="43.64115" lon="7.02578">
        <ele>184.98999</ele>
        <time>2024-12-01T13:20:56.373Z</time>
      </trkpt>
      <trkpt lat="43.64118" lon="7.02578">
        <ele>185.92</ele>
        <time>2024-12-01T13:20:58.376Z</time>
      </trkpt>
      <trkpt lat="43.64121" lon="7.02577">
        <ele>186.59</ele>
        <time>2024-12-01T13:21:00.380Z</time>
      </trkpt>
      <trkpt lat="43.64123" lon="7.02578">
        <ele>187.18</ele>
        <time>2024-12-01T13:21:02.276Z</time>
      </trkpt>
      <trkpt lat="43.64124" lon="7.02578">
        <ele>187.91</ele>
        <time>2024-12-01T13:21:04.386Z</time>
      </trkpt>
      <trkpt lat="43.64128" lon="7.02578">
        <ele>187.91</ele>
        <time>2024-12-01T13:21:06.390Z</time>
      </trkpt>
      <trkpt lat="43.64128" lon="7.02579">
        <ele>189.12</ele>
        <time>2024-12-01T13:21:07.355Z</time>
      </trkpt>
      <trkpt lat="43.64149" lon="7.02575">
        <ele>189.12</ele>
        <time>2024-12-01T13:21:17.518Z</time>
      </trkpt>
      <trkpt lat="43.64151" lon="7.02574">
        <ele>193.1</ele>
        <time>2024-12-01T13:21:19.503Z</time>
      </trkpt>
      <trkpt lat="43.64155" lon="7.02571">
        <ele>193.79001</ele>
        <time>2024-12-01T13:21:20.532Z</time>
      </trkpt>
      <trkpt lat="43.64158" lon="7.02568">
        <ele>194.13</ele>
        <time>2024-12-01T13:21:22.535Z</time>
      </trkpt>
      <trkpt lat="43.64161" lon="7.02563">
        <ele>194.79001</ele>
        <time>2024-12-01T13:21:24.546Z</time>
      </trkpt>
      <trkpt lat="43.64162" lon="7.02559">
        <ele>195.37</ele>
        <time>2024-12-01T13:21:27.537Z</time>
      </trkpt>
      <trkpt lat="43.64164" lon="7.02554">
        <ele>195.87</ele>
        <time>2024-12-01T13:21:28.559Z</time>
      </trkpt>
      <trkpt lat="43.64166" lon="7.02549">
        <ele>196.20999</ele>
        <time>2024-12-01T13:21:31.538Z</time>
      </trkpt>
      <trkpt lat="43.64168" lon="7.02542">
        <ele>196.58</ele>
        <time>2024-12-01T13:21:32.561Z</time>
      </trkpt>
      <trkpt lat="43.64171" lon="7.02536">
        <ele>197.08</ele>
        <time>2024-12-01T13:21:34.570Z</time>
      </trkpt>
      <trkpt lat="43.64175" lon="7.02529">
        <ele>197.79001</ele>
        <time>2024-12-01T13:21:36.569Z</time>
      </trkpt>
      <trkpt lat="43.64178" lon="7.02523">
        <ele>198.39</ele>
        <time>2024-12-01T13:21:39.232Z</time>
      </trkpt>
      <trkpt lat="43.64182" lon="7.02519">
        <ele>198.39</ele>
        <time>2024-12-01T13:21:40.587Z</time>
      </trkpt>
      <trkpt lat="43.64186" lon="7.02516">
        <ele>199</ele>
        <time>2024-12-01T13:21:42.567Z</time>
      </trkpt>
      <trkpt lat="43.6419" lon="7.02516">
        <ele>199.54001</ele>
        <time>2024-12-01T13:21:44.573Z</time>
      </trkpt>
      <trkpt lat="43.64194" lon="7.02518">
        <ele>200.01001</ele>
        <time>2024-12-01T13:21:47.495Z</time>
      </trkpt>
      <trkpt lat="43.642" lon="7.0252">
        <ele>200.48001</ele>
        <time>2024-12-01T13:21:49.497Z</time>
      </trkpt>
      <trkpt lat="43.64205" lon="7.02521">
        <ele>201.07</ele>
        <time>2024-12-01T13:21:51.579Z</time>
      </trkpt>
      <trkpt lat="43.64211" lon="7.02525">
        <ele>201.56</ele>
        <time>2024-12-01T13:21:53.299Z</time>
      </trkpt>
      <trkpt lat="43.64217" lon="7.02528">
        <ele>202.13</ele>
        <time>2024-12-01T13:21:55.505Z</time>
      </trkpt>
      <trkpt lat="43.64224" lon="7.02532">
        <ele>202.23999</ele>
        <time>2024-12-01T13:21:57.511Z</time>
      </trkpt>
      <trkpt lat="43.6423" lon="7.02536">
        <ele>202.69</ele>
        <time>2024-12-01T13:21:59.592Z</time>
      </trkpt>
      <trkpt lat="43.64237" lon="7.02539">
        <ele>203.04001</ele>
        <time>2024-12-01T13:22:01.596Z</time>
      </trkpt>
      <trkpt lat="43.64243" lon="7.02543">
        <ele>203.3</ele>
        <time>2024-12-01T13:22:03.600Z</time>
      </trkpt>
      <trkpt lat="43.64248" lon="7.02545">
        <ele>203.34</ele>
        <time>2024-12-01T13:22:05.580Z</time>
      </trkpt>
      <trkpt lat="43.64251" lon="7.02546">
        <ele>203.51001</ele>
        <time>2024-12-01T13:22:07.606Z</time>
      </trkpt>
      <trkpt lat="43.64254" lon="7.02546">
        <ele>203.84</ele>
        <time>2024-12-01T13:22:11.967Z</time>
      </trkpt>
      <trkpt lat="43.64257" lon="7.02544">
        <ele>203.86</ele>
        <time>2024-12-01T13:22:13.936Z</time>
      </trkpt>
      <trkpt lat="43.64261" lon="7.0254">
        <ele>204.05</ele>
        <time>2024-12-01T13:22:15.523Z</time>
      </trkpt>
      <trkpt lat="43.64266" lon="7.02535">
        <ele>204.23001</ele>
        <time>2024-12-01T13:22:17.944Z</time>
      </trkpt>
      <trkpt lat="43.64271" lon="7.02528">
        <ele>204.20999</ele>
        <time>2024-12-01T13:22:19.949Z</time>
      </trkpt>
      <trkpt lat="43.64274" lon="7.02518">
        <ele>204.25</ele>
        <time>2024-12-01T13:22:21.988Z</time>
      </trkpt>
      <trkpt lat="43.64279" lon="7.02508">
        <ele>204.25</ele>
        <time>2024-12-01T13:22:23.980Z</time>
      </trkpt>
      <trkpt lat="43.64282" lon="7.02498">
        <ele>204.39</ele>
        <time>2024-12-01T13:22:25.958Z</time>
      </trkpt>
      <trkpt lat="43.64285" lon="7.02489">
        <ele>204.43</ele>
        <time>2024-12-01T13:22:27.961Z</time>
      </trkpt>
      <trkpt lat="43.64288" lon="7.02481">
        <ele>204.51999</ele>
        <time>2024-12-01T13:22:29.968Z</time>
      </trkpt>
      <trkpt lat="43.6429" lon="7.02474">
        <ele>204.66</ele>
        <time>2024-12-01T13:22:31.662Z</time>
      </trkpt>
      <trkpt lat="43.64295" lon="7.02468">
        <ele>204.76001</ele>
        <time>2024-12-01T13:22:33.972Z</time>
      </trkpt>
      <trkpt lat="43.64301" lon="7.02464">
        <ele>204.75</ele>
        <time>2024-12-01T13:22:35.976Z</time>
      </trkpt>
      <trkpt lat="43.64309" lon="7.02464">
        <ele>204.82</ele>
        <time>2024-12-01T13:22:37.980Z</time>
      </trkpt>
      <trkpt lat="43.64318" lon="7.02465">
        <ele>204.91</ele>
        <time>2024-12-01T13:22:39.982Z</time>
      </trkpt>
      <trkpt lat="43.64327" lon="7.02469">
        <ele>204.97</ele>
        <time>2024-12-01T13:22:41.492Z</time>
      </trkpt>
      <trkpt lat="43.64336" lon="7.02473">
        <ele>205.05</ele>
        <time>2024-12-01T13:22:44.057Z</time>
      </trkpt>
      <trkpt lat="43.64344" lon="7.02476">
        <ele>205.11</ele>
        <time>2024-12-01T13:22:46.044Z</time>
      </trkpt>
      <trkpt lat="43.64352" lon="7.02478">
        <ele>205.15</ele>
        <time>2024-12-01T13:22:47.997Z</time>
      </trkpt>
      <trkpt lat="43.6436" lon="7.02481">
        <ele>205.2</ele>
        <time>2024-12-01T13:22:49.970Z</time>
      </trkpt>
      <trkpt lat="43.64366" lon="7.02485">
        <ele>205.19</ele>
        <time>2024-12-01T13:22:52.003Z</time>
      </trkpt>
      <trkpt lat="43.64366" lon="7.02492">
        <ele>205.23001</ele>
        <time>2024-12-01T13:22:54.007Z</time>
      </trkpt>
      <trkpt lat="43.64367" lon="7.02501">
        <ele>205.26001</ele>
        <time>2024-12-01T13:22:55.614Z</time>
      </trkpt>
      <trkpt lat="43.64367" lon="7.0251">
        <ele>205.32</ele>
        <time>2024-12-01T13:22:58.015Z</time>
      </trkpt>
      <trkpt lat="43.64367" lon="7.02522">
        <ele>205.36</ele>
        <time>2024-12-01T13:22:59.548Z</time>
      </trkpt>
      <trkpt lat="43.64365" lon="7.02536">
        <ele>205.34</ele>
        <time>2024-12-01T13:23:01.625Z</time>
      </trkpt>
      <trkpt lat="43.64365" lon="7.02551">
        <ele>205.36</ele>
        <time>2024-12-01T13:23:04.029Z</time>
      </trkpt>
      <trkpt lat="43.64366" lon="7.02565">
        <ele>205.37</ele>
        <time>2024-12-01T13:23:05.661Z</time>
      </trkpt>
      <trkpt lat="43.64367" lon="7.02581">
        <ele>205.38</ele>
        <time>2024-12-01T13:23:08.037Z</time>
      </trkpt>
      <trkpt lat="43.64368" lon="7.02595">
        <ele>205.35</ele>
        <time>2024-12-01T13:23:10.036Z</time>
      </trkpt>
      <trkpt lat="43.64368" lon="7.02606">
        <ele>205.33</ele>
        <time>2024-12-01T13:23:12.039Z</time>
      </trkpt>
      <trkpt lat="43.64368" lon="7.02614">
        <ele>205.35</ele>
        <time>2024-12-01T13:23:14.043Z</time>
      </trkpt>
      <trkpt lat="43.64365" lon="7.02626">
        <ele>209.68</ele>
        <time>2024-12-01T13:24:42.248Z</time>
      </trkpt>
      <trkpt lat="43.64364" lon="7.02635">
        <ele>209.57</ele>
        <time>2024-12-01T13:24:44.250Z</time>
      </trkpt>
      <trkpt lat="43.64364" lon="7.02645">
        <ele>209.49</ele>
        <time>2024-12-01T13:24:46.255Z</time>
      </trkpt>
      <trkpt lat="43.64365" lon="7.02655">
        <ele>209.4</ele>
        <time>2024-12-01T13:24:48.259Z</time>
      </trkpt>
      <trkpt lat="43.64367" lon="7.02664">
        <ele>209.31</ele>
        <time>2024-12-01T13:24:50.262Z</time>
      </trkpt>
      <trkpt lat="43.64367" lon="7.02673">
        <ele>209.24</ele>
        <time>2024-12-01T13:24:52.267Z</time>
      </trkpt>
      <trkpt lat="43.64369" lon="7.02681">
        <ele>209.14</ele>
        <time>2024-12-01T13:24:53.829Z</time>
      </trkpt>
      <trkpt lat="43.6437" lon="7.02687">
        <ele>209.03</ele>
        <time>2024-12-01T13:24:56.271Z</time>
      </trkpt>
      <trkpt lat="43.64372" lon="7.02698">
        <ele>208.93</ele>
        <time>2024-12-01T13:24:58.277Z</time>
      </trkpt>
      <trkpt lat="43.64373" lon="7.02707">
        <ele>208.79001</ele>
        <time>2024-12-01T13:25:00.278Z</time>
      </trkpt>
      <trkpt lat="43.64374" lon="7.02717">
        <ele>208.73001</ele>
        <time>2024-12-01T13:25:02.282Z</time>
      </trkpt>
      <trkpt lat="43.64376" lon="7.02728">
        <ele>208.64</ele>
        <time>2024-12-01T13:25:04.171Z</time>
      </trkpt>
      <trkpt lat="43.64376" lon="7.02737">
        <ele>208.57</ele>
        <time>2024-12-01T13:25:06.290Z</time>
      </trkpt>
      <trkpt lat="43.64376" lon="7.02745">
        <ele>208.47</ele>
        <time>2024-12-01T13:25:08.292Z</time>
      </trkpt>
      <trkpt lat="43.64377" lon="7.02752">
        <ele>208.42</ele>
        <time>2024-12-01T13:25:10.297Z</time>
      </trkpt>
      <trkpt lat="43.64378" lon="7.0276">
        <ele>208.33</ele>
        <time>2024-12-01T13:25:11.853Z</time>
      </trkpt>
      <trkpt lat="43.64378" lon="7.0277">
        <ele>208.18</ele>
        <time>2024-12-01T13:25:14.303Z</time>
      </trkpt>
      <trkpt lat="43.6438" lon="7.02778">
        <ele>208.15</ele>
        <time>2024-12-01T13:25:16.308Z</time>
      </trkpt>
      <trkpt lat="43.64379" lon="7.02786">
        <ele>208.12</ele>
        <time>2024-12-01T13:25:18.310Z</time>
      </trkpt>
      <trkpt lat="43.6438" lon="7.02797">
        <ele>208.05</ele>
        <time>2024-12-01T13:25:20.314Z</time>
      </trkpt>
      <trkpt lat="43.6438" lon="7.0281">
        <ele>208</ele>
        <time>2024-12-01T13:25:22.337Z</time>
      </trkpt>
      <trkpt lat="43.64381" lon="7.02821">
        <ele>207.97</ele>
        <time>2024-12-01T13:25:24.320Z</time>
      </trkpt>
      <trkpt lat="43.64382" lon="7.02839">
        <ele>207.91</ele>
        <time>2024-12-01T13:25:26.325Z</time>
      </trkpt>
      <trkpt lat="43.64384" lon="7.02858">
        <ele>207.86</ele>
        <time>2024-12-01T13:25:28.328Z</time>
      </trkpt>
      <trkpt lat="43.64391" lon="7.02885">
        <ele>207.76999</ele>
        <time>2024-12-01T13:25:30.344Z</time>
      </trkpt>
      <trkpt lat="43.64399" lon="7.02907">
        <ele>207.61</ele>
        <time>2024-12-01T13:25:32.339Z</time>
      </trkpt>
      <trkpt lat="43.64407" lon="7.02928">
        <ele>207.5</ele>
        <time>2024-12-01T13:25:34.339Z</time>
      </trkpt>
      <trkpt lat="43.64413" lon="7.02946">
        <ele>207.35</ele>
        <time>2024-12-01T13:25:36.345Z</time>
      </trkpt>
      <trkpt lat="43.64418" lon="7.02964">
        <ele>207.20999</ele>
        <time>2024-12-01T13:25:38.362Z</time>
      </trkpt>
      <trkpt lat="43.64428" lon="7.02983">
        <ele>207</ele>
        <time>2024-12-01T13:25:40.352Z</time>
      </trkpt>
      <trkpt lat="43.64438" lon="7.03">
        <ele>206.75</ele>
        <time>2024-12-01T13:25:42.357Z</time>
      </trkpt>
      <trkpt lat="43.6445" lon="7.03009">
        <ele>206.48001</ele>
        <time>2024-12-01T13:25:43.393Z</time>
      </trkpt>
      <trkpt lat="43.64462" lon="7.03012">
        <ele>206.22</ele>
        <time>2024-12-01T13:25:45.322Z</time>
      </trkpt>
      <trkpt lat="43.64471" lon="7.03015">
        <ele>205.97</ele>
        <time>2024-12-01T13:25:48.367Z</time>
      </trkpt>
      <trkpt lat="43.64476" lon="7.03016">
        <ele>205.75</ele>
        <time>2024-12-01T13:25:48.984Z</time>
      </trkpt>
      <trkpt lat="43.64483" lon="7.03017">
        <ele>205.51999</ele>
        <time>2024-12-01T13:25:51.330Z</time>
      </trkpt>
      <trkpt lat="43.64489" lon="7.03019">
        <ele>205.26001</ele>
        <time>2024-12-01T13:25:53.334Z</time>
      </trkpt>
      <trkpt lat="43.64493" lon="7.03024">
        <ele>205.01999</ele>
        <time>2024-12-01T13:25:55.336Z</time>
      </trkpt>
      <trkpt lat="43.64495" lon="7.0303">
        <ele>204.81</ele>
        <time>2024-12-01T13:25:57.340Z</time>
      </trkpt>
      <trkpt lat="43.64495" lon="7.03032">
        <ele>204.51001</ele>
        <time>2024-12-01T13:25:58.968Z</time>
      </trkpt>
      <trkpt lat="43.64496" lon="7.03038">
        <ele>204.23999</ele>
        <time>2024-12-01T13:26:01.348Z</time>
      </trkpt>
      <trkpt lat="43.64499" lon="7.03042">
        <ele>203.95</ele>
        <time>2024-12-01T13:26:03.353Z</time>
      </trkpt>
      <trkpt lat="43.64503" lon="7.03046">
        <ele>203.73001</ele>
        <time>2024-12-01T13:26:05.006Z</time>
      </trkpt>
      <trkpt lat="43.64506" lon="7.0305">
        <ele>203.43</ele>
        <time>2024-12-01T13:26:07.356Z</time>
      </trkpt>
      <trkpt lat="43.64511" lon="7.0305">
        <ele>203.08</ele>
        <time>2024-12-01T13:26:09.362Z</time>
      </trkpt>
      <trkpt lat="43.64515" lon="7.03045">
        <ele>202.82</ele>
        <time>2024-12-01T13:26:11.363Z</time>
      </trkpt>
      <trkpt lat="43.64521" lon="7.03035">
        <ele>202.6</ele>
        <time>2024-12-01T13:26:13.367Z</time>
      </trkpt>
      <trkpt lat="43.64525" lon="7.03025">
        <ele>202.20999</ele>
        <time>2024-12-01T13:26:15.372Z</time>
      </trkpt>
      <trkpt lat="43.64528" lon="7.03017">
        <ele>202</ele>
        <time>2024-12-01T13:26:17.380Z</time>
      </trkpt>
      <trkpt lat="43.64532" lon="7.03008">
        <ele>201.73999</ele>
        <time>2024-12-01T13:26:19.377Z</time>
      </trkpt>
      <trkpt lat="43.64535" lon="7.03">
        <ele>201.45</ele>
        <time>2024-12-01T13:26:21.381Z</time>
      </trkpt>
      <trkpt lat="43.64538" lon="7.02994">
        <ele>201.34</ele>
        <time>2024-12-01T13:26:23.141Z</time>
      </trkpt>
      <trkpt lat="43.6454" lon="7.02986">
        <ele>201.19</ele>
        <time>2024-12-01T13:26:25.389Z</time>
      </trkpt>
      <trkpt lat="43.64544" lon="7.02979">
        <ele>201.11</ele>
        <time>2024-12-01T13:26:27.392Z</time>
      </trkpt>
      <trkpt lat="43.64547" lon="7.02975">
        <ele>200.84</ele>
        <time>2024-12-01T13:26:29.395Z</time>
      </trkpt>
      <trkpt lat="43.64551" lon="7.02975">
        <ele>200.66</ele>
        <time>2024-12-01T13:26:31.361Z</time>
      </trkpt>
      <trkpt lat="43.64558" lon="7.02978">
        <ele>200.41</ele>
        <time>2024-12-01T13:26:33.403Z</time>
      </trkpt>
      <trkpt lat="43.64568" lon="7.02982">
        <ele>200.25</ele>
        <time>2024-12-01T13:26:35.408Z</time>
      </trkpt>
      <trkpt lat="43.64578" lon="7.02985">
        <ele>199.94</ele>
        <time>2024-12-01T13:26:37.411Z</time>
      </trkpt>
      <trkpt lat="43.64589" lon="7.02989">
        <ele>199.65</ele>
        <time>2024-12-01T13:26:39.414Z</time>
      </trkpt>
      <trkpt lat="43.646" lon="7.02994">
        <ele>199.37</ele>
        <time>2024-12-01T13:26:41.415Z</time>
      </trkpt>
      <trkpt lat="43.64614" lon="7.02997">
        <ele>199.09</ele>
        <time>2024-12-01T13:26:43.419Z</time>
      </trkpt>
      <trkpt lat="43.64627" lon="7.03">
        <ele>198.75</ele>
        <time>2024-12-01T13:26:45.430Z</time>
      </trkpt>
      <trkpt lat="43.64641" lon="7.03002">
        <ele>198.45</ele>
        <time>2024-12-01T13:26:47.426Z</time>
      </trkpt>
      <trkpt lat="43.64642" lon="7.03002">
        <ele>197.98001</ele>
        <time>2024-12-01T13:26:48.468Z</time>
      </trkpt>
      <trkpt lat="43.64647" lon="7.03003">
        <ele>197.82</ele>
        <time>2024-12-01T13:26:49.429Z</time>
      </trkpt>
      <trkpt lat="43.64663" lon="7.03005">
        <ele>197.63</ele>
        <time>2024-12-01T13:26:51.433Z</time>
      </trkpt>
      <trkpt lat="43.64679" lon="7.03007">
        <ele>197.2</ele>
        <time>2024-12-01T13:26:53.440Z</time>
      </trkpt>
      <trkpt lat="43.64691" lon="7.0301">
        <ele>196.73001</ele>
        <time>2024-12-01T13:26:55.440Z</time>
      </trkpt>
      <trkpt lat="43.64702" lon="7.03012">
        <ele>196.28</ele>
        <time>2024-12-01T13:26:57.447Z</time>
      </trkpt>
      <trkpt lat="43.64708" lon="7.03012">
        <ele>195.83</ele>
        <time>2024-12-01T13:26:59.100Z</time>
      </trkpt>
      <trkpt lat="43.64712" lon="7.03011">
        <ele>195.36</ele>
        <time>2024-12-01T13:27:01.452Z</time>
      </trkpt>
      <trkpt lat="43.64714" lon="7.03004">
        <ele>194.98999</ele>
        <time>2024-12-01T13:27:45.310Z</time>
      </trkpt>
      <trkpt lat="43.64716" lon="7.03005">
        <ele>194.98999</ele>
        <time>2024-12-01T13:27:50.373Z</time>
      </trkpt>
      <trkpt lat="43.64717" lon="7.03005">
        <ele>194.98999</ele>
        <time>2024-12-01T13:27:54.937Z</time>
      </trkpt>
      <trkpt lat="43.64717" lon="7.03006">
        <ele>194.98999</ele>
        <time>2024-12-01T13:27:58.945Z</time>
      </trkpt>
      <trkpt lat="43.64716" lon="7.03006">
        <ele>194.98999</ele>
        <time>2024-12-01T13:27:58.967Z</time>
      </trkpt>
      <trkpt lat="43.64717" lon="7.03006">
        <ele>194.98999</ele>
        <time>2024-12-01T13:28:01.912Z</time>
      </trkpt>
      <trkpt lat="43.64718" lon="7.03005">
        <ele>194.98999</ele>
        <time>2024-12-01T13:28:02.951Z</time>
      </trkpt>
      <trkpt lat="43.64719" lon="7.03004">
        <ele>194.98999</ele>
        <time>2024-12-01T13:28:03.912Z</time>
      </trkpt>
      <trkpt lat="43.6472" lon="7.03002">
        <ele>194.98999</ele>
        <time>2024-12-01T13:28:04.950Z</time>
      </trkpt>
      <trkpt lat="43.64721" lon="7.03001">
        <ele>194.98999</ele>
        <time>2024-12-01T13:28:05.916Z</time>
      </trkpt>
      <trkpt lat="43.64724" lon="7.02998">
        <ele>194.98999</ele>
        <time>2024-12-01T13:28:06.959Z</time>
      </trkpt>
      <trkpt lat="43.6473" lon="7.0299">
        <ele>189.87</ele>
        <time>2024-12-01T13:28:08.962Z</time>
      </trkpt>
      <trkpt lat="43.64731" lon="7.02989">
        <ele>189.76001</ele>
        <time>2024-12-01T13:28:09.976Z</time>
      </trkpt>
      <trkpt lat="43.64735" lon="7.02989">
        <ele>189.58</ele>
        <time>2024-12-01T13:28:12.969Z</time>
      </trkpt>
      <trkpt lat="43.64737" lon="7.0299">
        <ele>189.44</ele>
        <time>2024-12-01T13:28:12.995Z</time>
      </trkpt>
      <trkpt lat="43.64738" lon="7.0299">
        <ele>189.4</ele>
        <time>2024-12-01T13:28:14.798Z</time>
      </trkpt>
      <trkpt lat="43.6474" lon="7.0299">
        <ele>189.39</ele>
        <time>2024-12-01T13:28:15.935Z</time>
      </trkpt>
      <trkpt lat="43.64741" lon="7.0299">
        <ele>189.35</ele>
        <time>2024-12-01T13:28:16.976Z</time>
      </trkpt>
      <trkpt lat="43.64742" lon="7.0299">
        <ele>189.31</ele>
        <time>2024-12-01T13:28:16.988Z</time>
      </trkpt>
      <trkpt lat="43.64743" lon="7.0299">
        <ele>189.29001</ele>
        <time>2024-12-01T13:28:18.900Z</time>
      </trkpt>
      <trkpt lat="43.64745" lon="7.0299">
        <ele>189.36</ele>
        <time>2024-12-01T13:28:19.941Z</time>
      </trkpt>
      <trkpt lat="43.64746" lon="7.0299">
        <ele>189.32</ele>
        <time>2024-12-01T13:28:20.903Z</time>
      </trkpt>
      <trkpt lat="43.64748" lon="7.02989">
        <ele>189.38</ele>
        <time>2024-12-01T13:28:21.945Z</time>
      </trkpt>
      <trkpt lat="43.6475" lon="7.02988">
        <ele>189.3</ele>
        <time>2024-12-01T13:28:22.907Z</time>
      </trkpt>
      <trkpt lat="43.64751" lon="7.02987">
        <ele>189.25</ele>
        <time>2024-12-01T13:28:23.951Z</time>
      </trkpt>
      <trkpt lat="43.64753" lon="7.02986">
        <ele>189.26999</ele>
        <time>2024-12-01T13:28:24.911Z</time>
      </trkpt>
      <trkpt lat="43.64755" lon="7.02984">
        <ele>189.28</ele>
        <time>2024-12-01T13:28:25.952Z</time>
      </trkpt>
      <trkpt lat="43.64757" lon="7.02983">
        <ele>189.26999</ele>
        <time>2024-12-01T13:28:26.916Z</time>
      </trkpt>
      <trkpt lat="43.64759" lon="7.02982">
        <ele>189.25</ele>
        <time>2024-12-01T13:28:27.957Z</time>
      </trkpt>
      <trkpt lat="43.64762" lon="7.0298">
        <ele>189.31</ele>
        <time>2024-12-01T13:28:28.932Z</time>
      </trkpt>
      <trkpt lat="43.64765" lon="7.02978">
        <ele>188.57</ele>
        <time>2024-12-01T13:28:29.961Z</time>
      </trkpt>
      <trkpt lat="43.64768" lon="7.02976">
        <ele>188.5</ele>
        <time>2024-12-01T13:28:30.457Z</time>
      </trkpt>
      <trkpt lat="43.64769" lon="7.02975">
        <ele>188.53</ele>
        <time>2024-12-01T13:28:31.963Z</time>
      </trkpt>
      <trkpt lat="43.64772" lon="7.02973">
        <ele>188.59</ele>
        <time>2024-12-01T13:28:32.925Z</time>
      </trkpt>
      <trkpt lat="43.64774" lon="7.02971">
        <ele>188.7</ele>
        <time>2024-12-01T13:28:33.967Z</time>
      </trkpt>
      <trkpt lat="43.64775" lon="7.0297">
        <ele>188.68</ele>
        <time>2024-12-01T13:28:34.929Z</time>
      </trkpt>
      <trkpt lat="43.64777" lon="7.02968">
        <ele>188.70999</ele>
        <time>2024-12-01T13:28:35.971Z</time>
      </trkpt>
      <trkpt lat="43.64779" lon="7.02966">
        <ele>188.75</ele>
        <time>2024-12-01T13:28:36.843Z</time>
      </trkpt>
      <trkpt lat="43.6478" lon="7.02965">
        <ele>188.84</ele>
        <time>2024-12-01T13:28:37.974Z</time>
      </trkpt>
      <trkpt lat="43.64782" lon="7.02964">
        <ele>188.64</ele>
        <time>2024-12-01T13:28:38.938Z</time>
      </trkpt>
      <trkpt lat="43.64782" lon="7.02963">
        <ele>188.7</ele>
        <time>2024-12-01T13:28:39.978Z</time>
      </trkpt>
      <trkpt lat="43.64783" lon="7.02961">
        <ele>188.72</ele>
        <time>2024-12-01T13:28:40.534Z</time>
      </trkpt>
      <trkpt lat="43.64784" lon="7.0296">
        <ele>188.75</ele>
        <time>2024-12-01T13:28:41.982Z</time>
      </trkpt>
      <trkpt lat="43.64785" lon="7.02959">
        <ele>188.79001</ele>
        <time>2024-12-01T13:28:42.945Z</time>
      </trkpt>
      <trkpt lat="43.64786" lon="7.02959">
        <ele>188.75</ele>
        <time>2024-12-01T13:28:43.985Z</time>
      </trkpt>
      <trkpt lat="43.64787" lon="7.02958">
        <ele>188.76999</ele>
        <time>2024-12-01T13:28:44.946Z</time>
      </trkpt>
      <trkpt lat="43.64789" lon="7.02957">
        <ele>188.8</ele>
        <time>2024-12-01T13:28:45.990Z</time>
      </trkpt>
      <trkpt lat="43.64791" lon="7.02956">
        <ele>188.76001</ele>
        <time>2024-12-01T13:28:46.953Z</time>
      </trkpt>
      <trkpt lat="43.64793" lon="7.02955">
        <ele>188.78</ele>
        <time>2024-12-01T13:28:47.993Z</time>
      </trkpt>
      <trkpt lat="43.64795" lon="7.02955">
        <ele>188.8</ele>
        <time>2024-12-01T13:28:48.955Z</time>
      </trkpt>
      <trkpt lat="43.64798" lon="7.02955">
        <ele>188.83</ele>
        <time>2024-12-01T13:28:49.996Z</time>
      </trkpt>
      <trkpt lat="43.648" lon="7.02955">
        <ele>188.81</ele>
        <time>2024-12-01T13:28:50.790Z</time>
      </trkpt>
      <trkpt lat="43.64803" lon="7.02955">
        <ele>188.82</ele>
        <time>2024-12-01T13:28:52Z</time>
      </trkpt>
      <trkpt lat="43.6483" lon="7.02961">
        <ele>188.76001</ele>
        <time>2024-12-01T13:30:17.681Z</time>
      </trkpt>
      <trkpt lat="43.64831" lon="7.02961">
        <ele>188.76001</ele>
        <time>2024-12-01T13:30:18.672Z</time>
      </trkpt>
      <trkpt lat="43.64833" lon="7.02962">
        <ele>188.73999</ele>
        <time>2024-12-01T13:30:20.643Z</time>
      </trkpt>
      <trkpt lat="43.64836" lon="7.02963">
        <ele>188.76999</ele>
        <time>2024-12-01T13:30:22.646Z</time>
      </trkpt>
      <trkpt lat="43.64838" lon="7.02964">
        <ele>188.76001</ele>
        <time>2024-12-01T13:30:23.692Z</time>
      </trkpt>
      <trkpt lat="43.6484" lon="7.02965">
        <ele>188.76999</ele>
        <time>2024-12-01T13:30:24.261Z</time>
      </trkpt>
      <trkpt lat="43.64844" lon="7.02967">
        <ele>188.76001</ele>
        <time>2024-12-01T13:30:25.695Z</time>
      </trkpt>
      <trkpt lat="43.64848" lon="7.02969">
        <ele>188.70999</ele>
        <time>2024-12-01T13:30:26.655Z</time>
      </trkpt>
      <trkpt lat="43.64851" lon="7.0297">
        <ele>188.72</ele>
        <time>2024-12-01T13:30:27.696Z</time>
      </trkpt>
      <trkpt lat="43.64855" lon="7.02972">
        <ele>188.72</ele>
        <time>2024-12-01T13:30:28.296Z</time>
      </trkpt>
      <trkpt lat="43.64859" lon="7.02973">
        <ele>188.69</ele>
        <time>2024-12-01T13:30:29.700Z</time>
      </trkpt>
      <trkpt lat="43.64863" lon="7.02974">
        <ele>188.67</ele>
        <time>2024-12-01T13:30:30.304Z</time>
      </trkpt>
      <trkpt lat="43.64867" lon="7.02975">
        <ele>188.66</ele>
        <time>2024-12-01T13:30:31.245Z</time>
      </trkpt>
      <trkpt lat="43.64871" lon="7.02977">
        <ele>188.62</ele>
        <time>2024-12-01T13:30:32.229Z</time>
      </trkpt>
      <trkpt lat="43.64875" lon="7.02977">
        <ele>188.6</ele>
        <time>2024-12-01T13:30:33.218Z</time>
      </trkpt>
      <trkpt lat="43.6488" lon="7.02978">
        <ele>188.56</ele>
        <time>2024-12-01T13:30:34.669Z</time>
      </trkpt>
      <trkpt lat="43.64885" lon="7.02979">
        <ele>188.53</ele>
        <time>2024-12-01T13:30:35.260Z</time>
      </trkpt>
      <trkpt lat="43.6489" lon="7.0298">
        <ele>188.48001</ele>
        <time>2024-12-01T13:30:36.218Z</time>
      </trkpt>
      <trkpt lat="43.64896" lon="7.02981">
        <ele>188.44</ele>
        <time>2024-12-01T13:30:37.688Z</time>
      </trkpt>
      <trkpt lat="43.64902" lon="7.02982">
        <ele>188.37</ele>
        <time>2024-12-01T13:30:38.677Z</time>
      </trkpt>
      <trkpt lat="43.64909" lon="7.02982">
        <ele>188.31</ele>
        <time>2024-12-01T13:30:39.219Z</time>
      </trkpt>
      <trkpt lat="43.64917" lon="7.02984">
        <ele>188.20999</ele>
        <time>2024-12-01T13:30:40.680Z</time>
      </trkpt>
      <trkpt lat="43.64926" lon="7.02985">
        <ele>188.12</ele>
        <time>2024-12-01T13:30:41.198Z</time>
      </trkpt>
      <trkpt lat="43.64936" lon="7.02987">
        <ele>188.04001</ele>
        <time>2024-12-01T13:30:42.674Z</time>
      </trkpt>
      <trkpt lat="43.64947" lon="7.02989">
        <ele>187.95999</ele>
        <time>2024-12-01T13:30:43.239Z</time>
      </trkpt>
      <trkpt lat="43.64955" lon="7.02991">
        <ele>187.87</ele>
        <time>2024-12-01T13:30:44.688Z</time>
      </trkpt>
      <trkpt lat="43.64963" lon="7.02993">
        <ele>187.78</ele>
        <time>2024-12-01T13:30:45.270Z</time>
      </trkpt>
      <trkpt lat="43.6497" lon="7.02996">
        <ele>187.64</ele>
        <time>2024-12-01T13:30:46.209Z</time>
      </trkpt>
      <trkpt lat="43.64976" lon="7.02997">
        <ele>187.5</ele>
        <time>2024-12-01T13:30:47.230Z</time>
      </trkpt>
      <trkpt lat="43.64983" lon="7.02999">
        <ele>187.51999</ele>
        <time>2024-12-01T13:30:48.695Z</time>
      </trkpt>
      <trkpt lat="43.64988" lon="7.03001">
        <ele>187.44</ele>
        <time>2024-12-01T13:30:49.271Z</time>
      </trkpt>
      <trkpt lat="43.64993" lon="7.03002">
        <ele>187.3</ele>
        <time>2024-12-01T13:30:50.699Z</time>
      </trkpt>
      <trkpt lat="43.64998" lon="7.03004">
        <ele>187.18</ele>
        <time>2024-12-01T13:30:51.700Z</time>
      </trkpt>
      <trkpt lat="43.65003" lon="7.03005">
        <ele>187.06</ele>
        <time>2024-12-01T13:30:52.702Z</time>
      </trkpt>
      <trkpt lat="43.65008" lon="7.03007">
        <ele>186.97</ele>
        <time>2024-12-01T13:30:53.229Z</time>
      </trkpt>
      <trkpt lat="43.65013" lon="7.03008">
        <ele>186.86</ele>
        <time>2024-12-01T13:30:54.702Z</time>
      </trkpt>
      <trkpt lat="43.65018" lon="7.0301">
        <ele>186.73001</ele>
        <time>2024-12-01T13:30:55.272Z</time>
      </trkpt>
      <trkpt lat="43.65023" lon="7.03012">
        <ele>186.6</ele>
        <time>2024-12-01T13:30:56.710Z</time>
      </trkpt>
      <trkpt lat="43.65028" lon="7.03014">
        <ele>186.47</ele>
        <time>2024-12-01T13:30:57.248Z</time>
      </trkpt>
      <trkpt lat="43.65032" lon="7.03017">
        <ele>186.3</ele>
        <time>2024-12-01T13:30:58.671Z</time>
      </trkpt>
      <trkpt lat="43.65036" lon="7.03019">
        <ele>186.17</ele>
        <time>2024-12-01T13:30:59.258Z</time>
      </trkpt>
      <trkpt lat="43.65039" lon="7.03022">
        <ele>186.01001</ele>
        <time>2024-12-01T13:31:00.730Z</time>
      </trkpt>
      <trkpt lat="43.65041" lon="7.03026">
        <ele>185.86</ele>
        <time>2024-12-01T13:31:01.283Z</time>
      </trkpt>
      <trkpt lat="43.65043" lon="7.0303">
        <ele>185.69</ele>
        <time>2024-12-01T13:31:02.281Z</time>
      </trkpt>
      <trkpt lat="43.65044" lon="7.03035">
        <ele>185.53</ele>
        <time>2024-12-01T13:31:03.280Z</time>
      </trkpt>
      <trkpt lat="43.65045" lon="7.0304">
        <ele>185.38</ele>
        <time>2024-12-01T13:31:04.725Z</time>
      </trkpt>
      <trkpt lat="43.65046" lon="7.03046">
        <ele>185.22</ele>
        <time>2024-12-01T13:31:05.715Z</time>
      </trkpt>
      <trkpt lat="43.65047" lon="7.03052">
        <ele>185.04001</ele>
        <time>2024-12-01T13:31:06.728Z</time>
      </trkpt>
      <trkpt lat="43.65048" lon="7.03059">
        <ele>184.85</ele>
        <time>2024-12-01T13:31:07.277Z</time>
      </trkpt>
      <trkpt lat="43.65048" lon="7.03064">
        <ele>184.67</ele>
        <time>2024-12-01T13:31:08.708Z</time>
      </trkpt>
      <trkpt lat="43.65049" lon="7.03071">
        <ele>184.51999</ele>
        <time>2024-12-01T13:31:09.696Z</time>
      </trkpt>
      <trkpt lat="43.65048" lon="7.03078">
        <ele>184.35</ele>
        <time>2024-12-01T13:31:10.275Z</time>
      </trkpt>
      <trkpt lat="43.65048" lon="7.03085">
        <ele>184.2</ele>
        <time>2024-12-01T13:31:11.288Z</time>
      </trkpt>
      <trkpt lat="43.65048" lon="7.03091">
        <ele>184.01999</ele>
        <time>2024-12-01T13:31:12.741Z</time>
      </trkpt>
      <trkpt lat="43.65047" lon="7.03097">
        <ele>183.85</ele>
        <time>2024-12-01T13:31:13.275Z</time>
      </trkpt>
      <trkpt lat="43.65047" lon="7.03101">
        <ele>183.69</ele>
        <time>2024-12-01T13:31:14.299Z</time>
      </trkpt>
      <trkpt lat="43.65046" lon="7.03106">
        <ele>183.54001</ele>
        <time>2024-12-01T13:31:15.287Z</time>
      </trkpt>
      <trkpt lat="43.65046" lon="7.03111">
        <ele>183.37</ele>
        <time>2024-12-01T13:31:16.721Z</time>
      </trkpt>
      <trkpt lat="43.65045" lon="7.03117">
        <ele>183.22</ele>
        <time>2024-12-01T13:31:17.711Z</time>
      </trkpt>
      <trkpt lat="43.65045" lon="7.03122">
        <ele>183.05</ele>
        <time>2024-12-01T13:31:18.282Z</time>
      </trkpt>
      <trkpt lat="43.65044" lon="7.03129">
        <ele>182.92</ele>
        <time>2024-12-01T13:31:19.305Z</time>
      </trkpt>
      <trkpt lat="43.65045" lon="7.03135">
        <ele>182.73999</ele>
        <time>2024-12-01T13:31:20.676Z</time>
      </trkpt>
      <trkpt lat="43.65046" lon="7.03142">
        <ele>182.6</ele>
        <time>2024-12-01T13:31:21.718Z</time>
      </trkpt>
      <trkpt lat="43.65047" lon="7.03148">
        <ele>182.45999</ele>
        <time>2024-12-01T13:31:22.679Z</time>
      </trkpt>
      <trkpt lat="43.65049" lon="7.03153">
        <ele>182.36</ele>
        <time>2024-12-01T13:31:23.721Z</time>
      </trkpt>
      <trkpt lat="43.6505" lon="7.03157">
        <ele>182.2</ele>
        <time>2024-12-01T13:31:24.683Z</time>
      </trkpt>
      <trkpt lat="43.65051" lon="7.03162">
        <ele>182.06</ele>
        <time>2024-12-01T13:31:25.726Z</time>
      </trkpt>
      <trkpt lat="43.65052" lon="7.03166">
        <ele>181.94</ele>
        <time>2024-12-01T13:31:26.689Z</time>
      </trkpt>
      <trkpt lat="43.65053" lon="7.03171">
        <ele>181.8</ele>
        <time>2024-12-01T13:31:27.729Z</time>
      </trkpt>
      <trkpt lat="43.65054" lon="7.03174">
        <ele>181.63</ele>
        <time>2024-12-01T13:31:28.690Z</time>
      </trkpt>
      <trkpt lat="43.65055" lon="7.03179">
        <ele>181.51999</ele>
        <time>2024-12-01T13:31:29.653Z</time>
      </trkpt>
      <trkpt lat="43.65055" lon="7.03184">
        <ele>181.39</ele>
        <time>2024-12-01T13:31:30.774Z</time>
      </trkpt>
      <trkpt lat="43.65056" lon="7.0319">
        <ele>181.20999</ele>
        <time>2024-12-01T13:31:31.419Z</time>
      </trkpt>
      <trkpt lat="43.65056" lon="7.03195">
        <ele>181.05</ele>
        <time>2024-12-01T13:31:32.778Z</time>
      </trkpt>
      <trkpt lat="43.65056" lon="7.032">
        <ele>180.95</ele>
        <time>2024-12-01T13:31:33.743Z</time>
      </trkpt>
      <trkpt lat="43.65057" lon="7.03205">
        <ele>180.83</ele>
        <time>2024-12-01T13:31:34.783Z</time>
      </trkpt>
      <trkpt lat="43.65057" lon="7.0321">
        <ele>180.70999</ele>
        <time>2024-12-01T13:31:35.377Z</time>
      </trkpt>
      <trkpt lat="43.65056" lon="7.03216">
        <ele>180.59</ele>
        <time>2024-12-01T13:31:36.785Z</time>
      </trkpt>
      <trkpt lat="43.65056" lon="7.0322">
        <ele>180.48001</ele>
        <time>2024-12-01T13:31:37.748Z</time>
      </trkpt>
      <trkpt lat="43.65056" lon="7.03225">
        <ele>180.38</ele>
        <time>2024-12-01T13:31:38.709Z</time>
      </trkpt>
      <trkpt lat="43.65055" lon="7.03229">
        <ele>180.26001</ele>
        <time>2024-12-01T13:31:39.751Z</time>
      </trkpt>
      <trkpt lat="43.65055" lon="7.03234">
        <ele>180.14</ele>
        <time>2024-12-01T13:31:40.714Z</time>
      </trkpt>
      <trkpt lat="43.65055" lon="7.03238">
        <ele>179.95999</ele>
        <time>2024-12-01T13:31:41.757Z</time>
      </trkpt>
      <trkpt lat="43.65054" lon="7.03242">
        <ele>179.85</ele>
        <time>2024-12-01T13:31:42.430Z</time>
      </trkpt>
      <trkpt lat="43.65053" lon="7.03247">
        <ele>179.7</ele>
        <time>2024-12-01T13:31:43.760Z</time>
      </trkpt>
      <trkpt lat="43.65052" lon="7.0325">
        <ele>179.63</ele>
        <time>2024-12-01T13:31:44.721Z</time>
      </trkpt>
      <trkpt lat="43.6505" lon="7.03254">
        <ele>179.58</ele>
        <time>2024-12-01T13:31:45.763Z</time>
      </trkpt>
      <trkpt lat="43.65048" lon="7.03257">
        <ele>179.48001</ele>
        <time>2024-12-01T13:31:46.726Z</time>
      </trkpt>
      <trkpt lat="43.65046" lon="7.03261">
        <ele>179.38</ele>
        <time>2024-12-01T13:31:47.767Z</time>
      </trkpt>
      <trkpt lat="43.65045" lon="7.03264">
        <ele>179.33</ele>
        <time>2024-12-01T13:31:48.730Z</time>
      </trkpt>
      <trkpt lat="43.65043" lon="7.03267">
        <ele>179.26001</ele>
        <time>2024-12-01T13:31:49.771Z</time>
      </trkpt>
      <trkpt lat="43.65042" lon="7.0327">
        <ele>179.20999</ele>
        <time>2024-12-01T13:31:49.805Z</time>
      </trkpt>
      <trkpt lat="43.65041" lon="7.03273">
        <ele>179.16</ele>
        <time>2024-12-01T13:31:50.821Z</time>
      </trkpt>
      <trkpt lat="43.65041" lon="7.03275">
        <ele>179.09</ele>
        <time>2024-12-01T13:31:52.269Z</time>
      </trkpt>
      <trkpt lat="43.6504" lon="7.03278">
        <ele>179.05</ele>
        <time>2024-12-01T13:31:53.781Z</time>
      </trkpt>
      <trkpt lat="43.65038" lon="7.03285">
        <ele>178.93</ele>
        <time>2024-12-01T13:31:55.783Z</time>
      </trkpt>
      <trkpt lat="43.65038" lon="7.03286">
        <ele>178.76001</ele>
        <time>2024-12-01T13:31:56.744Z</time>
      </trkpt>
      <trkpt lat="43.65038" lon="7.03287">
        <ele>178.70999</ele>
        <time>2024-12-01T13:31:57.786Z</time>
      </trkpt>
      <trkpt lat="43.65038" lon="7.03289">
        <ele>178.69</ele>
        <time>2024-12-01T13:31:58.748Z</time>
      </trkpt>
      <trkpt lat="43.65037" lon="7.0329">
        <ele>178.63</ele>
        <time>2024-12-01T13:31:59.789Z</time>
      </trkpt>
      <trkpt lat="43.65037" lon="7.03292">
        <ele>178.54001</ele>
        <time>2024-12-01T13:32:00.751Z</time>
      </trkpt>
      <trkpt lat="43.65036" lon="7.03293">
        <ele>178.5</ele>
        <time>2024-12-01T13:32:01.792Z</time>
      </trkpt>
      <trkpt lat="43.65036" lon="7.03295">
        <ele>178.45999</ele>
        <time>2024-12-01T13:32:02.755Z</time>
      </trkpt>
      <trkpt lat="43.65036" lon="7.03297">
        <ele>178.39</ele>
        <time>2024-12-01T13:32:03.796Z</time>
      </trkpt>
      <trkpt lat="43.65036" lon="7.033">
        <ele>178.2</ele>
        <time>2024-12-01T13:32:04.759Z</time>
      </trkpt>
      <trkpt lat="43.65036" lon="7.03304">
        <ele>178.14</ele>
        <time>2024-12-01T13:32:05.803Z</time>
      </trkpt>
      <trkpt lat="43.65037" lon="7.03308">
        <ele>178.23999</ele>
        <time>2024-12-01T13:32:06.711Z</time>
      </trkpt>
      <trkpt lat="43.65038" lon="7.03311">
        <ele>178.16</ele>
        <time>2024-12-01T13:32:07.805Z</time>
      </trkpt>
      <trkpt lat="43.65038" lon="7.03314">
        <ele>177.64</ele>
        <time>2024-12-01T13:32:08.766Z</time>
      </trkpt>
      <trkpt lat="43.65039" lon="7.03317">
        <ele>177.67</ele>
        <time>2024-12-01T13:32:09.807Z</time>
      </trkpt>
      <trkpt lat="43.6504" lon="7.0332">
        <ele>177.66</ele>
        <time>2024-12-01T13:32:10.770Z</time>
      </trkpt>
      <trkpt lat="43.65041" lon="7.03323">
        <ele>177.78</ele>
        <time>2024-12-01T13:32:11.811Z</time>
      </trkpt>
      <trkpt lat="43.65041" lon="7.03326">
        <ele>177.72</ele>
        <time>2024-12-01T13:32:12.774Z</time>
      </trkpt>
      <trkpt lat="43.65041" lon="7.03328">
        <ele>177.67</ele>
        <time>2024-12-01T13:32:13.688Z</time>
      </trkpt>
      <trkpt lat="43.65042" lon="7.03331">
        <ele>177.61</ele>
        <time>2024-12-01T13:32:14.779Z</time>
      </trkpt>
      <trkpt lat="43.65042" lon="7.03335">
        <ele>177.6</ele>
        <time>2024-12-01T13:32:15.739Z</time>
      </trkpt>
      <trkpt lat="43.65043" lon="7.03338">
        <ele>177.69</ele>
        <time>2024-12-01T13:32:16.780Z</time>
      </trkpt>
      <trkpt lat="43.65045" lon="7.03342">
        <ele>177.76999</ele>
        <time>2024-12-01T13:32:17.381Z</time>
      </trkpt>
      <trkpt lat="43.65047" lon="7.03348">
        <ele>177.78</ele>
        <time>2024-12-01T13:32:18.785Z</time>
      </trkpt>
      <trkpt lat="43.65048" lon="7.03352">
        <ele>177.73001</ele>
        <time>2024-12-01T13:32:19.747Z</time>
      </trkpt>
      <trkpt lat="43.65049" lon="7.03357">
        <ele>177.73001</ele>
        <time>2024-12-01T13:32:20.789Z</time>
      </trkpt>
      <trkpt lat="43.65051" lon="7.03362">
        <ele>177.83</ele>
        <time>2024-12-01T13:32:21.751Z</time>
      </trkpt>
      <trkpt lat="43.65052" lon="7.03366">
        <ele>177.91</ele>
        <time>2024-12-01T13:32:22.791Z</time>
      </trkpt>
      <trkpt lat="43.65053" lon="7.0337">
        <ele>177.91</ele>
        <time>2024-12-01T13:32:23.468Z</time>
      </trkpt>
      <trkpt lat="43.65054" lon="7.03374">
        <ele>177.91</ele>
        <time>2024-12-01T13:32:24.799Z</time>
      </trkpt>
      <trkpt lat="43.65055" lon="7.03377">
        <ele>177.89</ele>
        <time>2024-12-01T13:32:25.758Z</time>
      </trkpt>
      <trkpt lat="43.65057" lon="7.03381">
        <ele>177.9</ele>
        <time>2024-12-01T13:32:26.353Z</time>
      </trkpt>
      <trkpt lat="43.65059" lon="7.03385">
        <ele>177.87</ele>
        <time>2024-12-01T13:32:27.350Z</time>
      </trkpt>
      <trkpt lat="43.65062" lon="7.03389">
        <ele>177.87</ele>
        <time>2024-12-01T13:32:28.803Z</time>
      </trkpt>
      <trkpt lat="43.65063" lon="7.03392">
        <ele>177.86</ele>
        <time>2024-12-01T13:32:29.359Z</time>
      </trkpt>
      <trkpt lat="43.65066" lon="7.03395">
        <ele>177.86</ele>
        <time>2024-12-01T13:32:30.807Z</time>
      </trkpt>
      <trkpt lat="43.65068" lon="7.034">
        <ele>177.84</ele>
        <time>2024-12-01T13:32:31.769Z</time>
      </trkpt>
      <trkpt lat="43.6507" lon="7.03404">
        <ele>177.82</ele>
        <time>2024-12-01T13:32:32.811Z</time>
      </trkpt>
      <trkpt lat="43.65073" lon="7.03408">
        <ele>177.79001</ele>
        <time>2024-12-01T13:32:33.772Z</time>
      </trkpt>
      <trkpt lat="43.65075" lon="7.03412">
        <ele>177.76999</ele>
        <time>2024-12-01T13:32:34.815Z</time>
      </trkpt>
      <trkpt lat="43.65077" lon="7.03416">
        <ele>177.76001</ele>
        <time>2024-12-01T13:32:35.776Z</time>
      </trkpt>
      <trkpt lat="43.65079" lon="7.0342">
        <ele>177.73001</ele>
        <time>2024-12-01T13:32:36.819Z</time>
      </trkpt>
      <trkpt lat="43.65083" lon="7.03424">
        <ele>177.68</ele>
        <time>2024-12-01T13:32:37.781Z</time>
      </trkpt>
      <trkpt lat="43.65085" lon="7.03426">
        <ele>177.65</ele>
        <time>2024-12-01T13:32:38.823Z</time>
      </trkpt>
      <trkpt lat="43.65089" lon="7.03427">
        <ele>177.57</ele>
        <time>2024-12-01T13:32:39.785Z</time>
      </trkpt>
      <trkpt lat="43.65093" lon="7.03426">
        <ele>177.51001</ele>
        <time>2024-12-01T13:32:40.825Z</time>
      </trkpt>
      <trkpt lat="43.65098" lon="7.03423">
        <ele>177.43</ele>
        <time>2024-12-01T13:32:41.788Z</time>
      </trkpt>
      <trkpt lat="43.65101" lon="7.03419">
        <ele>177.39</ele>
        <time>2024-12-01T13:32:42.831Z</time>
      </trkpt>
      <trkpt lat="43.65105" lon="7.03413">
        <ele>177.33</ele>
        <time>2024-12-01T13:32:43.791Z</time>
      </trkpt>
      <trkpt lat="43.65108" lon="7.03407">
        <ele>177.23001</ele>
        <time>2024-12-01T13:32:44.834Z</time>
      </trkpt>
      <trkpt lat="43.6511" lon="7.03402">
        <ele>177.22</ele>
        <time>2024-12-01T13:32:45.795Z</time>
      </trkpt>
      <trkpt lat="43.65112" lon="7.03397">
        <ele>177.2</ele>
        <time>2024-12-01T13:32:46.837Z</time>
      </trkpt>
      <trkpt lat="43.65114" lon="7.03393">
        <ele>177.17</ele>
        <time>2024-12-01T13:32:47.799Z</time>
      </trkpt>
      <trkpt lat="43.65116" lon="7.03388">
        <ele>177.23001</ele>
        <time>2024-12-01T13:32:48.842Z</time>
      </trkpt>
      <trkpt lat="43.65117" lon="7.03383">
        <ele>177.28</ele>
        <time>2024-12-01T13:32:49.753Z</time>
      </trkpt>
      <trkpt lat="43.65118" lon="7.03378">
        <ele>177.3</ele>
        <time>2024-12-01T13:32:50.764Z</time>
      </trkpt>
      <trkpt lat="43.65119" lon="7.03374">
        <ele>177.11</ele>
        <time>2024-12-01T13:32:51.806Z</time>
      </trkpt>
      <trkpt lat="43.65119" lon="7.03371">
        <ele>177.1</ele>
        <time>2024-12-01T13:32:52.768Z</time>
      </trkpt>
      <trkpt lat="43.65119" lon="7.03367">
        <ele>177.17</ele>
        <time>2024-12-01T13:32:53.809Z</time>
      </trkpt>
      <trkpt lat="43.65119" lon="7.03363">
        <ele>177.23999</ele>
        <time>2024-12-01T13:32:54.772Z</time>
      </trkpt>
      <trkpt lat="43.65119" lon="7.0336">
        <ele>177.35</ele>
        <time>2024-12-01T13:32:55.814Z</time>
      </trkpt>
      <trkpt lat="43.65118" lon="7.03356">
        <ele>177.42</ele>
        <time>2024-12-01T13:32:56.775Z</time>
      </trkpt>
      <trkpt lat="43.65117" lon="7.03352">
        <ele>177.48001</ele>
        <time>2024-12-01T13:32:57.817Z</time>
      </trkpt>
      <trkpt lat="43.65117" lon="7.03348">
        <ele>177.53</ele>
        <time>2024-12-01T13:32:58.390Z</time>
      </trkpt>
      <trkpt lat="43.65117" lon="7.03344">
        <ele>177.57</ele>
        <time>2024-12-01T13:32:59.821Z</time>
      </trkpt>
      <trkpt lat="43.65116" lon="7.0334">
        <ele>177.6</ele>
        <time>2024-12-01T13:33:00.435Z</time>
      </trkpt>
      <trkpt lat="43.65114" lon="7.03336">
        <ele>177.64</ele>
        <time>2024-12-01T13:33:01.825Z</time>
      </trkpt>
      <trkpt lat="43.65113" lon="7.03333">
        <ele>177.68</ele>
        <time>2024-12-01T13:33:02.413Z</time>
      </trkpt>
      <trkpt lat="43.65113" lon="7.03329">
        <ele>177.7</ele>
        <time>2024-12-01T13:33:03.829Z</time>
      </trkpt>
      <trkpt lat="43.65113" lon="7.03325">
        <ele>177.67</ele>
        <time>2024-12-01T13:33:04.790Z</time>
      </trkpt>
      <trkpt lat="43.65113" lon="7.03321">
        <ele>177.5</ele>
        <time>2024-12-01T13:33:05.831Z</time>
      </trkpt>
      <trkpt lat="43.65113" lon="7.03318">
        <ele>177.56</ele>
        <time>2024-12-01T13:33:06.469Z</time>
      </trkpt>
      <trkpt lat="43.65115" lon="7.03312">
        <ele>177.64</ele>
        <time>2024-12-01T13:33:07.836Z</time>
      </trkpt>
      <trkpt lat="43.65116" lon="7.03308">
        <ele>177.73001</ele>
        <time>2024-12-01T13:33:08.798Z</time>
      </trkpt>
      <trkpt lat="43.65117" lon="7.03303">
        <ele>177.78</ele>
        <time>2024-12-01T13:33:09.841Z</time>
      </trkpt>
      <trkpt lat="43.6512" lon="7.03299">
        <ele>177.88</ele>
        <time>2024-12-01T13:33:10.801Z</time>
      </trkpt>
      <trkpt lat="43.65123" lon="7.03296">
        <ele>177.93</ele>
        <time>2024-12-01T13:33:11.845Z</time>
      </trkpt>
      <trkpt lat="43.65125" lon="7.03295">
        <ele>178</ele>
        <time>2024-12-01T13:33:12.706Z</time>
      </trkpt>
      <trkpt lat="43.65127" lon="7.03296">
        <ele>178.09</ele>
        <time>2024-12-01T13:33:13.846Z</time>
      </trkpt>
      <trkpt lat="43.6513" lon="7.03297">
        <ele>178.15</ele>
        <time>2024-12-01T13:33:14.808Z</time>
      </trkpt>
      <trkpt lat="43.65134" lon="7.03299">
        <ele>178.14</ele>
        <time>2024-12-01T13:33:15.851Z</time>
      </trkpt>
      <trkpt lat="43.65137" lon="7.03302">
        <ele>178.07</ele>
        <time>2024-12-01T13:33:16.516Z</time>
      </trkpt>
      <trkpt lat="43.65142" lon="7.03306">
        <ele>177.92</ele>
        <time>2024-12-01T13:33:17.855Z</time>
      </trkpt>
      <trkpt lat="43.65145" lon="7.03309">
        <ele>177.86</ele>
        <time>2024-12-01T13:33:18.816Z</time>
      </trkpt>
      <trkpt lat="43.65149" lon="7.03313">
        <ele>177.97</ele>
        <time>2024-12-01T13:33:18.890Z</time>
      </trkpt>
      <trkpt lat="43.65152" lon="7.03314">
        <ele>178.06</ele>
        <time>2024-12-01T13:33:20.382Z</time>
      </trkpt>
      <trkpt lat="43.65154" lon="7.03316">
        <ele>178.14</ele>
        <time>2024-12-01T13:33:20.892Z</time>
      </trkpt>
      <trkpt lat="43.65157" lon="7.03318">
        <ele>178.34</ele>
        <time>2024-12-01T13:33:22.824Z</time>
      </trkpt>
      <trkpt lat="43.6516" lon="7.03319">
        <ele>178.54001</ele>
        <time>2024-12-01T13:33:22.883Z</time>
      </trkpt>
      <trkpt lat="43.65163" lon="7.0332">
        <ele>178.86</ele>
        <time>2024-12-01T13:33:24.828Z</time>
      </trkpt>
      <trkpt lat="43.65166" lon="7.0332">
        <ele>179.11</ele>
        <time>2024-12-01T13:33:25.789Z</time>
      </trkpt>
      <trkpt lat="43.65168" lon="7.03321">
        <ele>179.39</ele>
        <time>2024-12-01T13:33:26.831Z</time>
      </trkpt>
      <trkpt lat="43.6517" lon="7.0332">
        <ele>179.53</ele>
        <time>2024-12-01T13:33:27.793Z</time>
      </trkpt>
      <trkpt lat="43.65173" lon="7.0332">
        <ele>179.64</ele>
        <time>2024-12-01T13:33:28.835Z</time>
      </trkpt>
      <trkpt lat="43.65176" lon="7.0332">
        <ele>179.91</ele>
        <time>2024-12-01T13:33:29.798Z</time>
      </trkpt>
      <trkpt lat="43.65179" lon="7.03319">
        <ele>180.23999</ele>
        <time>2024-12-01T13:33:30.839Z</time>
      </trkpt>
      <trkpt lat="43.65181" lon="7.03319">
        <ele>180.43</ele>
        <time>2024-12-01T13:33:31.800Z</time>
      </trkpt>
      <trkpt lat="43.65184" lon="7.03317">
        <ele>180.70999</ele>
        <time>2024-12-01T13:33:32.842Z</time>
      </trkpt>
      <trkpt lat="43.65186" lon="7.03316">
        <ele>180.95</ele>
        <time>2024-12-01T13:33:33.805Z</time>
      </trkpt>
      <trkpt lat="43.65189" lon="7.03314">
        <ele>180.68</ele>
        <time>2024-12-01T13:33:34.846Z</time>
      </trkpt>
      <trkpt lat="43.65192" lon="7.03313">
        <ele>180.78</ele>
        <time>2024-12-01T13:33:35.808Z</time>
      </trkpt>
      <trkpt lat="43.65195" lon="7.03311">
        <ele>181.07</ele>
        <time>2024-12-01T13:33:36.851Z</time>
      </trkpt>
      <trkpt lat="43.65197" lon="7.03309">
        <ele>181.32</ele>
        <time>2024-12-01T13:33:37.812Z</time>
      </trkpt>
      <trkpt lat="43.65199" lon="7.03308">
        <ele>181.63</ele>
        <time>2024-12-01T13:33:38.853Z</time>
      </trkpt>
      <trkpt lat="43.65202" lon="7.03306">
        <ele>181.81</ele>
        <time>2024-12-01T13:33:39.682Z</time>
      </trkpt>
      <trkpt lat="43.65203" lon="7.03306">
        <ele>181.93</ele>
        <time>2024-12-01T13:33:40.857Z</time>
      </trkpt>
      <trkpt lat="43.65207" lon="7.03305">
        <ele>182.19</ele>
        <time>2024-12-01T13:33:41.820Z</time>
      </trkpt>
      <trkpt lat="43.6521" lon="7.03305">
        <ele>182.5</ele>
        <time>2024-12-01T13:33:42.861Z</time>
      </trkpt>
      <trkpt lat="43.65213" lon="7.03305">
        <ele>182.85</ele>
        <time>2024-12-01T13:33:43.670Z</time>
      </trkpt>
      <trkpt lat="43.65217" lon="7.03307">
        <ele>183.1</ele>
        <time>2024-12-01T13:33:44.865Z</time>
      </trkpt>
      <trkpt lat="43.65221" lon="7.03309">
        <ele>183.44</ele>
        <time>2024-12-01T13:33:45.827Z</time>
      </trkpt>
      <trkpt lat="43.65225" lon="7.03312">
        <ele>183.72</ele>
        <time>2024-12-01T13:33:46.869Z</time>
      </trkpt>
      <trkpt lat="43.65228" lon="7.03314">
        <ele>183.45999</ele>
        <time>2024-12-01T13:33:47.830Z</time>
      </trkpt>
      <trkpt lat="43.65232" lon="7.03317">
        <ele>183.76001</ele>
        <time>2024-12-01T13:33:48.872Z</time>
      </trkpt>
      <trkpt lat="43.65234" lon="7.03319">
        <ele>184.05</ele>
        <time>2024-12-01T13:33:49.836Z</time>
      </trkpt>
      <trkpt lat="43.65237" lon="7.03322">
        <ele>184.26999</ele>
        <time>2024-12-01T13:33:50.876Z</time>
      </trkpt>
      <trkpt lat="43.6524" lon="7.03325">
        <ele>184.5</ele>
        <time>2024-12-01T13:33:51.839Z</time>
      </trkpt>
      <trkpt lat="43.65245" lon="7.03329">
        <ele>184.63</ele>
        <time>2024-12-01T13:33:52.880Z</time>
      </trkpt>
      <trkpt lat="43.65247" lon="7.03331">
        <ele>184.85</ele>
        <time>2024-12-01T13:33:53.842Z</time>
      </trkpt>
      <trkpt lat="43.6525" lon="7.03333">
        <ele>184.94</ele>
        <time>2024-12-01T13:33:54.884Z</time>
      </trkpt>
      <trkpt lat="43.65254" lon="7.03336">
        <ele>185.06</ele>
        <time>2024-12-01T13:33:55.874Z</time>
      </trkpt>
      <trkpt lat="43.65257" lon="7.03339">
        <ele>185.22</ele>
        <time>2024-12-01T13:33:56.871Z</time>
      </trkpt>
      <trkpt lat="43.6526" lon="7.03341">
        <ele>185.36</ele>
        <time>2024-12-01T13:33:57.851Z</time>
      </trkpt>
      <trkpt lat="43.65264" lon="7.03343">
        <ele>185.54001</ele>
        <time>2024-12-01T13:33:58.876Z</time>
      </trkpt>
      <trkpt lat="43.65268" lon="7.03346">
        <ele>185.62</ele>
        <time>2024-12-01T13:33:59.855Z</time>
      </trkpt>
      <trkpt lat="43.6527" lon="7.03348">
        <ele>185.75</ele>
        <time>2024-12-01T13:34:00.816Z</time>
      </trkpt>
      <trkpt lat="43.65274" lon="7.0335">
        <ele>185.87</ele>
        <time>2024-12-01T13:34:01.858Z</time>
      </trkpt>
      <trkpt lat="43.65278" lon="7.03353">
        <ele>185.92</ele>
        <time>2024-12-01T13:34:02.820Z</time>
      </trkpt>
      <trkpt lat="43.65281" lon="7.03355">
        <ele>185.93</ele>
        <time>2024-12-01T13:34:03.879Z</time>
      </trkpt>
      <trkpt lat="43.65285" lon="7.03357">
        <ele>186</ele>
        <time>2024-12-01T13:34:04.825Z</time>
      </trkpt>
      <trkpt lat="43.65291" lon="7.03358">
        <ele>186.05</ele>
        <time>2024-12-01T13:34:05.866Z</time>
      </trkpt>
      <trkpt lat="43.65296" lon="7.0336">
        <ele>186.11</ele>
        <time>2024-12-01T13:34:06.828Z</time>
      </trkpt>
      <trkpt lat="43.653" lon="7.03361">
        <ele>186.08</ele>
        <time>2024-12-01T13:34:07.870Z</time>
      </trkpt>
      <trkpt lat="43.65304" lon="7.03362">
        <ele>186.13</ele>
        <time>2024-12-01T13:34:08.833Z</time>
      </trkpt>
      <trkpt lat="43.65308" lon="7.03363">
        <ele>186.08</ele>
        <time>2024-12-01T13:34:09.873Z</time>
      </trkpt>
      <trkpt lat="43.65314" lon="7.03364">
        <ele>186.09</ele>
        <time>2024-12-01T13:34:10.835Z</time>
      </trkpt>
      <trkpt lat="43.6532" lon="7.03366">
        <ele>186.04001</ele>
        <time>2024-12-01T13:34:11.877Z</time>
      </trkpt>
      <trkpt lat="43.65326" lon="7.03368">
        <ele>185.95</ele>
        <time>2024-12-01T13:34:12.839Z</time>
      </trkpt>
      <trkpt lat="43.65332" lon="7.0337">
        <ele>185.9</ele>
        <time>2024-12-01T13:34:13.881Z</time>
      </trkpt>
      <trkpt lat="43.65337" lon="7.03373">
        <ele>185.92</ele>
        <time>2024-12-01T13:34:14.843Z</time>
      </trkpt>
      <trkpt lat="43.65342" lon="7.03376">
        <ele>185.92</ele>
        <time>2024-12-01T13:34:15.885Z</time>
      </trkpt>
      <trkpt lat="43.65346" lon="7.03379">
        <ele>185.89</ele>
        <time>2024-12-01T13:34:16.847Z</time>
      </trkpt>
      <trkpt lat="43.6535" lon="7.03383">
        <ele>185.87</ele>
        <time>2024-12-01T13:34:17.867Z</time>
      </trkpt>
      <trkpt lat="43.65353" lon="7.03388">
        <ele>185.79001</ele>
        <time>2024-12-01T13:34:18.850Z</time>
      </trkpt>
      <trkpt lat="43.65356" lon="7.03395">
        <ele>185.78</ele>
        <time>2024-12-01T13:34:19.894Z</time>
      </trkpt>
      <trkpt lat="43.65358" lon="7.03402">
        <ele>185.7</ele>
        <time>2024-12-01T13:34:20.855Z</time>
      </trkpt>
      <trkpt lat="43.65359" lon="7.0341">
        <ele>185.62</ele>
        <time>2024-12-01T13:34:21.897Z</time>
      </trkpt>
      <trkpt lat="43.65358" lon="7.0341">
        <ele>185.58</ele>
        <time>2024-12-01T13:34:22.859Z</time>
      </trkpt>
      <trkpt lat="43.65359" lon="7.03428">
        <ele>185.48999</ele>
        <time>2024-12-01T13:34:23.822Z</time>
      </trkpt>
      <trkpt lat="43.65359" lon="7.03441">
        <ele>185.44</ele>
        <time>2024-12-01T13:34:24.863Z</time>
      </trkpt>
      <trkpt lat="43.65359" lon="7.03455">
        <ele>185.33</ele>
        <time>2024-12-01T13:34:25.904Z</time>
      </trkpt>
      <trkpt lat="43.6536" lon="7.03468">
        <ele>185.26999</ele>
        <time>2024-12-01T13:34:26.866Z</time>
      </trkpt>
      <trkpt lat="43.65361" lon="7.0348">
        <ele>185.17</ele>
        <time>2024-12-01T13:34:27.831Z</time>
      </trkpt>
      <trkpt lat="43.65363" lon="7.03491">
        <ele>185.13</ele>
        <time>2024-12-01T13:34:28.870Z</time>
      </trkpt>
      <trkpt lat="43.65364" lon="7.03503">
        <ele>185.07</ele>
        <time>2024-12-01T13:34:29.834Z</time>
      </trkpt>
      <trkpt lat="43.65365" lon="7.03513">
        <ele>185.01001</ele>
        <time>2024-12-01T13:34:30.876Z</time>
      </trkpt>
      <trkpt lat="43.65367" lon="7.03523">
        <ele>184.95999</ele>
        <time>2024-12-01T13:34:31.840Z</time>
      </trkpt>
      <trkpt lat="43.65368" lon="7.03533">
        <ele>184.88</ele>
        <time>2024-12-01T13:34:32.878Z</time>
      </trkpt>
      <trkpt lat="43.6537" lon="7.03543">
        <ele>184.8</ele>
        <time>2024-12-01T13:34:33.843Z</time>
      </trkpt>
      <trkpt lat="43.65371" lon="7.03552">
        <ele>184.70999</ele>
        <time>2024-12-01T13:34:34.882Z</time>
      </trkpt>
      <trkpt lat="43.65372" lon="7.03562">
        <ele>184.61</ele>
        <time>2024-12-01T13:34:35.847Z</time>
      </trkpt>
      <trkpt lat="43.65374" lon="7.03572">
        <ele>184.51999</ele>
        <time>2024-12-01T13:34:36.886Z</time>
      </trkpt>
      <trkpt lat="43.65374" lon="7.03577">
        <ele>184.42</ele>
        <time>2024-12-01T13:34:37.850Z</time>
      </trkpt>
      <trkpt lat="43.65376" lon="7.03593">
        <ele>184.31</ele>
        <time>2024-12-01T13:34:38.891Z</time>
      </trkpt>
      <trkpt lat="43.65376" lon="7.03601">
        <ele>184.19</ele>
        <time>2024-12-01T13:34:39.854Z</time>
      </trkpt>
      <trkpt lat="43.65378" lon="7.03612">
        <ele>184.07</ele>
        <time>2024-12-01T13:34:40.877Z</time>
      </trkpt>
      <trkpt lat="43.6538" lon="7.03621">
        <ele>183.92</ele>
        <time>2024-12-01T13:34:41.856Z</time>
      </trkpt>
      <trkpt lat="43.65384" lon="7.03631">
        <ele>183.76001</ele>
        <time>2024-12-01T13:34:42.898Z</time>
      </trkpt>
      <trkpt lat="43.65387" lon="7.03641">
        <ele>183.57</ele>
        <time>2024-12-01T13:34:43.875Z</time>
      </trkpt>
      <trkpt lat="43.65391" lon="7.03651">
        <ele>183.38</ele>
        <time>2024-12-01T13:34:44.902Z</time>
      </trkpt>
      <trkpt lat="43.65394" lon="7.03661">
        <ele>183.18</ele>
        <time>2024-12-01T13:34:45.865Z</time>
      </trkpt>
      <trkpt lat="43.65397" lon="7.03671">
        <ele>182.94</ele>
        <time>2024-12-01T13:34:46.422Z</time>
      </trkpt>
      <trkpt lat="43.65401" lon="7.0368">
        <ele>182.72</ele>
        <time>2024-12-01T13:34:47.894Z</time>
      </trkpt>
      <trkpt lat="43.65404" lon="7.0369">
        <ele>182.4</ele>
        <time>2024-12-01T13:34:48.911Z</time>
      </trkpt>
      <trkpt lat="43.65407" lon="7.03701">
        <ele>182.08</ele>
        <time>2024-12-01T13:34:49.872Z</time>
      </trkpt>
      <trkpt lat="43.65411" lon="7.03712">
        <ele>181.81</ele>
        <time>2024-12-01T13:34:50.913Z</time>
      </trkpt>
      <trkpt lat="43.65416" lon="7.03723">
        <ele>181.47</ele>
        <time>2024-12-01T13:34:51.876Z</time>
      </trkpt>
      <trkpt lat="43.6542" lon="7.03735">
        <ele>181.06</ele>
        <time>2024-12-01T13:34:52.918Z</time>
      </trkpt>
      <trkpt lat="43.65422" lon="7.0374">
        <ele>180.72</ele>
        <time>2024-12-01T13:34:53.880Z</time>
      </trkpt>
      <trkpt lat="43.65429" lon="7.03758">
        <ele>180.33</ele>
        <time>2024-12-01T13:34:54.884Z</time>
      </trkpt>
      <trkpt lat="43.65434" lon="7.03769">
        <ele>179.93</ele>
        <time>2024-12-01T13:34:55.884Z</time>
      </trkpt>
      <trkpt lat="43.65438" lon="7.03779">
        <ele>179.56</ele>
        <time>2024-12-01T13:34:56.927Z</time>
      </trkpt>
      <trkpt lat="43.65443" lon="7.03788">
        <ele>179.18</ele>
        <time>2024-12-01T13:34:57.917Z</time>
      </trkpt>
      <trkpt lat="43.65448" lon="7.03796">
        <ele>178.85</ele>
        <time>2024-12-01T13:34:58.928Z</time>
      </trkpt>
      <trkpt lat="43.65453" lon="7.03802">
        <ele>178.41</ele>
        <time>2024-12-01T13:34:59.892Z</time>
      </trkpt>
      <trkpt lat="43.65456" lon="7.03806">
        <ele>177.86</ele>
        <time>2024-12-01T13:35:00.796Z</time>
      </trkpt>
      <trkpt lat="43.6546" lon="7.0381">
        <ele>177.55</ele>
        <time>2024-12-01T13:35:01.896Z</time>
      </trkpt>
      <trkpt lat="43.65463" lon="7.03812">
        <ele>177.20999</ele>
        <time>2024-12-01T13:35:02.857Z</time>
      </trkpt>
      <trkpt lat="43.65466" lon="7.03814">
        <ele>176.9</ele>
        <time>2024-12-01T13:35:03.902Z</time>
      </trkpt>
      <trkpt lat="43.6547" lon="7.03816">
        <ele>176.65</ele>
        <time>2024-12-01T13:35:04.862Z</time>
      </trkpt>
      <trkpt lat="43.65473" lon="7.03817">
        <ele>176.38</ele>
        <time>2024-12-01T13:35:05.903Z</time>
      </trkpt>
      <trkpt lat="43.65476" lon="7.03818">
        <ele>176.20999</ele>
        <time>2024-12-01T13:35:06.864Z</time>
      </trkpt>
      <trkpt lat="43.65478" lon="7.03819">
        <ele>176.18</ele>
        <time>2024-12-01T13:35:07.615Z</time>
      </trkpt>
      <trkpt lat="43.6548" lon="7.03819">
        <ele>175.97</ele>
        <time>2024-12-01T13:35:08.869Z</time>
      </trkpt>
      <trkpt lat="43.65482" lon="7.03819">
        <ele>175.7</ele>
        <time>2024-12-01T13:35:09.910Z</time>
      </trkpt>
      <trkpt lat="43.65484" lon="7.03819">
        <ele>175.59</ele>
        <time>2024-12-01T13:35:10.454Z</time>
      </trkpt>
      <trkpt lat="43.65485" lon="7.03819">
        <ele>175.51999</ele>
        <time>2024-12-01T13:35:11.914Z</time>
      </trkpt>
      <trkpt lat="43.65487" lon="7.0382">
        <ele>175.37</ele>
        <time>2024-12-01T13:35:12.876Z</time>
      </trkpt>
      <trkpt lat="43.65488" lon="7.03819">
        <ele>175.37</ele>
        <time>2024-12-01T13:35:13.919Z</time>
      </trkpt>
      <trkpt lat="43.6549" lon="7.03819">
        <ele>175.37</ele>
        <time>2024-12-01T13:35:14.880Z</time>
      </trkpt>
      <trkpt lat="43.65492" lon="7.03819">
        <ele>174.32</ele>
        <time>2024-12-01T13:35:15.921Z</time>
      </trkpt>
      <trkpt lat="43.65494" lon="7.0382">
        <ele>173.87</ele>
        <time>2024-12-01T13:35:16.884Z</time>
      </trkpt>
      <trkpt lat="43.65497" lon="7.0382">
        <ele>173.87</ele>
        <time>2024-12-01T13:35:17.926Z</time>
      </trkpt>
      <trkpt lat="43.65499" lon="7.03821">
        <ele>172.65</ele>
        <time>2024-12-01T13:35:18.794Z</time>
      </trkpt>
      <trkpt lat="43.65501" lon="7.03822">
        <ele>172.76001</ele>
        <time>2024-12-01T13:35:19.930Z</time>
      </trkpt>
      <trkpt lat="43.65504" lon="7.03822">
        <ele>172.91</ele>
        <time>2024-12-01T13:35:20.892Z</time>
      </trkpt>
      <trkpt lat="43.65506" lon="7.03822">
        <ele>173.11</ele>
        <time>2024-12-01T13:35:21.935Z</time>
      </trkpt>
      <trkpt lat="43.65508" lon="7.03822">
        <ele>173.25</ele>
        <time>2024-12-01T13:35:22.896Z</time>
      </trkpt>
      <trkpt lat="43.6551" lon="7.03822">
        <ele>173.35</ele>
        <time>2024-12-01T13:35:23.937Z</time>
      </trkpt>
      <trkpt lat="43.65512" lon="7.03821">
        <ele>173.4</ele>
        <time>2024-12-01T13:35:24.901Z</time>
      </trkpt>
      <trkpt lat="43.65514" lon="7.03821">
        <ele>173.5</ele>
        <time>2024-12-01T13:35:25.943Z</time>
      </trkpt>
      <trkpt lat="43.65517" lon="7.0382">
        <ele>173.67</ele>
        <time>2024-12-01T13:35:26.905Z</time>
      </trkpt>
      <trkpt lat="43.6552" lon="7.03819">
        <ele>173.81</ele>
        <time>2024-12-01T13:35:27.866Z</time>
      </trkpt>
      <trkpt lat="43.65522" lon="7.03818">
        <ele>173.97</ele>
        <time>2024-12-01T13:35:28.909Z</time>
      </trkpt>
      <trkpt lat="43.65525" lon="7.03817">
        <ele>174.2</ele>
        <time>2024-12-01T13:35:29.870Z</time>
      </trkpt>
      <trkpt lat="43.65528" lon="7.03817">
        <ele>174.34</ele>
        <time>2024-12-01T13:35:30.912Z</time>
      </trkpt>
      <trkpt lat="43.6553" lon="7.03816">
        <ele>174.5</ele>
        <time>2024-12-01T13:35:31.875Z</time>
      </trkpt>
      <trkpt lat="43.65532" lon="7.03816">
        <ele>174.62</ele>
        <time>2024-12-01T13:35:32.916Z</time>
      </trkpt>
      <trkpt lat="43.65533" lon="7.03816">
        <ele>174.69</ele>
        <time>2024-12-01T13:35:33.768Z</time>
      </trkpt>
      <trkpt lat="43.65535" lon="7.03816">
        <ele>174.78</ele>
        <time>2024-12-01T13:35:34.921Z</time>
      </trkpt>
      <trkpt lat="43.65536" lon="7.03816">
        <ele>174.69</ele>
        <time>2024-12-01T13:35:35.883Z</time>
      </trkpt>
      <trkpt lat="43.6554" lon="7.03816">
        <ele>174.64</ele>
        <time>2024-12-01T13:35:36.926Z</time>
      </trkpt>
      <trkpt lat="43.65542" lon="7.03815">
        <ele>174.48001</ele>
        <time>2024-12-01T13:35:37.887Z</time>
      </trkpt>
      <trkpt lat="43.65545" lon="7.03813">
        <ele>174.39</ele>
        <time>2024-12-01T13:35:38.929Z</time>
      </trkpt>
      <trkpt lat="43.65548" lon="7.03812">
        <ele>174.26999</ele>
        <time>2024-12-01T13:35:39.890Z</time>
      </trkpt>
      <trkpt lat="43.65549" lon="7.0381">
        <ele>173.93</ele>
        <time>2024-12-01T13:35:40.932Z</time>
      </trkpt>
      <trkpt lat="43.65552" lon="7.03807">
        <ele>173.61</ele>
        <time>2024-12-01T13:35:41.804Z</time>
      </trkpt>
      <trkpt lat="43.65554" lon="7.03804">
        <ele>173.2</ele>
        <time>2024-12-01T13:35:42.936Z</time>
      </trkpt>
      <trkpt lat="43.65556" lon="7.03801">
        <ele>172.81</ele>
        <time>2024-12-01T13:35:43.899Z</time>
      </trkpt>
      <trkpt lat="43.65557" lon="7.03796">
        <ele>173.01001</ele>
        <time>2024-12-01T13:35:44.941Z</time>
      </trkpt>
      <trkpt lat="43.65559" lon="7.03792">
        <ele>173.13</ele>
        <time>2024-12-01T13:35:45.903Z</time>
      </trkpt>
      <trkpt lat="43.65561" lon="7.03789">
        <ele>173.33</ele>
        <time>2024-12-01T13:35:46.944Z</time>
      </trkpt>
      <trkpt lat="43.65563" lon="7.03787">
        <ele>173.55</ele>
        <time>2024-12-01T13:35:47.906Z</time>
      </trkpt>
      <trkpt lat="43.65565" lon="7.03784">
        <ele>173.73999</ele>
        <time>2024-12-01T13:35:48.948Z</time>
      </trkpt>
      <trkpt lat="43.65566" lon="7.03782">
        <ele>173.87</ele>
        <time>2024-12-01T13:35:49.911Z</time>
      </trkpt>
      <trkpt lat="43.65568" lon="7.03781">
        <ele>173.81</ele>
        <time>2024-12-01T13:35:50.952Z</time>
      </trkpt>
      <trkpt lat="43.6557" lon="7.0378">
        <ele>173.9</ele>
        <time>2024-12-01T13:35:51.915Z</time>
      </trkpt>
      <trkpt lat="43.65576" lon="7.03778">
        <ele>174.28</ele>
        <time>2024-12-01T13:35:53.919Z</time>
      </trkpt>
      <trkpt lat="43.65577" lon="7.03778">
        <ele>174.39</ele>
        <time>2024-12-01T13:35:54.813Z</time>
      </trkpt>
      <trkpt lat="43.65578" lon="7.03777">
        <ele>174.45999</ele>
        <time>2024-12-01T13:35:55.921Z</time>
      </trkpt>
      <trkpt lat="43.6558" lon="7.03777">
        <ele>174.59</ele>
        <time>2024-12-01T13:35:56.883Z</time>
      </trkpt>
      <trkpt lat="43.65582" lon="7.03777">
        <ele>174.70999</ele>
        <time>2024-12-01T13:35:57.926Z</time>
      </trkpt>
      <trkpt lat="43.65584" lon="7.03776">
        <ele>174.83</ele>
        <time>2024-12-01T13:35:58.968Z</time>
      </trkpt>
      <trkpt lat="43.65587" lon="7.03776">
        <ele>174.95</ele>
        <time>2024-12-01T13:35:59.835Z</time>
      </trkpt>
      <trkpt lat="43.65589" lon="7.03776">
        <ele>175.1</ele>
        <time>2024-12-01T13:36:00.892Z</time>
      </trkpt>
      <trkpt lat="43.65591" lon="7.03775">
        <ele>175.28</ele>
        <time>2024-12-01T13:36:01.935Z</time>
      </trkpt>
      <trkpt lat="43.65594" lon="7.03774">
        <ele>175.28</ele>
        <time>2024-12-01T13:36:02.897Z</time>
      </trkpt>
      <trkpt lat="43.65598" lon="7.03773">
        <ele>175.23999</ele>
        <time>2024-12-01T13:36:03.939Z</time>
      </trkpt>
      <trkpt lat="43.65601" lon="7.03772">
        <ele>175.42</ele>
        <time>2024-12-01T13:36:04.900Z</time>
      </trkpt>
      <trkpt lat="43.65605" lon="7.03771">
        <ele>175.70999</ele>
        <time>2024-12-01T13:36:05.944Z</time>
      </trkpt>
      <trkpt lat="43.65609" lon="7.0377">
        <ele>176.01001</ele>
        <time>2024-12-01T13:36:06.706Z</time>
      </trkpt>
      <trkpt lat="43.65612" lon="7.0377">
        <ele>176.2</ele>
        <time>2024-12-01T13:36:07.946Z</time>
      </trkpt>
      <trkpt lat="43.65615" lon="7.0377">
        <ele>176.43</ele>
        <time>2024-12-01T13:36:08.907Z</time>
      </trkpt>
      <trkpt lat="43.65618" lon="7.0377">
        <ele>176.67</ele>
        <time>2024-12-01T13:36:09.950Z</time>
      </trkpt>
      <trkpt lat="43.65621" lon="7.0377">
        <ele>176.89</ele>
        <time>2024-12-01T13:36:10.912Z</time>
      </trkpt>
      <trkpt lat="43.65625" lon="7.03769">
        <ele>176.51001</ele>
        <time>2024-12-01T13:36:11.955Z</time>
      </trkpt>
      <trkpt lat="43.65628" lon="7.03769">
        <ele>176.81</ele>
        <time>2024-12-01T13:36:12.917Z</time>
      </trkpt>
      <trkpt lat="43.65632" lon="7.03768">
        <ele>177.07</ele>
        <time>2024-12-01T13:36:13.959Z</time>
      </trkpt>
      <trkpt lat="43.65636" lon="7.03767">
        <ele>177.26001</ele>
        <time>2024-12-01T13:36:14.921Z</time>
      </trkpt>
      <trkpt lat="43.6564" lon="7.03766">
        <ele>177.51999</ele>
        <time>2024-12-01T13:36:15.963Z</time>
      </trkpt>
      <trkpt lat="43.65643" lon="7.03765">
        <ele>177.53</ele>
        <time>2024-12-01T13:36:16.925Z</time>
      </trkpt>
      <trkpt lat="43.65647" lon="7.03765">
        <ele>177.38</ele>
        <time>2024-12-01T13:36:17.966Z</time>
      </trkpt>
      <trkpt lat="43.65651" lon="7.03764">
        <ele>177.67</ele>
        <time>2024-12-01T13:36:18.928Z</time>
      </trkpt>
      <trkpt lat="43.65653" lon="7.03763">
        <ele>178</ele>
        <time>2024-12-01T13:36:19.970Z</time>
      </trkpt>
      <trkpt lat="43.65656" lon="7.03762">
        <ele>178.23001</ele>
        <time>2024-12-01T13:36:20.934Z</time>
      </trkpt>
      <trkpt lat="43.6566" lon="7.03761">
        <ele>178.47</ele>
        <time>2024-12-01T13:36:21.975Z</time>
      </trkpt>
      <trkpt lat="43.65662" lon="7.03759">
        <ele>178.72</ele>
        <time>2024-12-01T13:36:22.936Z</time>
      </trkpt>
      <trkpt lat="43.65666" lon="7.03757">
        <ele>179</ele>
        <time>2024-12-01T13:36:23.979Z</time>
      </trkpt>
      <trkpt lat="43.65669" lon="7.03754">
        <ele>179.03</ele>
        <time>2024-12-01T13:36:24.530Z</time>
      </trkpt>
      <trkpt lat="43.65672" lon="7.0375">
        <ele>178.58</ele>
        <time>2024-12-01T13:36:25.982Z</time>
      </trkpt>
      <trkpt lat="43.65675" lon="7.03747">
        <ele>178.88</ele>
        <time>2024-12-01T13:36:26.897Z</time>
      </trkpt>
      <trkpt lat="43.65677" lon="7.03745">
        <ele>179.26001</ele>
        <time>2024-12-01T13:36:27.986Z</time>
      </trkpt>
      <trkpt lat="43.6568" lon="7.03742">
        <ele>179.68</ele>
        <time>2024-12-01T13:36:28.949Z</time>
      </trkpt>
      <trkpt lat="43.65683" lon="7.0374">
        <ele>180.03</ele>
        <time>2024-12-01T13:36:29.991Z</time>
      </trkpt>
      <trkpt lat="43.65685" lon="7.03739">
        <ele>180.45</ele>
        <time>2024-12-01T13:36:30.953Z</time>
      </trkpt>
      <trkpt lat="43.65688" lon="7.03738">
        <ele>180.62</ele>
        <time>2024-12-01T13:36:31.816Z</time>
      </trkpt>
      <trkpt lat="43.65691" lon="7.03737">
        <ele>181.06</ele>
        <time>2024-12-01T13:36:32.957Z</time>
      </trkpt>
      <trkpt lat="43.65694" lon="7.03737">
        <ele>180.97</ele>
        <time>2024-12-01T13:36:33.919Z</time>
      </trkpt>
      <trkpt lat="43.65698" lon="7.03738">
        <ele>181.31</ele>
        <time>2024-12-01T13:36:34.960Z</time>
      </trkpt>
      <trkpt lat="43.65701" lon="7.03739">
        <ele>181.65</ele>
        <time>2024-12-01T13:36:35.922Z</time>
      </trkpt>
      <trkpt lat="43.65704" lon="7.03741">
        <ele>182.09</ele>
        <time>2024-12-01T13:36:36.966Z</time>
      </trkpt>
      <trkpt lat="43.65708" lon="7.03744">
        <ele>182.45999</ele>
        <time>2024-12-01T13:36:37.926Z</time>
      </trkpt>
      <trkpt lat="43.65712" lon="7.03746">
        <ele>182.72</ele>
        <time>2024-12-01T13:36:38.652Z</time>
      </trkpt>
      <trkpt lat="43.65715" lon="7.03748">
        <ele>183.2</ele>
        <time>2024-12-01T13:36:39.930Z</time>
      </trkpt>
      <trkpt lat="43.65718" lon="7.03749">
        <ele>183.19</ele>
        <time>2024-12-01T13:36:40.973Z</time>
      </trkpt>
      <trkpt lat="43.65722" lon="7.03749">
        <ele>183.53</ele>
        <time>2024-12-01T13:36:41.936Z</time>
      </trkpt>
      <trkpt lat="43.65724" lon="7.0375">
        <ele>183.94</ele>
        <time>2024-12-01T13:36:42.978Z</time>
      </trkpt>
      <trkpt lat="43.65726" lon="7.03749">
        <ele>184.29001</ele>
        <time>2024-12-01T13:36:43.940Z</time>
      </trkpt>
      <trkpt lat="43.65728" lon="7.03748">
        <ele>184.67</ele>
        <time>2024-12-01T13:36:44.982Z</time>
      </trkpt>
      <trkpt lat="43.65731" lon="7.03746">
        <ele>185.06</ele>
        <time>2024-12-01T13:36:45.942Z</time>
      </trkpt>
      <trkpt lat="43.65734" lon="7.03743">
        <ele>185.13</ele>
        <time>2024-12-01T13:36:46.984Z</time>
      </trkpt>
      <trkpt lat="43.65736" lon="7.0374">
        <ele>184.93</ele>
        <time>2024-12-01T13:36:47.946Z</time>
      </trkpt>
      <trkpt lat="43.65739" lon="7.03736">
        <ele>185.41</ele>
        <time>2024-12-01T13:36:48.989Z</time>
      </trkpt>
      <trkpt lat="43.65742" lon="7.03734">
        <ele>185.9</ele>
        <time>2024-12-01T13:36:49.521Z</time>
      </trkpt>
      <trkpt lat="43.65744" lon="7.03731">
        <ele>186.33</ele>
        <time>2024-12-01T13:36:50.507Z</time>
      </trkpt>
      <trkpt lat="43.65747" lon="7.03728">
        <ele>186.85</ele>
        <time>2024-12-01T13:36:51.525Z</time>
      </trkpt>
      <trkpt lat="43.65749" lon="7.03725">
        <ele>187.26001</ele>
        <time>2024-12-01T13:36:52.996Z</time>
      </trkpt>
      <trkpt lat="43.65751" lon="7.03722">
        <ele>187.76001</ele>
        <time>2024-12-01T13:36:53.511Z</time>
      </trkpt>
      <trkpt lat="43.65752" lon="7.03719">
        <ele>188.04001</ele>
        <time>2024-12-01T13:36:54.528Z</time>
      </trkpt>
      <trkpt lat="43.65754" lon="7.03717">
        <ele>188.4</ele>
        <time>2024-12-01T13:36:55.962Z</time>
      </trkpt>
      <trkpt lat="43.65756" lon="7.03716">
        <ele>188.58</ele>
        <time>2024-12-01T13:36:57.005Z</time>
      </trkpt>
      <trkpt lat="43.65758" lon="7.03714">
        <ele>188.9</ele>
        <time>2024-12-01T13:36:57.863Z</time>
      </trkpt>
      <trkpt lat="43.6576" lon="7.03712">
        <ele>189.06</ele>
        <time>2024-12-01T13:36:59.008Z</time>
      </trkpt>
      <trkpt lat="43.65762" lon="7.0371">
        <ele>189.37</ele>
        <time>2024-12-01T13:36:59.971Z</time>
      </trkpt>
      <trkpt lat="43.65764" lon="7.03708">
        <ele>189.51999</ele>
        <time>2024-12-01T13:37:01.013Z</time>
      </trkpt>
      <trkpt lat="43.65766" lon="7.03707">
        <ele>189.72</ele>
        <time>2024-12-01T13:37:01.736Z</time>
      </trkpt>
      <trkpt lat="43.65769" lon="7.03704">
        <ele>189.94</ele>
        <time>2024-12-01T13:37:02.936Z</time>
      </trkpt>
      <trkpt lat="43.65772" lon="7.03702">
        <ele>190.09</ele>
        <time>2024-12-01T13:37:03.979Z</time>
      </trkpt>
      <trkpt lat="43.65775" lon="7.037">
        <ele>190.26999</ele>
        <time>2024-12-01T13:37:04.941Z</time>
      </trkpt>
      <trkpt lat="43.65777" lon="7.03698">
        <ele>190.4</ele>
        <time>2024-12-01T13:37:05.983Z</time>
      </trkpt>
      <trkpt lat="43.65779" lon="7.03697">
        <ele>190.51999</ele>
        <time>2024-12-01T13:37:06.944Z</time>
      </trkpt>
      <trkpt lat="43.65782" lon="7.03695">
        <ele>190.7</ele>
        <time>2024-12-01T13:37:07.985Z</time>
      </trkpt>
      <trkpt lat="43.65785" lon="7.03693">
        <ele>190.86</ele>
        <time>2024-12-01T13:37:08.668Z</time>
      </trkpt>
      <trkpt lat="43.65788" lon="7.03691">
        <ele>190.95999</ele>
        <time>2024-12-01T13:37:09.993Z</time>
      </trkpt>
      <trkpt lat="43.65791" lon="7.03689">
        <ele>191.06</ele>
        <time>2024-12-01T13:37:10.951Z</time>
      </trkpt>
      <trkpt lat="43.65794" lon="7.03686">
        <ele>191.19</ele>
        <time>2024-12-01T13:37:11.995Z</time>
      </trkpt>
      <trkpt lat="43.65797" lon="7.03684">
        <ele>191.34</ele>
        <time>2024-12-01T13:37:12.621Z</time>
      </trkpt>
      <trkpt lat="43.658" lon="7.03682">
        <ele>191.48001</ele>
        <time>2024-12-01T13:37:13.999Z</time>
      </trkpt>
      <trkpt lat="43.65804" lon="7.03681">
        <ele>191.59</ele>
        <time>2024-12-01T13:37:14.610Z</time>
      </trkpt>
      <trkpt lat="43.65807" lon="7.0368">
        <ele>191.6</ele>
        <time>2024-12-01T13:37:16.003Z</time>
      </trkpt>
      <trkpt lat="43.65811" lon="7.03679">
        <ele>191.64</ele>
        <time>2024-12-01T13:37:16.963Z</time>
      </trkpt>
      <trkpt lat="43.65814" lon="7.03678">
        <ele>191.7</ele>
        <time>2024-12-01T13:37:18.007Z</time>
      </trkpt>
      <trkpt lat="43.65818" lon="7.03677">
        <ele>191.7</ele>
        <time>2024-12-01T13:37:18.967Z</time>
      </trkpt>
      <trkpt lat="43.65821" lon="7.03676">
        <ele>191.83</ele>
        <time>2024-12-01T13:37:20.011Z</time>
      </trkpt>
      <trkpt lat="43.65824" lon="7.03675">
        <ele>191.9</ele>
        <time>2024-12-01T13:37:20.971Z</time>
      </trkpt>
      <trkpt lat="43.65827" lon="7.03673">
        <ele>191.9</ele>
        <time>2024-12-01T13:37:22.016Z</time>
      </trkpt>
      <trkpt lat="43.65831" lon="7.03671">
        <ele>191.97</ele>
        <time>2024-12-01T13:37:22.974Z</time>
      </trkpt>
      <trkpt lat="43.65834" lon="7.03668">
        <ele>192.03</ele>
        <time>2024-12-01T13:37:24.020Z</time>
      </trkpt>
      <trkpt lat="43.65836" lon="7.03665">
        <ele>191.98999</ele>
        <time>2024-12-01T13:37:24.979Z</time>
      </trkpt>
      <trkpt lat="43.65839" lon="7.03659">
        <ele>191.94</ele>
        <time>2024-12-01T13:37:26.023Z</time>
      </trkpt>
      <trkpt lat="43.65841" lon="7.03654">
        <ele>191.97</ele>
        <time>2024-12-01T13:37:26.983Z</time>
      </trkpt>
      <trkpt lat="43.65844" lon="7.0365">
        <ele>191.97</ele>
        <time>2024-12-01T13:37:28.026Z</time>
      </trkpt>
      <trkpt lat="43.65845" lon="7.03644">
        <ele>191.94</ele>
        <time>2024-12-01T13:37:28.986Z</time>
      </trkpt>
      <trkpt lat="43.65847" lon="7.03638">
        <ele>191.91</ele>
        <time>2024-12-01T13:37:30.030Z</time>
      </trkpt>
      <trkpt lat="43.65849" lon="7.03631">
        <ele>191.82</ele>
        <time>2024-12-01T13:37:30.991Z</time>
      </trkpt>
      <trkpt lat="43.6585" lon="7.03624">
        <ele>191.73999</ele>
        <time>2024-12-01T13:37:32.035Z</time>
      </trkpt>
      <trkpt lat="43.65853" lon="7.03619">
        <ele>191.68</ele>
        <time>2024-12-01T13:37:32.993Z</time>
      </trkpt>
      <trkpt lat="43.65855" lon="7.03613">
        <ele>191.62</ele>
        <time>2024-12-01T13:37:34.038Z</time>
      </trkpt>
      <trkpt lat="43.65857" lon="7.03608">
        <ele>191.56</ele>
        <time>2024-12-01T13:37:34.999Z</time>
      </trkpt>
      <trkpt lat="43.6586" lon="7.03604">
        <ele>191.48001</ele>
        <time>2024-12-01T13:37:35.960Z</time>
      </trkpt>
      <trkpt lat="43.65862" lon="7.03602">
        <ele>191.45</ele>
        <time>2024-12-01T13:37:37.002Z</time>
      </trkpt>
      <trkpt lat="43.65865" lon="7.03601">
        <ele>191.38</ele>
        <time>2024-12-01T13:37:37.964Z</time>
      </trkpt>
      <trkpt lat="43.65869" lon="7.03602">
        <ele>191.32</ele>
        <time>2024-12-01T13:37:39.005Z</time>
      </trkpt>
      <trkpt lat="43.65875" lon="7.03604">
        <ele>191.23001</ele>
        <time>2024-12-01T13:37:39.968Z</time>
      </trkpt>
      <trkpt lat="43.6588" lon="7.03607">
        <ele>191.18</ele>
        <time>2024-12-01T13:37:41.013Z</time>
      </trkpt>
      <trkpt lat="43.65885" lon="7.0361">
        <ele>191.11</ele>
        <time>2024-12-01T13:37:41.971Z</time>
      </trkpt>
      <trkpt lat="43.65891" lon="7.03614">
        <ele>191.06</ele>
        <time>2024-12-01T13:37:43.013Z</time>
      </trkpt>
      <trkpt lat="43.65896" lon="7.03616">
        <ele>191</ele>
        <time>2024-12-01T13:37:43.975Z</time>
      </trkpt>
      <trkpt lat="43.65902" lon="7.03617">
        <ele>190.94</ele>
        <time>2024-12-01T13:37:45.017Z</time>
      </trkpt>
      <trkpt lat="43.65907" lon="7.03617">
        <ele>190.88</ele>
        <time>2024-12-01T13:37:45.980Z</time>
      </trkpt>
      <trkpt lat="43.65911" lon="7.03615">
        <ele>190.82</ele>
        <time>2024-12-01T13:37:47.022Z</time>
      </trkpt>
      <trkpt lat="43.65917" lon="7.03613">
        <ele>190.78</ele>
        <time>2024-12-01T13:37:47.984Z</time>
      </trkpt>
      <trkpt lat="43.6592" lon="7.0361">
        <ele>190.73001</ele>
        <time>2024-12-01T13:37:49.027Z</time>
      </trkpt>
      <trkpt lat="43.65923" lon="7.03606">
        <ele>190.68</ele>
        <time>2024-12-01T13:37:49.987Z</time>
      </trkpt>
      <trkpt lat="43.65926" lon="7.03601">
        <ele>190.64</ele>
        <time>2024-12-01T13:37:51.030Z</time>
      </trkpt>
      <trkpt lat="43.65928" lon="7.03597">
        <ele>190.6</ele>
        <time>2024-12-01T13:37:51.992Z</time>
      </trkpt>
      <trkpt lat="43.6593" lon="7.03593">
        <ele>190.56</ele>
        <time>2024-12-01T13:37:53.035Z</time>
      </trkpt>
      <trkpt lat="43.65931" lon="7.0359">
        <ele>190.51001</ele>
        <time>2024-12-01T13:37:53.995Z</time>
      </trkpt>
      <trkpt lat="43.65933" lon="7.03586">
        <ele>190.47</ele>
        <time>2024-12-01T13:37:55.039Z</time>
      </trkpt>
      <trkpt lat="43.65936" lon="7.03582">
        <ele>190.43</ele>
        <time>2024-12-01T13:37:55.999Z</time>
      </trkpt>
      <trkpt lat="43.65937" lon="7.03579">
        <ele>190.37</ele>
        <time>2024-12-01T13:37:57.041Z</time>
      </trkpt>
      <trkpt lat="43.65939" lon="7.03575">
        <ele>190.33</ele>
        <time>2024-12-01T13:37:58.004Z</time>
      </trkpt>
      <trkpt lat="43.65941" lon="7.03571">
        <ele>190.26999</ele>
        <time>2024-12-01T13:37:59.046Z</time>
      </trkpt>
      <trkpt lat="43.65942" lon="7.03569">
        <ele>190.23999</ele>
        <time>2024-12-01T13:37:59.808Z</time>
      </trkpt>
      <trkpt lat="43.65943" lon="7.03565">
        <ele>190.2</ele>
        <time>2024-12-01T13:38:01.050Z</time>
      </trkpt>
      <trkpt lat="43.65945" lon="7.03562">
        <ele>190.15</ele>
        <time>2024-12-01T13:38:01.100Z</time>
      </trkpt>
      <trkpt lat="43.65946" lon="7.03559">
        <ele>190.11</ele>
        <time>2024-12-01T13:38:03.054Z</time>
      </trkpt>
      <trkpt lat="43.65947" lon="7.03555">
        <ele>190.01999</ele>
        <time>2024-12-01T13:38:03.681Z</time>
      </trkpt>
      <trkpt lat="43.65949" lon="7.0355">
        <ele>189.98001</ele>
        <time>2024-12-01T13:38:04.881Z</time>
      </trkpt>
      <trkpt lat="43.6595" lon="7.03546">
        <ele>189.9</ele>
        <time>2024-12-01T13:38:05.573Z</time>
      </trkpt>
      <trkpt lat="43.65952" lon="7.03542">
        <ele>189.83</ele>
        <time>2024-12-01T13:38:06.654Z</time>
      </trkpt>
      <trkpt lat="43.65953" lon="7.03537">
        <ele>189.76001</ele>
        <time>2024-12-01T13:38:08.023Z</time>
      </trkpt>
      <trkpt lat="43.65955" lon="7.03533">
        <ele>189.67</ele>
        <time>2024-12-01T13:38:09.067Z</time>
      </trkpt>
      <trkpt lat="43.65956" lon="7.03529">
        <ele>189.62</ele>
        <time>2024-12-01T13:38:09.623Z</time>
      </trkpt>
      <trkpt lat="43.65958" lon="7.03525">
        <ele>189.53</ele>
        <time>2024-12-01T13:38:10.991Z</time>
      </trkpt>
      <trkpt lat="43.6596" lon="7.0352">
        <ele>189.48999</ele>
        <time>2024-12-01T13:38:12.035Z</time>
      </trkpt>
      <trkpt lat="43.65962" lon="7.03516">
        <ele>189.44</ele>
        <time>2024-12-01T13:38:12.994Z</time>
      </trkpt>
      <trkpt lat="43.65963" lon="7.03512">
        <ele>189.41</ele>
        <time>2024-12-01T13:38:14.036Z</time>
      </trkpt>
      <trkpt lat="43.65965" lon="7.03508">
        <ele>189.39</ele>
        <time>2024-12-01T13:38:14.998Z</time>
      </trkpt>
      <trkpt lat="43.65967" lon="7.03503">
        <ele>189.35</ele>
        <time>2024-12-01T13:38:16.040Z</time>
      </trkpt>
      <trkpt lat="43.65969" lon="7.03498">
        <ele>189.33</ele>
        <time>2024-12-01T13:38:17.009Z</time>
      </trkpt>
      <trkpt lat="43.65971" lon="7.03494">
        <ele>189.22</ele>
        <time>2024-12-01T13:38:18.045Z</time>
      </trkpt>
      <trkpt lat="43.65974" lon="7.0349">
        <ele>189.20999</ele>
        <time>2024-12-01T13:38:19.006Z</time>
      </trkpt>
      <trkpt lat="43.65975" lon="7.03487">
        <ele>189.18</ele>
        <time>2024-12-01T13:38:20.049Z</time>
      </trkpt>
      <trkpt lat="43.65977" lon="7.03484">
        <ele>189.12</ele>
        <time>2024-12-01T13:38:21.010Z</time>
      </trkpt>
      <trkpt lat="43.65979" lon="7.03482">
        <ele>189.09</ele>
        <time>2024-12-01T13:38:22.052Z</time>
      </trkpt>
      <trkpt lat="43.65982" lon="7.0348">
        <ele>189.09</ele>
        <time>2024-12-01T13:38:22.908Z</time>
      </trkpt>
      <trkpt lat="43.65985" lon="7.03478">
        <ele>189.06</ele>
        <time>2024-12-01T13:38:24.060Z</time>
      </trkpt>
      <trkpt lat="43.65989" lon="7.03476">
        <ele>189.03</ele>
        <time>2024-12-01T13:38:25.020Z</time>
      </trkpt>
      <trkpt lat="43.65993" lon="7.03475">
        <ele>189.04001</ele>
        <time>2024-12-01T13:38:26.062Z</time>
      </trkpt>
      <trkpt lat="43.65996" lon="7.03474">
        <ele>189.03</ele>
        <time>2024-12-01T13:38:26.961Z</time>
      </trkpt>
      <trkpt lat="43.65999" lon="7.03473">
        <ele>188.92</ele>
        <time>2024-12-01T13:38:28.067Z</time>
      </trkpt>
      <trkpt lat="43.66003" lon="7.03473">
        <ele>188.95999</ele>
        <time>2024-12-01T13:38:29.025Z</time>
      </trkpt>
      <trkpt lat="43.66008" lon="7.03472">
        <ele>188.98999</ele>
        <time>2024-12-01T13:38:30.071Z</time>
      </trkpt>
      <trkpt lat="43.66011" lon="7.03472">
        <ele>188.95</ele>
        <time>2024-12-01T13:38:31.030Z</time>
      </trkpt>
      <trkpt lat="43.66014" lon="7.03472">
        <ele>188.95</ele>
        <time>2024-12-01T13:38:32.075Z</time>
      </trkpt>
      <trkpt lat="43.66018" lon="7.03472">
        <ele>188.95</ele>
        <time>2024-12-01T13:38:33.034Z</time>
      </trkpt>
      <trkpt lat="43.66022" lon="7.03472">
        <ele>188.95999</ele>
        <time>2024-12-01T13:38:34.076Z</time>
      </trkpt>
      <trkpt lat="43.66026" lon="7.03472">
        <ele>188.94</ele>
        <time>2024-12-01T13:38:35.038Z</time>
      </trkpt>
      <trkpt lat="43.66027" lon="7.03473">
        <ele>188.91</ele>
        <time>2024-12-01T13:38:36.081Z</time>
      </trkpt>
      <trkpt lat="43.6603" lon="7.03472">
        <ele>188.85</ele>
        <time>2024-12-01T13:38:37.045Z</time>
      </trkpt>
      <trkpt lat="43.66033" lon="7.03472">
        <ele>188.83</ele>
        <time>2024-12-01T13:38:38.084Z</time>
      </trkpt>
      <trkpt lat="43.66037" lon="7.0347">
        <ele>188.76999</ele>
        <time>2024-12-01T13:38:38.661Z</time>
      </trkpt>
      <trkpt lat="43.66041" lon="7.03467">
        <ele>188.76001</ele>
        <time>2024-12-01T13:38:40.008Z</time>
      </trkpt>
      <trkpt lat="43.66045" lon="7.03464">
        <ele>188.76999</ele>
        <time>2024-12-01T13:38:41.049Z</time>
      </trkpt>
      <trkpt lat="43.66049" lon="7.03461">
        <ele>188.72</ele>
        <time>2024-12-01T13:38:42.012Z</time>
      </trkpt>
      <trkpt lat="43.66054" lon="7.03457">
        <ele>188.66</ele>
        <time>2024-12-01T13:38:43.057Z</time>
      </trkpt>
      <trkpt lat="43.66057" lon="7.03454">
        <ele>188.66</ele>
        <time>2024-12-01T13:38:44.016Z</time>
      </trkpt>
      <trkpt lat="43.66061" lon="7.03449">
        <ele>188.59</ele>
        <time>2024-12-01T13:38:45.058Z</time>
      </trkpt>
      <trkpt lat="43.66064" lon="7.03445">
        <ele>188.51001</ele>
        <time>2024-12-01T13:38:46.020Z</time>
      </trkpt>
      <trkpt lat="43.66066" lon="7.03441">
        <ele>188.48001</ele>
        <time>2024-12-01T13:38:47.062Z</time>
      </trkpt>
      <trkpt lat="43.66069" lon="7.03436">
        <ele>188.42</ele>
        <time>2024-12-01T13:38:48.024Z</time>
      </trkpt>
      <trkpt lat="43.66073" lon="7.03429">
        <ele>188.36</ele>
        <time>2024-12-01T13:38:49.066Z</time>
      </trkpt>
      <trkpt lat="43.66076" lon="7.03424">
        <ele>188.28</ele>
        <time>2024-12-01T13:38:50.028Z</time>
      </trkpt>
      <trkpt lat="43.66077" lon="7.03421">
        <ele>188.22</ele>
        <time>2024-12-01T13:38:51.072Z</time>
      </trkpt>
      <trkpt lat="43.6608" lon="7.03417">
        <ele>188.17</ele>
        <time>2024-12-01T13:38:52.033Z</time>
      </trkpt>
      <trkpt lat="43.66082" lon="7.03412">
        <ele>186.95999</ele>
        <time>2024-12-01T13:39:08.528Z</time>
      </trkpt>
      <trkpt lat="43.66084" lon="7.03411">
        <ele>186.91</ele>
        <time>2024-12-01T13:39:10.488Z</time>
      </trkpt>
      <trkpt lat="43.66084" lon="7.03409">
        <ele>186.76999</ele>
        <time>2024-12-01T13:39:11.510Z</time>
      </trkpt>
      <trkpt lat="43.66085" lon="7.03406">
        <ele>186.66</ele>
        <time>2024-12-01T13:39:12.329Z</time>
      </trkpt>
      <trkpt lat="43.66086" lon="7.03403">
        <ele>186.63</ele>
        <time>2024-12-01T13:39:13.494Z</time>
      </trkpt>
      <trkpt lat="43.66087" lon="7.03398">
        <ele>186.6</ele>
        <time>2024-12-01T13:39:14.476Z</time>
      </trkpt>
      <trkpt lat="43.66088" lon="7.03394">
        <ele>186.58</ele>
        <time>2024-12-01T13:39:15.519Z</time>
      </trkpt>
      <trkpt lat="43.66089" lon="7.03392">
        <ele>186.47</ele>
        <time>2024-12-01T13:39:16.481Z</time>
      </trkpt>
      <trkpt lat="43.6609" lon="7.03389">
        <ele>186.43</ele>
        <time>2024-12-01T13:39:17.523Z</time>
      </trkpt>
      <trkpt lat="43.66091" lon="7.03386">
        <ele>186.4</ele>
        <time>2024-12-01T13:39:18.485Z</time>
      </trkpt>
      <trkpt lat="43.66093" lon="7.03382">
        <ele>186.36</ele>
        <time>2024-12-01T13:39:19.526Z</time>
      </trkpt>
      <trkpt lat="43.66095" lon="7.03379">
        <ele>186.31</ele>
        <time>2024-12-01T13:39:20.493Z</time>
      </trkpt>
      <trkpt lat="43.66096" lon="7.03376">
        <ele>186.25</ele>
        <time>2024-12-01T13:39:21.530Z</time>
      </trkpt>
      <trkpt lat="43.66098" lon="7.03368">
        <ele>186.16</ele>
        <time>2024-12-01T13:39:23.535Z</time>
      </trkpt>
      <trkpt lat="43.66098" lon="7.03366">
        <ele>186.04001</ele>
        <time>2024-12-01T13:39:24.497Z</time>
      </trkpt>
      <trkpt lat="43.66099" lon="7.03364">
        <ele>185.91</ele>
        <time>2024-12-01T13:39:25.539Z</time>
      </trkpt>
      <trkpt lat="43.66101" lon="7.03359">
        <ele>185.8</ele>
        <time>2024-12-01T13:39:27.462Z</time>
      </trkpt>
      <trkpt lat="43.66102" lon="7.03357">
        <ele>185.65</ele>
        <time>2024-12-01T13:39:34.972Z</time>
      </trkpt>
      <trkpt lat="43.66105" lon="7.03353">
        <ele>185.20999</ele>
        <time>2024-12-01T13:39:53.053Z</time>
      </trkpt>
      <trkpt lat="43.66107" lon="7.03358">
        <ele>184.76001</ele>
        <time>2024-12-01T13:39:55.599Z</time>
      </trkpt>
      <trkpt lat="43.66108" lon="7.03358">
        <ele>184.70999</ele>
        <time>2024-12-01T13:39:56.562Z</time>
      </trkpt>
      <trkpt lat="43.66109" lon="7.03358">
        <ele>184.59</ele>
        <time>2024-12-01T13:39:58.565Z</time>
      </trkpt>
      <trkpt lat="43.66109" lon="7.03357">
        <ele>184.55</ele>
        <time>2024-12-01T13:39:59.127Z</time>
      </trkpt>
      <trkpt lat="43.66112" lon="7.03355">
        <ele>184.37</ele>
        <time>2024-12-01T13:40:02.717Z</time>
      </trkpt>
      <trkpt lat="43.66111" lon="7.03353">
        <ele>184.25</ele>
        <time>2024-12-01T13:40:05.499Z</time>
      </trkpt>
      <trkpt lat="43.6611" lon="7.03349">
        <ele>184.18</ele>
        <time>2024-12-01T13:40:07.503Z</time>
      </trkpt>
      <trkpt lat="43.66111" lon="7.03344">
        <ele>184.04001</ele>
        <time>2024-12-01T13:40:13.015Z</time>
      </trkpt>
      <trkpt lat="43.66117" lon="7.03344">
        <ele>183.51001</ele>
        <time>2024-12-01T13:40:39.333Z</time>
      </trkpt>
      <trkpt lat="43.66118" lon="7.0334">
        <ele>183.53</ele>
        <time>2024-12-01T13:40:42.366Z</time>
      </trkpt>
      <trkpt lat="43.66121" lon="7.03334">
        <ele>183.56</ele>
        <time>2024-12-01T13:40:44.356Z</time>
      </trkpt>
      <trkpt lat="43.66121" lon="7.03333">
        <ele>183.78</ele>
        <time>2024-12-01T13:40:45.340Z</time>
      </trkpt>
      <trkpt lat="43.66122" lon="7.03331">
        <ele>183.79001</ele>
        <time>2024-12-01T13:40:45.863Z</time>
      </trkpt>
      <trkpt lat="43.66122" lon="7.03329">
        <ele>183.68</ele>
        <time>2024-12-01T13:40:47.347Z</time>
      </trkpt>
      <trkpt lat="43.66123" lon="7.03327">
        <ele>183.69</ele>
        <time>2024-12-01T13:40:47.942Z</time>
      </trkpt>
      <trkpt lat="43.66124" lon="7.03325">
        <ele>183.72</ele>
        <time>2024-12-01T13:40:48.381Z</time>
      </trkpt>
      <trkpt lat="43.66124" lon="7.03322">
        <ele>183.72</ele>
        <time>2024-12-01T13:40:50.334Z</time>
      </trkpt>
      <trkpt lat="43.66125" lon="7.03321">
        <ele>183.64</ele>
        <time>2024-12-01T13:40:51.352Z</time>
      </trkpt>
      <trkpt lat="43.66125" lon="7.03319">
        <ele>183.67</ele>
        <time>2024-12-01T13:40:52.315Z</time>
      </trkpt>
      <trkpt lat="43.66126" lon="7.03317">
        <ele>183.7</ele>
        <time>2024-12-01T13:40:53.192Z</time>
      </trkpt>
      <trkpt lat="43.66126" lon="7.03315">
        <ele>183.72</ele>
        <time>2024-12-01T13:40:53.603Z</time>
      </trkpt>
      <trkpt lat="43.66127" lon="7.03312">
        <ele>183.73001</ele>
        <time>2024-12-01T13:40:55.331Z</time>
      </trkpt>
      <trkpt lat="43.66126" lon="7.0331">
        <ele>183.72</ele>
        <time>2024-12-01T13:40:56.324Z</time>
      </trkpt>
      <trkpt lat="43.66127" lon="7.03311">
        <ele>183.73999</ele>
        <time>2024-12-01T13:40:57.367Z</time>
      </trkpt>
      <trkpt lat="43.66125" lon="7.03302">
        <ele>183.75</ele>
        <time>2024-12-01T13:40:58.359Z</time>
      </trkpt>
      <trkpt lat="43.66124" lon="7.03296">
        <ele>183.76001</ele>
        <time>2024-12-01T13:40:59.369Z</time>
      </trkpt>
      <trkpt lat="43.66122" lon="7.03289">
        <ele>183.75</ele>
        <time>2024-12-01T13:41:01.365Z</time>
      </trkpt>
      <trkpt lat="43.66117" lon="7.03276">
        <ele>183.86</ele>
        <time>2024-12-01T13:41:03.298Z</time>
      </trkpt>
      <trkpt lat="43.66114" lon="7.03272">
        <ele>183.85</ele>
        <time>2024-12-01T13:41:04.344Z</time>
      </trkpt>
      <trkpt lat="43.66113" lon="7.03268">
        <ele>183.89</ele>
        <time>2024-12-01T13:41:05.302Z</time>
      </trkpt>
      <trkpt lat="43.66111" lon="7.03265">
        <ele>183.87</ele>
        <time>2024-12-01T13:41:06.346Z</time>
      </trkpt>
      <trkpt lat="43.66109" lon="7.03262">
        <ele>183.89</ele>
        <time>2024-12-01T13:41:07.306Z</time>
      </trkpt>
      <trkpt lat="43.66108" lon="7.03259">
        <ele>183.89</ele>
        <time>2024-12-01T13:41:08.362Z</time>
      </trkpt>
      <trkpt lat="43.66107" lon="7.03257">
        <ele>183.91</ele>
        <time>2024-12-01T13:41:09.310Z</time>
      </trkpt>
      <trkpt lat="43.66105" lon="7.03255">
        <ele>183.94</ele>
        <time>2024-12-01T13:41:09.986Z</time>
      </trkpt>
      <trkpt lat="43.66103" lon="7.03252">
        <ele>183.98001</ele>
        <time>2024-12-01T13:41:11.314Z</time>
      </trkpt>
      <trkpt lat="43.66101" lon="7.03249">
        <ele>184.01001</ele>
        <time>2024-12-01T13:41:12.359Z</time>
      </trkpt>
      <trkpt lat="43.66099" lon="7.03245">
        <ele>184.03</ele>
        <time>2024-12-01T13:41:13.318Z</time>
      </trkpt>
      <trkpt lat="43.66098" lon="7.03243">
        <ele>184.03</ele>
        <time>2024-12-01T13:41:14.362Z</time>
      </trkpt>
      <trkpt lat="43.66096" lon="7.03239">
        <ele>184.06</ele>
        <time>2024-12-01T13:41:15.322Z</time>
      </trkpt>
      <trkpt lat="43.66095" lon="7.03236">
        <ele>184.1</ele>
        <time>2024-12-01T13:41:15.836Z</time>
      </trkpt>
      <trkpt lat="43.66094" lon="7.03232">
        <ele>184.13</ele>
        <time>2024-12-01T13:41:17.362Z</time>
      </trkpt>
      <trkpt lat="43.66094" lon="7.0323">
        <ele>184.12</ele>
        <time>2024-12-01T13:41:18.381Z</time>
      </trkpt>
      <trkpt lat="43.66093" lon="7.03227">
        <ele>184.14</ele>
        <time>2024-12-01T13:41:19.329Z</time>
      </trkpt>
      <trkpt lat="43.66093" lon="7.03225">
        <ele>184.15</ele>
        <time>2024-12-01T13:41:20.375Z</time>
      </trkpt>
      <trkpt lat="43.66093" lon="7.03222">
        <ele>184.12</ele>
        <time>2024-12-01T13:41:21.195Z</time>
      </trkpt>
      <trkpt lat="43.66093" lon="7.03219">
        <ele>184.17</ele>
        <time>2024-12-01T13:41:22.334Z</time>
      </trkpt>
      <trkpt lat="43.66093" lon="7.03217">
        <ele>184.18</ele>
        <time>2024-12-01T13:41:23.337Z</time>
      </trkpt>
      <trkpt lat="43.66093" lon="7.03215">
        <ele>184.20999</ele>
        <time>2024-12-01T13:41:24.353Z</time>
      </trkpt>
      <trkpt lat="43.66094" lon="7.03214">
        <ele>184.26001</ele>
        <time>2024-12-01T13:41:25.341Z</time>
      </trkpt>
      <trkpt lat="43.66094" lon="7.03212">
        <ele>184.3</ele>
        <time>2024-12-01T13:41:25.403Z</time>
      </trkpt>
      <trkpt lat="43.66094" lon="7.03209">
        <ele>184.36</ele>
        <time>2024-12-01T13:41:27.347Z</time>
      </trkpt>
      <trkpt lat="43.66094" lon="7.03208">
        <ele>184.35</ele>
        <time>2024-12-01T13:41:28.308Z</time>
      </trkpt>
      <trkpt lat="43.66094" lon="7.03205">
        <ele>184.26999</ele>
        <time>2024-12-01T13:41:29.350Z</time>
      </trkpt>
      <trkpt lat="43.66093" lon="7.03201">
        <ele>184.33</ele>
        <time>2024-12-01T13:41:30.312Z</time>
      </trkpt>
      <trkpt lat="43.66093" lon="7.03198">
        <ele>184.35</ele>
        <time>2024-12-01T13:41:31.354Z</time>
      </trkpt>
      <trkpt lat="43.66093" lon="7.03194">
        <ele>184.32</ele>
        <time>2024-12-01T13:41:32.225Z</time>
      </trkpt>
      <trkpt lat="43.66092" lon="7.0319">
        <ele>184.38</ele>
        <time>2024-12-01T13:41:33.358Z</time>
      </trkpt>
      <trkpt lat="43.66092" lon="7.03186">
        <ele>184.43</ele>
        <time>2024-12-01T13:41:34.320Z</time>
      </trkpt>
      <trkpt lat="43.66091" lon="7.03182">
        <ele>184.48001</ele>
        <time>2024-12-01T13:41:35.361Z</time>
      </trkpt>
      <trkpt lat="43.66091" lon="7.03178">
        <ele>184.51999</ele>
        <time>2024-12-01T13:41:36.323Z</time>
      </trkpt>
      <trkpt lat="43.6609" lon="7.03173">
        <ele>184.64</ele>
        <time>2024-12-01T13:41:37.365Z</time>
      </trkpt>
      <trkpt lat="43.6609" lon="7.03169">
        <ele>184.70999</ele>
        <time>2024-12-01T13:41:38.330Z</time>
      </trkpt>
      <trkpt lat="43.6609" lon="7.03165">
        <ele>184.79001</ele>
        <time>2024-12-01T13:41:39.371Z</time>
      </trkpt>
      <trkpt lat="43.66089" lon="7.03161">
        <ele>184.95</ele>
        <time>2024-12-01T13:41:40.331Z</time>
      </trkpt>
      <trkpt lat="43.6609" lon="7.03156">
        <ele>185.08</ele>
        <time>2024-12-01T13:41:41.374Z</time>
      </trkpt>
      <trkpt lat="43.6609" lon="7.03151">
        <ele>185.14</ele>
        <time>2024-12-01T13:41:41.845Z</time>
      </trkpt>
      <trkpt lat="43.6609" lon="7.03148">
        <ele>185.18</ele>
        <time>2024-12-01T13:41:43.373Z</time>
      </trkpt>
      <trkpt lat="43.66091" lon="7.03147">
        <ele>185.25</ele>
        <time>2024-12-01T13:41:44.341Z</time>
      </trkpt>
      <trkpt lat="43.6609" lon="7.03144">
        <ele>185.36</ele>
        <time>2024-12-01T13:41:45.382Z</time>
      </trkpt>
      <trkpt lat="43.66091" lon="7.03142">
        <ele>185.1</ele>
        <time>2024-12-01T13:41:46.344Z</time>
      </trkpt>
      <trkpt lat="43.66091" lon="7.0314">
        <ele>185.17</ele>
        <time>2024-12-01T13:41:47.386Z</time>
      </trkpt>
      <trkpt lat="43.66092" lon="7.03138">
        <ele>185.25</ele>
        <time>2024-12-01T13:41:48.350Z</time>
      </trkpt>
      <trkpt lat="43.66092" lon="7.03136">
        <ele>185.36</ele>
        <time>2024-12-01T13:41:49.391Z</time>
      </trkpt>
      <trkpt lat="43.66086" lon="7.03102">
        <ele>187.41</ele>
        <time>2024-12-01T13:43:41.249Z</time>
      </trkpt>
      <trkpt lat="43.66086" lon="7.03101">
        <ele>187.41</ele>
        <time>2024-12-01T13:43:42.279Z</time>
      </trkpt>
      <trkpt lat="43.66086" lon="7.03099">
        <ele>187.45999</ele>
        <time>2024-12-01T13:43:44.253Z</time>
      </trkpt>
      <trkpt lat="43.66086" lon="7.03096">
        <ele>187.51999</ele>
        <time>2024-12-01T13:43:44.271Z</time>
      </trkpt>
      <trkpt lat="43.66087" lon="7.03092">
        <ele>187.59</ele>
        <time>2024-12-01T13:43:46.244Z</time>
      </trkpt>
      <trkpt lat="43.66087" lon="7.0309">
        <ele>187.72</ele>
        <time>2024-12-01T13:43:46.274Z</time>
      </trkpt>
      <trkpt lat="43.66088" lon="7.03086">
        <ele>187.84</ele>
        <time>2024-12-01T13:43:47.281Z</time>
      </trkpt>
      <trkpt lat="43.66088" lon="7.03083">
        <ele>187.94</ele>
        <time>2024-12-01T13:43:49.240Z</time>
      </trkpt>
      <trkpt lat="43.66088" lon="7.03079">
        <ele>188.08</ele>
        <time>2024-12-01T13:43:50.226Z</time>
      </trkpt>
      <trkpt lat="43.66089" lon="7.03075">
        <ele>188.23999</ele>
        <time>2024-12-01T13:43:50.273Z</time>
      </trkpt>
      <trkpt lat="43.66089" lon="7.03071">
        <ele>188.17</ele>
        <time>2024-12-01T13:43:52.232Z</time>
      </trkpt>
      <trkpt lat="43.6609" lon="7.03067">
        <ele>188.28</ele>
        <time>2024-12-01T13:43:53.272Z</time>
      </trkpt>
      <trkpt lat="43.6609" lon="7.03065">
        <ele>188.43</ele>
        <time>2024-12-01T13:43:53.805Z</time>
      </trkpt>
      <trkpt lat="43.66091" lon="7.03063">
        <ele>188.55</ele>
        <time>2024-12-01T13:43:55.271Z</time>
      </trkpt>
      <trkpt lat="43.66092" lon="7.0306">
        <ele>188.03</ele>
        <time>2024-12-01T13:43:56.188Z</time>
      </trkpt>
      <trkpt lat="43.66094" lon="7.03057">
        <ele>187.81</ele>
        <time>2024-12-01T13:43:57.200Z</time>
      </trkpt>
      <trkpt lat="43.66095" lon="7.03055">
        <ele>187.06</ele>
        <time>2024-12-01T13:43:58.243Z</time>
      </trkpt>
      <trkpt lat="43.66097" lon="7.03051">
        <ele>187.07</ele>
        <time>2024-12-01T13:43:59.218Z</time>
      </trkpt>
      <trkpt lat="43.66099" lon="7.03048">
        <ele>187.11</ele>
        <time>2024-12-01T13:44:00.245Z</time>
      </trkpt>
      <trkpt lat="43.66101" lon="7.03045">
        <ele>187.23001</ele>
        <time>2024-12-01T13:44:01.088Z</time>
      </trkpt>
      <trkpt lat="43.66102" lon="7.03043">
        <ele>187.35</ele>
        <time>2024-12-01T13:44:02.249Z</time>
      </trkpt>
      <trkpt lat="43.66103" lon="7.03041">
        <ele>187.45</ele>
        <time>2024-12-01T13:44:03.264Z</time>
      </trkpt>
      <trkpt lat="43.66105" lon="7.03038">
        <ele>187.54001</ele>
        <time>2024-12-01T13:44:04.253Z</time>
      </trkpt>
      <trkpt lat="43.66106" lon="7.03037">
        <ele>187.61</ele>
        <time>2024-12-01T13:44:05.251Z</time>
      </trkpt>
      <trkpt lat="43.66107" lon="7.03035">
        <ele>187.7</ele>
        <time>2024-12-01T13:44:06.257Z</time>
      </trkpt>
      <trkpt lat="43.66108" lon="7.03034">
        <ele>187.75</ele>
        <time>2024-12-01T13:44:06.876Z</time>
      </trkpt>
      <trkpt lat="43.66109" lon="7.03032">
        <ele>187.89</ele>
        <time>2024-12-01T13:44:08.261Z</time>
      </trkpt>
      <trkpt lat="43.66111" lon="7.03029">
        <ele>188.01999</ele>
        <time>2024-12-01T13:44:09.025Z</time>
      </trkpt>
      <trkpt lat="43.66113" lon="7.03027">
        <ele>188.2</ele>
        <time>2024-12-01T13:44:10.265Z</time>
      </trkpt>
      <trkpt lat="43.66115" lon="7.03024">
        <ele>188.34</ele>
        <time>2024-12-01T13:44:11.227Z</time>
      </trkpt>
      <trkpt lat="43.66117" lon="7.03021">
        <ele>188.23999</ele>
        <time>2024-12-01T13:44:12.271Z</time>
      </trkpt>
      <trkpt lat="43.66119" lon="7.03018">
        <ele>187.91</ele>
        <time>2024-12-01T13:44:13.239Z</time>
      </trkpt>
      <trkpt lat="43.66122" lon="7.03015">
        <ele>187.95999</ele>
        <time>2024-12-01T13:44:14.274Z</time>
      </trkpt>
      <trkpt lat="43.66124" lon="7.03013">
        <ele>188.12</ele>
        <time>2024-12-01T13:44:14.347Z</time>
      </trkpt>
      <trkpt lat="43.66127" lon="7.03011">
        <ele>188.32</ele>
        <time>2024-12-01T13:44:16.277Z</time>
      </trkpt>
      <trkpt lat="43.66129" lon="7.03009">
        <ele>188.55</ele>
        <time>2024-12-01T13:44:17.280Z</time>
      </trkpt>
      <trkpt lat="43.66132" lon="7.03007">
        <ele>188.92</ele>
        <time>2024-12-01T13:44:18.281Z</time>
      </trkpt>
      <trkpt lat="43.66134" lon="7.03005">
        <ele>189.15</ele>
        <time>2024-12-01T13:44:18.357Z</time>
      </trkpt>
      <trkpt lat="43.66136" lon="7.03003">
        <ele>189.45</ele>
        <time>2024-12-01T13:44:20.286Z</time>
      </trkpt>
      <trkpt lat="43.66139" lon="7.03001">
        <ele>189.53</ele>
        <time>2024-12-01T13:44:20.937Z</time>
      </trkpt>
      <trkpt lat="43.66142" lon="7.02999">
        <ele>189.33</ele>
        <time>2024-12-01T13:44:22.269Z</time>
      </trkpt>
      <trkpt lat="43.66146" lon="7.02996">
        <ele>189.7</ele>
        <time>2024-12-01T13:44:22.351Z</time>
      </trkpt>
      <trkpt lat="43.66149" lon="7.02994">
        <ele>190.01999</ele>
        <time>2024-12-01T13:44:24.295Z</time>
      </trkpt>
      <trkpt lat="43.66152" lon="7.02991">
        <ele>190.3</ele>
        <time>2024-12-01T13:44:24.352Z</time>
      </trkpt>
      <trkpt lat="43.66154" lon="7.02988">
        <ele>190.51001</ele>
        <time>2024-12-01T13:44:26.225Z</time>
      </trkpt>
      <trkpt lat="43.66157" lon="7.02985">
        <ele>190.79001</ele>
        <time>2024-12-01T13:44:26.356Z</time>
      </trkpt>
      <trkpt lat="43.66159" lon="7.02982">
        <ele>190.88</ele>
        <time>2024-12-01T13:44:28.171Z</time>
      </trkpt>
      <trkpt lat="43.66161" lon="7.02979">
        <ele>190.31</ele>
        <time>2024-12-01T13:44:28.350Z</time>
      </trkpt>
      <trkpt lat="43.66164" lon="7.02976">
        <ele>190.63</ele>
        <time>2024-12-01T13:44:30.305Z</time>
      </trkpt>
      <trkpt lat="43.66166" lon="7.02974">
        <ele>191</ele>
        <time>2024-12-01T13:44:30.363Z</time>
      </trkpt>
      <trkpt lat="43.66169" lon="7.02971">
        <ele>191.35</ele>
        <time>2024-12-01T13:44:32.232Z</time>
      </trkpt>
      <trkpt lat="43.66171" lon="7.02969">
        <ele>191.57</ele>
        <time>2024-12-01T13:44:33.273Z</time>
      </trkpt>
      <trkpt lat="43.66174" lon="7.02967">
        <ele>191.82</ele>
        <time>2024-12-01T13:44:33.349Z</time>
      </trkpt>
      <trkpt lat="43.66176" lon="7.02965">
        <ele>191.73001</ele>
        <time>2024-12-01T13:44:35.276Z</time>
      </trkpt>
      <trkpt lat="43.66179" lon="7.02962">
        <ele>191.81</ele>
        <time>2024-12-01T13:44:35.352Z</time>
      </trkpt>
      <trkpt lat="43.66181" lon="7.0296">
        <ele>192.28</ele>
        <time>2024-12-01T13:44:37.206Z</time>
      </trkpt>
      <trkpt lat="43.66183" lon="7.02957">
        <ele>192.68</ele>
        <time>2024-12-01T13:44:38.322Z</time>
      </trkpt>
      <trkpt lat="43.66186" lon="7.02955">
        <ele>193.20999</ele>
        <time>2024-12-01T13:44:38.943Z</time>
      </trkpt>
      <trkpt lat="43.66188" lon="7.02952">
        <ele>193.51999</ele>
        <time>2024-12-01T13:44:39.360Z</time>
      </trkpt>
      <trkpt lat="43.66192" lon="7.02949">
        <ele>192.65</ele>
        <time>2024-12-01T13:44:40.355Z</time>
      </trkpt>
      <trkpt lat="43.66194" lon="7.02947">
        <ele>192.22</ele>
        <time>2024-12-01T13:44:41.365Z</time>
      </trkpt>
      <trkpt lat="43.66197" lon="7.02944">
        <ele>192.76001</ele>
        <time>2024-12-01T13:44:42.352Z</time>
      </trkpt>
      <trkpt lat="43.662" lon="7.02941">
        <ele>193.22</ele>
        <time>2024-12-01T13:44:43.365Z</time>
      </trkpt>
      <trkpt lat="43.66203" lon="7.02937">
        <ele>193.59</ele>
        <time>2024-12-01T13:44:45.295Z</time>
      </trkpt>
      <trkpt lat="43.66206" lon="7.02934">
        <ele>193.95999</ele>
        <time>2024-12-01T13:44:45.359Z</time>
      </trkpt>
      <trkpt lat="43.66209" lon="7.02929">
        <ele>193.34</ele>
        <time>2024-12-01T13:44:47.299Z</time>
      </trkpt>
      <trkpt lat="43.66212" lon="7.02925">
        <ele>193.76999</ele>
        <time>2024-12-01T13:44:48.300Z</time>
      </trkpt>
      <trkpt lat="43.66216" lon="7.02918">
        <ele>194.48999</ele>
        <time>2024-12-01T13:44:49.304Z</time>
      </trkpt>
      <trkpt lat="43.66219" lon="7.02913">
        <ele>194.97</ele>
        <time>2024-12-01T13:44:49.363Z</time>
      </trkpt>
      <trkpt lat="43.66221" lon="7.02909">
        <ele>195.26999</ele>
        <time>2024-12-01T13:44:51.309Z</time>
      </trkpt>
      <trkpt lat="43.66224" lon="7.02905">
        <ele>195.5</ele>
        <time>2024-12-01T13:44:51.355Z</time>
      </trkpt>
      <trkpt lat="43.66226" lon="7.029">
        <ele>194.76001</ele>
        <time>2024-12-01T13:44:53.312Z</time>
      </trkpt>
      <trkpt lat="43.66228" lon="7.02898">
        <ele>195.34</ele>
        <time>2024-12-01T13:44:53.363Z</time>
      </trkpt>
      <trkpt lat="43.6623" lon="7.02895">
        <ele>195.86</ele>
        <time>2024-12-01T13:44:55.317Z</time>
      </trkpt>
      <trkpt lat="43.66232" lon="7.02893">
        <ele>196.32</ele>
        <time>2024-12-01T13:44:55.354Z</time>
      </trkpt>
      <trkpt lat="43.66235" lon="7.0289">
        <ele>196.57</ele>
        <time>2024-12-01T13:44:57.321Z</time>
      </trkpt>
      <trkpt lat="43.6624" lon="7.02885">
        <ele>196.17</ele>
        <time>2024-12-01T13:44:58.350Z</time>
      </trkpt>
      <trkpt lat="43.66243" lon="7.02883">
        <ele>195.86</ele>
        <time>2024-12-01T13:44:59.324Z</time>
      </trkpt>
      <trkpt lat="43.66246" lon="7.0288">
        <ele>196.35</ele>
        <time>2024-12-01T13:45:00.353Z</time>
      </trkpt>
      <trkpt lat="43.66249" lon="7.02878">
        <ele>196.81</ele>
        <time>2024-12-01T13:45:01.357Z</time>
      </trkpt>
      <trkpt lat="43.66252" lon="7.02876">
        <ele>196.47</ele>
        <time>2024-12-01T13:45:02.362Z</time>
      </trkpt>
      <trkpt lat="43.66254" lon="7.02874">
        <ele>196.81</ele>
        <time>2024-12-01T13:45:04.052Z</time>
      </trkpt>
      <trkpt lat="43.66256" lon="7.02872">
        <ele>196.98999</ele>
        <time>2024-12-01T13:45:04.360Z</time>
      </trkpt>
      <trkpt lat="43.66259" lon="7.0287">
        <ele>197.14</ele>
        <time>2024-12-01T13:45:05.365Z</time>
      </trkpt>
      <trkpt lat="43.66261" lon="7.02867">
        <ele>197.35</ele>
        <time>2024-12-01T13:45:06.362Z</time>
      </trkpt>
      <trkpt lat="43.66264" lon="7.02865">
        <ele>197.43</ele>
        <time>2024-12-01T13:45:07.359Z</time>
      </trkpt>
      <trkpt lat="43.66269" lon="7.02863">
        <ele>197.88</ele>
        <time>2024-12-01T13:45:09.354Z</time>
      </trkpt>
      <trkpt lat="43.6627" lon="7.02862">
        <ele>198.22</ele>
        <time>2024-12-01T13:45:10.307Z</time>
      </trkpt>
      <trkpt lat="43.66276" lon="7.02861">
        <ele>198.33</ele>
        <time>2024-12-01T13:45:12.313Z</time>
      </trkpt>
      <trkpt lat="43.66284" lon="7.0286">
        <ele>198.51999</ele>
        <time>2024-12-01T13:45:14.355Z</time>
      </trkpt>
      <trkpt lat="43.66294" lon="7.02859">
        <ele>198.67</ele>
        <time>2024-12-01T13:45:16.360Z</time>
      </trkpt>
      <trkpt lat="43.66298" lon="7.02859">
        <ele>198.95</ele>
        <time>2024-12-01T13:45:18.324Z</time>
      </trkpt>
      <trkpt lat="43.66304" lon="7.0286">
        <ele>198.95999</ele>
        <time>2024-12-01T13:45:18.385Z</time>
      </trkpt>
      <trkpt lat="43.66312" lon="7.02861">
        <ele>199.07</ele>
        <time>2024-12-01T13:45:20.326Z</time>
      </trkpt>
      <trkpt lat="43.66317" lon="7.02861">
        <ele>199.25</ele>
        <time>2024-12-01T13:45:21.292Z</time>
      </trkpt>
      <trkpt lat="43.66325" lon="7.02862">
        <ele>199.3</ele>
        <time>2024-12-01T13:45:23.363Z</time>
      </trkpt>
      <trkpt lat="43.66329" lon="7.02863">
        <ele>199.41</ele>
        <time>2024-12-01T13:45:24.335Z</time>
      </trkpt>
      <trkpt lat="43.66333" lon="7.02865">
        <ele>199.51001</ele>
        <time>2024-12-01T13:45:24.879Z</time>
      </trkpt>
      <trkpt lat="43.66344" lon="7.02868">
        <ele>199.6</ele>
        <time>2024-12-01T13:45:27.362Z</time>
      </trkpt>
      <trkpt lat="43.66349" lon="7.02871">
        <ele>200.12</ele>
        <time>2024-12-01T13:45:28.344Z</time>
      </trkpt>
      <trkpt lat="43.66357" lon="7.02875">
        <ele>199.94</ele>
        <time>2024-12-01T13:45:29.369Z</time>
      </trkpt>
      <trkpt lat="43.66361" lon="7.02878">
        <ele>200.08</ele>
        <time>2024-12-01T13:45:30.348Z</time>
      </trkpt>
      <trkpt lat="43.66365" lon="7.0288">
        <ele>200.25</ele>
        <time>2024-12-01T13:45:31.310Z</time>
      </trkpt>
      <trkpt lat="43.6637" lon="7.02884">
        <ele>200.36</ele>
        <time>2024-12-01T13:45:33.353Z</time>
      </trkpt>
      <trkpt lat="43.66372" lon="7.02885">
        <ele>200.45</ele>
        <time>2024-12-01T13:45:34.355Z</time>
      </trkpt>
      <trkpt lat="43.66375" lon="7.02888">
        <ele>200.54001</ele>
        <time>2024-12-01T13:45:35.319Z</time>
      </trkpt>
      <trkpt lat="43.66378" lon="7.02891">
        <ele>200.54001</ele>
        <time>2024-12-01T13:45:36.359Z</time>
      </trkpt>
      <trkpt lat="43.66382" lon="7.02895">
        <ele>200.6</ele>
        <time>2024-12-01T13:45:36.994Z</time>
      </trkpt>
      <trkpt lat="43.66385" lon="7.02899">
        <ele>200.66</ele>
        <time>2024-12-01T13:45:38.365Z</time>
      </trkpt>
      <trkpt lat="43.66387" lon="7.02902">
        <ele>200.66</ele>
        <time>2024-12-01T13:45:39.326Z</time>
      </trkpt>
      <trkpt lat="43.6639" lon="7.02907">
        <ele>200.73001</ele>
        <time>2024-12-01T13:45:40.368Z</time>
      </trkpt>
      <trkpt lat="43.66392" lon="7.0291">
        <ele>200.8</ele>
        <time>2024-12-01T13:45:40.951Z</time>
      </trkpt>
      <trkpt lat="43.66394" lon="7.02912">
        <ele>200.83</ele>
        <time>2024-12-01T13:45:41.404Z</time>
      </trkpt>
      <trkpt lat="43.66395" lon="7.02914">
        <ele>200.78</ele>
        <time>2024-12-01T13:45:43.024Z</time>
      </trkpt>
      <trkpt lat="43.66397" lon="7.02916">
        <ele>200.79001</ele>
        <time>2024-12-01T13:45:44.375Z</time>
      </trkpt>
      <trkpt lat="43.66398" lon="7.02918">
        <ele>200.76001</ele>
        <time>2024-12-01T13:45:44.943Z</time>
      </trkpt>
      <trkpt lat="43.66401" lon="7.02927">
        <ele>200.88</ele>
        <time>2024-12-01T13:46:48.100Z</time>
      </trkpt>
      <trkpt lat="43.66404" lon="7.02926">
        <ele>201.20999</ele>
        <time>2024-12-01T13:47:02.177Z</time>
      </trkpt>
      <trkpt lat="43.66405" lon="7.02925">
        <ele>201.84</ele>
        <time>2024-12-01T13:47:04.180Z</time>
      </trkpt>
      <trkpt lat="43.66405" lon="7.02927">
        <ele>201.98001</ele>
        <time>2024-12-01T13:47:06.183Z</time>
      </trkpt>
      <trkpt lat="43.66443" lon="7.02916">
        <ele>202.1</ele>
        <time>2024-12-01T13:47:08.187Z</time>
      </trkpt>
      <trkpt lat="43.66444" lon="7.02912">
        <ele>202.22</ele>
        <time>2024-12-01T13:47:10.192Z</time>
      </trkpt>
      <trkpt lat="43.66466" lon="7.02895">
        <ele>202.31</ele>
        <time>2024-12-01T13:47:12.195Z</time>
      </trkpt>
      <trkpt lat="43.66473" lon="7.02888">
        <ele>202.51999</ele>
        <time>2024-12-01T13:47:14.202Z</time>
      </trkpt>
      <trkpt lat="43.66479" lon="7.02887">
        <ele>202.73001</ele>
        <time>2024-12-01T13:47:16.204Z</time>
      </trkpt>
      <trkpt lat="43.66484" lon="7.02884">
        <ele>202.47</ele>
        <time>2024-12-01T13:47:18.207Z</time>
      </trkpt>
      <trkpt lat="43.66488" lon="7.02881">
        <ele>202.68</ele>
        <time>2024-12-01T13:47:19.817Z</time>
      </trkpt>
      <trkpt lat="43.66492" lon="7.0288">
        <ele>202.45</ele>
        <time>2024-12-01T13:47:22.215Z</time>
      </trkpt>
      <trkpt lat="43.66496" lon="7.02878">
        <ele>202.61</ele>
        <time>2024-12-01T13:47:24.224Z</time>
      </trkpt>
      <trkpt lat="43.665" lon="7.02876">
        <ele>202.43</ele>
        <time>2024-12-01T13:47:26.222Z</time>
      </trkpt>
      <trkpt lat="43.66502" lon="7.02873">
        <ele>202.54001</ele>
        <time>2024-12-01T13:47:28.228Z</time>
      </trkpt>
      <trkpt lat="43.66507" lon="7.0287">
        <ele>202.70999</ele>
        <time>2024-12-01T13:47:30.233Z</time>
      </trkpt>
      <trkpt lat="43.66515" lon="7.02866">
        <ele>202.82</ele>
        <time>2024-12-01T13:47:32.234Z</time>
      </trkpt>
      <trkpt lat="43.6652" lon="7.02861">
        <ele>202.62</ele>
        <time>2024-12-01T13:47:34.239Z</time>
      </trkpt>
      <trkpt lat="43.66527" lon="7.02855">
        <ele>202.70999</ele>
        <time>2024-12-01T13:47:36.242Z</time>
      </trkpt>
      <trkpt lat="43.66535" lon="7.0285">
        <ele>203.06</ele>
        <time>2024-12-01T13:47:38.250Z</time>
      </trkpt>
      <trkpt lat="43.66541" lon="7.02846">
        <ele>203.35</ele>
        <time>2024-12-01T13:47:40.252Z</time>
      </trkpt>
      <trkpt lat="43.66546" lon="7.02844">
        <ele>203.57</ele>
        <time>2024-12-01T13:47:42.255Z</time>
      </trkpt>
      <trkpt lat="43.66552" lon="7.02839">
        <ele>203.76999</ele>
        <time>2024-12-01T13:47:44.259Z</time>
      </trkpt>
      <trkpt lat="43.66557" lon="7.02835">
        <ele>204.14</ele>
        <time>2024-12-01T13:47:46.262Z</time>
      </trkpt>
      <trkpt lat="43.66562" lon="7.02829">
        <ele>204.18</ele>
        <time>2024-12-01T13:47:48.266Z</time>
      </trkpt>
      <trkpt lat="43.66567" lon="7.02824">
        <ele>204.41</ele>
        <time>2024-12-01T13:47:50.272Z</time>
      </trkpt>
      <trkpt lat="43.6657" lon="7.02818">
        <ele>204.44</ele>
        <time>2024-12-01T13:47:52.274Z</time>
      </trkpt>
      <trkpt lat="43.66573" lon="7.02809">
        <ele>204.82</ele>
        <time>2024-12-01T13:47:54.279Z</time>
      </trkpt>
      <trkpt lat="43.66576" lon="7.02798">
        <ele>205.13</ele>
        <time>2024-12-01T13:47:56.287Z</time>
      </trkpt>
      <trkpt lat="43.6658" lon="7.02788">
        <ele>205.14</ele>
        <time>2024-12-01T13:47:58.287Z</time>
      </trkpt>
      <trkpt lat="43.66586" lon="7.0278">
        <ele>205.45999</ele>
        <time>2024-12-01T13:48:00.291Z</time>
      </trkpt>
      <trkpt lat="43.66591" lon="7.02775">
        <ele>205.48001</ele>
        <time>2024-12-01T13:48:02.295Z</time>
      </trkpt>
      <trkpt lat="43.66592" lon="7.02771">
        <ele>205.72</ele>
        <time>2024-12-01T13:48:04.303Z</time>
      </trkpt>
      <trkpt lat="43.66596" lon="7.02768">
        <ele>205.73001</ele>
        <time>2024-12-01T13:48:06.304Z</time>
      </trkpt>
      <trkpt lat="43.66601" lon="7.02764">
        <ele>205.79001</ele>
        <time>2024-12-01T13:48:08.307Z</time>
      </trkpt>
      <trkpt lat="43.66608" lon="7.02758">
        <ele>205.95</ele>
        <time>2024-12-01T13:48:10.314Z</time>
      </trkpt>
      <trkpt lat="43.66615" lon="7.02747">
        <ele>205.51001</ele>
        <time>2024-12-01T13:48:12.315Z</time>
      </trkpt>
      <trkpt lat="43.66624" lon="7.02735">
        <ele>205.67</ele>
        <time>2024-12-01T13:48:14.318Z</time>
      </trkpt>
      <trkpt lat="43.66631" lon="7.02727">
        <ele>205.89</ele>
        <time>2024-12-01T13:48:16.324Z</time>
      </trkpt>
      <trkpt lat="43.66637" lon="7.02722">
        <ele>206.04001</ele>
        <time>2024-12-01T13:48:18.326Z</time>
      </trkpt>
      <trkpt lat="43.66642" lon="7.02718">
        <ele>205.66</ele>
        <time>2024-12-01T13:48:20.330Z</time>
      </trkpt>
      <trkpt lat="43.66647" lon="7.02715">
        <ele>206.07</ele>
        <time>2024-12-01T13:48:22.336Z</time>
      </trkpt>
      <trkpt lat="43.6665" lon="7.02711">
        <ele>206.56</ele>
        <time>2024-12-01T13:48:24.338Z</time>
      </trkpt>
      <trkpt lat="43.66654" lon="7.02708">
        <ele>206.85</ele>
        <time>2024-12-01T13:48:25.373Z</time>
      </trkpt>
      <trkpt lat="43.6666" lon="7.02707">
        <ele>207.2</ele>
        <time>2024-12-01T13:48:28.345Z</time>
      </trkpt>
      <trkpt lat="43.66665" lon="7.02706">
        <ele>206.85</ele>
        <time>2024-12-01T13:48:30.349Z</time>
      </trkpt>
      <trkpt lat="43.66669" lon="7.02704">
        <ele>207.2</ele>
        <time>2024-12-01T13:48:32.352Z</time>
      </trkpt>
      <trkpt lat="43.66674" lon="7.02703">
        <ele>206.94</ele>
        <time>2024-12-01T13:48:33.912Z</time>
      </trkpt>
      <trkpt lat="43.66679" lon="7.02703">
        <ele>206.4</ele>
        <time>2024-12-01T13:48:35.396Z</time>
      </trkpt>
      <trkpt lat="43.66683" lon="7.02706">
        <ele>206.3</ele>
        <time>2024-12-01T13:48:37.395Z</time>
      </trkpt>
      <trkpt lat="43.6669" lon="7.02712">
        <ele>206.1</ele>
        <time>2024-12-01T13:48:39.319Z</time>
      </trkpt>
      <trkpt lat="43.66693" lon="7.02718">
        <ele>206</ele>
        <time>2024-12-01T13:48:41.399Z</time>
      </trkpt>
      <trkpt lat="43.667" lon="7.02724">
        <ele>206.9</ele>
      </trkpt>
      <trkpt lat="43.66705" lon="7.02727">
        <ele>208.2</ele>
        <time>2024-12-01T13:48:43.388Z</time>
      </trkpt>
      <trkpt lat="43.66708" lon="7.02728">
        <ele>208.9</ele>
        <time>2024-12-01T13:48:45.400Z</time>
      </trkpt>
      <trkpt lat="43.66713" lon="7.02728">
        <ele>209.5</ele>
        <time>2024-12-01T13:48:47.386Z</time>
      </trkpt>
      <trkpt lat="43.66717" lon="7.02727">
        <ele>209.8</ele>
        <time>2024-12-01T13:48:49.346Z</time>
      </trkpt>
      <trkpt lat="43.66724" lon="7.02724">
        <ele>209.8</ele>
        <time>2024-12-01T13:48:51.177Z</time>
      </trkpt>
      <trkpt lat="43.66729" lon="7.02723">
        <ele>210.3</ele>
        <time>2024-12-01T13:48:52.469Z</time>
      </trkpt>
      <trkpt lat="43.66733" lon="7.02723">
        <ele>211.1</ele>
        <time>2024-12-01T13:48:55.199Z</time>
      </trkpt>
      <trkpt lat="43.66742" lon="7.0272">
        <ele>212.2</ele>
        <time>2024-12-01T13:48:57.361Z</time>
      </trkpt>
      <trkpt lat="43.66748" lon="7.0272">
        <ele>213.3</ele>
        <time>2024-12-01T13:48:58.424Z</time>
      </trkpt>
      <trkpt lat="43.66754" lon="7.02723">
        <ele>213.7</ele>
        <time>2024-12-01T13:49:01.369Z</time>
      </trkpt>
      <trkpt lat="43.66758" lon="7.02727">
        <ele>214.4</ele>
        <time>2024-12-01T13:49:03.374Z</time>
      </trkpt>
      <trkpt lat="43.66757" lon="7.02733">
        <ele>215.9</ele>
        <time>2024-12-01T13:49:05.378Z</time>
      </trkpt>
      <trkpt lat="43.66752" lon="7.02736">
        <ele>216.8</ele>
        <time>2024-12-01T13:49:06.460Z</time>
      </trkpt>
      <trkpt lat="43.66749" lon="7.02737">
        <ele>217</ele>
        <time>2024-12-01T13:49:08.470Z</time>
      </trkpt>
      <trkpt lat="43.66746" lon="7.02738">
        <ele>216.9</ele>
        <time>2024-12-01T13:49:10.494Z</time>
      </trkpt>
      <trkpt lat="43.66743" lon="7.0274">
        <ele>216.8</ele>
        <time>2024-12-01T13:49:12.462Z</time>
      </trkpt>
      <trkpt lat="43.6674" lon="7.02741">
        <ele>216.8</ele>
        <time>2024-12-01T13:49:15.397Z</time>
      </trkpt>
      <trkpt lat="43.66739" lon="7.02742">
        <ele>216.8</ele>
      </trkpt>
      <trkpt lat="43.66736" lon="7.02744">
        <ele>216.8</ele>
      </trkpt>
      <trkpt lat="43.66732" lon="7.02744">
        <ele>216.6</ele>
        <time>2024-12-01T13:49:16.460Z</time>
      </trkpt>
      <trkpt lat="43.6673" lon="7.02747">
        <ele>217.1</ele>
        <time>2024-12-01T13:49:19.422Z</time>
      </trkpt>
      <trkpt lat="43.66727" lon="7.02749">
        <ele>217.2</ele>
        <time>2024-12-01T13:49:21.408Z</time>
      </trkpt>
      <trkpt lat="43.66723" lon="7.02751">
        <ele>217.5</ele>
        <time>2024-12-01T13:49:22.492Z</time>
      </trkpt>
      <trkpt lat="43.66721" lon="7.02754">
        <ele>214.2</ele>
        <time>2024-12-01T13:49:25.417Z</time>
      </trkpt>
      <trkpt lat="43.66717" lon="7.02759">
        <ele>214.72</ele>
        <time>2024-12-01T13:49:27.421Z</time>
      </trkpt>
      <trkpt lat="43.66711" lon="7.02765">
        <ele>215.24</ele>
        <time>2024-12-01T13:49:29.423Z</time>
      </trkpt>
      <trkpt lat="43.66706" lon="7.0277">
        <ele>215.96</ele>
        <time>2024-12-01T13:49:31.427Z</time>
      </trkpt>
      <trkpt lat="43.66702" lon="7.02775">
        <ele>215.75</ele>
        <time>2024-12-01T13:49:33.432Z</time>
      </trkpt>
      <trkpt lat="43.66697" lon="7.02781">
        <ele>216.48</ele>
        <time>2024-12-01T13:49:35.434Z</time>
      </trkpt>
      <trkpt lat="43.66693" lon="7.02786">
        <ele>215.29</ele>
        <time>2024-12-01T13:49:37.438Z</time>
      </trkpt>
      <trkpt lat="43.66692" lon="7.02791">
        <ele>216.06</ele>
        <time>2024-12-01T13:49:39.443Z</time>
      </trkpt>
      <trkpt lat="43.66689" lon="7.02797">
        <ele>216.85</ele>
        <time>2024-12-01T13:49:41.448Z</time>
      </trkpt>
      <trkpt lat="43.6669" lon="7.02802">
        <ele>217.84</ele>
        <time>2024-12-01T13:49:43.450Z</time>
      </trkpt>
      <trkpt lat="43.66689" lon="7.02809">
        <ele>218.51</ele>
        <time>2024-12-01T13:49:45.454Z</time>
      </trkpt>
      <trkpt lat="43.6669" lon="7.02817">
        <ele>219.73</ele>
        <time>2024-12-01T13:49:47.459Z</time>
      </trkpt>
      <trkpt lat="43.66691" lon="7.02823">
        <ele>220.39</ele>
        <time>2024-12-01T13:49:49.463Z</time>
      </trkpt>
      <trkpt lat="43.66691" lon="7.02828">
        <ele>221.12</ele>
        <time>2024-12-01T13:49:51.466Z</time>
      </trkpt>
      <trkpt lat="43.66692" lon="7.02835">
        <ele>221.81</ele>
        <time>2024-12-01T13:49:53.469Z</time>
      </trkpt>
      <trkpt lat="43.66692" lon="7.02841">
        <ele>222.54</ele>
        <time>2024-12-01T13:49:55.473Z</time>
      </trkpt>
      <trkpt lat="43.66693" lon="7.02849">
        <ele>223.26</ele>
        <time>2024-12-01T13:49:57.479Z</time>
      </trkpt>
      <trkpt lat="43.66693" lon="7.02856">
        <ele>223.87</ele>
        <time>2024-12-01T13:49:59.481Z</time>
      </trkpt>
      <trkpt lat="43.66694" lon="7.02861">
        <ele>224.43</ele>
        <time>2024-12-01T13:50:01.492Z</time>
      </trkpt>
      <trkpt lat="43.66689" lon="7.02872">
        <ele>224.79</ele>
        <time>2024-12-01T13:50:36.520Z</time>
      </trkpt>
      <trkpt lat="43.66692" lon="7.02879">
        <ele>227.55</ele>
        <time>2024-12-01T13:51:40.975Z</time>
      </trkpt>
      <trkpt lat="43.66693" lon="7.02879">
        <ele>229.3</ele>
        <time>2024-12-01T13:51:41.969Z</time>
      </trkpt>
      <trkpt lat="43.66695" lon="7.02878">
        <ele>229.37</ele>
        <time>2024-12-01T13:51:42.953Z</time>
      </trkpt>
      <trkpt lat="43.66697" lon="7.02876">
        <ele>229.53</ele>
        <time>2024-12-01T13:51:43.941Z</time>
      </trkpt>
      <trkpt lat="43.667" lon="7.02874">
        <ele>229.91</ele>
        <time>2024-12-01T13:51:44.955Z</time>
      </trkpt>
      <trkpt lat="43.66703" lon="7.0287">
        <ele>229.8</ele>
        <time>2024-12-01T13:51:45.550Z</time>
      </trkpt>
      <trkpt lat="43.66706" lon="7.02866">
        <ele>228.77</ele>
        <time>2024-12-01T13:51:46.988Z</time>
      </trkpt>
      <trkpt lat="43.66709" lon="7.02863">
        <ele>228.67</ele>
        <time>2024-12-01T13:51:47.957Z</time>
      </trkpt>
      <trkpt lat="43.66711" lon="7.02862">
        <ele>228.82</ele>
        <time>2024-12-01T13:51:48.791Z</time>
      </trkpt>
      <trkpt lat="43.66712" lon="7.0286">
        <ele>228.95</ele>
        <time>2024-12-01T13:51:49.571Z</time>
      </trkpt>
      <trkpt lat="43.66713" lon="7.02859">
        <ele>229.08</ele>
        <time>2024-12-01T13:51:50.955Z</time>
      </trkpt>
      <trkpt lat="43.66715" lon="7.02858">
        <ele>229.31</ele>
        <time>2024-12-01T13:51:51.981Z</time>
      </trkpt>
      <trkpt lat="43.66716" lon="7.02857">
        <ele>229.6</ele>
        <time>2024-12-01T13:51:52.996Z</time>
      </trkpt>
      <trkpt lat="43.66719" lon="7.02853">
        <ele>230.14</ele>
        <time>2024-12-01T13:51:55.004Z</time>
      </trkpt>
      <trkpt lat="43.66721" lon="7.02853">
        <ele>230.27</ele>
        <time>2024-12-01T13:51:56.924Z</time>
      </trkpt>
      <trkpt lat="43.66722" lon="7.02853">
        <ele>230.52</ele>
        <time>2024-12-01T13:51:57.967Z</time>
      </trkpt>
      <trkpt lat="43.66724" lon="7.02852">
        <ele>230.52</ele>
        <time>2024-12-01T13:51:58.930Z</time>
      </trkpt>
      <trkpt lat="43.66725" lon="7.02852">
        <ele>231.34</ele>
        <time>2024-12-01T13:51:59.969Z</time>
      </trkpt>
      <trkpt lat="43.66726" lon="7.02852">
        <ele>231.66</ele>
        <time>2024-12-01T13:52:00.987Z</time>
      </trkpt>
      <trkpt lat="43.66727" lon="7.02852">
        <ele>232.04</ele>
        <time>2024-12-01T13:52:01.061Z</time>
      </trkpt>
      <trkpt lat="43.66728" lon="7.02851">
        <ele>231.84</ele>
        <time>2024-12-01T13:52:02.893Z</time>
      </trkpt>
      <trkpt lat="43.6673" lon="7.02851">
        <ele>231.84</ele>
        <time>2024-12-01T13:52:03.580Z</time>
      </trkpt>
      <trkpt lat="43.66734" lon="7.02849">
        <ele>231.33</ele>
        <time>2024-12-01T13:52:05.020Z</time>
      </trkpt>
      <trkpt lat="43.66737" lon="7.02846">
        <ele>231.41</ele>
        <time>2024-12-01T13:52:05.748Z</time>
      </trkpt>
      <trkpt lat="43.6674" lon="7.02843">
        <ele>231.53</ele>
        <time>2024-12-01T13:52:06.492Z</time>
      </trkpt>
      <trkpt lat="43.66743" lon="7.0284">
        <ele>231.66</ele>
        <time>2024-12-01T13:52:07.985Z</time>
      </trkpt>
      <trkpt lat="43.66745" lon="7.02838">
        <ele>231.75</ele>
        <time>2024-12-01T13:52:08.947Z</time>
      </trkpt>
      <trkpt lat="43.66747" lon="7.02835">
        <ele>231.86</ele>
        <time>2024-12-01T13:52:09.989Z</time>
      </trkpt>
      <trkpt lat="43.66749" lon="7.02833">
        <ele>231.89</ele>
        <time>2024-12-01T13:52:10.577Z</time>
      </trkpt>
      <trkpt lat="43.66751" lon="7.02832">
        <ele>232</ele>
        <time>2024-12-01T13:52:11.993Z</time>
      </trkpt>
      <trkpt lat="43.66753" lon="7.0283">
        <ele>232.09</ele>
        <time>2024-12-01T13:52:12.954Z</time>
      </trkpt>
      <trkpt lat="43.66755" lon="7.02829">
        <ele>232.17</ele>
        <time>2024-12-01T13:52:13.997Z</time>
      </trkpt>
      <trkpt lat="43.66756" lon="7.02828">
        <ele>232.22</ele>
        <time>2024-12-01T13:52:14.959Z</time>
      </trkpt>
      <trkpt lat="43.66759" lon="7.02827">
        <ele>232.34</ele>
        <time>2024-12-01T13:52:16.001Z</time>
      </trkpt>
      <trkpt lat="43.66762" lon="7.02827">
        <ele>232.38</ele>
        <time>2024-12-01T13:52:16.574Z</time>
      </trkpt>
      <trkpt lat="43.66766" lon="7.02825">
        <ele>232.42</ele>
        <time>2024-12-01T13:52:17.958Z</time>
      </trkpt>
      <trkpt lat="43.66773" lon="7.02823">
        <ele>232.46</ele>
        <time>2024-12-01T13:52:18.965Z</time>
      </trkpt>
      <trkpt lat="43.66779" lon="7.02821">
        <ele>232.48</ele>
        <time>2024-12-01T13:52:20.007Z</time>
      </trkpt>
      <trkpt lat="43.66784" lon="7.02819">
        <ele>232.54</ele>
        <time>2024-12-01T13:52:20.563Z</time>
      </trkpt>
      <trkpt lat="43.66789" lon="7.02818">
        <ele>232.56</ele>
        <time>2024-12-01T13:52:22.012Z</time>
      </trkpt>
      <trkpt lat="43.66793" lon="7.02817">
        <ele>232.58</ele>
        <time>2024-12-01T13:52:22.974Z</time>
      </trkpt>
      <trkpt lat="43.66796" lon="7.02817">
        <ele>232.62</ele>
        <time>2024-12-01T13:52:24.015Z</time>
      </trkpt>
      <trkpt lat="43.66801" lon="7.02816">
        <ele>232.63</ele>
        <time>2024-12-01T13:52:24.581Z</time>
      </trkpt>
      <trkpt lat="43.66807" lon="7.02815">
        <ele>232.65</ele>
        <time>2024-12-01T13:52:26.019Z</time>
      </trkpt>
      <trkpt lat="43.66811" lon="7.02813">
        <ele>232.61</ele>
        <time>2024-12-01T13:52:26.981Z</time>
      </trkpt>
      <trkpt lat="43.66816" lon="7.02811">
        <ele>232.72</ele>
        <time>2024-12-01T13:52:28.023Z</time>
      </trkpt>
      <trkpt lat="43.66821" lon="7.0281">
        <ele>232.91</ele>
        <time>2024-12-01T13:52:28.573Z</time>
      </trkpt>
      <trkpt lat="43.66826" lon="7.02808">
        <ele>233.13</ele>
        <time>2024-12-01T13:52:30.027Z</time>
      </trkpt>
      <trkpt lat="43.6683" lon="7.02807">
        <ele>233.49</ele>
        <time>2024-12-01T13:52:30.554Z</time>
      </trkpt>
      <trkpt lat="43.66833" lon="7.02807">
        <ele>232.73</ele>
        <time>2024-12-01T13:52:31.573Z</time>
      </trkpt>
      <trkpt lat="43.66837" lon="7.02806">
        <ele>233.21</ele>
        <time>2024-12-01T13:52:32.596Z</time>
      </trkpt>
      <trkpt lat="43.66839" lon="7.02805">
        <ele>233.72</ele>
        <time>2024-12-01T13:52:34.035Z</time>
      </trkpt>
      <trkpt lat="43.66842" lon="7.02804">
        <ele>234.14</ele>
        <time>2024-12-01T13:52:34.575Z</time>
      </trkpt>
      <trkpt lat="43.66843" lon="7.02804">
        <ele>234.57</ele>
        <time>2024-12-01T13:52:36.040Z</time>
      </trkpt>
      <trkpt lat="43.66845" lon="7.02803">
        <ele>234.98</ele>
        <time>2024-12-01T13:52:36.615Z</time>
      </trkpt>
      <trkpt lat="43.66846" lon="7.02802">
        <ele>235.32</ele>
        <time>2024-12-01T13:52:38.042Z</time>
      </trkpt>
      <trkpt lat="43.66848" lon="7.02801">
        <ele>235.32</ele>
        <time>2024-12-01T13:52:38.591Z</time>
      </trkpt>
      <trkpt lat="43.6685" lon="7.028">
        <ele>234.43</ele>
        <time>2024-12-01T13:52:39.650Z</time>
      </trkpt>
      <trkpt lat="43.66851" lon="7.028">
        <ele>234.77</ele>
        <time>2024-12-01T13:52:41.007Z</time>
      </trkpt>
      <trkpt lat="43.66853" lon="7.02799">
        <ele>234.7</ele>
        <time>2024-12-01T13:52:41.982Z</time>
      </trkpt>
      <trkpt lat="43.66854" lon="7.02798">
        <ele>234.7</ele>
        <time>2024-12-01T13:52:43.012Z</time>
      </trkpt>
      <trkpt lat="43.66856" lon="7.02798">
        <ele>234.7</ele>
        <time>2024-12-01T13:52:43.973Z</time>
      </trkpt>
      <trkpt lat="43.66857" lon="7.02798">
        <ele>233.48</ele>
        <time>2024-12-01T13:52:45.014Z</time>
      </trkpt>
      <trkpt lat="43.66858" lon="7.02797">
        <ele>233.73</ele>
        <time>2024-12-01T13:52:45.584Z</time>
      </trkpt>
      <trkpt lat="43.66859" lon="7.02797">
        <ele>233.97</ele>
        <time>2024-12-01T13:52:47.019Z</time>
      </trkpt>
      <trkpt lat="43.6686" lon="7.02797">
        <ele>234.17</ele>
        <time>2024-12-01T13:52:47.594Z</time>
      </trkpt>
      <trkpt lat="43.6687" lon="7.02791">
        <ele>229.5</ele>
      </trkpt>
      <trkpt lat="43.6689" lon="7.02778">
        <ele>234.16</ele>
        <time>2024-12-01T13:55:27.837Z</time>
      </trkpt>
      <trkpt lat="43.66888" lon="7.02776">
        <ele>234.2</ele>
        <time>2024-12-01T13:55:29.839Z</time>
      </trkpt>
      <trkpt lat="43.66888" lon="7.02775">
        <ele>234.22</ele>
        <time>2024-12-01T13:55:31.829Z</time>
      </trkpt>
      <trkpt lat="43.66886" lon="7.02774">
        <ele>234.26</ele>
        <time>2024-12-01T13:55:33.896Z</time>
      </trkpt>
      <trkpt lat="43.66885" lon="7.02772">
        <ele>234.28</ele>
        <time>2024-12-01T13:55:35.852Z</time>
      </trkpt>
      <trkpt lat="43.66884" lon="7.02769">
        <ele>234.3</ele>
        <time>2024-12-01T13:55:37.855Z</time>
      </trkpt>
      <trkpt lat="43.66882" lon="7.02766">
        <ele>234.31</ele>
        <time>2024-12-01T13:55:41.863Z</time>
      </trkpt>
      <trkpt lat="43.66882" lon="7.02765">
        <ele>234.36</ele>
        <time>2024-12-01T13:55:48.793Z</time>
      </trkpt>
      <trkpt lat="43.66881" lon="7.02764">
        <ele>234.54</ele>
        <time>2024-12-01T13:56:01.927Z</time>
      </trkpt>
      <trkpt lat="43.6688" lon="7.02764">
        <ele>234.51</ele>
        <time>2024-12-01T13:56:04.911Z</time>
      </trkpt>
      <trkpt lat="43.6688" lon="7.02763">
        <ele>234.49</ele>
        <time>2024-12-01T13:56:05.957Z</time>
      </trkpt>
      <trkpt lat="43.66879" lon="7.02763">
        <ele>234.47</ele>
        <time>2024-12-01T13:56:07.899Z</time>
      </trkpt>
      <trkpt lat="43.66874" lon="7.02759">
        <ele>234.44</ele>
        <time>2024-12-01T13:56:08.913Z</time>
      </trkpt>
      <trkpt lat="43.66865" lon="7.02752">
        <ele>234.4</ele>
        <time>2024-12-01T13:56:09.946Z</time>
      </trkpt>
      <trkpt lat="43.66862" lon="7.02749">
        <ele>234.38</ele>
        <time>2024-12-01T13:56:11.909Z</time>
      </trkpt>
      <trkpt lat="43.66859" lon="7.02746">
        <ele>234.36</ele>
        <time>2024-12-01T13:56:12.871Z</time>
      </trkpt>
      <trkpt lat="43.66858" lon="7.02743">
        <ele>234.34</ele>
        <time>2024-12-01T13:56:14.875Z</time>
      </trkpt>
      <trkpt lat="43.66856" lon="7.02741">
        <ele>234.3</ele>
        <time>2024-12-01T13:56:15.915Z</time>
      </trkpt>
      <trkpt lat="43.66854" lon="7.02735">
        <ele>234.28</ele>
        <time>2024-12-01T13:56:17.920Z</time>
      </trkpt>
      <trkpt lat="43.66854" lon="7.02734">
        <ele>234.24</ele>
        <time>2024-12-01T13:56:18.931Z</time>
      </trkpt>
      <trkpt lat="43.66853" lon="7.02734">
        <ele>234.21</ele>
        <time>2024-12-01T13:56:19.921Z</time>
      </trkpt>
      <trkpt lat="43.66857" lon="7.02728">
        <ele>234.17</ele>
        <time>2024-12-01T13:56:20.511Z</time>
      </trkpt>
      <trkpt lat="43.66858" lon="7.02727">
        <ele>234.11</ele>
        <time>2024-12-01T13:56:21.928Z</time>
      </trkpt>
      <trkpt lat="43.66859" lon="7.02726">
        <ele>234.07</ele>
        <time>2024-12-01T13:56:22.923Z</time>
      </trkpt>
      <trkpt lat="43.6686" lon="7.02726">
        <ele>234.02</ele>
        <time>2024-12-01T13:56:23.930Z</time>
      </trkpt>
      <trkpt lat="43.66863" lon="7.02723">
        <ele>234.05</ele>
        <time>2024-12-01T13:56:23.998Z</time>
      </trkpt>
      <trkpt lat="43.66866" lon="7.0272">
        <ele>234.11</ele>
        <time>2024-12-01T13:56:24.975Z</time>
      </trkpt>
      <trkpt lat="43.66868" lon="7.02717">
        <ele>234.11</ele>
        <time>2024-12-01T13:56:27.946Z</time>
      </trkpt>
      <trkpt lat="43.66871" lon="7.02713">
        <ele>232.73</ele>
        <time>2024-12-01T13:56:28.901Z</time>
      </trkpt>
      <trkpt lat="43.66872" lon="7.0271">
        <ele>232.73</ele>
        <time>2024-12-01T13:56:30.018Z</time>
      </trkpt>
      <trkpt lat="43.66874" lon="7.02708">
        <ele>230.51</ele>
        <time>2024-12-01T13:56:31.945Z</time>
      </trkpt>
      <trkpt lat="43.66875" lon="7.02705">
        <ele>230.8</ele>
        <time>2024-12-01T13:56:32.965Z</time>
      </trkpt>
      <trkpt lat="43.66876" lon="7.02704">
        <ele>231.01</ele>
        <time>2024-12-01T13:56:33.949Z</time>
      </trkpt>
      <trkpt lat="43.66877" lon="7.02702">
        <ele>231.07</ele>
        <time>2024-12-01T13:56:34.913Z</time>
      </trkpt>
      <trkpt lat="43.66879" lon="7.027">
        <ele>231.31</ele>
        <time>2024-12-01T13:56:35.966Z</time>
      </trkpt>
      <trkpt lat="43.66879" lon="7.02698">
        <ele>231.75</ele>
        <time>2024-12-01T13:56:36.830Z</time>
      </trkpt>
      <trkpt lat="43.6688" lon="7.02696">
        <ele>231.89</ele>
        <time>2024-12-01T13:56:38.946Z</time>
      </trkpt>
      <trkpt lat="43.66881" lon="7.02693">
        <ele>231.96</ele>
        <time>2024-12-01T13:56:39.960Z</time>
      </trkpt>
      <trkpt lat="43.66882" lon="7.02691">
        <ele>231.96</ele>
        <time>2024-12-01T13:56:40.922Z</time>
      </trkpt>
      <trkpt lat="43.66884" lon="7.02689">
        <ele>231.65</ele>
        <time>2024-12-01T13:56:41.949Z</time>
      </trkpt>
      <trkpt lat="43.66885" lon="7.02687">
        <ele>231.9</ele>
        <time>2024-12-01T13:56:42.893Z</time>
      </trkpt>
      <trkpt lat="43.66894" lon="7.02677">
        <ele>232.07</ele>
        <time>2024-12-01T13:56:45.004Z</time>
      </trkpt>
      <trkpt lat="43.66898" lon="7.02675">
        <ele>228.32</ele>
        <time>2024-12-01T13:56:47.531Z</time>
      </trkpt>
      <trkpt lat="43.66902" lon="7.02674">
        <ele>229.18</ele>
        <time>2024-12-01T13:56:49.984Z</time>
      </trkpt>
      <trkpt lat="43.66905" lon="7.02673">
        <ele>229.68</ele>
        <time>2024-12-01T13:56:51.983Z</time>
      </trkpt>
      <trkpt lat="43.6691" lon="7.0267">
        <ele>230.35</ele>
        <time>2024-12-01T13:56:53.988Z</time>
      </trkpt>
      <trkpt lat="43.66913" lon="7.0267">
        <ele>231.31</ele>
        <time>2024-12-01T13:56:55.992Z</time>
      </trkpt>
      <trkpt lat="43.66915" lon="7.0267">
        <ele>232.16</ele>
        <time>2024-12-01T13:56:57.994Z</time>
      </trkpt>
      <trkpt lat="43.66916" lon="7.0267">
        <ele>232.66</ele>
        <time>2024-12-01T13:56:59.958Z</time>
      </trkpt>
      <trkpt lat="43.66917" lon="7.0267">
        <ele>232.66</ele>
        <time>2024-12-01T13:57:02.002Z</time>
      </trkpt>
      <trkpt lat="43.66917" lon="7.02674">
        <ele>231.88</ele>
        <time>2024-12-01T13:57:03.959Z</time>
      </trkpt>
      <trkpt lat="43.66917" lon="7.02678">
        <ele>231.88</ele>
        <time>2024-12-01T13:57:06.010Z</time>
      </trkpt>
      <trkpt lat="43.66917" lon="7.02684">
        <ele>233.57</ele>
        <time>2024-12-01T13:57:08.013Z</time>
      </trkpt>
      <trkpt lat="43.66917" lon="7.02688">
        <ele>232.04</ele>
        <time>2024-12-01T13:57:10.018Z</time>
      </trkpt>
      <trkpt lat="43.66917" lon="7.02691">
        <ele>232.79</ele>
        <time>2024-12-01T13:57:12.024Z</time>
      </trkpt>
      <trkpt lat="43.6692" lon="7.02691">
        <ele>232.79</ele>
        <time>2024-12-01T13:57:14.025Z</time>
      </trkpt>
      <trkpt lat="43.66923" lon="7.0269">
        <ele>232.79</ele>
        <time>2024-12-01T13:57:15.689Z</time>
      </trkpt>
      <trkpt lat="43.66927" lon="7.02689">
        <ele>235.07</ele>
        <time>2024-12-01T13:57:18.034Z</time>
      </trkpt>
      <trkpt lat="43.66932" lon="7.02687">
        <ele>235.45</ele>
        <time>2024-12-01T13:57:20.040Z</time>
      </trkpt>
      <trkpt lat="43.66938" lon="7.02684">
        <ele>236.33</ele>
        <time>2024-12-01T13:57:21.967Z</time>
      </trkpt>
      <trkpt lat="43.66942" lon="7.02682">
        <ele>237.52</ele>
        <time>2024-12-01T13:57:24.047Z</time>
      </trkpt>
      <trkpt lat="43.66945" lon="7.02679">
        <ele>235.83</ele>
        <time>2024-12-01T13:57:25.080Z</time>
      </trkpt>
      <trkpt lat="43.66948" lon="7.02676">
        <ele>235.83</ele>
        <time>2024-12-01T13:57:28.051Z</time>
      </trkpt>
      <trkpt lat="43.6695" lon="7.02673">
        <ele>235.83</ele>
        <time>2024-12-01T13:57:30.055Z</time>
      </trkpt>
      <trkpt lat="43.66953" lon="7.0267">
        <ele>235.83</ele>
        <time>2024-12-01T13:57:31.979Z</time>
      </trkpt>
      <trkpt lat="43.66955" lon="7.02667">
        <ele>241.04</ele>
        <time>2024-12-01T13:57:33.982Z</time>
      </trkpt>
      <trkpt lat="43.66957" lon="7.02663">
        <ele>241.83</ele>
        <time>2024-12-01T13:57:35.651Z</time>
      </trkpt>
      <trkpt lat="43.66957" lon="7.02659">
        <ele>241.83</ele>
        <time>2024-12-01T13:57:38.071Z</time>
      </trkpt>
      <trkpt lat="43.66958" lon="7.02656">
        <ele>241.83</ele>
        <time>2024-12-01T13:57:39.954Z</time>
      </trkpt>
      <trkpt lat="43.66959" lon="7.02652">
        <ele>239.83</ele>
        <time>2024-12-01T13:57:41.684Z</time>
      </trkpt>
      <trkpt lat="43.66959" lon="7.0264">
        <ele>240.9</ele>
        <time>2024-12-01T13:57:46.087Z</time>
      </trkpt>
      <trkpt lat="43.6696" lon="7.02635">
        <ele>243.14</ele>
        <time>2024-12-01T13:57:48.088Z</time>
      </trkpt>
      <trkpt lat="43.66961" lon="7.02631">
        <ele>242.74</ele>
        <time>2024-12-01T13:57:49.858Z</time>
      </trkpt>
      <trkpt lat="43.66963" lon="7.02626">
        <ele>243.41</ele>
        <time>2024-12-01T13:57:52.097Z</time>
      </trkpt>
      <trkpt lat="43.66964" lon="7.02624">
        <ele>244.55</ele>
        <time>2024-12-01T13:57:53.057Z</time>
      </trkpt>
      <trkpt lat="43.66969" lon="7.02613">
        <ele>244.55</ele>
        <time>2024-12-01T13:57:55.890Z</time>
      </trkpt>
      <trkpt lat="43.66972" lon="7.02605">
        <ele>247.29</ele>
        <time>2024-12-01T13:57:57.662Z</time>
      </trkpt>
      <trkpt lat="43.66975" lon="7.02597">
        <ele>248.42</ele>
        <time>2024-12-01T13:58:00.112Z</time>
      </trkpt>
      <trkpt lat="43.66978" lon="7.02589">
        <ele>249.76</ele>
        <time>2024-12-01T13:58:02.116Z</time>
      </trkpt>
      <trkpt lat="43.66981" lon="7.02581">
        <ele>249.76</ele>
        <time>2024-12-01T13:58:04.119Z</time>
      </trkpt>
      <trkpt lat="43.66983" lon="7.02574">
        <ele>248.31</ele>
        <time>2024-12-01T13:58:05.124Z</time>
      </trkpt>
      <trkpt lat="43.66986" lon="7.02566">
        <ele>248.87</ele>
        <time>2024-12-01T13:58:08.046Z</time>
      </trkpt>
      <trkpt lat="43.66989" lon="7.02558">
        <ele>249.22</ele>
        <time>2024-12-01T13:58:10.130Z</time>
      </trkpt>
      <trkpt lat="43.66991" lon="7.02551">
        <ele>250.71</ele>
        <time>2024-12-01T13:58:11.142Z</time>
      </trkpt>
      <trkpt lat="43.66994" lon="7.02545">
        <ele>251.72</ele>
        <time>2024-12-01T13:58:13.140Z</time>
      </trkpt>
      <trkpt lat="43.66998" lon="7.02539">
        <ele>251.72</ele>
        <time>2024-12-01T13:58:15.934Z</time>
      </trkpt>
      <trkpt lat="43.67001" lon="7.02533">
        <ele>250.17</ele>
        <time>2024-12-01T13:58:18.066Z</time>
      </trkpt>
      <trkpt lat="43.67004" lon="7.02527">
        <ele>249.58</ele>
        <time>2024-12-01T13:58:20.067Z</time>
      </trkpt>
      <trkpt lat="43.67008" lon="7.0252">
        <ele>250.48</ele>
        <time>2024-12-01T13:58:21.186Z</time>
      </trkpt>
      <trkpt lat="43.67012" lon="7.02515">
        <ele>249.78</ele>
        <time>2024-12-01T13:58:24.076Z</time>
      </trkpt>
      <trkpt lat="43.67015" lon="7.02509">
        <ele>250.89</ele>
        <time>2024-12-01T13:58:26.081Z</time>
      </trkpt>
      <trkpt lat="43.67018" lon="7.02504">
        <ele>250.11</ele>
        <time>2024-12-01T13:58:28.085Z</time>
      </trkpt>
      <trkpt lat="43.67019" lon="7.02498">
        <ele>251.03</ele>
        <time>2024-12-01T13:58:30.087Z</time>
      </trkpt>
      <trkpt lat="43.67021" lon="7.02492">
        <ele>250.64</ele>
        <time>2024-12-01T13:58:31.748Z</time>
      </trkpt>
      <trkpt lat="43.67023" lon="7.02486">
        <ele>251.14</ele>
        <time>2024-12-01T13:58:34.098Z</time>
      </trkpt>
      <trkpt lat="43.67026" lon="7.02479">
        <ele>251.62</ele>
        <time>2024-12-01T13:58:36.099Z</time>
      </trkpt>
      <trkpt lat="43.67031" lon="7.02472">
        <ele>252.45</ele>
        <time>2024-12-01T13:58:38.183Z</time>
      </trkpt>
      <trkpt lat="43.67037" lon="7.02465">
        <ele>252.89</ele>
        <time>2024-12-01T13:58:39.784Z</time>
      </trkpt>
      <trkpt lat="43.67043" lon="7.02456">
        <ele>253.36</ele>
        <time>2024-12-01T13:58:41.701Z</time>
      </trkpt>
      <trkpt lat="43.67049" lon="7.02448">
        <ele>253.8</ele>
        <time>2024-12-01T13:58:43.801Z</time>
      </trkpt>
      <trkpt lat="43.67054" lon="7.02439">
        <ele>254.19</ele>
        <time>2024-12-01T13:58:46.117Z</time>
      </trkpt>
      <trkpt lat="43.67058" lon="7.02431">
        <ele>254.71</ele>
        <time>2024-12-01T13:58:47.736Z</time>
      </trkpt>
      <trkpt lat="43.67062" lon="7.02423">
        <ele>255.34</ele>
        <time>2024-12-01T13:58:50.127Z</time>
      </trkpt>
      <trkpt lat="43.67067" lon="7.02415">
        <ele>256.27002</ele>
        <time>2024-12-01T13:58:52.131Z</time>
      </trkpt>
      <trkpt lat="43.6707" lon="7.02409">
        <ele>256.72998</ele>
        <time>2024-12-01T13:58:53.769Z</time>
      </trkpt>
      <trkpt lat="43.67073" lon="7.02404">
        <ele>256.95</ele>
        <time>2024-12-01T13:58:56.138Z</time>
      </trkpt>
      <trkpt lat="43.67075" lon="7.02401">
        <ele>257.16998</ele>
        <time>2024-12-01T13:58:57.725Z</time>
      </trkpt>
      <trkpt lat="43.67078" lon="7.02397">
        <ele>257.46002</ele>
        <time>2024-12-01T13:58:59.716Z</time>
      </trkpt>
      <trkpt lat="43.67081" lon="7.02393">
        <ele>257.71002</ele>
        <time>2024-12-01T13:59:02.231Z</time>
      </trkpt>
      <trkpt lat="43.67083" lon="7.02388">
        <ele>258.22</ele>
        <time>2024-12-01T13:59:03.728Z</time>
      </trkpt>
      <trkpt lat="43.67086" lon="7.02384">
        <ele>258.62</ele>
        <time>2024-12-01T13:59:06.237Z</time>
      </trkpt>
      <trkpt lat="43.67088" lon="7.02378">
        <ele>259.01</ele>
        <time>2024-12-01T13:59:08.222Z</time>
      </trkpt>
      <trkpt lat="43.67091" lon="7.02371">
        <ele>259.5</ele>
        <time>2024-12-01T13:59:10.164Z</time>
      </trkpt>
      <trkpt lat="43.67094" lon="7.02365">
        <ele>259.97998</ele>
        <time>2024-12-01T13:59:12.169Z</time>
      </trkpt>
      <trkpt lat="43.67097" lon="7.02359">
        <ele>260.5</ele>
        <time>2024-12-01T13:59:14.231Z</time>
      </trkpt>
      <trkpt lat="43.67101" lon="7.02353">
        <ele>259.46002</ele>
        <time>2024-12-01T13:59:16.176Z</time>
      </trkpt>
      <trkpt lat="43.67105" lon="7.02348">
        <ele>260.03</ele>
        <time>2024-12-01T13:59:18.180Z</time>
      </trkpt>
      <trkpt lat="43.67111" lon="7.02342">
        <ele>260.47</ele>
        <time>2024-12-01T13:59:20.248Z</time>
      </trkpt>
      <trkpt lat="43.67116" lon="7.02336">
        <ele>260.94</ele>
        <time>2024-12-01T13:59:22.268Z</time>
      </trkpt>
      <trkpt lat="43.6712" lon="7.02331">
        <ele>259.85</ele>
        <time>2024-12-01T13:59:24.250Z</time>
      </trkpt>
      <trkpt lat="43.67123" lon="7.02325">
        <ele>260.38</ele>
        <time>2024-12-01T13:59:26.274Z</time>
      </trkpt>
      <trkpt lat="43.67128" lon="7.0232">
        <ele>260.63</ele>
        <time>2024-12-01T13:59:28.201Z</time>
      </trkpt>
      <trkpt lat="43.67134" lon="7.02314">
        <ele>260.91</ele>
        <time>2024-12-01T13:59:29.978Z</time>
      </trkpt>
      <trkpt lat="43.6714" lon="7.02308">
        <ele>261.1</ele>
        <time>2024-12-01T13:59:32.289Z</time>
      </trkpt>
      <trkpt lat="43.67146" lon="7.02303">
        <ele>261.33002</ele>
        <time>2024-12-01T13:59:34.292Z</time>
      </trkpt>
      <trkpt lat="43.67151" lon="7.02297">
        <ele>261.5</ele>
        <time>2024-12-01T13:59:36.296Z</time>
      </trkpt>
      <trkpt lat="43.67155" lon="7.02291">
        <ele>261.55</ele>
        <time>2024-12-01T13:59:38.298Z</time>
      </trkpt>
      <trkpt lat="43.67159" lon="7.02286">
        <ele>261.68</ele>
        <time>2024-12-01T13:59:40.303Z</time>
      </trkpt>
      <trkpt lat="43.67164" lon="7.02281">
        <ele>261.78</ele>
        <time>2024-12-01T13:59:42.305Z</time>
      </trkpt>
      <trkpt lat="43.67169" lon="7.02277">
        <ele>261.85</ele>
        <time>2024-12-01T13:59:44.309Z</time>
      </trkpt>
      <trkpt lat="43.67173" lon="7.02272">
        <ele>261.88</ele>
        <time>2024-12-01T13:59:46.315Z</time>
      </trkpt>
      <trkpt lat="43.67177" lon="7.02268">
        <ele>261.95</ele>
        <time>2024-12-01T13:59:48.318Z</time>
      </trkpt>
      <trkpt lat="43.67181" lon="7.02263">
        <ele>262.01</ele>
        <time>2024-12-01T13:59:50.322Z</time>
      </trkpt>
      <trkpt lat="43.67187" lon="7.02258">
        <ele>262</ele>
        <time>2024-12-01T13:59:52.245Z</time>
      </trkpt>
      <trkpt lat="43.67194" lon="7.0225">
        <ele>261.99</ele>
        <time>2024-12-01T13:59:54.249Z</time>
      </trkpt>
      <trkpt lat="43.67202" lon="7.02241">
        <ele>262.08002</ele>
        <time>2024-12-01T13:59:56.253Z</time>
      </trkpt>
      <trkpt lat="43.6721" lon="7.02232">
        <ele>262.11</ele>
        <time>2024-12-01T13:59:58.259Z</time>
      </trkpt>
      <trkpt lat="43.67219" lon="7.02222">
        <ele>262.2</ele>
        <time>2024-12-01T14:00:00.339Z</time>
      </trkpt>
      <trkpt lat="43.67229" lon="7.02217">
        <ele>262.18</ele>
        <time>2024-12-01T14:00:02.263Z</time>
      </trkpt>
      <trkpt lat="43.67248" lon="7.02205">
        <ele>262.24</ele>
        <time>2024-12-01T14:00:04.313Z</time>
      </trkpt>
      <trkpt lat="43.67255" lon="7.02201">
        <ele>262.22</ele>
        <time>2024-12-01T14:00:06.029Z</time>
      </trkpt>
      <trkpt lat="43.6726" lon="7.02196">
        <ele>262.51</ele>
        <time>2024-12-01T14:00:07.386Z</time>
      </trkpt>
      <trkpt lat="43.67266" lon="7.02192">
        <ele>261.96002</ele>
        <time>2024-12-01T14:00:09.391Z</time>
      </trkpt>
      <trkpt lat="43.67269" lon="7.02187">
        <ele>262.2</ele>
        <time>2024-12-01T14:00:12.284Z</time>
      </trkpt>
      <trkpt lat="43.67275" lon="7.02181">
        <ele>261.69</ele>
        <time>2024-12-01T14:00:13.384Z</time>
      </trkpt>
      <trkpt lat="43.6728" lon="7.02178">
        <ele>261.65</ele>
        <time>2024-12-01T14:00:15.387Z</time>
      </trkpt>
      <trkpt lat="43.67285" lon="7.02175">
        <ele>261.91</ele>
        <time>2024-12-01T14:00:17.373Z</time>
      </trkpt>
      <trkpt lat="43.67287" lon="7.02172">
        <ele>262.14</ele>
        <time>2024-12-01T14:00:20.364Z</time>
      </trkpt>
      <trkpt lat="43.67292" lon="7.02168">
        <ele>262.45</ele>
        <time>2024-12-01T14:00:21.393Z</time>
      </trkpt>
      <trkpt lat="43.67296" lon="7.02163">
        <ele>262.84</ele>
        <time>2024-12-01T14:00:23.386Z</time>
      </trkpt>
      <trkpt lat="43.67303" lon="7.02157">
        <ele>262.25</ele>
        <time>2024-12-01T14:00:25.383Z</time>
      </trkpt>
      <trkpt lat="43.67308" lon="7.02153">
        <ele>262.3</ele>
        <time>2024-12-01T14:00:27.387Z</time>
      </trkpt>
      <trkpt lat="43.6731" lon="7.02152">
        <ele>262.64</ele>
        <time>2024-12-01T14:00:29.352Z</time>
      </trkpt>
      <trkpt lat="43.67314" lon="7.02149">
        <ele>262.99</ele>
        <time>2024-12-01T14:00:31.389Z</time>
      </trkpt>
      <trkpt lat="43.67319" lon="7.02145">
        <ele>262.71002</ele>
        <time>2024-12-01T14:00:32.962Z</time>
      </trkpt>
      <trkpt lat="43.67324" lon="7.0214">
        <ele>263.37</ele>
        <time>2024-12-01T14:00:35.392Z</time>
      </trkpt>
      <trkpt lat="43.6733" lon="7.02138">
        <ele>263.83002</ele>
        <time>2024-12-01T14:00:37.412Z</time>
      </trkpt>
      <trkpt lat="43.67336" lon="7.02134">
        <ele>264.25</ele>
        <time>2024-12-01T14:00:39.373Z</time>
      </trkpt>
      <trkpt lat="43.67342" lon="7.02132">
        <ele>264.84</ele>
        <time>2024-12-01T14:00:41.375Z</time>
      </trkpt>
      <trkpt lat="43.67347" lon="7.02129">
        <ele>265.41998</ele>
        <time>2024-12-01T14:00:43.379Z</time>
      </trkpt>
      <trkpt lat="43.67352" lon="7.02126">
        <ele>266.03</ele>
        <time>2024-12-01T14:00:45.383Z</time>
      </trkpt>
      <trkpt lat="43.67356" lon="7.02123">
        <ele>264.96002</ele>
        <time>2024-12-01T14:00:47.390Z</time>
      </trkpt>
      <trkpt lat="43.67362" lon="7.02117">
        <ele>265.55</ele>
        <time>2024-12-01T14:00:48.429Z</time>
      </trkpt>
      <trkpt lat="43.67367" lon="7.02112">
        <ele>265.96002</ele>
        <time>2024-12-01T14:00:51.033Z</time>
      </trkpt>
      <trkpt lat="43.67372" lon="7.02108">
        <ele>266.22998</ele>
        <time>2024-12-01T14:00:53.397Z</time>
      </trkpt>
      <trkpt lat="43.67379" lon="7.02102">
        <ele>266.62</ele>
        <time>2024-12-01T14:00:55.403Z</time>
      </trkpt>
      <trkpt lat="43.67384" lon="7.02097">
        <ele>266.96002</ele>
        <time>2024-12-01T14:00:57.122Z</time>
      </trkpt>
      <trkpt lat="43.6739" lon="7.02092">
        <ele>267.34</ele>
        <time>2024-12-01T14:00:59.061Z</time>
      </trkpt>
      <trkpt lat="43.67397" lon="7.02085">
        <ele>267.7</ele>
        <time>2024-12-01T14:01:01.415Z</time>
      </trkpt>
      <trkpt lat="43.67406" lon="7.02077">
        <ele>267.87</ele>
        <time>2024-12-01T14:01:03.137Z</time>
      </trkpt>
      <trkpt lat="43.67416" lon="7.02066">
        <ele>267.99</ele>
        <time>2024-12-01T14:01:05.422Z</time>
      </trkpt>
      <trkpt lat="43.67427" lon="7.02053">
        <ele>268.03</ele>
        <time>2024-12-01T14:01:07.428Z</time>
      </trkpt>
      <trkpt lat="43.67434" lon="7.02043">
        <ele>268.03998</ele>
        <time>2024-12-01T14:01:09.428Z</time>
      </trkpt>
      <trkpt lat="43.67437" lon="7.02038">
        <ele>267.99</ele>
        <time>2024-12-01T14:01:11.434Z</time>
      </trkpt>
      <trkpt lat="43.67442" lon="7.02032">
        <ele>267.84</ele>
        <time>2024-12-01T14:01:13.440Z</time>
      </trkpt>
      <trkpt lat="43.67448" lon="7.02024">
        <ele>267.8</ele>
        <time>2024-12-01T14:01:15.438Z</time>
      </trkpt>
      <trkpt lat="43.67453" lon="7.02014">
        <ele>267.76</ele>
        <time>2024-12-01T14:01:17.442Z</time>
      </trkpt>
      <trkpt lat="43.67459" lon="7.02004">
        <ele>267.69</ele>
        <time>2024-12-01T14:01:18.988Z</time>
      </trkpt>
      <trkpt lat="43.67467" lon="7.01994">
        <ele>267.66</ele>
        <time>2024-12-01T14:01:21.479Z</time>
      </trkpt>
      <trkpt lat="43.67473" lon="7.01983">
        <ele>267.6</ele>
        <time>2024-12-01T14:01:23.457Z</time>
      </trkpt>
      <trkpt lat="43.67479" lon="7.01972">
        <ele>267.51</ele>
        <time>2024-12-01T14:01:25.458Z</time>
      </trkpt>
      <trkpt lat="43.67483" lon="7.0196">
        <ele>267.44</ele>
        <time>2024-12-01T14:01:27.462Z</time>
      </trkpt>
      <trkpt lat="43.67487" lon="7.01948">
        <ele>267.39</ele>
        <time>2024-12-01T14:01:29.466Z</time>
      </trkpt>
      <trkpt lat="43.67491" lon="7.01938">
        <ele>267.33002</ele>
        <time>2024-12-01T14:01:31.472Z</time>
      </trkpt>
      <trkpt lat="43.67492" lon="7.01934">
        <ele>267.25</ele>
        <time>2024-12-01T14:01:33.474Z</time>
      </trkpt>
      <trkpt lat="43.67497" lon="7.01922">
        <ele>267.22</ele>
        <time>2024-12-01T14:01:35.478Z</time>
      </trkpt>
      <trkpt lat="43.675" lon="7.01913">
        <ele>267.14</ele>
        <time>2024-12-01T14:01:36.595Z</time>
      </trkpt>
      <trkpt lat="43.67503" lon="7.01906">
        <ele>267.1</ele>
        <time>2024-12-01T14:01:39.486Z</time>
      </trkpt>
      <trkpt lat="43.67507" lon="7.01901">
        <ele>267.06</ele>
        <time>2024-12-01T14:01:41.489Z</time>
      </trkpt>
      <trkpt lat="43.67511" lon="7.01895">
        <ele>267.06</ele>
        <time>2024-12-01T14:01:43.492Z</time>
      </trkpt>
      <trkpt lat="43.67514" lon="7.01889">
        <ele>267.02002</ele>
        <time>2024-12-01T14:01:45.499Z</time>
      </trkpt>
      <trkpt lat="43.67518" lon="7.01883">
        <ele>266.97998</ele>
        <time>2024-12-01T14:01:47.501Z</time>
      </trkpt>
      <trkpt lat="43.67521" lon="7.01876">
        <ele>266.9</ele>
        <time>2024-12-01T14:01:49.222Z</time>
      </trkpt>
      <trkpt lat="43.67524" lon="7.01868">
        <ele>266.86</ele>
        <time>2024-12-01T14:01:51.508Z</time>
      </trkpt>
      <trkpt lat="43.67528" lon="7.0186">
        <ele>266.82</ele>
        <time>2024-12-01T14:01:53.512Z</time>
      </trkpt>
      <trkpt lat="43.67532" lon="7.01852">
        <ele>266.76</ele>
        <time>2024-12-01T14:01:55.516Z</time>
      </trkpt>
      <trkpt lat="43.67538" lon="7.01847">
        <ele>266.68</ele>
        <time>2024-12-01T14:01:57.520Z</time>
      </trkpt>
      <trkpt lat="43.67545" lon="7.01845">
        <ele>266.66</ele>
        <time>2024-12-01T14:01:59.523Z</time>
      </trkpt>
      <trkpt lat="43.67554" lon="7.01846">
        <ele>266.57</ele>
        <time>2024-12-01T14:02:01.527Z</time>
      </trkpt>
      <trkpt lat="43.67559" lon="7.01847">
        <ele>266.47</ele>
        <time>2024-12-01T14:02:02.640Z</time>
      </trkpt>
      <trkpt lat="43.67564" lon="7.01854">
        <ele>266.55</ele>
        <time>2024-12-01T14:02:04.617Z</time>
      </trkpt>
      <trkpt lat="43.67569" lon="7.01858">
        <ele>265.75</ele>
        <time>2024-12-01T14:02:07.539Z</time>
      </trkpt>
      <trkpt lat="43.67574" lon="7.01862">
        <ele>266</ele>
        <time>2024-12-01T14:02:09.543Z</time>
      </trkpt>
      <trkpt lat="43.67579" lon="7.01865">
        <ele>266.14</ele>
        <time>2024-12-01T14:02:11.548Z</time>
      </trkpt>
      <trkpt lat="43.67584" lon="7.01868">
        <ele>266.35</ele>
        <time>2024-12-01T14:02:13.550Z</time>
      </trkpt>
      <trkpt lat="43.67589" lon="7.0187">
        <ele>266.5</ele>
        <time>2024-12-01T14:02:14.649Z</time>
      </trkpt>
      <trkpt lat="43.67594" lon="7.01872">
        <ele>266.65</ele>
        <time>2024-12-01T14:02:17.557Z</time>
      </trkpt>
      <trkpt lat="43.67598" lon="7.01877">
        <ele>266.91998</ele>
        <time>2024-12-01T14:02:18.657Z</time>
      </trkpt>
      <trkpt lat="43.67601" lon="7.01881">
        <ele>267.13</ele>
        <time>2024-12-01T14:02:20.671Z</time>
      </trkpt>
      <trkpt lat="43.67602" lon="7.01882">
        <ele>267.22998</ele>
        <time>2024-12-01T14:02:22.901Z</time>
      </trkpt>
      <trkpt lat="43.67604" lon="7.01885">
        <ele>267.26</ele>
        <time>2024-12-01T14:02:24.699Z</time>
      </trkpt>
      <trkpt lat="43.67605" lon="7.01889">
        <ele>267.59</ele>
        <time>2024-12-01T14:02:35.202Z</time>
      </trkpt>
      <trkpt lat="43.67606" lon="7.01889">
        <ele>267.61</ele>
        <time>2024-12-01T14:02:37.180Z</time>
      </trkpt>
      <trkpt lat="43.67609" lon="7.01889">
        <ele>268.02002</ele>
        <time>2024-12-01T14:02:40.125Z</time>
      </trkpt>
      <trkpt lat="43.67618" lon="7.01884">
        <ele>267.02002</ele>
        <time>2024-12-01T14:02:42.131Z</time>
      </trkpt>
      <trkpt lat="43.67617" lon="7.01884">
        <ele>267.13</ele>
        <time>2024-12-01T14:02:42.182Z</time>
      </trkpt>
      <trkpt lat="43.67634" lon="7.01865">
        <ele>267.22</ele>
        <time>2024-12-01T14:02:46.150Z</time>
      </trkpt>
      <trkpt lat="43.67643" lon="7.01855">
        <ele>267.69</ele>
        <time>2024-12-01T14:02:47.193Z</time>
      </trkpt>
      <trkpt lat="43.67653" lon="7.01847">
        <ele>267.93</ele>
        <time>2024-12-01T14:02:50.147Z</time>
      </trkpt>
      <trkpt lat="43.67661" lon="7.01841">
        <ele>268.41998</ele>
        <time>2024-12-01T14:02:52.174Z</time>
      </trkpt>
      <trkpt lat="43.6767" lon="7.01833">
        <ele>268.76</ele>
        <time>2024-12-01T14:02:54.154Z</time>
      </trkpt>
      <trkpt lat="43.67678" lon="7.01826">
        <ele>269.28</ele>
        <time>2024-12-01T14:02:56.158Z</time>
      </trkpt>
      <trkpt lat="43.67686" lon="7.01817">
        <ele>269.78998</ele>
        <time>2024-12-01T14:02:58.161Z</time>
      </trkpt>
      <trkpt lat="43.67693" lon="7.01807">
        <ele>270.3</ele>
        <time>2024-12-01T14:03:00.166Z</time>
      </trkpt>
      <trkpt lat="43.67701" lon="7.01796">
        <ele>269.78998</ele>
        <time>2024-12-01T14:03:02.189Z</time>
      </trkpt>
      <trkpt lat="43.67706" lon="7.01786">
        <ele>270.47998</ele>
        <time>2024-12-01T14:03:04.176Z</time>
      </trkpt>
      <trkpt lat="43.6771" lon="7.01773">
        <ele>269.45</ele>
        <time>2024-12-01T14:03:06.144Z</time>
      </trkpt>
      <trkpt lat="43.67714" lon="7.0176">
        <ele>269.91998</ele>
        <time>2024-12-01T14:03:07.221Z</time>
      </trkpt>
      <trkpt lat="43.67716" lon="7.01747">
        <ele>269.1</ele>
        <time>2024-12-01T14:03:10.184Z</time>
      </trkpt>
      <trkpt lat="43.67719" lon="7.01735">
        <ele>269.24</ele>
        <time>2024-12-01T14:03:12.189Z</time>
      </trkpt>
      <trkpt lat="43.67721" lon="7.01732">
        <ele>268.36</ele>
        <time>2024-12-01T14:03:14.191Z</time>
      </trkpt>
      <trkpt lat="43.67727" lon="7.01724">
        <ele>268.49</ele>
        <time>2024-12-01T14:03:16.147Z</time>
      </trkpt>
      <trkpt lat="43.6773" lon="7.0172">
        <ele>268.62</ele>
        <time>2024-12-01T14:03:17.964Z</time>
      </trkpt>
      <trkpt lat="43.67732" lon="7.01716">
        <ele>268.77002</ele>
        <time>2024-12-01T14:03:20.203Z</time>
      </trkpt>
      <trkpt lat="43.67735" lon="7.01709">
        <ele>268.89</ele>
        <time>2024-12-01T14:03:22.195Z</time>
      </trkpt>
      <trkpt lat="43.67738" lon="7.01701">
        <ele>268.97</ele>
        <time>2024-12-01T14:03:24.210Z</time>
      </trkpt>
      <trkpt lat="43.6774" lon="7.01694">
        <ele>268.97998</ele>
        <time>2024-12-01T14:03:26.214Z</time>
      </trkpt>
      <trkpt lat="43.67743" lon="7.01687">
        <ele>269.26</ele>
        <time>2024-12-01T14:03:27.875Z</time>
      </trkpt>
      <trkpt lat="43.67746" lon="7.01679">
        <ele>269.71002</ele>
        <time>2024-12-01T14:03:30.221Z</time>
      </trkpt>
      <trkpt lat="43.67749" lon="7.0167">
        <ele>270.13</ele>
        <time>2024-12-01T14:03:31.866Z</time>
      </trkpt>
      <trkpt lat="43.67751" lon="7.01662">
        <ele>270.44</ele>
        <time>2024-12-01T14:03:33.896Z</time>
      </trkpt>
      <trkpt lat="43.67755" lon="7.01653">
        <ele>269.71002</ele>
        <time>2024-12-01T14:03:35.823Z</time>
      </trkpt>
      <trkpt lat="43.67759" lon="7.01644">
        <ele>270.24</ele>
        <time>2024-12-01T14:03:38.253Z</time>
      </trkpt>
      <trkpt lat="43.67761" lon="7.01636">
        <ele>270.69</ele>
        <time>2024-12-01T14:03:40.164Z</time>
      </trkpt>
      <trkpt lat="43.67764" lon="7.0163">
        <ele>270.91</ele>
        <time>2024-12-01T14:03:41.848Z</time>
      </trkpt>
      <trkpt lat="43.67767" lon="7.01622">
        <ele>271.12</ele>
        <time>2024-12-01T14:03:43.804Z</time>
      </trkpt>
      <trkpt lat="43.6777" lon="7.01614">
        <ele>271.39</ele>
        <time>2024-12-01T14:03:45.840Z</time>
      </trkpt>
      <trkpt lat="43.67772" lon="7.01605">
        <ele>271.86</ele>
        <time>2024-12-01T14:03:48.256Z</time>
      </trkpt>
      <trkpt lat="43.67772" lon="7.01594">
        <ele>272.19</ele>
        <time>2024-12-01T14:03:49.863Z</time>
      </trkpt>
      <trkpt lat="43.67774" lon="7.01586">
        <ele>272.39</ele>
        <time>2024-12-01T14:03:51.847Z</time>
      </trkpt>
      <trkpt lat="43.67774" lon="7.01581">
        <ele>272.52002</ele>
        <time>2024-12-01T14:03:54.304Z</time>
      </trkpt>
      <trkpt lat="43.67774" lon="7.01577">
        <ele>272.96002</ele>
        <time>2024-12-01T14:04:06.917Z</time>
      </trkpt>
      <trkpt lat="43.67774" lon="7.01572">
        <ele>273.9</ele>
        <time>2024-12-01T14:04:09.398Z</time>
      </trkpt>
      <trkpt lat="43.67774" lon="7.0157">
        <ele>274.02002</ele>
        <time>2024-12-01T14:04:10.926Z</time>
      </trkpt>
      <trkpt lat="43.67774" lon="7.01567">
        <ele>274.13</ele>
        <time>2024-12-01T14:04:13.407Z</time>
      </trkpt>
      <trkpt lat="43.67773" lon="7.01564">
        <ele>274.24</ele>
        <time>2024-12-01T14:04:15.411Z</time>
      </trkpt>
      <trkpt lat="43.67773" lon="7.0156">
        <ele>274.35</ele>
        <time>2024-12-01T14:04:17.417Z</time>
      </trkpt>
      <trkpt lat="43.67773" lon="7.01556">
        <ele>276.3</ele>
        <time>2024-12-01T14:04:19.418Z</time>
      </trkpt>
      <trkpt lat="43.67772" lon="7.01551">
        <ele>274.56</ele>
        <time>2024-12-01T14:04:21.425Z</time>
      </trkpt>
      <trkpt lat="43.67772" lon="7.01548">
        <ele>274.65</ele>
        <time>2024-12-01T14:04:23.427Z</time>
      </trkpt>
      <trkpt lat="43.67771" lon="7.01546">
        <ele>274.74</ele>
        <time>2024-12-01T14:04:25.431Z</time>
      </trkpt>
      <trkpt lat="43.6777" lon="7.0154">
        <ele>274.93</ele>
        <time>2024-12-01T14:04:28.474Z</time>
      </trkpt>
      <trkpt lat="43.67769" lon="7.01536">
        <ele>275.01</ele>
        <time>2024-12-01T14:04:31.442Z</time>
      </trkpt>
      <trkpt lat="43.67769" lon="7.01535">
        <ele>274.56</ele>
        <time>2024-12-01T14:04:33.446Z</time>
      </trkpt>
      <trkpt lat="43.67768" lon="7.01523">
        <ele>274.71002</ele>
        <time>2024-12-01T14:04:35.451Z</time>
      </trkpt>
      <trkpt lat="43.67768" lon="7.01517">
        <ele>274.87</ele>
        <time>2024-12-01T14:04:37.457Z</time>
      </trkpt>
      <trkpt lat="43.67768" lon="7.01512">
        <ele>274.99</ele>
        <time>2024-12-01T14:04:39.459Z</time>
      </trkpt>
      <trkpt lat="43.6777" lon="7.01497">
        <ele>277.6</ele>
        <time>2024-12-01T14:05:07.450Z</time>
      </trkpt>
      <trkpt lat="43.67771" lon="7.0149">
        <ele>277.6</ele>
        <time>2024-12-01T14:05:16.422Z</time>
      </trkpt>
      <trkpt lat="43.67772" lon="7.01481">
        <ele>277.8</ele>
        <time>2024-12-01T14:05:17.509Z</time>
      </trkpt>
      <trkpt lat="43.67776" lon="7.01473">
        <ele>277.4</ele>
      </trkpt>
    </trkseg>
  </trk>
</gpx>